<?xml version='1.0' encoding='UTF-8'?><gpx version="1.1" creator="JPX - https://github.com/jenetics/jpx" xmlns="http://www.topografix.com/GPX/1/1"><trk><trkseg><trkpt lat="42.7773366" lon="12.4115187"><ele>300.0</ele><time>2026-03-28T12:28:01.458Z</time></trkpt><trkpt lat="42.7774594" lon="12.4114353"><ele>300.0</ele><time>2026-03-28T12:28:10.468Z</time></trkpt><trkpt lat="42.7775261" lon="12.4114423"><ele>300.0</ele><time>2026-03-28T12:28:12.475Z</time></trkpt><trkpt lat="42.7775297" lon="12.4113005"><ele>300.0</ele><time>2026-03-28T12:28:14.465Z</time></trkpt><trkpt lat="42.7775347" lon="12.4111841"><ele>300.0</ele><time>2026-03-28T12:28:16.462Z</time></trkpt><trkpt lat="42.7776061" lon="12.4111451"><ele>300.3333333333333</ele><time>2026-03-28T12:28:18.46Z</time></trkpt><trkpt lat="42.7776716" lon="12.4111582"><ele>300.6666666666667</ele><time>2026-03-28T12:28:19.469Z</time></trkpt><trkpt lat="42.7777281" lon="12.4112024"><ele>301.0</ele><time>2026-03-28T12:28:20.464Z</time></trkpt><trkpt lat="42.7777679" lon="12.4112821"><ele>301.33333333333337</ele><time>2026-03-28T12:28:21.465Z</time></trkpt><trkpt lat="42.7777947" lon="12.4113866"><ele>301.6666666666667</ele><time>2026-03-28T12:28:22.473Z</time></trkpt><trkpt lat="42.7778059" lon="12.4115029"><ele>302.0</ele><time>2026-03-28T12:28:23.459Z</time></trkpt><trkpt lat="42.7778088" lon="12.4116275"><ele>305.6666666666667</ele><time>2026-03-28T12:28:24.471Z</time></trkpt><trkpt lat="42.7778151" lon="12.4117375"><ele>309.33333333333337</ele><time>2026-03-28T12:28:25.467Z</time></trkpt><trkpt lat="42.7779042" lon="12.4118178"><ele>313.0</ele><time>2026-03-28T12:28:27.464Z</time></trkpt><trkpt lat="42.7779634" lon="12.4117731"><ele>316.6666666666667</ele><time>2026-03-28T12:28:28.46Z</time></trkpt><trkpt lat="42.7780062" lon="12.4116881"><ele>320.3333333333333</ele><time>2026-03-28T12:28:29.489Z</time></trkpt><trkpt lat="42.7780209" lon="12.4115824"><ele>324.0</ele><time>2026-03-28T12:28:30.455Z</time></trkpt><trkpt lat="42.7780334" lon="12.4114648"><ele>324.0</ele><time>2026-03-28T12:28:31.477Z</time></trkpt><trkpt lat="42.7780928" lon="12.4113812"><ele>324.0</ele><time>2026-03-28T12:28:32.468Z</time></trkpt><trkpt lat="42.778186" lon="12.4113743"><ele>324.0</ele><time>2026-03-28T12:28:33.467Z</time></trkpt><trkpt lat="42.7782736" lon="12.4114259"><ele>324.0</ele><time>2026-03-28T12:28:34.475Z</time></trkpt><trkpt lat="42.7783647" lon="12.4114906"><ele>324.0</ele><time>2026-03-28T12:28:35.473Z</time></trkpt><trkpt lat="42.7784624" lon="12.4114846"><ele>326.6666666666667</ele><time>2026-03-28T12:28:36.465Z</time></trkpt><trkpt lat="42.7785424" lon="12.4114012"><ele>329.3333333333333</ele><time>2026-03-28T12:28:37.474Z</time></trkpt><trkpt lat="42.7785996" lon="12.4112821"><ele>332.0</ele><time>2026-03-28T12:28:38.456Z</time></trkpt><trkpt lat="42.7786287" lon="12.4111831"><ele>334.66666666666663</ele><time>2026-03-28T12:28:39.466Z</time></trkpt><trkpt lat="42.778668" lon="12.4111065"><ele>337.3333333333333</ele><time>2026-03-28T12:28:41.461Z</time></trkpt><trkpt lat="42.7787043" lon="12.4110312"><ele>340.0</ele><time>2026-03-28T12:28:43.46Z</time></trkpt><trkpt lat="42.7787451" lon="12.4108575"><ele>340.4</ele><time>2026-03-28T12:28:45.46Z</time></trkpt><trkpt lat="42.7787445" lon="12.4107362"><ele>340.8</ele><time>2026-03-28T12:28:46.474Z</time></trkpt><trkpt lat="42.7787339" lon="12.4105963"><ele>341.20000000000005</ele><time>2026-03-28T12:28:47.47Z</time></trkpt><trkpt lat="42.778718" lon="12.4104416"><ele>341.6</ele><time>2026-03-28T12:28:48.49Z</time></trkpt><trkpt lat="42.7787071" lon="12.4102788"><ele>342.0</ele><time>2026-03-28T12:28:49.465Z</time></trkpt><trkpt lat="42.7786877" lon="12.410103"><ele>342.5</ele><time>2026-03-28T12:28:50.463Z</time></trkpt><trkpt lat="42.7786631" lon="12.4099145"><ele>343.0</ele><time>2026-03-28T12:28:51.463Z</time></trkpt><trkpt lat="42.7786288" lon="12.4097246"><ele>343.5</ele><time>2026-03-28T12:28:52.461Z</time></trkpt><trkpt lat="42.7785887" lon="12.4095214"><ele>344.0</ele><time>2026-03-28T12:28:53.465Z</time></trkpt><trkpt lat="42.7785451" lon="12.4093123"><ele>335.5</ele><time>2026-03-28T12:28:54.46Z</time></trkpt><trkpt lat="42.7784982" lon="12.4091011"><ele>327.0</ele><time>2026-03-28T12:28:55.465Z</time></trkpt><trkpt lat="42.7784082" lon="12.4086872"><ele>327.0</ele><time>2026-03-28T12:28:57.493Z</time></trkpt><trkpt lat="42.7783572" lon="12.4084898"><ele>327.0</ele><time>2026-03-28T12:28:58.476Z</time></trkpt><trkpt lat="42.7782902" lon="12.4082922"><ele>327.0</ele><time>2026-03-28T12:28:59.476Z</time></trkpt><trkpt lat="42.7782102" lon="12.4080851"><ele>328.5</ele><time>2026-03-28T12:29:00.465Z</time></trkpt><trkpt lat="42.7781311" lon="12.4079001"><ele>330.0</ele><time>2026-03-28T12:29:01.48Z</time></trkpt><trkpt lat="42.7780608" lon="12.4077324"><ele>331.5</ele><time>2026-03-28T12:29:02.47Z</time></trkpt><trkpt lat="42.77802" lon="12.4075497"><ele>333.0</ele><time>2026-03-28T12:29:03.487Z</time></trkpt><trkpt lat="42.7780099" lon="12.4073359"><ele>334.6666666666667</ele><time>2026-03-28T12:29:04.474Z</time></trkpt><trkpt lat="42.7780234" lon="12.4071005"><ele>336.33333333333337</ele><time>2026-03-28T12:29:05.467Z</time></trkpt><trkpt lat="42.7780482" lon="12.4068575"><ele>338.0</ele><time>2026-03-28T12:29:06.467Z</time></trkpt><trkpt lat="42.7780758" lon="12.4066105"><ele>338.0</ele><time>2026-03-28T12:29:07.474Z</time></trkpt><trkpt lat="42.7781019" lon="12.4063596"><ele>338.0</ele><time>2026-03-28T12:29:08.461Z</time></trkpt><trkpt lat="42.778128" lon="12.4061163"><ele>338.0</ele><time>2026-03-28T12:29:09.478Z</time></trkpt><trkpt lat="42.7781515" lon="12.405894"><ele>338.79999999999995</ele><time>2026-03-28T12:29:10.462Z</time></trkpt><trkpt lat="42.7781666" lon="12.4057036"><ele>339.6</ele><time>2026-03-28T12:29:11.468Z</time></trkpt><trkpt lat="42.7781715" lon="12.4055588"><ele>340.4</ele><time>2026-03-28T12:29:12.466Z</time></trkpt><trkpt lat="42.7781703" lon="12.4054443"><ele>341.20000000000005</ele><time>2026-03-28T12:29:13.46Z</time></trkpt><trkpt lat="42.778149" lon="12.4053611"><ele>342.0</ele><time>2026-03-28T12:29:14.456Z</time></trkpt><trkpt lat="42.7780667" lon="12.4052928"><ele>342.0</ele><time>2026-03-28T12:29:16.468Z</time></trkpt><trkpt lat="42.7779995" lon="12.4053479"><ele>342.0</ele><time>2026-03-28T12:29:18.466Z</time></trkpt><trkpt lat="42.777993" lon="12.405435"><ele>342.0</ele><time>2026-03-28T12:29:23.486Z</time></trkpt><trkpt lat="42.7780195" lon="12.4055386"><ele>342.0</ele><time>2026-03-28T12:33:15.649Z</time></trkpt><trkpt lat="42.7780783" lon="12.4055926"><ele>342.0</ele><time>2026-03-28T12:33:17.649Z</time></trkpt><trkpt lat="42.7781063" lon="12.4057551"><ele>342.0</ele><time>2026-03-28T12:33:19.663Z</time></trkpt><trkpt lat="42.7781014" lon="12.4058747"><ele>342.0</ele><time>2026-03-28T12:33:20.648Z</time></trkpt><trkpt lat="42.7780946" lon="12.4060053"><ele>342.0</ele><time>2026-03-28T12:33:21.64Z</time></trkpt><trkpt lat="42.7780796" lon="12.4061531"><ele>342.0</ele><time>2026-03-28T12:33:22.663Z</time></trkpt><trkpt lat="42.7780557" lon="12.4063298"><ele>342.0</ele><time>2026-03-28T12:33:23.643Z</time></trkpt><trkpt lat="42.7780358" lon="12.4065328"><ele>340.6666666666667</ele><time>2026-03-28T12:33:24.645Z</time></trkpt><trkpt lat="42.778024" lon="12.406754"><ele>339.33333333333337</ele><time>2026-03-28T12:33:25.636Z</time></trkpt><trkpt lat="42.7780132" lon="12.4069569"><ele>338.0</ele><time>2026-03-28T12:33:26.675Z</time></trkpt><trkpt lat="42.7780062" lon="12.407152"><ele>337.0</ele><time>2026-03-28T12:33:27.662Z</time></trkpt><trkpt lat="42.777998" lon="12.407321"><ele>336.0</ele><time>2026-03-28T12:33:28.653Z</time></trkpt><trkpt lat="42.777991" lon="12.4074703"><ele>335.0</ele><time>2026-03-28T12:33:29.642Z</time></trkpt><trkpt lat="42.7779884" lon="12.4075975"><ele>334.0</ele><time>2026-03-28T12:33:30.661Z</time></trkpt><trkpt lat="42.7779839" lon="12.4077038"><ele>333.0</ele><time>2026-03-28T12:33:31.651Z</time></trkpt><trkpt lat="42.777957" lon="12.4077918"><ele>333.0</ele><time>2026-03-28T12:33:32.652Z</time></trkpt><trkpt lat="42.7779141" lon="12.407875"><ele>333.0</ele><time>2026-03-28T12:33:33.646Z</time></trkpt><trkpt lat="42.7778594" lon="12.4079475"><ele>333.0</ele><time>2026-03-28T12:33:34.65Z</time></trkpt><trkpt lat="42.7777956" lon="12.4080044"><ele>333.0</ele><time>2026-03-28T12:33:35.659Z</time></trkpt><trkpt lat="42.7777322" lon="12.4080612"><ele>333.0</ele><time>2026-03-28T12:33:36.646Z</time></trkpt><trkpt lat="42.7776644" lon="12.4081131"><ele>333.0</ele><time>2026-03-28T12:33:37.669Z</time></trkpt><trkpt lat="42.7775962" lon="12.4081656"><ele>330.0</ele><time>2026-03-28T12:33:38.654Z</time></trkpt><trkpt lat="42.7775297" lon="12.4082152"><ele>327.0</ele><time>2026-03-28T12:33:39.653Z</time></trkpt><trkpt lat="42.777462" lon="12.4082607"><ele>324.0</ele><time>2026-03-28T12:33:40.654Z</time></trkpt><trkpt lat="42.7773944" lon="12.4083069"><ele>321.0</ele><time>2026-03-28T12:33:41.657Z</time></trkpt><trkpt lat="42.7773268" lon="12.4083548"><ele>318.0</ele><time>2026-03-28T12:33:42.67Z</time></trkpt><trkpt lat="42.7772607" lon="12.4083998"><ele>315.0</ele><time>2026-03-28T12:33:43.667Z</time></trkpt><trkpt lat="42.7771901" lon="12.4084423"><ele>315.0</ele><time>2026-03-28T12:33:44.643Z</time></trkpt><trkpt lat="42.7771284" lon="12.4084855"><ele>315.0</ele><time>2026-03-28T12:33:45.653Z</time></trkpt><trkpt lat="42.7770657" lon="12.4085306"><ele>315.0</ele><time>2026-03-28T12:33:46.665Z</time></trkpt><trkpt lat="42.7770024" lon="12.4085731"><ele>315.0</ele><time>2026-03-28T12:33:47.662Z</time></trkpt><trkpt lat="42.7769375" lon="12.4086187"><ele>315.0</ele><time>2026-03-28T12:33:48.66Z</time></trkpt><trkpt lat="42.7768718" lon="12.4086677"><ele>315.0</ele><time>2026-03-28T12:33:49.659Z</time></trkpt><trkpt lat="42.7768047" lon="12.4087197"><ele>315.0</ele><time>2026-03-28T12:33:50.647Z</time></trkpt><trkpt lat="42.7767309" lon="12.4087685"><ele>312.6666666666667</ele><time>2026-03-28T12:33:51.665Z</time></trkpt><trkpt lat="42.7766601" lon="12.40882"><ele>310.3333333333333</ele><time>2026-03-28T12:33:52.655Z</time></trkpt><trkpt lat="42.7765879" lon="12.408872"><ele>308.0</ele><time>2026-03-28T12:33:53.654Z</time></trkpt><trkpt lat="42.7765127" lon="12.4089202"><ele>305.66666666666663</ele><time>2026-03-28T12:33:54.66Z</time></trkpt><trkpt lat="42.7764374" lon="12.4089683"><ele>303.3333333333333</ele><time>2026-03-28T12:33:55.669Z</time></trkpt><trkpt lat="42.7763606" lon="12.4090179"><ele>301.0</ele><time>2026-03-28T12:33:56.661Z</time></trkpt><trkpt lat="42.7762836" lon="12.4090643"><ele>300.8333333333333</ele><time>2026-03-28T12:33:57.65Z</time></trkpt><trkpt lat="42.7762095" lon="12.4091074"><ele>300.66666666666663</ele><time>2026-03-28T12:33:58.655Z</time></trkpt><trkpt lat="42.7761355" lon="12.4091462"><ele>300.5</ele><time>2026-03-28T12:33:59.65Z</time></trkpt><trkpt lat="42.7760613" lon="12.4091885"><ele>300.3333333333333</ele><time>2026-03-28T12:34:00.652Z</time></trkpt><trkpt lat="42.7759828" lon="12.4092415"><ele>300.1666666666667</ele><time>2026-03-28T12:34:01.645Z</time></trkpt><trkpt lat="42.7758799" lon="12.4092999"><ele>300.0</ele><time>2026-03-28T12:34:02.669Z</time></trkpt><trkpt lat="42.7757598" lon="12.4093864"><ele>297.0</ele><time>2026-03-28T12:34:03.665Z</time></trkpt><trkpt lat="42.7756282" lon="12.409481"><ele>294.0</ele><time>2026-03-28T12:34:04.653Z</time></trkpt><trkpt lat="42.7754966" lon="12.4095744"><ele>291.0</ele><time>2026-03-28T12:34:05.66Z</time></trkpt><trkpt lat="42.7753679" lon="12.4096806"><ele>288.0</ele><time>2026-03-28T12:34:06.655Z</time></trkpt><trkpt lat="42.7752427" lon="12.4097806"><ele>283.0</ele><time>2026-03-28T12:34:07.66Z</time></trkpt><trkpt lat="42.7751246" lon="12.4098795"><ele>278.0</ele><time>2026-03-28T12:34:08.66Z</time></trkpt><trkpt lat="42.7749998" lon="12.4099712"><ele>273.0</ele><time>2026-03-28T12:34:09.657Z</time></trkpt><trkpt lat="42.7748749" lon="12.4100661"><ele>268.0</ele><time>2026-03-28T12:34:10.65Z</time></trkpt><trkpt lat="42.7747423" lon="12.4101657"><ele>268.0</ele><time>2026-03-28T12:34:11.658Z</time></trkpt><trkpt lat="42.7745928" lon="12.4102667"><ele>268.0</ele><time>2026-03-28T12:34:12.653Z</time></trkpt><trkpt lat="42.7744392" lon="12.410373"><ele>268.0</ele><time>2026-03-28T12:34:13.651Z</time></trkpt><trkpt lat="42.7742842" lon="12.4104779"><ele>262.66666666666663</ele><time>2026-03-28T12:34:14.643Z</time></trkpt><trkpt lat="42.7741165" lon="12.4105872"><ele>257.3333333333333</ele><time>2026-03-28T12:34:15.65Z</time></trkpt><trkpt lat="42.7739496" lon="12.4107021"><ele>252.0</ele><time>2026-03-28T12:34:16.647Z</time></trkpt><trkpt lat="42.7737876" lon="12.4108164"><ele>252.0</ele><time>2026-03-28T12:34:17.652Z</time></trkpt><trkpt lat="42.773626" lon="12.4109297"><ele>252.0</ele><time>2026-03-28T12:34:18.648Z</time></trkpt><trkpt lat="42.7734659" lon="12.4110407"><ele>252.0</ele><time>2026-03-28T12:34:19.65Z</time></trkpt><trkpt lat="42.7733085" lon="12.4111503"><ele>247.66666666666669</ele><time>2026-03-28T12:34:20.644Z</time></trkpt><trkpt lat="42.7731453" lon="12.4112664"><ele>243.33333333333334</ele><time>2026-03-28T12:34:21.647Z</time></trkpt><trkpt lat="42.7729775" lon="12.4113833"><ele>239.0</ele><time>2026-03-28T12:34:22.646Z</time></trkpt><trkpt lat="42.7728057" lon="12.4115026"><ele>233.0</ele><time>2026-03-28T12:34:23.671Z</time></trkpt><trkpt lat="42.7726291" lon="12.4116218"><ele>227.0</ele><time>2026-03-28T12:34:24.668Z</time></trkpt><trkpt lat="42.7724481" lon="12.4117458"><ele>221.0</ele><time>2026-03-28T12:34:25.654Z</time></trkpt><trkpt lat="42.7722737" lon="12.4118702"><ele>221.0</ele><time>2026-03-28T12:34:26.658Z</time></trkpt><trkpt lat="42.7721021" lon="12.4119939"><ele>221.0</ele><time>2026-03-28T12:34:27.655Z</time></trkpt><trkpt lat="42.7719228" lon="12.4121194"><ele>221.0</ele><time>2026-03-28T12:34:28.642Z</time></trkpt><trkpt lat="42.7717379" lon="12.4122432"><ele>216.33333333333334</ele><time>2026-03-28T12:34:29.652Z</time></trkpt><trkpt lat="42.7715483" lon="12.4123762"><ele>211.66666666666669</ele><time>2026-03-28T12:34:30.682Z</time></trkpt><trkpt lat="42.7713549" lon="12.4125141"><ele>207.0</ele><time>2026-03-28T12:34:31.64Z</time></trkpt><trkpt lat="42.771164" lon="12.4126509"><ele>203.66666666666669</ele><time>2026-03-28T12:34:32.643Z</time></trkpt><trkpt lat="42.7709704" lon="12.4127863"><ele>200.33333333333334</ele><time>2026-03-28T12:34:33.655Z</time></trkpt><trkpt lat="42.7707805" lon="12.4129223"><ele>197.0</ele><time>2026-03-28T12:34:34.644Z</time></trkpt><trkpt lat="42.7705912" lon="12.413058"><ele>196.33333333333334</ele><time>2026-03-28T12:34:35.651Z</time></trkpt><trkpt lat="42.7704096" lon="12.4131872"><ele>195.66666666666669</ele><time>2026-03-28T12:34:36.651Z</time></trkpt><trkpt lat="42.7702345" lon="12.4133088"><ele>195.0</ele><time>2026-03-28T12:34:37.677Z</time></trkpt><trkpt lat="42.7700625" lon="12.4134345"><ele>190.33333333333334</ele><time>2026-03-28T12:34:38.675Z</time></trkpt><trkpt lat="42.7698818" lon="12.4135593"><ele>185.66666666666669</ele><time>2026-03-28T12:34:39.669Z</time></trkpt><trkpt lat="42.769686" lon="12.4136896"><ele>181.0</ele><time>2026-03-28T12:34:40.647Z</time></trkpt><trkpt lat="42.7694815" lon="12.4138324"><ele>173.5</ele><time>2026-03-28T12:34:41.655Z</time></trkpt><trkpt lat="42.7692764" lon="12.4139749"><ele>166.0</ele><time>2026-03-28T12:34:42.675Z</time></trkpt><trkpt lat="42.769075" lon="12.4141236"><ele>166.0</ele><time>2026-03-28T12:34:43.673Z</time></trkpt><trkpt lat="42.7688647" lon="12.4142814"><ele>166.0</ele><time>2026-03-28T12:34:44.665Z</time></trkpt><trkpt lat="42.7686549" lon="12.414434"><ele>166.66666666666669</ele><time>2026-03-28T12:34:45.654Z</time></trkpt><trkpt lat="42.7684554" lon="12.4145732"><ele>167.33333333333334</ele><time>2026-03-28T12:34:46.659Z</time></trkpt><trkpt lat="42.7682672" lon="12.4146979"><ele>168.0</ele><time>2026-03-28T12:34:47.676Z</time></trkpt><trkpt lat="42.7680822" lon="12.4148078"><ele>168.0</ele><time>2026-03-28T12:34:48.655Z</time></trkpt><trkpt lat="42.7679003" lon="12.4148828"><ele>168.0</ele><time>2026-03-28T12:34:49.692Z</time></trkpt><trkpt lat="42.7677219" lon="12.4149338"><ele>168.0</ele><time>2026-03-28T12:34:50.649Z</time></trkpt><trkpt lat="42.7675482" lon="12.4149647"><ele>168.0</ele><time>2026-03-28T12:34:51.664Z</time></trkpt><trkpt lat="42.7673878" lon="12.4149851"><ele>168.0</ele><time>2026-03-28T12:34:52.649Z</time></trkpt><trkpt lat="42.7672535" lon="12.4149919"><ele>168.0</ele><time>2026-03-28T12:34:53.648Z</time></trkpt><trkpt lat="42.7671297" lon="12.4149769"><ele>168.0</ele><time>2026-03-28T12:34:54.648Z</time></trkpt><trkpt lat="42.7670106" lon="12.4149328"><ele>168.0</ele><time>2026-03-28T12:34:55.646Z</time></trkpt><trkpt lat="42.7668907" lon="12.4148324"><ele>168.0</ele><time>2026-03-28T12:34:56.647Z</time></trkpt><trkpt lat="42.7667622" lon="12.4146951"><ele>168.0</ele><time>2026-03-28T12:34:57.673Z</time></trkpt><trkpt lat="42.7666263" lon="12.4145299"><ele>166.33333333333334</ele><time>2026-03-28T12:34:58.667Z</time></trkpt><trkpt lat="42.7664842" lon="12.4143572"><ele>164.66666666666669</ele><time>2026-03-28T12:34:59.673Z</time></trkpt><trkpt lat="42.76634" lon="12.4141749"><ele>163.0</ele><time>2026-03-28T12:35:00.655Z</time></trkpt><trkpt lat="42.7661759" lon="12.4140019"><ele>162.66666666666669</ele><time>2026-03-28T12:35:01.661Z</time></trkpt><trkpt lat="42.7659908" lon="12.4138445"><ele>162.33333333333334</ele><time>2026-03-28T12:35:02.652Z</time></trkpt><trkpt lat="42.7658019" lon="12.4137039"><ele>162.0</ele><time>2026-03-28T12:35:03.655Z</time></trkpt><trkpt lat="42.7656061" lon="12.4135664"><ele>162.0</ele><time>2026-03-28T12:35:04.646Z</time></trkpt><trkpt lat="42.7654081" lon="12.4134376"><ele>162.0</ele><time>2026-03-28T12:35:05.665Z</time></trkpt><trkpt lat="42.7652034" lon="12.4133203"><ele>162.0</ele><time>2026-03-28T12:35:06.648Z</time></trkpt><trkpt lat="42.7649994" lon="12.4132146"><ele>162.0</ele><time>2026-03-28T12:35:07.665Z</time></trkpt><trkpt lat="42.7647976" lon="12.4131135"><ele>162.0</ele><time>2026-03-28T12:35:08.642Z</time></trkpt><trkpt lat="42.7645967" lon="12.4130283"><ele>162.0</ele><time>2026-03-28T12:35:09.645Z</time></trkpt><trkpt lat="42.7643886" lon="12.4129758"><ele>162.0</ele><time>2026-03-28T12:35:10.657Z</time></trkpt><trkpt lat="42.7641767" lon="12.4129607"><ele>162.0</ele><time>2026-03-28T12:35:11.649Z</time></trkpt><trkpt lat="42.7639694" lon="12.4129745"><ele>162.0</ele><time>2026-03-28T12:35:12.689Z</time></trkpt><trkpt lat="42.7637646" lon="12.4129923"><ele>162.0</ele><time>2026-03-28T12:35:13.65Z</time></trkpt><trkpt lat="42.7635564" lon="12.4129945"><ele>162.0</ele><time>2026-03-28T12:35:14.65Z</time></trkpt><trkpt lat="42.7633536" lon="12.4129885"><ele>162.0</ele><time>2026-03-28T12:35:15.655Z</time></trkpt><trkpt lat="42.7631536" lon="12.4129855"><ele>162.0</ele><time>2026-03-28T12:35:16.645Z</time></trkpt><trkpt lat="42.7629633" lon="12.4129753"><ele>162.0</ele><time>2026-03-28T12:35:17.657Z</time></trkpt><trkpt lat="42.762772" lon="12.4129574"><ele>162.0</ele><time>2026-03-28T12:35:18.667Z</time></trkpt><trkpt lat="42.7625888" lon="12.4129422"><ele>162.66666666666666</ele><time>2026-03-28T12:35:19.649Z</time></trkpt><trkpt lat="42.762415" lon="12.4129345"><ele>163.33333333333331</ele><time>2026-03-28T12:35:20.648Z</time></trkpt><trkpt lat="42.7622582" lon="12.412944"><ele>164.0</ele><time>2026-03-28T12:35:21.656Z</time></trkpt><trkpt lat="42.7621084" lon="12.4129697"><ele>163.75</ele><time>2026-03-28T12:35:22.667Z</time></trkpt><trkpt lat="42.7619694" lon="12.4130016"><ele>163.5</ele><time>2026-03-28T12:35:23.679Z</time></trkpt><trkpt lat="42.7618473" lon="12.4130252"><ele>163.25</ele><time>2026-03-28T12:35:24.641Z</time></trkpt><trkpt lat="42.7617431" lon="12.4130326"><ele>163.0</ele><time>2026-03-28T12:35:25.661Z</time></trkpt><trkpt lat="42.7616594" lon="12.4130112"><ele>164.0</ele><time>2026-03-28T12:35:26.644Z</time></trkpt><trkpt lat="42.7616027" lon="12.4129559"><ele>165.0</ele><time>2026-03-28T12:35:27.663Z</time></trkpt><trkpt lat="42.7615504" lon="12.4128589"><ele>166.0</ele><time>2026-03-28T12:35:28.643Z</time></trkpt><trkpt lat="42.7614879" lon="12.4127308"><ele>167.0</ele><time>2026-03-28T12:35:29.674Z</time></trkpt><trkpt lat="42.7614114" lon="12.412597"><ele>168.0</ele><time>2026-03-28T12:35:30.651Z</time></trkpt><trkpt lat="42.761327" lon="12.4124483"><ele>168.0</ele><time>2026-03-28T12:35:31.647Z</time></trkpt><trkpt lat="42.7612374" lon="12.4122731"><ele>168.0</ele><time>2026-03-28T12:35:32.662Z</time></trkpt><trkpt lat="42.7611433" lon="12.4120804"><ele>168.0</ele><time>2026-03-28T12:35:33.655Z</time></trkpt><trkpt lat="42.7610498" lon="12.41187"><ele>168.0</ele><time>2026-03-28T12:35:34.654Z</time></trkpt><trkpt lat="42.7609706" lon="12.411669"><ele>168.0</ele><time>2026-03-28T12:35:35.655Z</time></trkpt><trkpt lat="42.7608984" lon="12.4114808"><ele>168.0</ele><time>2026-03-28T12:35:36.654Z</time></trkpt><trkpt lat="42.7608243" lon="12.4113077"><ele>168.0</ele><time>2026-03-28T12:35:37.671Z</time></trkpt><trkpt lat="42.7607343" lon="12.4111757"><ele>168.0</ele><time>2026-03-28T12:35:38.652Z</time></trkpt><trkpt lat="42.7606258" lon="12.4110913"><ele>168.0</ele><time>2026-03-28T12:35:39.665Z</time></trkpt><trkpt lat="42.7604934" lon="12.4110376"><ele>168.0</ele><time>2026-03-28T12:35:40.64Z</time></trkpt><trkpt lat="42.7603563" lon="12.4110152"><ele>168.0</ele><time>2026-03-28T12:35:41.684Z</time></trkpt><trkpt lat="42.7602216" lon="12.4110017"><ele>168.0</ele><time>2026-03-28T12:35:42.657Z</time></trkpt><trkpt lat="42.760086" lon="12.4109979"><ele>168.0</ele><time>2026-03-28T12:35:43.656Z</time></trkpt><trkpt lat="42.7599565" lon="12.4109924"><ele>168.0</ele><time>2026-03-28T12:35:44.653Z</time></trkpt><trkpt lat="42.7598252" lon="12.4109806"><ele>168.25</ele><time>2026-03-28T12:35:45.655Z</time></trkpt><trkpt lat="42.759692" lon="12.4109742"><ele>168.5</ele><time>2026-03-28T12:35:46.655Z</time></trkpt><trkpt lat="42.759555" lon="12.4109714"><ele>168.75</ele><time>2026-03-28T12:35:47.647Z</time></trkpt><trkpt lat="42.7594111" lon="12.4109678"><ele>169.0</ele><time>2026-03-28T12:35:48.656Z</time></trkpt><trkpt lat="42.7592499" lon="12.4109666"><ele>169.33333333333334</ele><time>2026-03-28T12:35:49.653Z</time></trkpt><trkpt lat="42.7590756" lon="12.4109653"><ele>169.66666666666666</ele><time>2026-03-28T12:35:50.654Z</time></trkpt><trkpt lat="42.7588803" lon="12.4109518"><ele>170.0</ele><time>2026-03-28T12:35:51.656Z</time></trkpt><trkpt lat="42.7586677" lon="12.4109237"><ele>170.5</ele><time>2026-03-28T12:35:52.655Z</time></trkpt><trkpt lat="42.7584407" lon="12.4108844"><ele>171.0</ele><time>2026-03-28T12:35:53.669Z</time></trkpt><trkpt lat="42.7582016" lon="12.4108429"><ele>171.0</ele><time>2026-03-28T12:35:54.682Z</time></trkpt><trkpt lat="42.7579588" lon="12.4107906"><ele>171.0</ele><time>2026-03-28T12:35:55.662Z</time></trkpt><trkpt lat="42.7577226" lon="12.4107384"><ele>171.0</ele><time>2026-03-28T12:35:56.679Z</time></trkpt><trkpt lat="42.757498" lon="12.4107079"><ele>171.0</ele><time>2026-03-28T12:35:57.684Z</time></trkpt><trkpt lat="42.7572839" lon="12.4107121"><ele>171.0</ele><time>2026-03-28T12:35:58.672Z</time></trkpt><trkpt lat="42.7570698" lon="12.4107576"><ele>172.0</ele><time>2026-03-28T12:35:59.667Z</time></trkpt><trkpt lat="42.756844" lon="12.4108031"><ele>173.0</ele><time>2026-03-28T12:36:00.67Z</time></trkpt><trkpt lat="42.7566189" lon="12.4108372"><ele>173.0</ele><time>2026-03-28T12:36:01.663Z</time></trkpt><trkpt lat="42.7563964" lon="12.4108527"><ele>173.0</ele><time>2026-03-28T12:36:02.66Z</time></trkpt><trkpt lat="42.7561813" lon="12.4108768"><ele>173.0</ele><time>2026-03-28T12:36:03.659Z</time></trkpt><trkpt lat="42.75597" lon="12.4109249"><ele>174.0</ele><time>2026-03-28T12:36:04.654Z</time></trkpt><trkpt lat="42.7557702" lon="12.4110083"><ele>175.0</ele><time>2026-03-28T12:36:05.651Z</time></trkpt><trkpt lat="42.755589" lon="12.4110878"><ele>176.0</ele><time>2026-03-28T12:36:06.647Z</time></trkpt><trkpt lat="42.7554124" lon="12.4111315"><ele>176.0</ele><time>2026-03-28T12:36:07.68Z</time></trkpt><trkpt lat="42.7552231" lon="12.4111328"><ele>176.0</ele><time>2026-03-28T12:36:08.659Z</time></trkpt><trkpt lat="42.7550156" lon="12.4111027"><ele>176.0</ele><time>2026-03-28T12:36:09.649Z</time></trkpt><trkpt lat="42.7548076" lon="12.4110513"><ele>176.33333333333331</ele><time>2026-03-28T12:36:10.655Z</time></trkpt><trkpt lat="42.7545927" lon="12.410983"><ele>176.66666666666666</ele><time>2026-03-28T12:36:11.697Z</time></trkpt><trkpt lat="42.7543824" lon="12.4109017"><ele>177.0</ele><time>2026-03-28T12:36:12.662Z</time></trkpt><trkpt lat="42.7541897" lon="12.4108219"><ele>177.0</ele><time>2026-03-28T12:36:13.664Z</time></trkpt><trkpt lat="42.7540084" lon="12.4107515"><ele>177.0</ele><time>2026-03-28T12:36:14.662Z</time></trkpt><trkpt lat="42.7538333" lon="12.4106925"><ele>177.0</ele><time>2026-03-28T12:36:15.676Z</time></trkpt><trkpt lat="42.7536557" lon="12.410654"><ele>177.66666666666666</ele><time>2026-03-28T12:36:16.663Z</time></trkpt><trkpt lat="42.7534736" lon="12.4106581"><ele>178.33333333333331</ele><time>2026-03-28T12:36:17.673Z</time></trkpt><trkpt lat="42.7532876" lon="12.4107137"><ele>179.0</ele><time>2026-03-28T12:36:18.659Z</time></trkpt><trkpt lat="42.7531005" lon="12.4107932"><ele>179.0</ele><time>2026-03-28T12:36:19.648Z</time></trkpt><trkpt lat="42.752901" lon="12.4108741"><ele>179.0</ele><time>2026-03-28T12:36:20.647Z</time></trkpt><trkpt lat="42.7527032" lon="12.4109461"><ele>179.0</ele><time>2026-03-28T12:36:21.652Z</time></trkpt><trkpt lat="42.7525187" lon="12.4110047"><ele>180.0</ele><time>2026-03-28T12:36:22.642Z</time></trkpt><trkpt lat="42.7523417" lon="12.4110497"><ele>181.0</ele><time>2026-03-28T12:36:23.658Z</time></trkpt><trkpt lat="42.7521582" lon="12.4110565"><ele>182.0</ele><time>2026-03-28T12:36:24.658Z</time></trkpt><trkpt lat="42.7519719" lon="12.4110316"><ele>182.33333333333331</ele><time>2026-03-28T12:36:25.666Z</time></trkpt><trkpt lat="42.7517836" lon="12.4109699"><ele>182.66666666666666</ele><time>2026-03-28T12:36:26.664Z</time></trkpt><trkpt lat="42.7515994" lon="12.4108687"><ele>183.0</ele><time>2026-03-28T12:36:27.669Z</time></trkpt><trkpt lat="42.7514254" lon="12.4107421"><ele>183.0</ele><time>2026-03-28T12:36:28.664Z</time></trkpt><trkpt lat="42.7512566" lon="12.410597"><ele>183.0</ele><time>2026-03-28T12:36:29.665Z</time></trkpt><trkpt lat="42.7510826" lon="12.4104579"><ele>183.0</ele><time>2026-03-28T12:36:30.655Z</time></trkpt><trkpt lat="42.7509088" lon="12.4103393"><ele>183.0</ele><time>2026-03-28T12:36:31.657Z</time></trkpt><trkpt lat="42.7507311" lon="12.4102441"><ele>183.0</ele><time>2026-03-28T12:36:32.655Z</time></trkpt><trkpt lat="42.7505561" lon="12.4101752"><ele>183.0</ele><time>2026-03-28T12:36:33.662Z</time></trkpt><trkpt lat="42.75038" lon="12.4101262"><ele>183.66666666666666</ele><time>2026-03-28T12:36:34.662Z</time></trkpt><trkpt lat="42.7501957" lon="12.4100893"><ele>184.33333333333331</ele><time>2026-03-28T12:36:35.654Z</time></trkpt><trkpt lat="42.7500017" lon="12.4100678"><ele>185.0</ele><time>2026-03-28T12:36:36.657Z</time></trkpt><trkpt lat="42.7498068" lon="12.4100383"><ele>185.0</ele><time>2026-03-28T12:36:37.667Z</time></trkpt><trkpt lat="42.7496227" lon="12.4100102"><ele>185.0</ele><time>2026-03-28T12:36:38.667Z</time></trkpt><trkpt lat="42.749455" lon="12.4099757"><ele>185.0</ele><time>2026-03-28T12:36:39.666Z</time></trkpt><trkpt lat="42.7492993" lon="12.4099189"><ele>186.66666666666666</ele><time>2026-03-28T12:36:40.661Z</time></trkpt><trkpt lat="42.7491492" lon="12.4098393"><ele>188.33333333333334</ele><time>2026-03-28T12:36:41.671Z</time></trkpt><trkpt lat="42.7490027" lon="12.4097366"><ele>190.0</ele><time>2026-03-28T12:36:42.664Z</time></trkpt><trkpt lat="42.7488711" lon="12.4096059"><ele>190.75</ele><time>2026-03-28T12:36:43.682Z</time></trkpt><trkpt lat="42.7487625" lon="12.4094677"><ele>191.5</ele><time>2026-03-28T12:36:44.652Z</time></trkpt><trkpt lat="42.7486756" lon="12.4093284"><ele>192.25</ele><time>2026-03-28T12:36:45.648Z</time></trkpt><trkpt lat="42.7485998" lon="12.4092019"><ele>193.0</ele><time>2026-03-28T12:36:46.66Z</time></trkpt><trkpt lat="42.748506" lon="12.4091247"><ele>195.0</ele><time>2026-03-28T12:36:47.65Z</time></trkpt><trkpt lat="42.7483902" lon="12.4091135"><ele>197.0</ele><time>2026-03-28T12:36:48.648Z</time></trkpt><trkpt lat="42.7482702" lon="12.4091708"><ele>199.0</ele><time>2026-03-28T12:36:49.65Z</time></trkpt><trkpt lat="42.7481468" lon="12.4092682"><ele>201.0</ele><time>2026-03-28T12:36:50.654Z</time></trkpt><trkpt lat="42.7480083" lon="12.4093741"><ele>201.0</ele><time>2026-03-28T12:36:51.646Z</time></trkpt><trkpt lat="42.7478604" lon="12.4094324"><ele>201.0</ele><time>2026-03-28T12:36:52.653Z</time></trkpt><trkpt lat="42.7477032" lon="12.4094551"><ele>201.0</ele><time>2026-03-28T12:36:53.661Z</time></trkpt><trkpt lat="42.7475395" lon="12.409461"><ele>204.66666666666669</ele><time>2026-03-28T12:36:54.654Z</time></trkpt><trkpt lat="42.747361" lon="12.4094628"><ele>208.33333333333334</ele><time>2026-03-28T12:36:55.645Z</time></trkpt><trkpt lat="42.747171" lon="12.4094604"><ele>212.0</ele><time>2026-03-28T12:36:56.662Z</time></trkpt><trkpt lat="42.7469763" lon="12.4094501"><ele>212.0</ele><time>2026-03-28T12:36:57.644Z</time></trkpt><trkpt lat="42.7467889" lon="12.4094346"><ele>212.0</ele><time>2026-03-28T12:36:58.669Z</time></trkpt><trkpt lat="42.7466162" lon="12.409409"><ele>212.0</ele><time>2026-03-28T12:36:59.659Z</time></trkpt><trkpt lat="42.7464564" lon="12.4093742"><ele>212.0</ele><time>2026-03-28T12:37:00.663Z</time></trkpt><trkpt lat="42.7463096" lon="12.4093294"><ele>212.0</ele><time>2026-03-28T12:37:01.668Z</time></trkpt><trkpt lat="42.7461914" lon="12.4092652"><ele>212.0</ele><time>2026-03-28T12:37:02.662Z</time></trkpt><trkpt lat="42.7460772" lon="12.4091737"><ele>212.0</ele><time>2026-03-28T12:37:03.66Z</time></trkpt><trkpt lat="42.7459682" lon="12.4090565"><ele>211.0</ele><time>2026-03-28T12:37:04.669Z</time></trkpt><trkpt lat="42.7458894" lon="12.4088967"><ele>210.0</ele><time>2026-03-28T12:37:05.654Z</time></trkpt><trkpt lat="42.7458547" lon="12.4086845"><ele>209.0</ele><time>2026-03-28T12:37:06.657Z</time></trkpt><trkpt lat="42.7458408" lon="12.4084467"><ele>209.0</ele><time>2026-03-28T12:37:07.659Z</time></trkpt><trkpt lat="42.7458251" lon="12.4081919"><ele>209.0</ele><time>2026-03-28T12:37:08.665Z</time></trkpt><trkpt lat="42.7457832" lon="12.4079278"><ele>209.0</ele><time>2026-03-28T12:37:09.655Z</time></trkpt><trkpt lat="42.7457093" lon="12.4076515"><ele>212.0</ele><time>2026-03-28T12:37:10.642Z</time></trkpt><trkpt lat="42.745629" lon="12.4073704"><ele>215.0</ele><time>2026-03-28T12:37:11.654Z</time></trkpt><trkpt lat="42.7455491" lon="12.407123"><ele>218.0</ele><time>2026-03-28T12:37:12.655Z</time></trkpt><trkpt lat="42.7454602" lon="12.4069189"><ele>215.66666666666669</ele><time>2026-03-28T12:37:13.651Z</time></trkpt><trkpt lat="42.7453406" lon="12.4067649"><ele>213.33333333333331</ele><time>2026-03-28T12:37:14.656Z</time></trkpt><trkpt lat="42.7451843" lon="12.4066308"><ele>211.0</ele><time>2026-03-28T12:37:15.649Z</time></trkpt><trkpt lat="42.7450238" lon="12.4064702"><ele>214.0</ele><time>2026-03-28T12:37:16.662Z</time></trkpt><trkpt lat="42.7448464" lon="12.4062976"><ele>217.0</ele><time>2026-03-28T12:37:17.65Z</time></trkpt><trkpt lat="42.7446664" lon="12.406112"><ele>220.0</ele><time>2026-03-28T12:37:18.662Z</time></trkpt><trkpt lat="42.7444844" lon="12.4059209"><ele>216.0</ele><time>2026-03-28T12:37:19.673Z</time></trkpt><trkpt lat="42.7442998" lon="12.4057272"><ele>212.0</ele><time>2026-03-28T12:37:20.647Z</time></trkpt><trkpt lat="42.7441131" lon="12.4055328"><ele>214.33333333333334</ele><time>2026-03-28T12:37:21.671Z</time></trkpt><trkpt lat="42.7439396" lon="12.4053496"><ele>216.66666666666669</ele><time>2026-03-28T12:37:22.664Z</time></trkpt><trkpt lat="42.743768" lon="12.4051853"><ele>219.0</ele><time>2026-03-28T12:37:23.667Z</time></trkpt><trkpt lat="42.7436081" lon="12.405052"><ele>217.66666666666669</ele><time>2026-03-28T12:37:24.654Z</time></trkpt><trkpt lat="42.7434508" lon="12.4049486"><ele>216.33333333333334</ele><time>2026-03-28T12:37:25.647Z</time></trkpt><trkpt lat="42.7432905" lon="12.4048554"><ele>215.0</ele><time>2026-03-28T12:37:26.656Z</time></trkpt><trkpt lat="42.743141" lon="12.4047604"><ele>215.0</ele><time>2026-03-28T12:37:27.661Z</time></trkpt><trkpt lat="42.7430175" lon="12.4046868"><ele>215.0</ele><time>2026-03-28T12:37:28.661Z</time></trkpt><trkpt lat="42.7429079" lon="12.404621"><ele>215.0</ele><time>2026-03-28T12:37:29.663Z</time></trkpt><trkpt lat="42.7428085" lon="12.404565"><ele>215.0</ele><time>2026-03-28T12:37:30.654Z</time></trkpt><trkpt lat="42.7427223" lon="12.4045181"><ele>215.4</ele><time>2026-03-28T12:37:31.681Z</time></trkpt><trkpt lat="42.7426495" lon="12.4044731"><ele>215.8</ele><time>2026-03-28T12:37:32.649Z</time></trkpt><trkpt lat="42.7425657" lon="12.4044111"><ele>216.2</ele><time>2026-03-28T12:37:34.662Z</time></trkpt><trkpt lat="42.742506" lon="12.4043464"><ele>216.6</ele><time>2026-03-28T12:37:37.642Z</time></trkpt><trkpt lat="42.7424191" lon="12.4043774"><ele>217.0</ele><time>2026-03-28T12:39:46.653Z</time></trkpt><trkpt lat="42.7423082" lon="12.4043038"><ele>217.0</ele><time>2026-03-28T12:39:48.644Z</time></trkpt><trkpt lat="42.7421374" lon="12.4041856"><ele>217.0</ele><time>2026-03-28T12:39:50.66Z</time></trkpt><trkpt lat="42.7420206" lon="12.4040887"><ele>217.0</ele><time>2026-03-28T12:39:51.645Z</time></trkpt><trkpt lat="42.7418807" lon="12.4039852"><ele>215.0</ele><time>2026-03-28T12:39:52.643Z</time></trkpt><trkpt lat="42.7417268" lon="12.4038946"><ele>213.0</ele><time>2026-03-28T12:39:53.646Z</time></trkpt><trkpt lat="42.7415522" lon="12.4038126"><ele>211.0</ele><time>2026-03-28T12:39:54.647Z</time></trkpt><trkpt lat="42.7413825" lon="12.4037391"><ele>215.33333333333331</ele><time>2026-03-28T12:39:55.646Z</time></trkpt><trkpt lat="42.7412138" lon="12.4036722"><ele>219.66666666666669</ele><time>2026-03-28T12:39:56.645Z</time></trkpt><trkpt lat="42.741034" lon="12.40362"><ele>224.0</ele><time>2026-03-28T12:39:57.646Z</time></trkpt><trkpt lat="42.740837" lon="12.4035969"><ele>224.0</ele><time>2026-03-28T12:39:58.648Z</time></trkpt><trkpt lat="42.7406448" lon="12.4035972"><ele>224.0</ele><time>2026-03-28T12:39:59.659Z</time></trkpt><trkpt lat="42.7404658" lon="12.4036029"><ele>224.0</ele><time>2026-03-28T12:40:00.645Z</time></trkpt><trkpt lat="42.740303" lon="12.4036008"><ele>225.0</ele><time>2026-03-28T12:40:01.646Z</time></trkpt><trkpt lat="42.7401511" lon="12.4035879"><ele>226.0</ele><time>2026-03-28T12:40:02.655Z</time></trkpt><trkpt lat="42.7400179" lon="12.4035603"><ele>227.0</ele><time>2026-03-28T12:40:03.663Z</time></trkpt><trkpt lat="42.739908" lon="12.4034842"><ele>228.0</ele><time>2026-03-28T12:40:04.661Z</time></trkpt><trkpt lat="42.7398132" lon="12.4033796"><ele>228.0</ele><time>2026-03-28T12:40:05.655Z</time></trkpt><trkpt lat="42.7397245" lon="12.4032715"><ele>228.0</ele><time>2026-03-28T12:40:06.656Z</time></trkpt><trkpt lat="42.7396416" lon="12.4031655"><ele>228.0</ele><time>2026-03-28T12:40:07.65Z</time></trkpt><trkpt lat="42.7395218" lon="12.4031144"><ele>228.0</ele><time>2026-03-28T12:40:08.658Z</time></trkpt><trkpt lat="42.7393786" lon="12.4031345"><ele>228.5</ele><time>2026-03-28T12:40:09.648Z</time></trkpt><trkpt lat="42.7392339" lon="12.4031609"><ele>229.0</ele><time>2026-03-28T12:40:10.652Z</time></trkpt><trkpt lat="42.7391074" lon="12.4031996"><ele>229.5</ele><time>2026-03-28T12:40:11.678Z</time></trkpt><trkpt lat="42.7390123" lon="12.4032884"><ele>230.0</ele><time>2026-03-28T12:40:12.659Z</time></trkpt><trkpt lat="42.7389508" lon="12.4034376"><ele>230.0</ele><time>2026-03-28T12:40:13.659Z</time></trkpt><trkpt lat="42.7389161" lon="12.4036147"><ele>230.0</ele><time>2026-03-28T12:40:14.644Z</time></trkpt><trkpt lat="42.7388994" lon="12.4038021"><ele>230.0</ele><time>2026-03-28T12:40:15.655Z</time></trkpt><trkpt lat="42.7388825" lon="12.403978"><ele>230.0</ele><time>2026-03-28T12:40:16.649Z</time></trkpt><trkpt lat="42.7388496" lon="12.4041137"><ele>229.0</ele><time>2026-03-28T12:40:17.65Z</time></trkpt><trkpt lat="42.738778" lon="12.404177"><ele>228.0</ele><time>2026-03-28T12:40:18.662Z</time></trkpt><trkpt lat="42.7386972" lon="12.4041712"><ele>227.0</ele><time>2026-03-28T12:40:19.657Z</time></trkpt><trkpt lat="42.7386219" lon="12.4041053"><ele>226.0</ele><time>2026-03-28T12:40:20.658Z</time></trkpt><trkpt lat="42.7385538" lon="12.404006"><ele>225.0</ele><time>2026-03-28T12:40:21.654Z</time></trkpt><trkpt lat="42.7385186" lon="12.4038372"><ele>229.0</ele><time>2026-03-28T12:40:22.655Z</time></trkpt><trkpt lat="42.7384746" lon="12.4036356"><ele>233.0</ele><time>2026-03-28T12:40:23.666Z</time></trkpt><trkpt lat="42.7384228" lon="12.403455"><ele>237.0</ele><time>2026-03-28T12:40:24.666Z</time></trkpt><trkpt lat="42.7383153" lon="12.4033272"><ele>241.0</ele><time>2026-03-28T12:40:25.664Z</time></trkpt><trkpt lat="42.7381731" lon="12.4032385"><ele>241.0</ele><time>2026-03-28T12:40:26.651Z</time></trkpt><trkpt lat="42.738016" lon="12.4031497"><ele>241.0</ele><time>2026-03-28T12:40:27.656Z</time></trkpt><trkpt lat="42.7378667" lon="12.4030468"><ele>241.0</ele><time>2026-03-28T12:40:28.667Z</time></trkpt><trkpt lat="42.7377398" lon="12.4029323"><ele>242.75</ele><time>2026-03-28T12:40:29.656Z</time></trkpt><trkpt lat="42.7376528" lon="12.4027929"><ele>244.5</ele><time>2026-03-28T12:40:30.667Z</time></trkpt><trkpt lat="42.7376099" lon="12.402629"><ele>246.25</ele><time>2026-03-28T12:40:31.651Z</time></trkpt><trkpt lat="42.7376116" lon="12.4024404"><ele>248.0</ele><time>2026-03-28T12:40:32.647Z</time></trkpt><trkpt lat="42.7376195" lon="12.4022268"><ele>249.33333333333334</ele><time>2026-03-28T12:40:33.658Z</time></trkpt><trkpt lat="42.7376221" lon="12.4019939"><ele>250.66666666666669</ele><time>2026-03-28T12:40:34.661Z</time></trkpt><trkpt lat="42.7376233" lon="12.4017654"><ele>252.0</ele><time>2026-03-28T12:40:35.658Z</time></trkpt><trkpt lat="42.7376239" lon="12.4015676"><ele>252.0</ele><time>2026-03-28T12:40:36.652Z</time></trkpt><trkpt lat="42.7375891" lon="12.4014055"><ele>252.0</ele><time>2026-03-28T12:40:37.663Z</time></trkpt><trkpt lat="42.7375199" lon="12.4012961"><ele>252.0</ele><time>2026-03-28T12:40:38.657Z</time></trkpt><trkpt lat="42.7374022" lon="12.4012434"><ele>252.0</ele><time>2026-03-28T12:40:39.644Z</time></trkpt><trkpt lat="42.7372457" lon="12.401217"><ele>253.0</ele><time>2026-03-28T12:40:40.658Z</time></trkpt><trkpt lat="42.7370712" lon="12.4011956"><ele>254.0</ele><time>2026-03-28T12:40:41.641Z</time></trkpt><trkpt lat="42.7368928" lon="12.4011662"><ele>255.0</ele><time>2026-03-28T12:40:42.644Z</time></trkpt><trkpt lat="42.7367185" lon="12.4011262"><ele>256.25</ele><time>2026-03-28T12:40:43.656Z</time></trkpt><trkpt lat="42.7365683" lon="12.401088"><ele>257.5</ele><time>2026-03-28T12:40:44.661Z</time></trkpt><trkpt lat="42.7364499" lon="12.4010586"><ele>258.75</ele><time>2026-03-28T12:40:45.657Z</time></trkpt><trkpt lat="42.7363495" lon="12.4010361"><ele>260.0</ele><time>2026-03-28T12:40:46.671Z</time></trkpt><trkpt lat="42.736249" lon="12.4010126"><ele>260.0</ele><time>2026-03-28T12:40:47.67Z</time></trkpt><trkpt lat="42.7361464" lon="12.4009566"><ele>260.0</ele><time>2026-03-28T12:40:48.659Z</time></trkpt><trkpt lat="42.7360393" lon="12.4008614"><ele>260.0</ele><time>2026-03-28T12:40:49.657Z</time></trkpt><trkpt lat="42.7359589" lon="12.4007139"><ele>260.0</ele><time>2026-03-28T12:40:50.648Z</time></trkpt><trkpt lat="42.7358986" lon="12.4005403"><ele>262.75</ele><time>2026-03-28T12:40:51.644Z</time></trkpt><trkpt lat="42.7358562" lon="12.4003612"><ele>265.5</ele><time>2026-03-28T12:40:52.637Z</time></trkpt><trkpt lat="42.7358466" lon="12.4001865"><ele>268.25</ele><time>2026-03-28T12:40:53.661Z</time></trkpt><trkpt lat="42.7358725" lon="12.4000342"><ele>271.0</ele><time>2026-03-28T12:40:54.659Z</time></trkpt><trkpt lat="42.7359173" lon="12.3999055"><ele>271.0</ele><time>2026-03-28T12:40:55.653Z</time></trkpt><trkpt lat="42.7359544" lon="12.399802"><ele>271.0</ele><time>2026-03-28T12:40:56.659Z</time></trkpt><trkpt lat="42.7359805" lon="12.3997202"><ele>271.0</ele><time>2026-03-28T12:40:57.652Z</time></trkpt><trkpt lat="42.7360008" lon="12.3996331"><ele>271.0</ele><time>2026-03-28T12:40:59.648Z</time></trkpt><trkpt lat="42.7359593" lon="12.3997246"><ele>271.0</ele><time>2026-03-28T12:41:04.651Z</time></trkpt><trkpt lat="42.7359376" lon="12.3998191"><ele>271.0</ele><time>2026-03-28T12:41:05.643Z</time></trkpt><trkpt lat="42.7358936" lon="12.3999382"><ele>271.0</ele><time>2026-03-28T12:41:06.669Z</time></trkpt><trkpt lat="42.7358475" lon="12.4000788"><ele>271.0</ele><time>2026-03-28T12:41:07.656Z</time></trkpt><trkpt lat="42.7358248" lon="12.4002338"><ele>271.0</ele><time>2026-03-28T12:41:08.657Z</time></trkpt><trkpt lat="42.7358353" lon="12.4003921"><ele>271.0</ele><time>2026-03-28T12:41:09.646Z</time></trkpt><trkpt lat="42.7358669" lon="12.4005419"><ele>270.0</ele><time>2026-03-28T12:41:10.657Z</time></trkpt><trkpt lat="42.7359135" lon="12.4006864"><ele>269.0</ele><time>2026-03-28T12:41:11.657Z</time></trkpt><trkpt lat="42.7359594" lon="12.4008203"><ele>268.0</ele><time>2026-03-28T12:41:12.658Z</time></trkpt><trkpt lat="42.7360313" lon="12.400928"><ele>267.0</ele><time>2026-03-28T12:41:13.648Z</time></trkpt><trkpt lat="42.7361208" lon="12.4010008"><ele>266.0</ele><time>2026-03-28T12:41:14.654Z</time></trkpt><trkpt lat="42.7362126" lon="12.4010448"><ele>265.0</ele><time>2026-03-28T12:41:15.662Z</time></trkpt><trkpt lat="42.7362888" lon="12.4010594"><ele>264.0</ele><time>2026-03-28T12:41:16.665Z</time></trkpt><trkpt lat="42.7363545" lon="12.4010713"><ele>263.0</ele><time>2026-03-28T12:42:01.646Z</time></trkpt><trkpt lat="42.7364699" lon="12.4010946"><ele>262.0</ele><time>2026-03-28T12:42:03.645Z</time></trkpt><trkpt lat="42.7365555" lon="12.4011138"><ele>261.0</ele><time>2026-03-28T12:42:04.653Z</time></trkpt><trkpt lat="42.7366525" lon="12.4011348"><ele>260.0</ele><time>2026-03-28T12:42:05.657Z</time></trkpt><trkpt lat="42.7367724" lon="12.4011625"><ele>258.75</ele><time>2026-03-28T12:42:06.647Z</time></trkpt><trkpt lat="42.7369011" lon="12.4011888"><ele>257.5</ele><time>2026-03-28T12:42:07.661Z</time></trkpt><trkpt lat="42.7370316" lon="12.4012141"><ele>256.25</ele><time>2026-03-28T12:42:08.659Z</time></trkpt><trkpt lat="42.7371539" lon="12.401236"><ele>255.0</ele><time>2026-03-28T12:42:09.657Z</time></trkpt><trkpt lat="42.7372718" lon="12.4012524"><ele>255.0</ele><time>2026-03-28T12:42:10.658Z</time></trkpt><trkpt lat="42.7373848" lon="12.4012739"><ele>255.0</ele><time>2026-03-28T12:42:11.664Z</time></trkpt><trkpt lat="42.7374779" lon="12.4013184"><ele>255.0</ele><time>2026-03-28T12:42:12.659Z</time></trkpt><trkpt lat="42.7375554" lon="12.4013954"><ele>255.0</ele><time>2026-03-28T12:42:13.672Z</time></trkpt><trkpt lat="42.7375984" lon="12.4015172"><ele>255.0</ele><time>2026-03-28T12:42:14.641Z</time></trkpt><trkpt lat="42.7376092" lon="12.4016685"><ele>254.25</ele><time>2026-03-28T12:42:15.655Z</time></trkpt><trkpt lat="42.7375996" lon="12.4018535"><ele>253.5</ele><time>2026-03-28T12:42:16.646Z</time></trkpt><trkpt lat="42.7375965" lon="12.4020467"><ele>252.75</ele><time>2026-03-28T12:42:17.667Z</time></trkpt><trkpt lat="42.7375938" lon="12.4022306"><ele>252.0</ele><time>2026-03-28T12:42:18.658Z</time></trkpt><trkpt lat="42.7375888" lon="12.4024001"><ele>251.2</ele><time>2026-03-28T12:42:19.648Z</time></trkpt><trkpt lat="42.7375888" lon="12.4025569"><ele>250.39999999999998</ele><time>2026-03-28T12:42:20.664Z</time></trkpt><trkpt lat="42.7376013" lon="12.4027013"><ele>249.60000000000002</ele><time>2026-03-28T12:42:21.669Z</time></trkpt><trkpt lat="42.7376404" lon="12.4028257"><ele>248.8</ele><time>2026-03-28T12:42:22.68Z</time></trkpt><trkpt lat="42.7377171" lon="12.4029381"><ele>248.0</ele><time>2026-03-28T12:42:23.65Z</time></trkpt><trkpt lat="42.7378178" lon="12.4030323"><ele>246.25</ele><time>2026-03-28T12:42:24.657Z</time></trkpt><trkpt lat="42.7379495" lon="12.4031172"><ele>244.5</ele><time>2026-03-28T12:42:25.657Z</time></trkpt><trkpt lat="42.7380939" lon="12.4031976"><ele>242.75</ele><time>2026-03-28T12:42:26.654Z</time></trkpt><trkpt lat="42.7382199" lon="12.4032733"><ele>241.0</ele><time>2026-03-28T12:42:27.657Z</time></trkpt><trkpt lat="42.7383272" lon="12.4033533"><ele>241.0</ele><time>2026-03-28T12:42:28.654Z</time></trkpt><trkpt lat="42.7384259" lon="12.4034531"><ele>241.0</ele><time>2026-03-28T12:42:29.662Z</time></trkpt><trkpt lat="42.738501" lon="12.4035835"><ele>241.0</ele><time>2026-03-28T12:42:30.674Z</time></trkpt><trkpt lat="42.7385433" lon="12.4037508"><ele>241.0</ele><time>2026-03-28T12:42:31.654Z</time></trkpt><trkpt lat="42.7385722" lon="12.4039256"><ele>238.33333333333331</ele><time>2026-03-28T12:42:32.657Z</time></trkpt><trkpt lat="42.738604" lon="12.4040618"><ele>235.66666666666666</ele><time>2026-03-28T12:42:33.646Z</time></trkpt><trkpt lat="42.7386468" lon="12.4041537"><ele>233.0</ele><time>2026-03-28T12:42:34.644Z</time></trkpt><trkpt lat="42.7387069" lon="12.4042037"><ele>230.33333333333331</ele><time>2026-03-28T12:42:35.658Z</time></trkpt><trkpt lat="42.7387797" lon="12.4041959"><ele>227.66666666666666</ele><time>2026-03-28T12:42:36.669Z</time></trkpt><trkpt lat="42.7388638" lon="12.4041032"><ele>225.0</ele><time>2026-03-28T12:42:37.669Z</time></trkpt><trkpt lat="42.7389051" lon="12.4039429"><ele>226.25</ele><time>2026-03-28T12:42:38.645Z</time></trkpt><trkpt lat="42.7389171" lon="12.4037713"><ele>227.5</ele><time>2026-03-28T12:42:39.653Z</time></trkpt><trkpt lat="42.7389312" lon="12.4036"><ele>228.75</ele><time>2026-03-28T12:42:40.659Z</time></trkpt><trkpt lat="42.7389545" lon="12.4034524"><ele>230.0</ele><time>2026-03-28T12:42:41.666Z</time></trkpt><trkpt lat="42.7390152" lon="12.4033286"><ele>230.0</ele><time>2026-03-28T12:42:42.655Z</time></trkpt><trkpt lat="42.7391118" lon="12.4032459"><ele>230.0</ele><time>2026-03-28T12:42:43.651Z</time></trkpt><trkpt lat="42.7392248" lon="12.4032169"><ele>230.0</ele><time>2026-03-28T12:42:44.642Z</time></trkpt><trkpt lat="42.7393564" lon="12.4032051"><ele>230.0</ele><time>2026-03-28T12:42:45.643Z</time></trkpt><trkpt lat="42.7394974" lon="12.4031899"><ele>229.5</ele><time>2026-03-28T12:42:46.654Z</time></trkpt><trkpt lat="42.7396312" lon="12.4031916"><ele>229.0</ele><time>2026-03-28T12:42:47.658Z</time></trkpt><trkpt lat="42.7397462" lon="12.4032427"><ele>228.5</ele><time>2026-03-28T12:42:48.647Z</time></trkpt><trkpt lat="42.7398389" lon="12.403336"><ele>228.0</ele><time>2026-03-28T12:42:49.657Z</time></trkpt><trkpt lat="42.7399216" lon="12.4034512"><ele>228.0</ele><time>2026-03-28T12:42:50.654Z</time></trkpt><trkpt lat="42.7400341" lon="12.4035465"><ele>228.0</ele><time>2026-03-28T12:42:51.672Z</time></trkpt><trkpt lat="42.7401758" lon="12.4036117"><ele>228.0</ele><time>2026-03-28T12:42:52.655Z</time></trkpt><trkpt lat="42.740335" lon="12.4036446"><ele>228.0</ele><time>2026-03-28T12:42:53.65Z</time></trkpt><trkpt lat="42.7405347" lon="12.4036462"><ele>226.0</ele><time>2026-03-28T12:42:54.657Z</time></trkpt><trkpt lat="42.7407626" lon="12.4036259"><ele>224.0</ele><time>2026-03-28T12:42:55.653Z</time></trkpt><trkpt lat="42.7409872" lon="12.4036366"><ele>224.0</ele><time>2026-03-28T12:42:56.651Z</time></trkpt><trkpt lat="42.7412127" lon="12.4037071"><ele>224.0</ele><time>2026-03-28T12:42:57.649Z</time></trkpt><trkpt lat="42.7414322" lon="12.403795"><ele>221.66666666666669</ele><time>2026-03-28T12:42:58.654Z</time></trkpt><trkpt lat="42.7416179" lon="12.4038848"><ele>219.33333333333331</ele><time>2026-03-28T12:42:59.644Z</time></trkpt><trkpt lat="42.7417884" lon="12.4039626"><ele>217.0</ele><time>2026-03-28T12:43:00.651Z</time></trkpt><trkpt lat="42.7419369" lon="12.4040389"><ele>217.0</ele><time>2026-03-28T12:43:01.652Z</time></trkpt><trkpt lat="42.7420603" lon="12.404125"><ele>217.0</ele><time>2026-03-28T12:43:02.651Z</time></trkpt><trkpt lat="42.7421784" lon="12.4042177"><ele>217.0</ele><time>2026-03-28T12:43:03.66Z</time></trkpt><trkpt lat="42.7422895" lon="12.4043016"><ele>217.0</ele><time>2026-03-28T12:43:04.651Z</time></trkpt><trkpt lat="42.7423907" lon="12.4043679"><ele>216.99999999999997</ele><time>2026-03-28T12:43:05.667Z</time></trkpt><trkpt lat="42.7424578" lon="12.4044129"><ele>217.0</ele><time>2026-03-28T12:43:06.652Z</time></trkpt><trkpt lat="42.7425333" lon="12.4043388"><ele>217.0</ele><time>2026-03-28T12:43:10.656Z</time></trkpt><trkpt lat="42.7425183" lon="12.4041715"><ele>217.0</ele><time>2026-03-28T12:43:12.669Z</time></trkpt><trkpt lat="42.7424787" lon="12.4040774"><ele>216.99999999999997</ele><time>2026-03-28T12:43:13.647Z</time></trkpt><trkpt lat="42.7424271" lon="12.4040105"><ele>217.0</ele><time>2026-03-28T12:43:14.647Z</time></trkpt><trkpt lat="42.7423485" lon="12.4039507"><ele>217.0</ele><time>2026-03-28T12:43:15.647Z</time></trkpt><trkpt lat="42.7422473" lon="12.403871"><ele>217.0</ele><time>2026-03-28T12:43:16.667Z</time></trkpt><trkpt lat="42.7421376" lon="12.4037693"><ele>217.0</ele><time>2026-03-28T12:43:17.641Z</time></trkpt><trkpt lat="42.7420324" lon="12.4036668"><ele>217.0</ele><time>2026-03-28T12:43:18.653Z</time></trkpt><trkpt lat="42.7419362" lon="12.4035745"><ele>218.39999999999998</ele><time>2026-03-28T12:43:19.672Z</time></trkpt><trkpt lat="42.7418624" lon="12.4034979"><ele>219.79999999999998</ele><time>2026-03-28T12:43:20.656Z</time></trkpt><trkpt lat="42.7418098" lon="12.4034093"><ele>221.2</ele><time>2026-03-28T12:43:21.661Z</time></trkpt><trkpt lat="42.7417775" lon="12.4032704"><ele>222.6</ele><time>2026-03-28T12:43:22.641Z</time></trkpt><trkpt lat="42.7417564" lon="12.4031009"><ele>224.0</ele><time>2026-03-28T12:43:23.652Z</time></trkpt><trkpt lat="42.7417387" lon="12.4029196"><ele>227.5</ele><time>2026-03-28T12:43:24.647Z</time></trkpt><trkpt lat="42.7417188" lon="12.4027247"><ele>231.0</ele><time>2026-03-28T12:43:25.658Z</time></trkpt><trkpt lat="42.7417088" lon="12.4025358"><ele>234.5</ele><time>2026-03-28T12:43:26.649Z</time></trkpt><trkpt lat="42.7416987" lon="12.4023588"><ele>238.0</ele><time>2026-03-28T12:43:27.657Z</time></trkpt><trkpt lat="42.7417104" lon="12.4022011"><ele>240.75</ele><time>2026-03-28T12:43:28.645Z</time></trkpt><trkpt lat="42.7417533" lon="12.4020493"><ele>243.5</ele><time>2026-03-28T12:43:29.655Z</time></trkpt><trkpt lat="42.7417988" lon="12.4018921"><ele>246.25</ele><time>2026-03-28T12:43:30.649Z</time></trkpt><trkpt lat="42.7418375" lon="12.4017421"><ele>249.0</ele><time>2026-03-28T12:43:31.653Z</time></trkpt><trkpt lat="42.7418688" lon="12.401626"><ele>249.0</ele><time>2026-03-28T12:43:32.656Z</time></trkpt><trkpt lat="42.7418855" lon="12.4014753"><ele>248.99999999999997</ele><time>2026-03-28T12:43:34.658Z</time></trkpt><trkpt lat="42.7418561" lon="12.4013948"><ele>248.99999999999997</ele><time>2026-03-28T12:43:35.656Z</time></trkpt><trkpt lat="42.7418134" lon="12.4012858"><ele>249.0</ele><time>2026-03-28T12:43:36.653Z</time></trkpt><trkpt lat="42.7417741" lon="12.4011564"><ele>249.0</ele><time>2026-03-28T12:43:37.667Z</time></trkpt><trkpt lat="42.7417398" lon="12.4010102"><ele>251.75</ele><time>2026-03-28T12:43:38.646Z</time></trkpt><trkpt lat="42.7417101" lon="12.4008605"><ele>254.5</ele><time>2026-03-28T12:43:39.662Z</time></trkpt><trkpt lat="42.7416769" lon="12.4007038"><ele>257.25</ele><time>2026-03-28T12:43:40.654Z</time></trkpt><trkpt lat="42.7416487" lon="12.4005414"><ele>260.0</ele><time>2026-03-28T12:43:41.647Z</time></trkpt><trkpt lat="42.7416126" lon="12.4003689"><ele>261.6666666666667</ele><time>2026-03-28T12:43:42.652Z</time></trkpt><trkpt lat="42.7415676" lon="12.4001825"><ele>263.3333333333333</ele><time>2026-03-28T12:43:43.66Z</time></trkpt><trkpt lat="42.741507" lon="12.3999853"><ele>265.0</ele><time>2026-03-28T12:43:44.664Z</time></trkpt><trkpt lat="42.7414494" lon="12.3997935"><ele>265.5</ele><time>2026-03-28T12:43:45.655Z</time></trkpt><trkpt lat="42.7414074" lon="12.3996344"><ele>266.0</ele><time>2026-03-28T12:43:46.647Z</time></trkpt><trkpt lat="42.7413658" lon="12.3995024"><ele>266.5</ele><time>2026-03-28T12:43:47.655Z</time></trkpt><trkpt lat="42.7413068" lon="12.3993693"><ele>267.0</ele><time>2026-03-28T12:43:48.649Z</time></trkpt><trkpt lat="42.7412339" lon="12.3992284"><ele>267.0</ele><time>2026-03-28T12:43:49.658Z</time></trkpt><trkpt lat="42.7411688" lon="12.3990838"><ele>267.0</ele><time>2026-03-28T12:43:50.654Z</time></trkpt><trkpt lat="42.741103" lon="12.398929"><ele>267.0</ele><time>2026-03-28T12:43:51.654Z</time></trkpt><trkpt lat="42.7410452" lon="12.3987867"><ele>267.0</ele><time>2026-03-28T12:43:52.666Z</time></trkpt><trkpt lat="42.7410009" lon="12.3986728"><ele>269.8</ele><time>2026-03-28T12:43:53.648Z</time></trkpt><trkpt lat="42.7409563" lon="12.3986005"><ele>272.6</ele><time>2026-03-28T12:43:54.666Z</time></trkpt><trkpt lat="42.7408399" lon="12.3985509"><ele>275.40000000000003</ele><time>2026-03-28T12:43:56.646Z</time></trkpt><trkpt lat="42.7407507" lon="12.3985378"><ele>278.2</ele><time>2026-03-28T12:43:57.662Z</time></trkpt><trkpt lat="42.7406427" lon="12.3985316"><ele>281.0</ele><time>2026-03-28T12:43:58.651Z</time></trkpt><trkpt lat="42.7405316" lon="12.3985208"><ele>281.0</ele><time>2026-03-28T12:43:59.666Z</time></trkpt><trkpt lat="42.7404249" lon="12.3985163"><ele>281.0</ele><time>2026-03-28T12:44:00.657Z</time></trkpt><trkpt lat="42.7403359" lon="12.3985056"><ele>281.0</ele><time>2026-03-28T12:44:01.656Z</time></trkpt><trkpt lat="42.7402612" lon="12.3984797"><ele>281.0</ele><time>2026-03-28T12:44:02.67Z</time></trkpt><trkpt lat="42.7401893" lon="12.3984243"><ele>281.0</ele><time>2026-03-28T12:44:03.654Z</time></trkpt><trkpt lat="42.7400926" lon="12.3983438"><ele>281.2</ele><time>2026-03-28T12:44:04.653Z</time></trkpt><trkpt lat="42.7400033" lon="12.39827"><ele>281.40000000000003</ele><time>2026-03-28T12:44:05.663Z</time></trkpt><trkpt lat="42.7399175" lon="12.3982045"><ele>281.6</ele><time>2026-03-28T12:44:06.662Z</time></trkpt><trkpt lat="42.7398354" lon="12.3981406"><ele>281.8</ele><time>2026-03-28T12:44:07.658Z</time></trkpt><trkpt lat="42.73977" lon="12.3980741"><ele>282.0</ele><time>2026-03-28T12:44:08.664Z</time></trkpt><trkpt lat="42.7397228" lon="12.3980006"><ele>283.3333333333333</ele><time>2026-03-28T12:44:09.645Z</time></trkpt><trkpt lat="42.7396915" lon="12.3979156"><ele>284.6666666666667</ele><time>2026-03-28T12:44:10.661Z</time></trkpt><trkpt lat="42.7396671" lon="12.3978173"><ele>286.0</ele><time>2026-03-28T12:44:11.659Z</time></trkpt><trkpt lat="42.7396494" lon="12.3977119"><ele>287.33333333333337</ele><time>2026-03-28T12:44:12.651Z</time></trkpt><trkpt lat="42.7396473" lon="12.3976096"><ele>288.6666666666667</ele><time>2026-03-28T12:44:13.667Z</time></trkpt><trkpt lat="42.7396463" lon="12.3975066"><ele>290.0</ele><time>2026-03-28T12:44:14.657Z</time></trkpt><trkpt lat="42.7396497" lon="12.3973974"><ele>290.0</ele><time>2026-03-28T12:44:15.661Z</time></trkpt><trkpt lat="42.7396673" lon="12.3972957"><ele>290.0</ele><time>2026-03-28T12:44:16.658Z</time></trkpt><trkpt lat="42.7396937" lon="12.3971948"><ele>290.0</ele><time>2026-03-28T12:44:17.659Z</time></trkpt><trkpt lat="42.7397294" lon="12.3970883"><ele>290.0</ele><time>2026-03-28T12:44:18.67Z</time></trkpt><trkpt lat="42.7397579" lon="12.3969799"><ele>290.0</ele><time>2026-03-28T12:44:19.648Z</time></trkpt><trkpt lat="42.7397756" lon="12.3968721"><ele>290.0</ele><time>2026-03-28T12:44:20.665Z</time></trkpt><trkpt lat="42.7397855" lon="12.3967636"><ele>291.6</ele><time>2026-03-28T12:44:21.657Z</time></trkpt><trkpt lat="42.7397919" lon="12.3966516"><ele>293.2</ele><time>2026-03-28T12:44:22.653Z</time></trkpt><trkpt lat="42.7397863" lon="12.3965322"><ele>294.8</ele><time>2026-03-28T12:44:23.664Z</time></trkpt><trkpt lat="42.7397751" lon="12.3964036"><ele>296.4</ele><time>2026-03-28T12:44:24.658Z</time></trkpt><trkpt lat="42.7397618" lon="12.3962744"><ele>298.0</ele><time>2026-03-28T12:44:25.651Z</time></trkpt><trkpt lat="42.7397509" lon="12.3961499"><ele>299.0</ele><time>2026-03-28T12:44:26.648Z</time></trkpt><trkpt lat="42.7397459" lon="12.3960313"><ele>300.0</ele><time>2026-03-28T12:44:27.664Z</time></trkpt><trkpt lat="42.7397415" lon="12.3959192"><ele>301.0</ele><time>2026-03-28T12:44:28.665Z</time></trkpt><trkpt lat="42.7397362" lon="12.3958078"><ele>302.0</ele><time>2026-03-28T12:44:29.645Z</time></trkpt><trkpt lat="42.7397412" lon="12.3957008"><ele>303.0</ele><time>2026-03-28T12:44:30.642Z</time></trkpt><trkpt lat="42.7397489" lon="12.3956022"><ele>304.0</ele><time>2026-03-28T12:44:31.66Z</time></trkpt><trkpt lat="42.7397621" lon="12.3955061"><ele>304.57142857142856</ele><time>2026-03-28T12:44:32.66Z</time></trkpt><trkpt lat="42.7397698" lon="12.3954187"><ele>305.14285714285717</ele><time>2026-03-28T12:44:33.655Z</time></trkpt><trkpt lat="42.7397792" lon="12.3953328"><ele>305.7142857142857</ele><time>2026-03-28T12:44:34.655Z</time></trkpt><trkpt lat="42.7397875" lon="12.3952445"><ele>306.2857142857143</ele><time>2026-03-28T12:44:35.654Z</time></trkpt><trkpt lat="42.7397839" lon="12.3951522"><ele>306.8571428571429</ele><time>2026-03-28T12:44:36.657Z</time></trkpt><trkpt lat="42.7397665" lon="12.3950644"><ele>307.42857142857144</ele><time>2026-03-28T12:44:37.646Z</time></trkpt><trkpt lat="42.7397412" lon="12.3949845"><ele>308.0</ele><time>2026-03-28T12:44:38.668Z</time></trkpt><trkpt lat="42.7397072" lon="12.3949007"><ele>308.0</ele><time>2026-03-28T12:44:39.666Z</time></trkpt><trkpt lat="42.7396762" lon="12.394821"><ele>308.0</ele><time>2026-03-28T12:44:40.664Z</time></trkpt><trkpt lat="42.7396132" lon="12.3946725"><ele>308.0</ele><time>2026-03-28T12:44:42.651Z</time></trkpt><trkpt lat="42.7395679" lon="12.3945768"><ele>308.0</ele><time>2026-03-28T12:44:43.671Z</time></trkpt><trkpt lat="42.7395247" lon="12.3944813"><ele>308.0</ele><time>2026-03-28T12:44:44.664Z</time></trkpt><trkpt lat="42.7394854" lon="12.3943867"><ele>308.0</ele><time>2026-03-28T12:44:45.671Z</time></trkpt><trkpt lat="42.7394425" lon="12.3942804"><ele>308.8</ele><time>2026-03-28T12:44:46.67Z</time></trkpt><trkpt lat="42.7393976" lon="12.3941588"><ele>309.6</ele><time>2026-03-28T12:44:47.649Z</time></trkpt><trkpt lat="42.739355" lon="12.3940255"><ele>310.4</ele><time>2026-03-28T12:44:48.666Z</time></trkpt><trkpt lat="42.7393183" lon="12.3938912"><ele>311.2</ele><time>2026-03-28T12:44:49.662Z</time></trkpt><trkpt lat="42.7392871" lon="12.3937559"><ele>312.0</ele><time>2026-03-28T12:44:50.669Z</time></trkpt><trkpt lat="42.7392603" lon="12.3936135"><ele>314.0</ele><time>2026-03-28T12:44:51.666Z</time></trkpt><trkpt lat="42.7392396" lon="12.393475"><ele>316.0</ele><time>2026-03-28T12:44:52.67Z</time></trkpt><trkpt lat="42.7392159" lon="12.3933516"><ele>318.0</ele><time>2026-03-28T12:44:53.67Z</time></trkpt><trkpt lat="42.7391811" lon="12.3932305"><ele>320.0</ele><time>2026-03-28T12:44:54.665Z</time></trkpt><trkpt lat="42.7391342" lon="12.3931027"><ele>322.0</ele><time>2026-03-28T12:44:55.654Z</time></trkpt><trkpt lat="42.739074" lon="12.3929601"><ele>324.25</ele><time>2026-03-28T12:44:56.664Z</time></trkpt><trkpt lat="42.7390106" lon="12.3928098"><ele>326.5</ele><time>2026-03-28T12:44:57.667Z</time></trkpt><trkpt lat="42.7389481" lon="12.3926509"><ele>328.75</ele><time>2026-03-28T12:44:58.663Z</time></trkpt><trkpt lat="42.738885" lon="12.3924853"><ele>331.0</ele><time>2026-03-28T12:44:59.652Z</time></trkpt><trkpt lat="42.7388325" lon="12.3923243"><ele>333.25</ele><time>2026-03-28T12:45:00.651Z</time></trkpt><trkpt lat="42.7387882" lon="12.3921626"><ele>335.5</ele><time>2026-03-28T12:45:01.668Z</time></trkpt><trkpt lat="42.7387561" lon="12.3919906"><ele>337.75</ele><time>2026-03-28T12:45:02.673Z</time></trkpt><trkpt lat="42.7387349" lon="12.391809"><ele>340.0</ele><time>2026-03-28T12:45:03.647Z</time></trkpt><trkpt lat="42.7387161" lon="12.3916233"><ele>340.0</ele><time>2026-03-28T12:45:04.673Z</time></trkpt><trkpt lat="42.7387006" lon="12.3914469"><ele>340.0</ele><time>2026-03-28T12:45:05.651Z</time></trkpt><trkpt lat="42.7386895" lon="12.3912714"><ele>340.0</ele><time>2026-03-28T12:45:06.668Z</time></trkpt><trkpt lat="42.7386789" lon="12.391105"><ele>340.0</ele><time>2026-03-28T12:45:07.666Z</time></trkpt><trkpt lat="42.7386677" lon="12.3909376"><ele>342.2</ele><time>2026-03-28T12:45:08.676Z</time></trkpt><trkpt lat="42.7386689" lon="12.3907852"><ele>344.4</ele><time>2026-03-28T12:45:09.677Z</time></trkpt><trkpt lat="42.7386782" lon="12.3906367"><ele>346.6</ele><time>2026-03-28T12:45:10.681Z</time></trkpt><trkpt lat="42.738691" lon="12.3904894"><ele>348.8</ele><time>2026-03-28T12:45:11.69Z</time></trkpt><trkpt lat="42.7386909" lon="12.390335"><ele>351.0</ele><time>2026-03-28T12:45:12.681Z</time></trkpt><trkpt lat="42.7386854" lon="12.3901854"><ele>352.6</ele><time>2026-03-28T12:45:13.673Z</time></trkpt><trkpt lat="42.73867" lon="12.3900455"><ele>354.20000000000005</ele><time>2026-03-28T12:45:14.677Z</time></trkpt><trkpt lat="42.7386414" lon="12.3899198"><ele>355.79999999999995</ele><time>2026-03-28T12:45:15.664Z</time></trkpt><trkpt lat="42.7386103" lon="12.3897933"><ele>357.4</ele><time>2026-03-28T12:45:16.665Z</time></trkpt><trkpt lat="42.7385723" lon="12.3896654"><ele>359.0</ele><time>2026-03-28T12:45:17.661Z</time></trkpt><trkpt lat="42.7385339" lon="12.3895378"><ele>361.33333333333337</ele><time>2026-03-28T12:45:18.661Z</time></trkpt><trkpt lat="42.7384963" lon="12.3894212"><ele>363.6666666666667</ele><time>2026-03-28T12:45:19.664Z</time></trkpt><trkpt lat="42.7384637" lon="12.3893143"><ele>366.0</ele><time>2026-03-28T12:45:20.67Z</time></trkpt><trkpt lat="42.7384431" lon="12.389229"><ele>368.3333333333333</ele><time>2026-03-28T12:45:21.665Z</time></trkpt><trkpt lat="42.7384684" lon="12.3890749"><ele>370.66666666666663</ele><time>2026-03-28T12:45:23.662Z</time></trkpt><trkpt lat="42.738505" lon="12.3889832"><ele>373.0</ele><time>2026-03-28T12:45:24.655Z</time></trkpt><trkpt lat="42.7385457" lon="12.3888968"><ele>373.5</ele><time>2026-03-28T12:45:25.649Z</time></trkpt><trkpt lat="42.7385785" lon="12.388814"><ele>374.0</ele><time>2026-03-28T12:45:26.646Z</time></trkpt><trkpt lat="42.7386173" lon="12.3886913"><ele>374.5</ele><time>2026-03-28T12:45:28.664Z</time></trkpt><trkpt lat="42.738548" lon="12.3885826"><ele>375.0</ele><time>2026-03-28T12:45:30.652Z</time></trkpt><trkpt lat="42.7385002" lon="12.3885238"><ele>375.5</ele><time>2026-03-28T12:45:31.661Z</time></trkpt><trkpt lat="42.7384459" lon="12.3884616"><ele>376.0</ele><time>2026-03-28T12:45:32.672Z</time></trkpt><trkpt lat="42.7383922" lon="12.3883933"><ele>377.4</ele><time>2026-03-28T12:45:33.651Z</time></trkpt><trkpt lat="42.7383411" lon="12.3883272"><ele>378.8</ele><time>2026-03-28T12:45:34.666Z</time></trkpt><trkpt lat="42.7382862" lon="12.3882852"><ele>380.2</ele><time>2026-03-28T12:45:35.669Z</time></trkpt><trkpt lat="42.7381861" lon="12.388216"><ele>381.59999999999997</ele><time>2026-03-28T12:45:37.663Z</time></trkpt><trkpt lat="42.7380747" lon="12.3881547"><ele>383.0</ele><time>2026-03-28T12:45:39.651Z</time></trkpt><trkpt lat="42.7379544" lon="12.3881127"><ele>383.0</ele><time>2026-03-28T12:45:41.661Z</time></trkpt><trkpt lat="42.7378496" lon="12.3880705"><ele>383.0</ele><time>2026-03-28T12:45:43.662Z</time></trkpt><trkpt lat="42.737778" lon="12.3879896"><ele>383.0</ele><time>2026-03-28T12:45:45.646Z</time></trkpt><trkpt lat="42.7377134" lon="12.3878185"><ele>383.0</ele><time>2026-03-28T12:45:47.649Z</time></trkpt><trkpt lat="42.7376818" lon="12.3877065"><ele>383.0</ele><time>2026-03-28T12:45:48.673Z</time></trkpt><trkpt lat="42.7376495" lon="12.3875989"><ele>385.0</ele><time>2026-03-28T12:45:49.662Z</time></trkpt><trkpt lat="42.7376152" lon="12.3875164"><ele>387.0</ele><time>2026-03-28T12:45:50.649Z</time></trkpt><trkpt lat="42.7375286" lon="12.3874275"><ele>389.0</ele><time>2026-03-28T12:45:52.675Z</time></trkpt><trkpt lat="42.7374564" lon="12.3873986"><ele>391.0</ele><time>2026-03-28T12:45:53.648Z</time></trkpt><trkpt lat="42.7373685" lon="12.3873637"><ele>393.0</ele><time>2026-03-28T12:45:54.65Z</time></trkpt><trkpt lat="42.7372614" lon="12.3873083"><ele>393.0</ele><time>2026-03-28T12:45:55.651Z</time></trkpt><trkpt lat="42.7371552" lon="12.3872409"><ele>393.0</ele><time>2026-03-28T12:45:56.656Z</time></trkpt><trkpt lat="42.7370659" lon="12.3871612"><ele>393.0</ele><time>2026-03-28T12:45:57.669Z</time></trkpt><trkpt lat="42.7369914" lon="12.3870775"><ele>393.0</ele><time>2026-03-28T12:45:58.659Z</time></trkpt><trkpt lat="42.7369294" lon="12.3869806"><ele>393.0</ele><time>2026-03-28T12:45:59.657Z</time></trkpt><trkpt lat="42.7368789" lon="12.3868595"><ele>394.6666666666667</ele><time>2026-03-28T12:46:00.645Z</time></trkpt><trkpt lat="42.7368313" lon="12.3867463"><ele>396.33333333333337</ele><time>2026-03-28T12:46:01.657Z</time></trkpt><trkpt lat="42.7367854" lon="12.3866574"><ele>398.0</ele><time>2026-03-28T12:46:02.653Z</time></trkpt><trkpt lat="42.7367292" lon="12.3865755"><ele>399.6666666666667</ele><time>2026-03-28T12:46:03.662Z</time></trkpt><trkpt lat="42.7366611" lon="12.3864932"><ele>401.33333333333337</ele><time>2026-03-28T12:46:04.654Z</time></trkpt><trkpt lat="42.7365901" lon="12.3864107"><ele>403.0</ele><time>2026-03-28T12:46:05.662Z</time></trkpt><trkpt lat="42.7365327" lon="12.3863415"><ele>405.33333333333337</ele><time>2026-03-28T12:46:06.682Z</time></trkpt><trkpt lat="42.7364856" lon="12.3862802"><ele>407.6666666666667</ele><time>2026-03-28T12:46:07.664Z</time></trkpt><trkpt lat="42.7364427" lon="12.3861949"><ele>410.0</ele><time>2026-03-28T12:46:08.664Z</time></trkpt><trkpt lat="42.7363881" lon="12.3860946"><ele>412.33333333333337</ele><time>2026-03-28T12:46:09.646Z</time></trkpt><trkpt lat="42.7363151" lon="12.3859926"><ele>414.6666666666667</ele><time>2026-03-28T12:46:10.657Z</time></trkpt><trkpt lat="42.7362265" lon="12.3859055"><ele>417.0</ele><time>2026-03-28T12:46:11.647Z</time></trkpt><trkpt lat="42.7361306" lon="12.385821"><ele>417.0</ele><time>2026-03-28T12:46:12.664Z</time></trkpt><trkpt lat="42.7360638" lon="12.3857395"><ele>417.0</ele><time>2026-03-28T12:46:13.647Z</time></trkpt><trkpt lat="42.7359957" lon="12.385642"><ele>417.0</ele><time>2026-03-28T12:46:15.661Z</time></trkpt><trkpt lat="42.7359969" lon="12.3855455"><ele>417.0</ele><time>2026-03-28T12:46:17.666Z</time></trkpt><trkpt lat="42.7361112" lon="12.3854749"><ele>417.0</ele><time>2026-03-28T12:46:19.663Z</time></trkpt><trkpt lat="42.736212" lon="12.3854531"><ele>417.0</ele><time>2026-03-28T12:46:20.666Z</time></trkpt><trkpt lat="42.7363093" lon="12.3854382"><ele>417.0</ele><time>2026-03-28T12:46:21.655Z</time></trkpt><trkpt lat="42.7363916" lon="12.3854534"><ele>417.0</ele><time>2026-03-28T12:46:22.663Z</time></trkpt><trkpt lat="42.7365102" lon="12.3855151"><ele>417.0</ele><time>2026-03-28T12:46:24.675Z</time></trkpt><trkpt lat="42.7365906" lon="12.3855262"><ele>417.0</ele><time>2026-03-28T12:46:25.66Z</time></trkpt><trkpt lat="42.7366763" lon="12.3855202"><ele>416.5714285714286</ele><time>2026-03-28T12:46:26.68Z</time></trkpt><trkpt lat="42.7367461" lon="12.3854902"><ele>416.1428571428571</ele><time>2026-03-28T12:46:27.658Z</time></trkpt><trkpt lat="42.7368108" lon="12.3854398"><ele>415.7142857142857</ele><time>2026-03-28T12:46:28.669Z</time></trkpt><trkpt lat="42.7368634" lon="12.3853779"><ele>415.28571428571433</ele><time>2026-03-28T12:46:29.649Z</time></trkpt><trkpt lat="42.7368952" lon="12.385302"><ele>414.8571428571429</ele><time>2026-03-28T12:46:30.658Z</time></trkpt><trkpt lat="42.7369029" lon="12.3852"><ele>414.42857142857144</ele><time>2026-03-28T12:46:31.66Z</time></trkpt><trkpt lat="42.7369024" lon="12.385075"><ele>414.0</ele><time>2026-03-28T12:46:32.663Z</time></trkpt><trkpt lat="42.7368998" lon="12.3849644"><ele>416.79999999999995</ele><time>2026-03-28T12:46:33.66Z</time></trkpt><trkpt lat="42.7368819" lon="12.384837"><ele>419.59999999999997</ele><time>2026-03-28T12:46:35.658Z</time></trkpt><trkpt lat="42.7368051" lon="12.3847284"><ele>422.4</ele><time>2026-03-28T12:46:37.665Z</time></trkpt><trkpt lat="42.7367488" lon="12.384646"><ele>425.2</ele><time>2026-03-28T12:46:38.653Z</time></trkpt><trkpt lat="42.7367118" lon="12.3845525"><ele>428.0</ele><time>2026-03-28T12:46:39.652Z</time></trkpt><trkpt lat="42.7366837" lon="12.384445"><ele>428.66666666666663</ele><time>2026-03-28T12:46:40.668Z</time></trkpt><trkpt lat="42.7366583" lon="12.3843316"><ele>429.3333333333333</ele><time>2026-03-28T12:46:41.661Z</time></trkpt><trkpt lat="42.7366354" lon="12.3842189"><ele>430.0</ele><time>2026-03-28T12:46:42.658Z</time></trkpt><trkpt lat="42.7366121" lon="12.3841181"><ele>430.66666666666663</ele><time>2026-03-28T12:46:43.658Z</time></trkpt><trkpt lat="42.7365979" lon="12.384028"><ele>431.3333333333333</ele><time>2026-03-28T12:46:44.648Z</time></trkpt><trkpt lat="42.7365976" lon="12.3839339"><ele>432.0</ele><time>2026-03-28T12:46:45.654Z</time></trkpt><trkpt lat="42.7366756" lon="12.3838049"><ele>432.1666666666667</ele><time>2026-03-28T12:46:47.653Z</time></trkpt><trkpt lat="42.7367149" lon="12.3837249"><ele>432.33333333333337</ele><time>2026-03-28T12:46:48.665Z</time></trkpt><trkpt lat="42.7367175" lon="12.3836342"><ele>432.5</ele><time>2026-03-28T12:46:49.645Z</time></trkpt><trkpt lat="42.7366996" lon="12.3835248"><ele>432.6666666666667</ele><time>2026-03-28T12:46:50.659Z</time></trkpt><trkpt lat="42.7366773" lon="12.3833901"><ele>432.83333333333337</ele><time>2026-03-28T12:46:51.667Z</time></trkpt><trkpt lat="42.736653" lon="12.3832383"><ele>433.0</ele><time>2026-03-28T12:46:52.666Z</time></trkpt><trkpt lat="42.7366271" lon="12.3830812"><ele>435.25</ele><time>2026-03-28T12:46:53.658Z</time></trkpt><trkpt lat="42.7366041" lon="12.3829227"><ele>437.5</ele><time>2026-03-28T12:46:54.657Z</time></trkpt><trkpt lat="42.7365794" lon="12.3827603"><ele>439.75</ele><time>2026-03-28T12:46:55.653Z</time></trkpt><trkpt lat="42.7365516" lon="12.3826042"><ele>442.0</ele><time>2026-03-28T12:46:56.67Z</time></trkpt><trkpt lat="42.7365272" lon="12.3824535"><ele>442.0</ele><time>2026-03-28T12:46:57.651Z</time></trkpt><trkpt lat="42.7365103" lon="12.3823122"><ele>442.00000000000006</ele><time>2026-03-28T12:46:58.659Z</time></trkpt><trkpt lat="42.7364984" lon="12.3821769"><ele>442.00000000000006</ele><time>2026-03-28T12:46:59.664Z</time></trkpt><trkpt lat="42.7364881" lon="12.3820531"><ele>442.0</ele><time>2026-03-28T12:47:00.664Z</time></trkpt><trkpt lat="42.7364785" lon="12.3819372"><ele>442.0</ele><time>2026-03-28T12:47:01.674Z</time></trkpt><trkpt lat="42.736464" lon="12.381828"><ele>443.83333333333337</ele><time>2026-03-28T12:47:02.65Z</time></trkpt><trkpt lat="42.7364471" lon="12.381734"><ele>445.6666666666667</ele><time>2026-03-28T12:47:03.672Z</time></trkpt><trkpt lat="42.7364295" lon="12.3816442"><ele>447.5</ele><time>2026-03-28T12:47:04.673Z</time></trkpt><trkpt lat="42.736402" lon="12.3815535"><ele>449.33333333333337</ele><time>2026-03-28T12:47:05.658Z</time></trkpt><trkpt lat="42.7363557" lon="12.38146"><ele>451.1666666666667</ele><time>2026-03-28T12:47:06.663Z</time></trkpt><trkpt lat="42.7362928" lon="12.3813684"><ele>453.0</ele><time>2026-03-28T12:47:07.664Z</time></trkpt><trkpt lat="42.7362339" lon="12.381297"><ele>453.8333333333333</ele><time>2026-03-28T12:47:08.64Z</time></trkpt><trkpt lat="42.7361848" lon="12.3812367"><ele>454.66666666666663</ele><time>2026-03-28T12:47:09.664Z</time></trkpt><trkpt lat="42.73612" lon="12.3812051"><ele>455.5</ele><time>2026-03-28T12:47:11.658Z</time></trkpt><trkpt lat="42.7360446" lon="12.3812211"><ele>456.3333333333333</ele><time>2026-03-28T12:50:32.654Z</time></trkpt><trkpt lat="42.7359306" lon="12.3812509"><ele>457.16666666666663</ele><time>2026-03-28T12:50:34.664Z</time></trkpt><trkpt lat="42.7358553" lon="12.3812963"><ele>458.0</ele><time>2026-03-28T12:50:35.666Z</time></trkpt><trkpt lat="42.7357779" lon="12.3813488"><ele>457.8333333333333</ele><time>2026-03-28T12:50:36.67Z</time></trkpt><trkpt lat="42.7357091" lon="12.3813953"><ele>457.66666666666663</ele><time>2026-03-28T12:50:37.646Z</time></trkpt><trkpt lat="42.7356496" lon="12.381438"><ele>457.5</ele><time>2026-03-28T12:50:38.661Z</time></trkpt><trkpt lat="42.7355898" lon="12.3814789"><ele>457.33333333333337</ele><time>2026-03-28T12:50:39.664Z</time></trkpt><trkpt lat="42.7354888" lon="12.381519"><ele>457.1666666666667</ele><time>2026-03-28T12:50:41.649Z</time></trkpt><trkpt lat="42.7353893" lon="12.3814622"><ele>457.0</ele><time>2026-03-28T12:50:43.666Z</time></trkpt><trkpt lat="42.7353445" lon="12.3813937"><ele>458.8</ele><time>2026-03-28T12:50:44.667Z</time></trkpt><trkpt lat="42.7353016" lon="12.3812745"><ele>460.6</ele><time>2026-03-28T12:50:45.663Z</time></trkpt><trkpt lat="42.7352662" lon="12.3811235"><ele>462.40000000000003</ele><time>2026-03-28T12:50:46.654Z</time></trkpt><trkpt lat="42.735237" lon="12.3809658"><ele>464.20000000000005</ele><time>2026-03-28T12:50:47.653Z</time></trkpt><trkpt lat="42.7352131" lon="12.380849"><ele>466.0</ele><time>2026-03-28T12:50:48.665Z</time></trkpt><trkpt lat="42.735192" lon="12.3807437"><ele>466.6</ele><time>2026-03-28T12:50:49.656Z</time></trkpt><trkpt lat="42.7351586" lon="12.3806356"><ele>467.20000000000005</ele><time>2026-03-28T12:50:50.662Z</time></trkpt><trkpt lat="42.7351263" lon="12.3805302"><ele>467.79999999999995</ele><time>2026-03-28T12:50:51.664Z</time></trkpt><trkpt lat="42.7350934" lon="12.3804247"><ele>468.4</ele><time>2026-03-28T12:50:52.663Z</time></trkpt><trkpt lat="42.7350745" lon="12.3803331"><ele>469.0</ele><time>2026-03-28T12:50:53.666Z</time></trkpt><trkpt lat="42.7351125" lon="12.3801609"><ele>469.2</ele><time>2026-03-28T12:50:55.656Z</time></trkpt><trkpt lat="42.7351515" lon="12.3800689"><ele>469.4</ele><time>2026-03-28T12:50:56.654Z</time></trkpt><trkpt lat="42.735206" lon="12.3799721"><ele>469.6</ele><time>2026-03-28T12:50:57.666Z</time></trkpt><trkpt lat="42.7352669" lon="12.3798671"><ele>469.8</ele><time>2026-03-28T12:50:58.65Z</time></trkpt><trkpt lat="42.7353317" lon="12.3797607"><ele>470.0</ele><time>2026-03-28T12:50:59.664Z</time></trkpt><trkpt lat="42.7353924" lon="12.3796489"><ele>471.8333333333333</ele><time>2026-03-28T12:51:00.653Z</time></trkpt><trkpt lat="42.7354539" lon="12.3795438"><ele>473.66666666666663</ele><time>2026-03-28T12:51:01.65Z</time></trkpt><trkpt lat="42.7355228" lon="12.3794695"><ele>475.5</ele><time>2026-03-28T12:51:02.66Z</time></trkpt><trkpt lat="42.7356027" lon="12.379418"><ele>477.33333333333337</ele><time>2026-03-28T12:51:03.654Z</time></trkpt><trkpt lat="42.7356539" lon="12.3793582"><ele>479.1666666666667</ele><time>2026-03-28T12:51:04.657Z</time></trkpt><trkpt lat="42.7356994" lon="12.3792369"><ele>481.0</ele><time>2026-03-28T12:51:06.654Z</time></trkpt><trkpt lat="42.7357274" lon="12.3791304"><ele>481.0</ele><time>2026-03-28T12:51:08.643Z</time></trkpt><trkpt lat="42.7357842" lon="12.3789749"><ele>481.0</ele><time>2026-03-28T12:51:10.666Z</time></trkpt><trkpt lat="42.7358288" lon="12.3788664"><ele>481.0</ele><time>2026-03-28T12:51:11.664Z</time></trkpt><trkpt lat="42.7358862" lon="12.3787408"><ele>481.0</ele><time>2026-03-28T12:51:12.653Z</time></trkpt><trkpt lat="42.7359465" lon="12.3786147"><ele>481.0</ele><time>2026-03-28T12:51:13.654Z</time></trkpt><trkpt lat="42.7360098" lon="12.3784987"><ele>481.2857142857142</ele><time>2026-03-28T12:51:14.651Z</time></trkpt><trkpt lat="42.7360651" lon="12.3784015"><ele>481.57142857142856</ele><time>2026-03-28T12:51:15.653Z</time></trkpt><trkpt lat="42.7361154" lon="12.3783139"><ele>481.85714285714283</ele><time>2026-03-28T12:51:16.657Z</time></trkpt><trkpt lat="42.7361557" lon="12.3782355"><ele>482.1428571428571</ele><time>2026-03-28T12:51:17.66Z</time></trkpt><trkpt lat="42.7361794" lon="12.3781535"><ele>482.42857142857144</ele><time>2026-03-28T12:51:18.65Z</time></trkpt><trkpt lat="42.736201" lon="12.3780691"><ele>482.7142857142857</ele><time>2026-03-28T12:51:19.665Z</time></trkpt><trkpt lat="42.7362195" lon="12.3779856"><ele>483.0</ele><time>2026-03-28T12:51:20.652Z</time></trkpt><trkpt lat="42.7362396" lon="12.3778968"><ele>484.0</ele><time>2026-03-28T12:51:21.649Z</time></trkpt><trkpt lat="42.7362527" lon="12.3777961"><ele>485.0</ele><time>2026-03-28T12:51:22.658Z</time></trkpt><trkpt lat="42.7362658" lon="12.3776935"><ele>486.0</ele><time>2026-03-28T12:51:23.68Z</time></trkpt><trkpt lat="42.7362829" lon="12.3775982"><ele>487.0</ele><time>2026-03-28T12:51:24.666Z</time></trkpt><trkpt lat="42.7362989" lon="12.3774979"><ele>488.0</ele><time>2026-03-28T12:51:25.665Z</time></trkpt><trkpt lat="42.7363139" lon="12.3773993"><ele>489.0</ele><time>2026-03-28T12:51:26.66Z</time></trkpt><trkpt lat="42.7363181" lon="12.3773124"><ele>490.0</ele><time>2026-03-28T12:51:27.677Z</time></trkpt><trkpt lat="42.7363257" lon="12.3771891"><ele>490.0</ele><time>2026-03-28T12:51:29.675Z</time></trkpt><trkpt lat="42.7363016" lon="12.3771024"><ele>490.0</ele><time>2026-03-28T12:51:32.66Z</time></trkpt><trkpt lat="42.7362064" lon="12.3770917"><ele>490.0</ele><time>2026-03-28T12:51:35.66Z</time></trkpt><trkpt lat="42.7361469" lon="12.3771517"><ele>490.0</ele><time>2026-03-28T12:51:36.656Z</time></trkpt><trkpt lat="42.7360632" lon="12.3772241"><ele>490.0</ele><time>2026-03-28T12:51:37.659Z</time></trkpt><trkpt lat="42.7359525" lon="12.3773091"><ele>494.33333333333337</ele><time>2026-03-28T12:51:38.662Z</time></trkpt><trkpt lat="42.7358182" lon="12.3774009"><ele>498.66666666666663</ele><time>2026-03-28T12:51:39.666Z</time></trkpt><trkpt lat="42.7356657" lon="12.3775049"><ele>503.0</ele><time>2026-03-28T12:51:40.676Z</time></trkpt><trkpt lat="42.7354968" lon="12.377624"><ele>503.0</ele><time>2026-03-28T12:51:41.663Z</time></trkpt><trkpt lat="42.7352975" lon="12.3777662"><ele>503.0</ele><time>2026-03-28T12:51:42.666Z</time></trkpt><trkpt lat="42.7350799" lon="12.377921"><ele>505.5</ele><time>2026-03-28T12:51:43.668Z</time></trkpt><trkpt lat="42.7348625" lon="12.378079"><ele>508.0</ele><time>2026-03-28T12:51:44.66Z</time></trkpt><trkpt lat="42.7346379" lon="12.3782396"><ele>508.0</ele><time>2026-03-28T12:51:45.665Z</time></trkpt><trkpt lat="42.7344038" lon="12.3784118"><ele>508.0</ele><time>2026-03-28T12:51:46.662Z</time></trkpt><trkpt lat="42.7341839" lon="12.3785827"><ele>510.33333333333337</ele><time>2026-03-28T12:51:47.665Z</time></trkpt><trkpt lat="42.733993" lon="12.3787423"><ele>512.6666666666666</ele><time>2026-03-28T12:51:48.661Z</time></trkpt><trkpt lat="42.7338217" lon="12.3788805"><ele>515.0</ele><time>2026-03-28T12:51:49.654Z</time></trkpt><trkpt lat="42.7336664" lon="12.3790115"><ele>518.6666666666666</ele><time>2026-03-28T12:51:50.65Z</time></trkpt><trkpt lat="42.7335147" lon="12.3791374"><ele>522.3333333333334</ele><time>2026-03-28T12:51:51.671Z</time></trkpt><trkpt lat="42.7333681" lon="12.3792407"><ele>526.0</ele><time>2026-03-28T12:51:52.679Z</time></trkpt><trkpt lat="42.7332225" lon="12.3793031"><ele>526.0</ele><time>2026-03-28T12:51:53.657Z</time></trkpt><trkpt lat="42.7330662" lon="12.37933"><ele>526.0</ele><time>2026-03-28T12:51:54.667Z</time></trkpt><trkpt lat="42.7328868" lon="12.3793204"><ele>526.0</ele><time>2026-03-28T12:51:55.658Z</time></trkpt><trkpt lat="42.7326814" lon="12.3792701"><ele>527.0</ele><time>2026-03-28T12:51:56.679Z</time></trkpt><trkpt lat="42.7324707" lon="12.3792164"><ele>528.0</ele><time>2026-03-28T12:51:57.678Z</time></trkpt><trkpt lat="42.7322688" lon="12.3791835"><ele>529.0</ele><time>2026-03-28T12:51:58.68Z</time></trkpt><trkpt lat="42.7320897" lon="12.3791621"><ele>529.0</ele><time>2026-03-28T12:51:59.678Z</time></trkpt><trkpt lat="42.7319181" lon="12.3791405"><ele>529.0</ele><time>2026-03-28T12:52:00.663Z</time></trkpt><trkpt lat="42.7317498" lon="12.3791252"><ele>529.0</ele><time>2026-03-28T12:52:01.666Z</time></trkpt><trkpt lat="42.7315744" lon="12.3791007"><ele>530.6666666666667</ele><time>2026-03-28T12:52:02.654Z</time></trkpt><trkpt lat="42.7313966" lon="12.3790834"><ele>532.3333333333334</ele><time>2026-03-28T12:52:03.672Z</time></trkpt><trkpt lat="42.7312242" lon="12.3790657"><ele>534.0</ele><time>2026-03-28T12:52:04.666Z</time></trkpt><trkpt lat="42.7310691" lon="12.3790462"><ele>535.0</ele><time>2026-03-28T12:52:05.678Z</time></trkpt><trkpt lat="42.7309288" lon="12.3790285"><ele>536.0</ele><time>2026-03-28T12:52:06.675Z</time></trkpt><trkpt lat="42.7307952" lon="12.3790107"><ele>537.0</ele><time>2026-03-28T12:52:07.667Z</time></trkpt><trkpt lat="42.7306618" lon="12.3789948"><ele>538.0</ele><time>2026-03-28T12:52:08.678Z</time></trkpt><trkpt lat="42.7305301" lon="12.3789782"><ele>538.0</ele><time>2026-03-28T12:52:09.643Z</time></trkpt><trkpt lat="42.7304075" lon="12.3789653"><ele>538.0</ele><time>2026-03-28T12:52:10.659Z</time></trkpt><trkpt lat="42.7302909" lon="12.378953"><ele>538.0</ele><time>2026-03-28T12:52:11.667Z</time></trkpt><trkpt lat="42.7301781" lon="12.3789435"><ele>538.0</ele><time>2026-03-28T12:52:12.668Z</time></trkpt><trkpt lat="42.7300703" lon="12.3789296"><ele>538.8</ele><time>2026-03-28T12:52:13.664Z</time></trkpt><trkpt lat="42.729967" lon="12.3789176"><ele>539.5999999999999</ele><time>2026-03-28T12:52:14.671Z</time></trkpt><trkpt lat="42.7298662" lon="12.3789096"><ele>540.4000000000001</ele><time>2026-03-28T12:52:15.656Z</time></trkpt><trkpt lat="42.7297634" lon="12.3788989"><ele>541.2</ele><time>2026-03-28T12:52:16.664Z</time></trkpt><trkpt lat="42.72965" lon="12.3788899"><ele>542.0</ele><time>2026-03-28T12:52:17.661Z</time></trkpt><trkpt lat="42.7295329" lon="12.3788873"><ele>542.0</ele><time>2026-03-28T12:52:18.657Z</time></trkpt><trkpt lat="42.7294154" lon="12.3788999"><ele>542.0</ele><time>2026-03-28T12:52:19.669Z</time></trkpt><trkpt lat="42.7292955" lon="12.3789284"><ele>542.0</ele><time>2026-03-28T12:52:20.655Z</time></trkpt><trkpt lat="42.7291739" lon="12.3789743"><ele>542.0</ele><time>2026-03-28T12:52:21.668Z</time></trkpt><trkpt lat="42.729057" lon="12.3790237"><ele>544.0</ele><time>2026-03-28T12:52:22.654Z</time></trkpt><trkpt lat="42.7289423" lon="12.3790743"><ele>546.0</ele><time>2026-03-28T12:52:23.678Z</time></trkpt><trkpt lat="42.7288252" lon="12.3791316"><ele>548.0</ele><time>2026-03-28T12:52:24.664Z</time></trkpt><trkpt lat="42.7287114" lon="12.3791893"><ele>550.0</ele><time>2026-03-28T12:52:25.67Z</time></trkpt><trkpt lat="42.7286028" lon="12.3792488"><ele>550.25</ele><time>2026-03-28T12:52:26.671Z</time></trkpt><trkpt lat="42.728492" lon="12.3793087"><ele>550.5</ele><time>2026-03-28T12:52:27.661Z</time></trkpt><trkpt lat="42.7283839" lon="12.37937"><ele>550.75</ele><time>2026-03-28T12:52:28.67Z</time></trkpt><trkpt lat="42.7282736" lon="12.3794369"><ele>551.0</ele><time>2026-03-28T12:52:29.671Z</time></trkpt><trkpt lat="42.7281593" lon="12.379505"><ele>551.0</ele><time>2026-03-28T12:52:30.667Z</time></trkpt><trkpt lat="42.7280378" lon="12.3795693"><ele>551.0</ele><time>2026-03-28T12:52:31.658Z</time></trkpt><trkpt lat="42.7279165" lon="12.3796286"><ele>551.0</ele><time>2026-03-28T12:52:32.682Z</time></trkpt><trkpt lat="42.727791" lon="12.3796733"><ele>551.0</ele><time>2026-03-28T12:52:33.647Z</time></trkpt><trkpt lat="42.7276566" lon="12.3797143"><ele>550.5</ele><time>2026-03-28T12:52:34.637Z</time></trkpt><trkpt lat="42.7275215" lon="12.3797547"><ele>550.0</ele><time>2026-03-28T12:52:35.644Z</time></trkpt><trkpt lat="42.7273903" lon="12.3797946"><ele>549.5</ele><time>2026-03-28T12:52:36.657Z</time></trkpt><trkpt lat="42.7272585" lon="12.3798375"><ele>549.0</ele><time>2026-03-28T12:52:37.656Z</time></trkpt><trkpt lat="42.7271251" lon="12.3798802"><ele>549.0</ele><time>2026-03-28T12:52:38.666Z</time></trkpt><trkpt lat="42.7269903" lon="12.3799222"><ele>549.0</ele><time>2026-03-28T12:52:39.657Z</time></trkpt><trkpt lat="42.7268522" lon="12.3799601"><ele>549.0</ele><time>2026-03-28T12:52:40.665Z</time></trkpt><trkpt lat="42.7267101" lon="12.3800009"><ele>549.0</ele><time>2026-03-28T12:52:41.663Z</time></trkpt><trkpt lat="42.726567" lon="12.3800419"><ele>549.25</ele><time>2026-03-28T12:52:42.651Z</time></trkpt><trkpt lat="42.7264223" lon="12.3800807"><ele>549.5</ele><time>2026-03-28T12:52:43.654Z</time></trkpt><trkpt lat="42.726278" lon="12.3801209"><ele>549.75</ele><time>2026-03-28T12:52:44.649Z</time></trkpt><trkpt lat="42.7261362" lon="12.380162"><ele>550.0</ele><time>2026-03-28T12:52:45.663Z</time></trkpt><trkpt lat="42.7259979" lon="12.3802071"><ele>548.75</ele><time>2026-03-28T12:52:46.661Z</time></trkpt><trkpt lat="42.7258642" lon="12.3802527"><ele>547.5</ele><time>2026-03-28T12:52:47.663Z</time></trkpt><trkpt lat="42.725733" lon="12.3802911"><ele>546.25</ele><time>2026-03-28T12:52:48.652Z</time></trkpt><trkpt lat="42.7255951" lon="12.380329"><ele>545.0</ele><time>2026-03-28T12:52:49.657Z</time></trkpt><trkpt lat="42.7254578" lon="12.3803658"><ele>545.0</ele><time>2026-03-28T12:52:50.665Z</time></trkpt><trkpt lat="42.7253226" lon="12.3803973"><ele>545.0</ele><time>2026-03-28T12:52:51.65Z</time></trkpt><trkpt lat="42.7251835" lon="12.3804254"><ele>545.0</ele><time>2026-03-28T12:52:52.651Z</time></trkpt><trkpt lat="42.7250405" lon="12.3804462"><ele>545.0</ele><time>2026-03-28T12:52:53.654Z</time></trkpt><trkpt lat="42.7249025" lon="12.3804628"><ele>545.25</ele><time>2026-03-28T12:52:54.653Z</time></trkpt><trkpt lat="42.7247655" lon="12.3804804"><ele>545.5</ele><time>2026-03-28T12:52:55.663Z</time></trkpt><trkpt lat="42.7246299" lon="12.3804996"><ele>545.75</ele><time>2026-03-28T12:52:56.655Z</time></trkpt><trkpt lat="42.7245071" lon="12.3805253"><ele>546.0</ele><time>2026-03-28T12:52:57.659Z</time></trkpt><trkpt lat="42.7243926" lon="12.380546"><ele>546.4</ele><time>2026-03-28T12:52:58.652Z</time></trkpt><trkpt lat="42.7242887" lon="12.3805588"><ele>546.8</ele><time>2026-03-28T12:52:59.658Z</time></trkpt><trkpt lat="42.7241902" lon="12.3805701"><ele>547.1999999999999</ele><time>2026-03-28T12:53:00.651Z</time></trkpt><trkpt lat="42.7240915" lon="12.3805807"><ele>547.6</ele><time>2026-03-28T12:53:01.656Z</time></trkpt><trkpt lat="42.7239948" lon="12.3805926"><ele>548.0</ele><time>2026-03-28T12:53:02.662Z</time></trkpt><trkpt lat="42.723895" lon="12.3806099"><ele>548.0</ele><time>2026-03-28T12:53:03.665Z</time></trkpt><trkpt lat="42.7238032" lon="12.3806249"><ele>548.0</ele><time>2026-03-28T12:53:04.646Z</time></trkpt><trkpt lat="42.7237169" lon="12.3806423"><ele>548.0</ele><time>2026-03-28T12:53:05.674Z</time></trkpt><trkpt lat="42.7236251" lon="12.3806581"><ele>548.0</ele><time>2026-03-28T12:53:06.666Z</time></trkpt><trkpt lat="42.7235292" lon="12.3806772"><ele>548.0</ele><time>2026-03-28T12:53:07.659Z</time></trkpt><trkpt lat="42.7234331" lon="12.3806967"><ele>548.0</ele><time>2026-03-28T12:53:08.681Z</time></trkpt><trkpt lat="42.7233344" lon="12.3807196"><ele>548.0</ele><time>2026-03-28T12:53:09.673Z</time></trkpt><trkpt lat="42.7232295" lon="12.3807513"><ele>548.0</ele><time>2026-03-28T12:53:10.68Z</time></trkpt><trkpt lat="42.7231226" lon="12.3807908"><ele>548.0</ele><time>2026-03-28T12:53:11.665Z</time></trkpt><trkpt lat="42.7230084" lon="12.3808352"><ele>548.0</ele><time>2026-03-28T12:53:12.664Z</time></trkpt><trkpt lat="42.7228871" lon="12.3808812"><ele>548.0</ele><time>2026-03-28T12:53:13.66Z</time></trkpt><trkpt lat="42.7227654" lon="12.3809271"><ele>548.0</ele><time>2026-03-28T12:53:14.678Z</time></trkpt><trkpt lat="42.7226485" lon="12.3809731"><ele>548.0</ele><time>2026-03-28T12:53:15.663Z</time></trkpt><trkpt lat="42.7225349" lon="12.3810149"><ele>548.0</ele><time>2026-03-28T12:53:16.667Z</time></trkpt><trkpt lat="42.7224178" lon="12.3810554"><ele>548.0</ele><time>2026-03-28T12:53:17.668Z</time></trkpt><trkpt lat="42.7223023" lon="12.3811025"><ele>548.0</ele><time>2026-03-28T12:53:18.665Z</time></trkpt><trkpt lat="42.7221848" lon="12.3811502"><ele>548.0</ele><time>2026-03-28T12:53:19.673Z</time></trkpt><trkpt lat="42.7220689" lon="12.3811971"><ele>548.0</ele><time>2026-03-28T12:53:20.65Z</time></trkpt><trkpt lat="42.7219592" lon="12.3812372"><ele>547.6</ele><time>2026-03-28T12:53:21.65Z</time></trkpt><trkpt lat="42.7218505" lon="12.3812822"><ele>547.1999999999999</ele><time>2026-03-28T12:53:22.667Z</time></trkpt><trkpt lat="42.7217401" lon="12.3813176"><ele>546.8</ele><time>2026-03-28T12:53:23.659Z</time></trkpt><trkpt lat="42.7216304" lon="12.3813349"><ele>546.4</ele><time>2026-03-28T12:53:24.662Z</time></trkpt><trkpt lat="42.7215238" lon="12.3813385"><ele>546.0</ele><time>2026-03-28T12:53:25.659Z</time></trkpt><trkpt lat="42.7214127" lon="12.381315"><ele>546.0</ele><time>2026-03-28T12:53:26.681Z</time></trkpt><trkpt lat="42.7213015" lon="12.3812683"><ele>546.0</ele><time>2026-03-28T12:53:27.658Z</time></trkpt><trkpt lat="42.721181" lon="12.3812005"><ele>546.0</ele><time>2026-03-28T12:53:28.662Z</time></trkpt><trkpt lat="42.721044" lon="12.3811154"><ele>546.0</ele><time>2026-03-28T12:53:29.659Z</time></trkpt><trkpt lat="42.7208966" lon="12.3810123"><ele>545.6666666666666</ele><time>2026-03-28T12:53:30.659Z</time></trkpt><trkpt lat="42.720735" lon="12.3809181"><ele>545.3333333333333</ele><time>2026-03-28T12:53:31.661Z</time></trkpt><trkpt lat="42.7205593" lon="12.3808122"><ele>545.0</ele><time>2026-03-28T12:53:32.666Z</time></trkpt><trkpt lat="42.7203671" lon="12.3807072"><ele>545.0</ele><time>2026-03-28T12:53:33.667Z</time></trkpt><trkpt lat="42.720159" lon="12.3806344"><ele>545.0</ele><time>2026-03-28T12:53:34.669Z</time></trkpt><trkpt lat="42.7199458" lon="12.3805814"><ele>545.0</ele><time>2026-03-28T12:53:35.663Z</time></trkpt><trkpt lat="42.7197407" lon="12.3805503"><ele>545.0</ele><time>2026-03-28T12:53:36.677Z</time></trkpt><trkpt lat="42.7195417" lon="12.3805347"><ele>545.0</ele><time>2026-03-28T12:53:37.656Z</time></trkpt><trkpt lat="42.7193399" lon="12.380516"><ele>545.0</ele><time>2026-03-28T12:53:38.66Z</time></trkpt><trkpt lat="42.7191457" lon="12.3804868"><ele>545.3333333333333</ele><time>2026-03-28T12:53:39.664Z</time></trkpt><trkpt lat="42.7189678" lon="12.3804514"><ele>545.6666666666666</ele><time>2026-03-28T12:53:40.665Z</time></trkpt><trkpt lat="42.7188033" lon="12.3804103"><ele>546.0</ele><time>2026-03-28T12:53:41.661Z</time></trkpt><trkpt lat="42.7186455" lon="12.3803704"><ele>547.0</ele><time>2026-03-28T12:53:42.663Z</time></trkpt><trkpt lat="42.7184873" lon="12.3803305"><ele>548.0</ele><time>2026-03-28T12:53:43.663Z</time></trkpt><trkpt lat="42.7183409" lon="12.3802909"><ele>549.0</ele><time>2026-03-28T12:53:44.645Z</time></trkpt><trkpt lat="42.7182098" lon="12.3802532"><ele>550.0</ele><time>2026-03-28T12:53:45.67Z</time></trkpt><trkpt lat="42.718081" lon="12.3802135"><ele>550.0</ele><time>2026-03-28T12:53:46.658Z</time></trkpt><trkpt lat="42.7179525" lon="12.3801722"><ele>550.0</ele><time>2026-03-28T12:53:47.666Z</time></trkpt><trkpt lat="42.7178165" lon="12.3801323"><ele>550.0</ele><time>2026-03-28T12:53:48.677Z</time></trkpt><trkpt lat="42.7176844" lon="12.3800941"><ele>550.0</ele><time>2026-03-28T12:53:49.645Z</time></trkpt><trkpt lat="42.7175602" lon="12.3800571"><ele>550.5</ele><time>2026-03-28T12:53:50.652Z</time></trkpt><trkpt lat="42.7174419" lon="12.3800261"><ele>551.0</ele><time>2026-03-28T12:53:51.649Z</time></trkpt><trkpt lat="42.7173232" lon="12.3799992"><ele>551.5</ele><time>2026-03-28T12:53:52.658Z</time></trkpt><trkpt lat="42.7172107" lon="12.3799767"><ele>552.0</ele><time>2026-03-28T12:53:53.665Z</time></trkpt><trkpt lat="42.7171028" lon="12.3799529"><ele>552.0</ele><time>2026-03-28T12:53:54.664Z</time></trkpt><trkpt lat="42.7169942" lon="12.3799293"><ele>552.0</ele><time>2026-03-28T12:53:55.661Z</time></trkpt><trkpt lat="42.7168882" lon="12.3799094"><ele>552.0</ele><time>2026-03-28T12:53:56.664Z</time></trkpt><trkpt lat="42.7167788" lon="12.3798856"><ele>552.0</ele><time>2026-03-28T12:53:57.643Z</time></trkpt><trkpt lat="42.7166737" lon="12.3798654"><ele>552.0</ele><time>2026-03-28T12:53:58.667Z</time></trkpt><trkpt lat="42.7165659" lon="12.3798536"><ele>552.8000000000001</ele><time>2026-03-28T12:53:59.655Z</time></trkpt><trkpt lat="42.7164567" lon="12.3798422"><ele>553.6</ele><time>2026-03-28T12:54:00.663Z</time></trkpt><trkpt lat="42.7163517" lon="12.3798325"><ele>554.4000000000001</ele><time>2026-03-28T12:54:01.659Z</time></trkpt><trkpt lat="42.7162408" lon="12.3798258"><ele>555.2</ele><time>2026-03-28T12:54:02.668Z</time></trkpt><trkpt lat="42.7161288" lon="12.3798256"><ele>556.0</ele><time>2026-03-28T12:54:03.663Z</time></trkpt><trkpt lat="42.7160253" lon="12.3798288"><ele>556.0</ele><time>2026-03-28T12:54:04.647Z</time></trkpt><trkpt lat="42.7159358" lon="12.3798304"><ele>556.0</ele><time>2026-03-28T12:54:05.66Z</time></trkpt><trkpt lat="42.715855" lon="12.3798347"><ele>556.0</ele><time>2026-03-28T12:54:06.673Z</time></trkpt><trkpt lat="42.7157718" lon="12.3798366"><ele>556.0</ele><time>2026-03-28T12:54:07.644Z</time></trkpt><trkpt lat="42.7156904" lon="12.3798546"><ele>556.0</ele><time>2026-03-28T12:54:08.658Z</time></trkpt><trkpt lat="42.7156052" lon="12.3799028"><ele>556.0</ele><time>2026-03-28T12:54:09.69Z</time></trkpt><trkpt lat="42.7155274" lon="12.3799799"><ele>556.0</ele><time>2026-03-28T12:54:10.664Z</time></trkpt><trkpt lat="42.7154409" lon="12.380073"><ele>556.0</ele><time>2026-03-28T12:54:11.688Z</time></trkpt><trkpt lat="42.7153408" lon="12.3801904"><ele>556.0</ele><time>2026-03-28T12:54:12.652Z</time></trkpt><trkpt lat="42.7152339" lon="12.3803275"><ele>556.0</ele><time>2026-03-28T12:54:13.651Z</time></trkpt><trkpt lat="42.7151261" lon="12.3804628"><ele>557.5</ele><time>2026-03-28T12:54:14.651Z</time></trkpt><trkpt lat="42.7150243" lon="12.3805847"><ele>559.0</ele><time>2026-03-28T12:54:15.646Z</time></trkpt><trkpt lat="42.7149293" lon="12.3806897"><ele>560.5</ele><time>2026-03-28T12:54:16.662Z</time></trkpt><trkpt lat="42.7148444" lon="12.3807909"><ele>562.0</ele><time>2026-03-28T12:54:17.652Z</time></trkpt><trkpt lat="42.7147682" lon="12.3808885"><ele>562.0</ele><time>2026-03-28T12:54:18.667Z</time></trkpt><trkpt lat="42.7147052" lon="12.3809955"><ele>562.0</ele><time>2026-03-28T12:54:19.672Z</time></trkpt><trkpt lat="42.7146491" lon="12.3811206"><ele>562.0</ele><time>2026-03-28T12:54:20.658Z</time></trkpt><trkpt lat="42.7146038" lon="12.3812881"><ele>562.0</ele><time>2026-03-28T12:54:21.648Z</time></trkpt><trkpt lat="42.7145654" lon="12.3814805"><ele>563.0</ele><time>2026-03-28T12:54:22.656Z</time></trkpt><trkpt lat="42.7145316" lon="12.3816777"><ele>564.0</ele><time>2026-03-28T12:54:23.665Z</time></trkpt><trkpt lat="42.7145051" lon="12.3818626"><ele>565.0</ele><time>2026-03-28T12:54:24.659Z</time></trkpt><trkpt lat="42.7144661" lon="12.3820471"><ele>566.0</ele><time>2026-03-28T12:54:25.667Z</time></trkpt><trkpt lat="42.7144306" lon="12.382227"><ele>566.0</ele><time>2026-03-28T12:54:26.661Z</time></trkpt><trkpt lat="42.714405" lon="12.3823894"><ele>566.0</ele><time>2026-03-28T12:54:27.674Z</time></trkpt><trkpt lat="42.7144017" lon="12.3825527"><ele>566.0</ele><time>2026-03-28T12:54:28.651Z</time></trkpt><trkpt lat="42.714414" lon="12.3827349"><ele>566.0</ele><time>2026-03-28T12:54:29.65Z</time></trkpt><trkpt lat="42.7144396" lon="12.3829209"><ele>566.0</ele><time>2026-03-28T12:54:30.653Z</time></trkpt><trkpt lat="42.714458" lon="12.3831135"><ele>566.0</ele><time>2026-03-28T12:54:31.662Z</time></trkpt><trkpt lat="42.7144831" lon="12.3833056"><ele>566.0</ele><time>2026-03-28T12:54:32.658Z</time></trkpt><trkpt lat="42.714506" lon="12.3834938"><ele>566.0</ele><time>2026-03-28T12:54:33.66Z</time></trkpt><trkpt lat="42.714526" lon="12.3836884"><ele>566.3333333333333</ele><time>2026-03-28T12:54:34.655Z</time></trkpt><trkpt lat="42.7145454" lon="12.3838858"><ele>566.6666666666666</ele><time>2026-03-28T12:54:35.658Z</time></trkpt><trkpt lat="42.7145716" lon="12.3840916"><ele>567.0</ele><time>2026-03-28T12:54:36.662Z</time></trkpt><trkpt lat="42.7146033" lon="12.3843116"><ele>567.0</ele><time>2026-03-28T12:54:37.647Z</time></trkpt><trkpt lat="42.7146257" lon="12.3845286"><ele>567.0</ele><time>2026-03-28T12:54:38.654Z</time></trkpt><trkpt lat="42.7146484" lon="12.3847456"><ele>567.0</ele><time>2026-03-28T12:54:39.652Z</time></trkpt><trkpt lat="42.7146736" lon="12.3849736"><ele>567.0</ele><time>2026-03-28T12:54:40.658Z</time></trkpt><trkpt lat="42.7147011" lon="12.3852064"><ele>567.0</ele><time>2026-03-28T12:54:41.652Z</time></trkpt><trkpt lat="42.714723" lon="12.3854291"><ele>567.0</ele><time>2026-03-28T12:54:42.653Z</time></trkpt><trkpt lat="42.714743" lon="12.3856481"><ele>567.0</ele><time>2026-03-28T12:54:43.654Z</time></trkpt><trkpt lat="42.7147683" lon="12.3858687"><ele>567.0</ele><time>2026-03-28T12:54:44.663Z</time></trkpt><trkpt lat="42.7147892" lon="12.3860842"><ele>567.0</ele><time>2026-03-28T12:54:45.658Z</time></trkpt><trkpt lat="42.714799" lon="12.3862971"><ele>566.5</ele><time>2026-03-28T12:54:46.665Z</time></trkpt><trkpt lat="42.7147963" lon="12.3865091"><ele>566.0</ele><time>2026-03-28T12:54:47.672Z</time></trkpt><trkpt lat="42.7147787" lon="12.386701"><ele>565.5</ele><time>2026-03-28T12:54:48.661Z</time></trkpt><trkpt lat="42.7147587" lon="12.3868815"><ele>565.0</ele><time>2026-03-28T12:54:49.658Z</time></trkpt><trkpt lat="42.7147453" lon="12.3870528"><ele>564.25</ele><time>2026-03-28T12:54:50.644Z</time></trkpt><trkpt lat="42.7147491" lon="12.3872333"><ele>563.5</ele><time>2026-03-28T12:54:51.658Z</time></trkpt><trkpt lat="42.7147698" lon="12.3874401"><ele>562.75</ele><time>2026-03-28T12:54:52.681Z</time></trkpt><trkpt lat="42.7147966" lon="12.3876549"><ele>562.0</ele><time>2026-03-28T12:54:53.652Z</time></trkpt><trkpt lat="42.7148237" lon="12.3878792"><ele>561.0</ele><time>2026-03-28T12:54:54.657Z</time></trkpt><trkpt lat="42.7148487" lon="12.3881019"><ele>560.0</ele><time>2026-03-28T12:54:55.663Z</time></trkpt><trkpt lat="42.7148737" lon="12.3883015"><ele>559.0</ele><time>2026-03-28T12:54:56.657Z</time></trkpt><trkpt lat="42.7148974" lon="12.3884873"><ele>559.0</ele><time>2026-03-28T12:54:57.658Z</time></trkpt><trkpt lat="42.7149137" lon="12.3886658"><ele>559.0</ele><time>2026-03-28T12:54:58.652Z</time></trkpt><trkpt lat="42.7149302" lon="12.3888168"><ele>559.0</ele><time>2026-03-28T12:54:59.657Z</time></trkpt><trkpt lat="42.7149453" lon="12.3889328"><ele>559.0</ele><time>2026-03-28T12:55:00.659Z</time></trkpt><trkpt lat="42.7149659" lon="12.3890374"><ele>559.0</ele><time>2026-03-28T12:55:01.66Z</time></trkpt><trkpt lat="42.7149981" lon="12.3891217"><ele>558.7142857142858</ele><time>2026-03-28T12:55:02.656Z</time></trkpt><trkpt lat="42.715054" lon="12.3891749"><ele>558.4285714285714</ele><time>2026-03-28T12:55:03.671Z</time></trkpt><trkpt lat="42.7151173" lon="12.3891897"><ele>558.1428571428571</ele><time>2026-03-28T12:55:04.657Z</time></trkpt><trkpt lat="42.7151805" lon="12.389164"><ele>557.8571428571429</ele><time>2026-03-28T12:55:05.661Z</time></trkpt><trkpt lat="42.715239" lon="12.3890903"><ele>557.5714285714286</ele><time>2026-03-28T12:55:06.651Z</time></trkpt><trkpt lat="42.7152934" lon="12.3889982"><ele>557.2857142857143</ele><time>2026-03-28T12:55:07.65Z</time></trkpt><trkpt lat="42.7153521" lon="12.3889246"><ele>557.0</ele><time>2026-03-28T12:55:08.653Z</time></trkpt><trkpt lat="42.7154135" lon="12.3888832"><ele>555.8000000000001</ele><time>2026-03-28T12:55:09.672Z</time></trkpt><trkpt lat="42.715529" lon="12.3889655"><ele>554.6</ele><time>2026-03-28T12:55:11.659Z</time></trkpt><trkpt lat="42.7155754" lon="12.3890569"><ele>553.4000000000001</ele><time>2026-03-28T12:55:12.66Z</time></trkpt><trkpt lat="42.715591" lon="12.389168"><ele>552.2</ele><time>2026-03-28T12:55:13.652Z</time></trkpt><trkpt lat="42.7155756" lon="12.3892706"><ele>551.0</ele><time>2026-03-28T12:55:14.656Z</time></trkpt><trkpt lat="42.7155464" lon="12.3894064"><ele>551.0</ele><time>2026-03-28T12:55:15.663Z</time></trkpt><trkpt lat="42.7154933" lon="12.3895523"><ele>551.0</ele><time>2026-03-28T12:55:16.671Z</time></trkpt><trkpt lat="42.7154431" lon="12.3896882"><ele>551.0</ele><time>2026-03-28T12:55:17.663Z</time></trkpt><trkpt lat="42.7154011" lon="12.3898226"><ele>551.0</ele><time>2026-03-28T12:55:18.655Z</time></trkpt><trkpt lat="42.715381" lon="12.3899847"><ele>549.0</ele><time>2026-03-28T12:55:19.659Z</time></trkpt><trkpt lat="42.7153797" lon="12.3901689"><ele>547.0</ele><time>2026-03-28T12:55:20.656Z</time></trkpt><trkpt lat="42.7153786" lon="12.3903407"><ele>545.0</ele><time>2026-03-28T12:55:21.66Z</time></trkpt><trkpt lat="42.7153721" lon="12.3905075"><ele>543.0</ele><time>2026-03-28T12:55:22.669Z</time></trkpt><trkpt lat="42.7153599" lon="12.3906613"><ele>541.0</ele><time>2026-03-28T12:55:23.659Z</time></trkpt><trkpt lat="42.715351" lon="12.39081"><ele>539.0</ele><time>2026-03-28T12:55:24.675Z</time></trkpt><trkpt lat="42.7153452" lon="12.3909538"><ele>537.0</ele><time>2026-03-28T12:55:25.674Z</time></trkpt><trkpt lat="42.7153342" lon="12.3910935"><ele>535.0</ele><time>2026-03-28T12:55:26.667Z</time></trkpt><trkpt lat="42.7153095" lon="12.3912211"><ele>533.0</ele><time>2026-03-28T12:55:27.658Z</time></trkpt><trkpt lat="42.7152646" lon="12.3913409"><ele>533.1999999999999</ele><time>2026-03-28T12:55:28.662Z</time></trkpt><trkpt lat="42.7152009" lon="12.3914389"><ele>533.4</ele><time>2026-03-28T12:55:29.657Z</time></trkpt><trkpt lat="42.7151193" lon="12.3915182"><ele>533.5999999999999</ele><time>2026-03-28T12:55:30.654Z</time></trkpt><trkpt lat="42.7150288" lon="12.3915824"><ele>533.8</ele><time>2026-03-28T12:55:31.659Z</time></trkpt><trkpt lat="42.7149396" lon="12.3916276"><ele>534.0</ele><time>2026-03-28T12:55:32.668Z</time></trkpt><trkpt lat="42.7148461" lon="12.3916378"><ele>534.0</ele><time>2026-03-28T12:55:33.653Z</time></trkpt><trkpt lat="42.7147414" lon="12.3916125"><ele>534.0</ele><time>2026-03-28T12:55:34.663Z</time></trkpt><trkpt lat="42.7146142" lon="12.3915516"><ele>534.0</ele><time>2026-03-28T12:55:35.68Z</time></trkpt><trkpt lat="42.7144679" lon="12.3914718"><ele>534.0</ele><time>2026-03-28T12:55:36.653Z</time></trkpt><trkpt lat="42.7143454" lon="12.3914131"><ele>533.0</ele><time>2026-03-28T12:55:37.655Z</time></trkpt><trkpt lat="42.7142546" lon="12.3913596"><ele>532.0</ele><time>2026-03-28T12:55:38.653Z</time></trkpt><trkpt lat="42.7141885" lon="12.3913438"><ele>531.0</ele><time>2026-03-28T12:55:39.664Z</time></trkpt><trkpt lat="42.714079" lon="12.3913773"><ele>530.0</ele><time>2026-03-28T12:55:41.666Z</time></trkpt><trkpt lat="42.7140329" lon="12.3915219"><ele>529.0</ele><time>2026-03-28T12:55:43.655Z</time></trkpt><trkpt lat="42.7140927" lon="12.3916594"><ele>529.0</ele><time>2026-03-28T12:55:45.644Z</time></trkpt><trkpt lat="42.7141534" lon="12.3917125"><ele>529.0</ele><time>2026-03-28T12:55:46.67Z</time></trkpt><trkpt lat="42.7142314" lon="12.3917664"><ele>529.0</ele><time>2026-03-28T12:55:47.647Z</time></trkpt><trkpt lat="42.714317" lon="12.3918289"><ele>529.0</ele><time>2026-03-28T12:55:48.661Z</time></trkpt><trkpt lat="42.7144221" lon="12.3918954"><ele>529.0</ele><time>2026-03-28T12:55:49.66Z</time></trkpt><trkpt lat="42.714524" lon="12.3919724"><ele>530.0</ele><time>2026-03-28T12:55:50.654Z</time></trkpt><trkpt lat="42.7146238" lon="12.3920563"><ele>531.0</ele><time>2026-03-28T12:55:51.66Z</time></trkpt><trkpt lat="42.7147029" lon="12.3921565"><ele>532.0</ele><time>2026-03-28T12:55:52.662Z</time></trkpt><trkpt lat="42.714754" lon="12.3922838"><ele>533.0</ele><time>2026-03-28T12:55:53.657Z</time></trkpt><trkpt lat="42.7147975" lon="12.3924227"><ele>534.0</ele><time>2026-03-28T12:55:54.654Z</time></trkpt><trkpt lat="42.7148408" lon="12.3925894"><ele>528.6666666666666</ele><time>2026-03-28T12:55:55.66Z</time></trkpt><trkpt lat="42.71488" lon="12.3927764"><ele>523.3333333333333</ele><time>2026-03-28T12:55:56.661Z</time></trkpt><trkpt lat="42.7148946" lon="12.392999"><ele>518.0</ele><time>2026-03-28T12:55:57.665Z</time></trkpt><trkpt lat="42.7149072" lon="12.3932441"><ele>516.0</ele><time>2026-03-28T12:55:58.679Z</time></trkpt><trkpt lat="42.7149297" lon="12.3935242"><ele>514.0</ele><time>2026-03-28T12:55:59.655Z</time></trkpt><trkpt lat="42.7149584" lon="12.3938046"><ele>512.0</ele><time>2026-03-28T12:56:00.657Z</time></trkpt><trkpt lat="42.7149822" lon="12.3940753"><ele>510.66666666666663</ele><time>2026-03-28T12:56:01.653Z</time></trkpt><trkpt lat="42.7150088" lon="12.3943306"><ele>509.33333333333337</ele><time>2026-03-28T12:56:02.663Z</time></trkpt><trkpt lat="42.7150297" lon="12.3945682"><ele>508.0</ele><time>2026-03-28T12:56:03.661Z</time></trkpt><trkpt lat="42.7150483" lon="12.3947956"><ele>507.5</ele><time>2026-03-28T12:56:04.671Z</time></trkpt><trkpt lat="42.7150663" lon="12.3950128"><ele>507.0</ele><time>2026-03-28T12:56:05.658Z</time></trkpt><trkpt lat="42.7150889" lon="12.3952167"><ele>506.5</ele><time>2026-03-28T12:56:06.654Z</time></trkpt><trkpt lat="42.7151113" lon="12.3954012"><ele>506.0</ele><time>2026-03-28T12:56:07.671Z</time></trkpt><trkpt lat="42.7151357" lon="12.3955692"><ele>506.0</ele><time>2026-03-28T12:56:08.667Z</time></trkpt><trkpt lat="42.7151677" lon="12.3957265"><ele>506.0</ele><time>2026-03-28T12:56:09.674Z</time></trkpt><trkpt lat="42.7152234" lon="12.3958969"><ele>506.0</ele><time>2026-03-28T12:56:10.645Z</time></trkpt><trkpt lat="42.7153113" lon="12.3961088"><ele>506.0</ele><time>2026-03-28T12:56:11.669Z</time></trkpt><trkpt lat="42.7154125" lon="12.396347"><ele>503.3333333333333</ele><time>2026-03-28T12:56:12.67Z</time></trkpt><trkpt lat="42.7155153" lon="12.3965827"><ele>500.66666666666663</ele><time>2026-03-28T12:56:13.654Z</time></trkpt><trkpt lat="42.7156141" lon="12.3968267"><ele>498.0</ele><time>2026-03-28T12:56:14.662Z</time></trkpt><trkpt lat="42.7157094" lon="12.3970623"><ele>498.33333333333337</ele><time>2026-03-28T12:56:15.674Z</time></trkpt><trkpt lat="42.7158039" lon="12.3972952"><ele>498.6666666666667</ele><time>2026-03-28T12:56:16.651Z</time></trkpt><trkpt lat="42.7158928" lon="12.3975162"><ele>499.0</ele><time>2026-03-28T12:56:17.65Z</time></trkpt><trkpt lat="42.7159764" lon="12.3977218"><ele>499.0</ele><time>2026-03-28T12:56:18.652Z</time></trkpt><trkpt lat="42.7160606" lon="12.3979269"><ele>499.0</ele><time>2026-03-28T12:56:19.653Z</time></trkpt><trkpt lat="42.7161432" lon="12.3981286"><ele>499.0</ele><time>2026-03-28T12:56:20.655Z</time></trkpt><trkpt lat="42.7162268" lon="12.3983333"><ele>496.0</ele><time>2026-03-28T12:56:21.657Z</time></trkpt><trkpt lat="42.7163124" lon="12.3985436"><ele>493.0</ele><time>2026-03-28T12:56:22.666Z</time></trkpt><trkpt lat="42.7163931" lon="12.3987496"><ele>490.0</ele><time>2026-03-28T12:56:23.67Z</time></trkpt><trkpt lat="42.7164696" lon="12.3989402"><ele>490.0</ele><time>2026-03-28T12:56:24.67Z</time></trkpt><trkpt lat="42.7165396" lon="12.3991177"><ele>490.0</ele><time>2026-03-28T12:56:25.642Z</time></trkpt><trkpt lat="42.7166042" lon="12.3992861"><ele>490.0</ele><time>2026-03-28T12:56:26.662Z</time></trkpt><trkpt lat="42.7166691" lon="12.3994437"><ele>490.0</ele><time>2026-03-28T12:56:27.675Z</time></trkpt><trkpt lat="42.7167276" lon="12.3995899"><ele>490.2</ele><time>2026-03-28T12:56:28.644Z</time></trkpt><trkpt lat="42.7167813" lon="12.3997252"><ele>490.4</ele><time>2026-03-28T12:56:29.659Z</time></trkpt><trkpt lat="42.7168175" lon="12.3998465"><ele>490.6</ele><time>2026-03-28T12:56:30.648Z</time></trkpt><trkpt lat="42.7168322" lon="12.3999591"><ele>490.8</ele><time>2026-03-28T12:56:31.657Z</time></trkpt><trkpt lat="42.7168274" lon="12.4000846"><ele>491.0</ele><time>2026-03-28T12:56:32.66Z</time></trkpt><trkpt lat="42.7168028" lon="12.4002368"><ele>491.0</ele><time>2026-03-28T12:56:33.671Z</time></trkpt><trkpt lat="42.7167656" lon="12.4003912"><ele>491.0</ele><time>2026-03-28T12:56:34.676Z</time></trkpt><trkpt lat="42.7167222" lon="12.4005346"><ele>491.0</ele><time>2026-03-28T12:56:35.666Z</time></trkpt><trkpt lat="42.7166806" lon="12.400674"><ele>491.0</ele><time>2026-03-28T12:56:36.666Z</time></trkpt><trkpt lat="42.7166473" lon="12.4008216"><ele>488.75</ele><time>2026-03-28T12:56:37.65Z</time></trkpt><trkpt lat="42.7166259" lon="12.4009798"><ele>486.5</ele><time>2026-03-28T12:56:38.654Z</time></trkpt><trkpt lat="42.7166048" lon="12.4011355"><ele>484.25</ele><time>2026-03-28T12:56:39.658Z</time></trkpt><trkpt lat="42.7165974" lon="12.4012894"><ele>482.0</ele><time>2026-03-28T12:56:40.665Z</time></trkpt><trkpt lat="42.7165947" lon="12.4014357"><ele>480.16666666666663</ele><time>2026-03-28T12:56:41.652Z</time></trkpt><trkpt lat="42.716594" lon="12.4015691"><ele>478.3333333333333</ele><time>2026-03-28T12:56:42.659Z</time></trkpt><trkpt lat="42.7165935" lon="12.4016908"><ele>476.5</ele><time>2026-03-28T12:56:43.659Z</time></trkpt><trkpt lat="42.7165824" lon="12.4017767"><ele>474.66666666666663</ele><time>2026-03-28T12:56:44.667Z</time></trkpt><trkpt lat="42.7165358" lon="12.4018381"><ele>472.8333333333333</ele><time>2026-03-28T12:56:45.66Z</time></trkpt><trkpt lat="42.7164522" lon="12.4018744"><ele>471.0</ele><time>2026-03-28T12:56:46.651Z</time></trkpt><trkpt lat="42.7163433" lon="12.4018855"><ele>471.0</ele><time>2026-03-28T12:56:47.654Z</time></trkpt><trkpt lat="42.716224" lon="12.4018781"><ele>471.0</ele><time>2026-03-28T12:56:48.668Z</time></trkpt><trkpt lat="42.716088" lon="12.4018659"><ele>471.0</ele><time>2026-03-28T12:56:49.654Z</time></trkpt><trkpt lat="42.7159416" lon="12.4018452"><ele>471.0</ele><time>2026-03-28T12:56:50.657Z</time></trkpt><trkpt lat="42.7157948" lon="12.4018306"><ele>472.0</ele><time>2026-03-28T12:56:51.667Z</time></trkpt><trkpt lat="42.7156587" lon="12.4018225"><ele>473.0</ele><time>2026-03-28T12:56:52.647Z</time></trkpt><trkpt lat="42.7155269" lon="12.4018337"><ele>474.0</ele><time>2026-03-28T12:56:53.657Z</time></trkpt><trkpt lat="42.7153986" lon="12.4018502"><ele>475.0</ele><time>2026-03-28T12:56:54.651Z</time></trkpt><trkpt lat="42.7152721" lon="12.4018724"><ele>473.2</ele><time>2026-03-28T12:56:55.657Z</time></trkpt><trkpt lat="42.715152" lon="12.4018925"><ele>471.4</ele><time>2026-03-28T12:56:56.67Z</time></trkpt><trkpt lat="42.7150398" lon="12.4019105"><ele>469.6</ele><time>2026-03-28T12:56:57.667Z</time></trkpt><trkpt lat="42.7149514" lon="12.4019243"><ele>467.8</ele><time>2026-03-28T12:56:58.658Z</time></trkpt><trkpt lat="42.7148875" lon="12.4019372"><ele>466.0</ele><time>2026-03-28T12:56:59.655Z</time></trkpt><trkpt lat="42.7148099" lon="12.4018973"><ele>466.0</ele><time>2026-03-28T12:57:01.647Z</time></trkpt><trkpt lat="42.7147851" lon="12.4017393"><ele>466.0</ele><time>2026-03-28T12:57:03.653Z</time></trkpt><trkpt lat="42.7148037" lon="12.4016401"><ele>466.0</ele><time>2026-03-28T12:57:04.646Z</time></trkpt><trkpt lat="42.7148411" lon="12.4015257"><ele>466.0</ele><time>2026-03-28T12:57:05.662Z</time></trkpt><trkpt lat="42.7148895" lon="12.4013915"><ele>466.0</ele><time>2026-03-28T12:57:06.665Z</time></trkpt><trkpt lat="42.7149302" lon="12.4012578"><ele>466.4</ele><time>2026-03-28T12:57:07.653Z</time></trkpt><trkpt lat="42.7149442" lon="12.4011387"><ele>466.8</ele><time>2026-03-28T12:57:08.661Z</time></trkpt><trkpt lat="42.7149526" lon="12.4010287"><ele>467.19999999999993</ele><time>2026-03-28T12:57:09.663Z</time></trkpt><trkpt lat="42.7149418" lon="12.4009205"><ele>467.59999999999997</ele><time>2026-03-28T12:57:10.672Z</time></trkpt><trkpt lat="42.7149216" lon="12.4008014"><ele>468.0</ele><time>2026-03-28T12:57:11.672Z</time></trkpt><trkpt lat="42.7148773" lon="12.40066"><ele>470.25</ele><time>2026-03-28T12:57:12.664Z</time></trkpt><trkpt lat="42.7148215" lon="12.4004901"><ele>472.5</ele><time>2026-03-28T12:57:13.655Z</time></trkpt><trkpt lat="42.714759" lon="12.4003017"><ele>474.75</ele><time>2026-03-28T12:57:14.665Z</time></trkpt><trkpt lat="42.7146861" lon="12.4001177"><ele>477.0</ele><time>2026-03-28T12:57:15.655Z</time></trkpt><trkpt lat="42.7145994" lon="12.3999284"><ele>477.0</ele><time>2026-03-28T12:57:16.67Z</time></trkpt><trkpt lat="42.7145106" lon="12.3997407"><ele>477.0</ele><time>2026-03-28T12:57:17.656Z</time></trkpt><trkpt lat="42.714438" lon="12.399554"><ele>477.0</ele><time>2026-03-28T12:57:18.663Z</time></trkpt><trkpt lat="42.7143789" lon="12.3993921"><ele>473.40000000000003</ele><time>2026-03-28T12:57:19.662Z</time></trkpt><trkpt lat="42.7143303" lon="12.3992542"><ele>469.80000000000007</ele><time>2026-03-28T12:57:20.653Z</time></trkpt><trkpt lat="42.7142885" lon="12.3991257"><ele>466.2</ele><time>2026-03-28T12:57:21.667Z</time></trkpt><trkpt lat="42.7142669" lon="12.3989989"><ele>462.6</ele><time>2026-03-28T12:57:22.656Z</time></trkpt><trkpt lat="42.7142664" lon="12.3988736"><ele>459.0</ele><time>2026-03-28T12:57:23.662Z</time></trkpt><trkpt lat="42.7142874" lon="12.3987687"><ele>459.0</ele><time>2026-03-28T12:57:24.652Z</time></trkpt><trkpt lat="42.7143251" lon="12.3986839"><ele>459.0</ele><time>2026-03-28T12:57:25.665Z</time></trkpt><trkpt lat="42.7143503" lon="12.3985989"><ele>459.0</ele><time>2026-03-28T12:57:26.656Z</time></trkpt><trkpt lat="42.7143525" lon="12.3984994"><ele>459.0</ele><time>2026-03-28T12:57:27.65Z</time></trkpt><trkpt lat="42.7143339" lon="12.3983793"><ele>459.0</ele><time>2026-03-28T12:57:28.658Z</time></trkpt><trkpt lat="42.7142986" lon="12.3982746"><ele>459.0</ele><time>2026-03-28T12:57:29.663Z</time></trkpt><trkpt lat="42.7142498" lon="12.3981856"><ele>459.0</ele><time>2026-03-28T12:57:30.648Z</time></trkpt><trkpt lat="42.7141964" lon="12.3980965"><ele>459.0</ele><time>2026-03-28T12:57:31.661Z</time></trkpt><trkpt lat="42.7141299" lon="12.3979939"><ele>459.0</ele><time>2026-03-28T12:57:32.652Z</time></trkpt><trkpt lat="42.7140623" lon="12.3978798"><ele>459.0</ele><time>2026-03-28T12:57:33.659Z</time></trkpt><trkpt lat="42.7139937" lon="12.3977643"><ele>459.0</ele><time>2026-03-28T12:57:34.654Z</time></trkpt><trkpt lat="42.7139154" lon="12.3976341"><ele>462.5</ele><time>2026-03-28T12:57:35.679Z</time></trkpt><trkpt lat="42.7138448" lon="12.3974867"><ele>466.0</ele><time>2026-03-28T12:57:36.661Z</time></trkpt><trkpt lat="42.7137722" lon="12.397338"><ele>469.5</ele><time>2026-03-28T12:57:37.65Z</time></trkpt><trkpt lat="42.7136944" lon="12.3971983"><ele>473.0</ele><time>2026-03-28T12:57:38.664Z</time></trkpt><trkpt lat="42.7135999" lon="12.3970661"><ele>471.79999999999995</ele><time>2026-03-28T12:57:39.653Z</time></trkpt><trkpt lat="42.713505" lon="12.396943"><ele>470.59999999999997</ele><time>2026-03-28T12:57:40.675Z</time></trkpt><trkpt lat="42.713422" lon="12.3968323"><ele>469.40000000000003</ele><time>2026-03-28T12:57:41.662Z</time></trkpt><trkpt lat="42.7133554" lon="12.3967387"><ele>468.20000000000005</ele><time>2026-03-28T12:57:42.656Z</time></trkpt><trkpt lat="42.7132883" lon="12.3966453"><ele>467.0</ele><time>2026-03-28T12:57:43.662Z</time></trkpt><trkpt lat="42.7132117" lon="12.3965503"><ele>467.0</ele><time>2026-03-28T12:57:44.657Z</time></trkpt><trkpt lat="42.7131369" lon="12.396444"><ele>467.0</ele><time>2026-03-28T12:57:45.664Z</time></trkpt><trkpt lat="42.7130649" lon="12.3963163"><ele>467.0</ele><time>2026-03-28T12:57:46.664Z</time></trkpt><trkpt lat="42.7129968" lon="12.3961719"><ele>467.0</ele><time>2026-03-28T12:57:47.664Z</time></trkpt><trkpt lat="42.7129283" lon="12.396019"><ele>468.0</ele><time>2026-03-28T12:57:48.671Z</time></trkpt><trkpt lat="42.7128587" lon="12.3958611"><ele>469.0</ele><time>2026-03-28T12:57:49.666Z</time></trkpt><trkpt lat="42.7127908" lon="12.3957003"><ele>470.0</ele><time>2026-03-28T12:57:50.652Z</time></trkpt><trkpt lat="42.7127229" lon="12.3955383"><ele>471.0</ele><time>2026-03-28T12:57:51.661Z</time></trkpt><trkpt lat="42.7126557" lon="12.3953859"><ele>468.5</ele><time>2026-03-28T12:57:52.653Z</time></trkpt><trkpt lat="42.7125939" lon="12.3952517"><ele>466.0</ele><time>2026-03-28T12:57:53.648Z</time></trkpt><trkpt lat="42.7125338" lon="12.395131"><ele>463.5</ele><time>2026-03-28T12:57:54.642Z</time></trkpt><trkpt lat="42.7124575" lon="12.3950267"><ele>461.0</ele><time>2026-03-28T12:57:55.651Z</time></trkpt><trkpt lat="42.7123517" lon="12.3949212"><ele>461.0</ele><time>2026-03-28T12:57:56.655Z</time></trkpt><trkpt lat="42.7122352" lon="12.3948142"><ele>461.0</ele><time>2026-03-28T12:57:57.656Z</time></trkpt><trkpt lat="42.7121326" lon="12.3947222"><ele>461.0</ele><time>2026-03-28T12:57:58.668Z</time></trkpt><trkpt lat="42.7120417" lon="12.3946394"><ele>461.0</ele><time>2026-03-28T12:57:59.652Z</time></trkpt><trkpt lat="42.7119592" lon="12.394564"><ele>460.3333333333333</ele><time>2026-03-28T12:58:00.653Z</time></trkpt><trkpt lat="42.7118854" lon="12.3944954"><ele>459.66666666666663</ele><time>2026-03-28T12:58:01.658Z</time></trkpt><trkpt lat="42.7118202" lon="12.3944325"><ele>459.0</ele><time>2026-03-28T12:58:02.661Z</time></trkpt><trkpt lat="42.7117562" lon="12.3943728"><ele>458.33333333333337</ele><time>2026-03-28T12:58:03.67Z</time></trkpt><trkpt lat="42.7116941" lon="12.3943172"><ele>457.6666666666667</ele><time>2026-03-28T12:58:04.655Z</time></trkpt><trkpt lat="42.7116392" lon="12.3942692"><ele>457.0</ele><time>2026-03-28T12:58:05.639Z</time></trkpt><trkpt lat="42.7115386" lon="12.3942454"><ele>457.0</ele><time>2026-03-28T12:58:07.658Z</time></trkpt><trkpt lat="42.7114504" lon="12.3943271"><ele>457.00000000000006</ele><time>2026-03-28T12:58:09.669Z</time></trkpt><trkpt lat="42.711386" lon="12.3944129"><ele>457.00000000000006</ele><time>2026-03-28T12:58:10.668Z</time></trkpt><trkpt lat="42.7113127" lon="12.394512"><ele>457.0</ele><time>2026-03-28T12:58:11.642Z</time></trkpt><trkpt lat="42.7112397" lon="12.3946047"><ele>457.0</ele><time>2026-03-28T12:58:12.653Z</time></trkpt><trkpt lat="42.7111682" lon="12.3946999"><ele>455.40000000000003</ele><time>2026-03-28T12:58:13.655Z</time></trkpt><trkpt lat="42.7110966" lon="12.394792"><ele>453.80000000000007</ele><time>2026-03-28T12:58:14.678Z</time></trkpt><trkpt lat="42.7110233" lon="12.394884"><ele>452.2</ele><time>2026-03-28T12:58:15.667Z</time></trkpt><trkpt lat="42.7109474" lon="12.3949707"><ele>450.6</ele><time>2026-03-28T12:58:16.653Z</time></trkpt><trkpt lat="42.7108669" lon="12.3950576"><ele>449.0</ele><time>2026-03-28T12:58:17.66Z</time></trkpt><trkpt lat="42.7107818" lon="12.3951411"><ele>446.79999999999995</ele><time>2026-03-28T12:58:18.66Z</time></trkpt><trkpt lat="42.7106979" lon="12.3952245"><ele>444.59999999999997</ele><time>2026-03-28T12:58:19.663Z</time></trkpt><trkpt lat="42.7106074" lon="12.3953105"><ele>442.4</ele><time>2026-03-28T12:58:20.66Z</time></trkpt><trkpt lat="42.7105225" lon="12.3953887"><ele>440.2</ele><time>2026-03-28T12:58:21.66Z</time></trkpt><trkpt lat="42.7104409" lon="12.3954638"><ele>438.0</ele><time>2026-03-28T12:58:22.665Z</time></trkpt><trkpt lat="42.7103643" lon="12.3955487"><ele>436.59999999999997</ele><time>2026-03-28T12:58:23.67Z</time></trkpt><trkpt lat="42.7102871" lon="12.3956289"><ele>435.19999999999993</ele><time>2026-03-28T12:58:24.648Z</time></trkpt><trkpt lat="42.7102107" lon="12.3957154"><ele>433.8</ele><time>2026-03-28T12:58:25.661Z</time></trkpt><trkpt lat="42.7101316" lon="12.3958026"><ele>432.4</ele><time>2026-03-28T12:58:26.663Z</time></trkpt><trkpt lat="42.710055" lon="12.3958878"><ele>431.0</ele><time>2026-03-28T12:58:27.666Z</time></trkpt><trkpt lat="42.709984" lon="12.395969"><ele>429.4</ele><time>2026-03-28T12:58:28.659Z</time></trkpt><trkpt lat="42.7099079" lon="12.3960589"><ele>427.8</ele><time>2026-03-28T12:58:29.671Z</time></trkpt><trkpt lat="42.7098282" lon="12.3961596"><ele>426.2</ele><time>2026-03-28T12:58:30.662Z</time></trkpt><trkpt lat="42.7097522" lon="12.3962576"><ele>424.59999999999997</ele><time>2026-03-28T12:58:31.662Z</time></trkpt><trkpt lat="42.7096829" lon="12.396356"><ele>423.0</ele><time>2026-03-28T12:58:32.664Z</time></trkpt><trkpt lat="42.7096276" lon="12.3964493"><ele>422.4</ele><time>2026-03-28T12:58:33.675Z</time></trkpt><trkpt lat="42.7095814" lon="12.3965449"><ele>421.79999999999995</ele><time>2026-03-28T12:58:34.652Z</time></trkpt><trkpt lat="42.7095419" lon="12.3966433"><ele>421.2</ele><time>2026-03-28T12:58:35.658Z</time></trkpt><trkpt lat="42.7095048" lon="12.3967597"><ele>420.6</ele><time>2026-03-28T12:58:36.666Z</time></trkpt><trkpt lat="42.7094768" lon="12.3968846"><ele>420.0</ele><time>2026-03-28T12:58:37.657Z</time></trkpt><trkpt lat="42.7094536" lon="12.3970141"><ele>420.0</ele><time>2026-03-28T12:58:38.677Z</time></trkpt><trkpt lat="42.709441" lon="12.3971388"><ele>420.0</ele><time>2026-03-28T12:58:39.656Z</time></trkpt><trkpt lat="42.7094321" lon="12.3972531"><ele>420.0</ele><time>2026-03-28T12:58:40.648Z</time></trkpt><trkpt lat="42.7094258" lon="12.3973636"><ele>420.0</ele><time>2026-03-28T12:58:41.655Z</time></trkpt><trkpt lat="42.7094105" lon="12.397472"><ele>420.0</ele><time>2026-03-28T12:58:42.662Z</time></trkpt><trkpt lat="42.7093831" lon="12.3975721"><ele>420.0</ele><time>2026-03-28T12:58:43.663Z</time></trkpt><trkpt lat="42.709363" lon="12.3976739"><ele>417.5</ele><time>2026-03-28T12:58:44.66Z</time></trkpt><trkpt lat="42.7093432" lon="12.3977891"><ele>415.0</ele><time>2026-03-28T12:58:45.666Z</time></trkpt><trkpt lat="42.7093256" lon="12.3979062"><ele>412.5</ele><time>2026-03-28T12:58:46.667Z</time></trkpt><trkpt lat="42.7093021" lon="12.3980251"><ele>410.0</ele><time>2026-03-28T12:58:47.667Z</time></trkpt><trkpt lat="42.7092752" lon="12.398144"><ele>407.5</ele><time>2026-03-28T12:58:48.667Z</time></trkpt><trkpt lat="42.7092479" lon="12.3982621"><ele>405.0</ele><time>2026-03-28T12:58:49.659Z</time></trkpt><trkpt lat="42.7092185" lon="12.3983857"><ele>404.0</ele><time>2026-03-28T12:58:50.665Z</time></trkpt><trkpt lat="42.7091887" lon="12.3985178"><ele>403.0</ele><time>2026-03-28T12:58:51.644Z</time></trkpt><trkpt lat="42.7091559" lon="12.3986414"><ele>402.0</ele><time>2026-03-28T12:58:52.67Z</time></trkpt><trkpt lat="42.7091279" lon="12.3987648"><ele>401.0</ele><time>2026-03-28T12:58:53.664Z</time></trkpt><trkpt lat="42.7091001" lon="12.3988863"><ele>400.0</ele><time>2026-03-28T12:58:54.669Z</time></trkpt><trkpt lat="42.7090726" lon="12.3990086"><ele>399.2</ele><time>2026-03-28T12:58:55.665Z</time></trkpt><trkpt lat="42.7090462" lon="12.3991398"><ele>398.4</ele><time>2026-03-28T12:58:56.656Z</time></trkpt><trkpt lat="42.7090183" lon="12.3992698"><ele>397.6</ele><time>2026-03-28T12:58:57.646Z</time></trkpt><trkpt lat="42.7089909" lon="12.3993893"><ele>396.8</ele><time>2026-03-28T12:58:58.663Z</time></trkpt><trkpt lat="42.7089587" lon="12.3995095"><ele>396.0</ele><time>2026-03-28T12:58:59.671Z</time></trkpt><trkpt lat="42.7089233" lon="12.3996281"><ele>394.6</ele><time>2026-03-28T12:59:00.666Z</time></trkpt><trkpt lat="42.7088761" lon="12.3997489"><ele>393.20000000000005</ele><time>2026-03-28T12:59:01.66Z</time></trkpt><trkpt lat="42.7088257" lon="12.3998773"><ele>391.79999999999995</ele><time>2026-03-28T12:59:02.654Z</time></trkpt><trkpt lat="42.7087663" lon="12.4000013"><ele>390.4</ele><time>2026-03-28T12:59:03.658Z</time></trkpt><trkpt lat="42.7086971" lon="12.4001094"><ele>389.0</ele><time>2026-03-28T12:59:04.662Z</time></trkpt><trkpt lat="42.7086211" lon="12.4002155"><ele>387.25</ele><time>2026-03-28T12:59:05.667Z</time></trkpt><trkpt lat="42.7085391" lon="12.4003288"><ele>385.5</ele><time>2026-03-28T12:59:06.665Z</time></trkpt><trkpt lat="42.7084574" lon="12.4004383"><ele>383.75</ele><time>2026-03-28T12:59:07.653Z</time></trkpt><trkpt lat="42.708371" lon="12.4005497"><ele>382.0</ele><time>2026-03-28T12:59:08.677Z</time></trkpt><trkpt lat="42.7082821" lon="12.4006594"><ele>381.5</ele><time>2026-03-28T12:59:09.665Z</time></trkpt><trkpt lat="42.7081916" lon="12.4007727"><ele>381.0</ele><time>2026-03-28T12:59:10.66Z</time></trkpt><trkpt lat="42.7081001" lon="12.4008868"><ele>380.5</ele><time>2026-03-28T12:59:11.667Z</time></trkpt><trkpt lat="42.7080094" lon="12.4010019"><ele>380.0</ele><time>2026-03-28T12:59:12.665Z</time></trkpt><trkpt lat="42.7079211" lon="12.4011206"><ele>380.0</ele><time>2026-03-28T12:59:13.659Z</time></trkpt><trkpt lat="42.7078383" lon="12.4012336"><ele>380.0</ele><time>2026-03-28T12:59:14.654Z</time></trkpt><trkpt lat="42.7077594" lon="12.4013391"><ele>380.0</ele><time>2026-03-28T12:59:15.658Z</time></trkpt><trkpt lat="42.7076802" lon="12.4014379"><ele>380.0</ele><time>2026-03-28T12:59:16.673Z</time></trkpt><trkpt lat="42.7076106" lon="12.4015295"><ele>380.0</ele><time>2026-03-28T12:59:17.662Z</time></trkpt><trkpt lat="42.7075496" lon="12.4016139"><ele>378.4</ele><time>2026-03-28T12:59:18.675Z</time></trkpt><trkpt lat="42.7074924" lon="12.4016864"><ele>376.8</ele><time>2026-03-28T12:59:19.663Z</time></trkpt><trkpt lat="42.7074337" lon="12.4017563"><ele>375.20000000000005</ele><time>2026-03-28T12:59:20.658Z</time></trkpt><trkpt lat="42.7073476" lon="12.4018524"><ele>373.6</ele><time>2026-03-28T12:59:21.668Z</time></trkpt><trkpt lat="42.7072338" lon="12.4019817"><ele>372.0</ele><time>2026-03-28T12:59:22.67Z</time></trkpt><trkpt lat="42.7070844" lon="12.4021503"><ele>370.6666666666667</ele><time>2026-03-28T12:59:23.675Z</time></trkpt><trkpt lat="42.706936" lon="12.4023317"><ele>369.33333333333337</ele><time>2026-03-28T12:59:24.665Z</time></trkpt><trkpt lat="42.7067755" lon="12.4025285"><ele>368.0</ele><time>2026-03-28T12:59:25.659Z</time></trkpt><trkpt lat="42.706616" lon="12.4027248"><ele>367.6666666666667</ele><time>2026-03-28T12:59:26.651Z</time></trkpt><trkpt lat="42.7064581" lon="12.4029262"><ele>367.3333333333333</ele><time>2026-03-28T12:59:27.671Z</time></trkpt><trkpt lat="42.7063096" lon="12.4031153"><ele>367.0</ele><time>2026-03-28T12:59:28.658Z</time></trkpt><trkpt lat="42.7061668" lon="12.4032941"><ele>365.0</ele><time>2026-03-28T12:59:29.66Z</time></trkpt><trkpt lat="42.7060305" lon="12.4034768"><ele>363.0</ele><time>2026-03-28T12:59:30.67Z</time></trkpt><trkpt lat="42.7059003" lon="12.4036576"><ele>361.0</ele><time>2026-03-28T12:59:31.671Z</time></trkpt><trkpt lat="42.7057775" lon="12.4038268"><ele>360.0</ele><time>2026-03-28T12:59:32.645Z</time></trkpt><trkpt lat="42.7056621" lon="12.4039735"><ele>359.0</ele><time>2026-03-28T12:59:33.661Z</time></trkpt><trkpt lat="42.705543" lon="12.4041136"><ele>358.0</ele><time>2026-03-28T12:59:34.65Z</time></trkpt><trkpt lat="42.7054028" lon="12.4042551"><ele>357.3333333333333</ele><time>2026-03-28T12:59:35.671Z</time></trkpt><trkpt lat="42.7052405" lon="12.4043903"><ele>356.6666666666667</ele><time>2026-03-28T12:59:36.666Z</time></trkpt><trkpt lat="42.7050746" lon="12.4044897"><ele>356.0</ele><time>2026-03-28T12:59:37.663Z</time></trkpt><trkpt lat="42.7048924" lon="12.4045575"><ele>356.0</ele><time>2026-03-28T12:59:38.667Z</time></trkpt><trkpt lat="42.7046926" lon="12.4046289"><ele>356.0</ele><time>2026-03-28T12:59:39.668Z</time></trkpt><trkpt lat="42.7045076" lon="12.4046889"><ele>356.0</ele><time>2026-03-28T12:59:40.665Z</time></trkpt><trkpt lat="42.7043665" lon="12.4047303"><ele>357.0</ele><time>2026-03-28T12:59:41.66Z</time></trkpt><trkpt lat="42.7042565" lon="12.4047642"><ele>358.0</ele><time>2026-03-28T12:59:42.651Z</time></trkpt><trkpt lat="42.7041618" lon="12.4047896"><ele>359.0</ele><time>2026-03-28T12:59:43.66Z</time></trkpt><trkpt lat="42.7040671" lon="12.4048072"><ele>360.0</ele><time>2026-03-28T12:59:44.669Z</time></trkpt><trkpt lat="42.7039746" lon="12.4048181"><ele>361.0</ele><time>2026-03-28T12:59:45.659Z</time></trkpt><trkpt lat="42.7038765" lon="12.4048331"><ele>361.0</ele><time>2026-03-28T12:59:46.663Z</time></trkpt><trkpt lat="42.7037787" lon="12.4048362"><ele>361.0</ele><time>2026-03-28T12:59:47.665Z</time></trkpt><trkpt lat="42.7036873" lon="12.4048367"><ele>361.0</ele><time>2026-03-28T12:59:48.662Z</time></trkpt><trkpt lat="42.7036024" lon="12.4048318"><ele>361.0</ele><time>2026-03-28T12:59:49.655Z</time></trkpt><trkpt lat="42.7035314" lon="12.4048256"><ele>361.0</ele><time>2026-03-28T12:59:50.664Z</time></trkpt><trkpt lat="42.7034387" lon="12.4048297"><ele>361.0</ele><time>2026-03-28T12:59:52.648Z</time></trkpt><trkpt lat="42.7033618" lon="12.4049183"><ele>359.66666666666663</ele><time>2026-03-28T12:59:55.667Z</time></trkpt><trkpt lat="42.7033356" lon="12.4050522"><ele>358.3333333333333</ele><time>2026-03-28T12:59:57.644Z</time></trkpt><trkpt lat="42.7033543" lon="12.4051346"><ele>357.0</ele><time>2026-03-28T12:59:58.647Z</time></trkpt><trkpt lat="42.7033903" lon="12.4052215"><ele>355.6666666666667</ele><time>2026-03-28T12:59:59.662Z</time></trkpt><trkpt lat="42.7034438" lon="12.4053328"><ele>354.33333333333337</ele><time>2026-03-28T13:00:00.665Z</time></trkpt><trkpt lat="42.7035014" lon="12.4054495"><ele>353.0</ele><time>2026-03-28T13:00:01.669Z</time></trkpt><trkpt lat="42.7035447" lon="12.4055606"><ele>353.0</ele><time>2026-03-28T13:00:02.662Z</time></trkpt><trkpt lat="42.7035712" lon="12.405643"><ele>353.0</ele><time>2026-03-28T13:00:03.661Z</time></trkpt><trkpt lat="42.7035534" lon="12.4057616"><ele>353.0</ele><time>2026-03-28T13:00:05.657Z</time></trkpt><trkpt lat="42.703451" lon="12.4058059"><ele>353.0</ele><time>2026-03-28T13:00:07.663Z</time></trkpt><trkpt lat="42.7033801" lon="12.4057987"><ele>353.0</ele><time>2026-03-28T13:00:08.656Z</time></trkpt><trkpt lat="42.7032992" lon="12.4057978"><ele>353.0</ele><time>2026-03-28T13:00:09.661Z</time></trkpt><trkpt lat="42.7032079" lon="12.4058085"><ele>353.0</ele><time>2026-03-28T13:00:10.666Z</time></trkpt><trkpt lat="42.7031125" lon="12.4058251"><ele>353.0</ele><time>2026-03-28T13:00:11.667Z</time></trkpt><trkpt lat="42.7030166" lon="12.4058508"><ele>353.0</ele><time>2026-03-28T13:00:12.674Z</time></trkpt><trkpt lat="42.7029251" lon="12.4058807"><ele>353.0</ele><time>2026-03-28T13:00:13.682Z</time></trkpt><trkpt lat="42.7028336" lon="12.4059086"><ele>353.0</ele><time>2026-03-28T13:00:14.659Z</time></trkpt><trkpt lat="42.7027448" lon="12.4059296"><ele>351.33333333333337</ele><time>2026-03-28T13:00:15.643Z</time></trkpt><trkpt lat="42.7026605" lon="12.4059447"><ele>349.6666666666667</ele><time>2026-03-28T13:00:16.665Z</time></trkpt><trkpt lat="42.7025728" lon="12.4059644"><ele>348.0</ele><time>2026-03-28T13:00:17.661Z</time></trkpt><trkpt lat="42.7024856" lon="12.405968"><ele>346.3333333333333</ele><time>2026-03-28T13:00:18.656Z</time></trkpt><trkpt lat="42.7023987" lon="12.4059631"><ele>344.66666666666663</ele><time>2026-03-28T13:00:19.658Z</time></trkpt><trkpt lat="42.7023285" lon="12.40596"><ele>343.0</ele><time>2026-03-28T13:00:20.663Z</time></trkpt><trkpt lat="42.7022212" lon="12.4059724"><ele>343.0</ele><time>2026-03-28T13:00:22.652Z</time></trkpt><trkpt lat="42.702134" lon="12.4060285"><ele>343.0</ele><time>2026-03-28T13:00:24.666Z</time></trkpt><trkpt lat="42.7020889" lon="12.4060971"><ele>343.0</ele><time>2026-03-28T13:00:25.653Z</time></trkpt><trkpt lat="42.702045" lon="12.4061884"><ele>343.0</ele><time>2026-03-28T13:00:26.659Z</time></trkpt><trkpt lat="42.7019955" lon="12.4062757"><ele>343.0</ele><time>2026-03-28T13:00:27.645Z</time></trkpt><trkpt lat="42.7019414" lon="12.4063603"><ele>343.0</ele><time>2026-03-28T13:00:28.651Z</time></trkpt><trkpt lat="42.7018852" lon="12.406438"><ele>340.0</ele><time>2026-03-28T13:00:29.66Z</time></trkpt><trkpt lat="42.7018334" lon="12.4065135"><ele>337.0</ele><time>2026-03-28T13:00:30.658Z</time></trkpt><trkpt lat="42.7017915" lon="12.4065911"><ele>334.0</ele><time>2026-03-28T13:00:31.659Z</time></trkpt><trkpt lat="42.7017588" lon="12.4066673"><ele>331.0</ele><time>2026-03-28T13:00:32.646Z</time></trkpt><trkpt lat="42.7017256" lon="12.4068259"><ele>328.0</ele><time>2026-03-28T13:00:34.671Z</time></trkpt><trkpt lat="42.7017231" lon="12.4069851"><ele>328.0</ele><time>2026-03-28T13:00:36.667Z</time></trkpt><trkpt lat="42.7017404" lon="12.407088"><ele>328.0</ele><time>2026-03-28T13:00:37.653Z</time></trkpt><trkpt lat="42.7017834" lon="12.4072227"><ele>328.0</ele><time>2026-03-28T13:00:38.661Z</time></trkpt><trkpt lat="42.7018339" lon="12.4073646"><ele>328.0</ele><time>2026-03-28T13:00:39.669Z</time></trkpt><trkpt lat="42.701883" lon="12.4075039"><ele>328.0</ele><time>2026-03-28T13:00:40.662Z</time></trkpt><trkpt lat="42.7019201" lon="12.4076334"><ele>329.3333333333333</ele><time>2026-03-28T13:00:41.66Z</time></trkpt><trkpt lat="42.7019535" lon="12.4077448"><ele>330.66666666666663</ele><time>2026-03-28T13:00:42.655Z</time></trkpt><trkpt lat="42.701985" lon="12.4078361"><ele>332.0</ele><time>2026-03-28T13:00:43.649Z</time></trkpt><trkpt lat="42.7020244" lon="12.4079072"><ele>333.3333333333333</ele><time>2026-03-28T13:00:44.654Z</time></trkpt><trkpt lat="42.702077" lon="12.4079867"><ele>334.6666666666667</ele><time>2026-03-28T13:00:45.661Z</time></trkpt><trkpt lat="42.7021342" lon="12.4080785"><ele>336.0</ele><time>2026-03-28T13:00:46.658Z</time></trkpt><trkpt lat="42.7021953" lon="12.4081722"><ele>331.8</ele><time>2026-03-28T13:00:47.653Z</time></trkpt><trkpt lat="42.7022558" lon="12.4082814"><ele>327.6</ele><time>2026-03-28T13:00:48.662Z</time></trkpt><trkpt lat="42.7023086" lon="12.4084026"><ele>323.4</ele><time>2026-03-28T13:00:49.657Z</time></trkpt><trkpt lat="42.7023639" lon="12.4085131"><ele>319.2</ele><time>2026-03-28T13:00:50.668Z</time></trkpt><trkpt lat="42.7024168" lon="12.4086076"><ele>315.0</ele><time>2026-03-28T13:00:51.666Z</time></trkpt><trkpt lat="42.7024579" lon="12.4086866"><ele>315.0</ele><time>2026-03-28T13:00:52.652Z</time></trkpt><trkpt lat="42.7024972" lon="12.4088131"><ele>315.0</ele><time>2026-03-28T13:00:54.673Z</time></trkpt><trkpt lat="42.702449" lon="12.4089269"><ele>315.0</ele><time>2026-03-28T13:00:57.65Z</time></trkpt><trkpt lat="42.7023392" lon="12.4090371"><ele>315.0</ele><time>2026-03-28T13:00:59.679Z</time></trkpt><trkpt lat="42.7022674" lon="12.4091071"><ele>315.0</ele><time>2026-03-28T13:01:00.651Z</time></trkpt><trkpt lat="42.7021833" lon="12.4091713"><ele>315.0</ele><time>2026-03-28T13:01:01.657Z</time></trkpt><trkpt lat="42.7020984" lon="12.409227"><ele>315.0</ele><time>2026-03-28T13:01:02.644Z</time></trkpt><trkpt lat="42.702026" lon="12.4092626"><ele>315.0</ele><time>2026-03-28T13:01:03.661Z</time></trkpt><trkpt lat="42.7019334" lon="12.4093126"><ele>315.0</ele><time>2026-03-28T13:01:05.663Z</time></trkpt><trkpt lat="42.7018824" lon="12.4094287"><ele>315.0</ele><time>2026-03-28T13:01:07.66Z</time></trkpt><trkpt lat="42.7018535" lon="12.4095266"><ele>315.0</ele><time>2026-03-28T13:01:08.664Z</time></trkpt><trkpt lat="42.7018124" lon="12.4096416"><ele>311.6</ele><time>2026-03-28T13:01:09.647Z</time></trkpt><trkpt lat="42.7017661" lon="12.4097666"><ele>308.2</ele><time>2026-03-28T13:01:10.664Z</time></trkpt><trkpt lat="42.7017276" lon="12.4098846"><ele>304.8</ele><time>2026-03-28T13:01:11.658Z</time></trkpt><trkpt lat="42.7017001" lon="12.4100147"><ele>301.4</ele><time>2026-03-28T13:01:12.661Z</time></trkpt><trkpt lat="42.7016862" lon="12.410143"><ele>298.0</ele><time>2026-03-28T13:01:13.67Z</time></trkpt><trkpt lat="42.7016783" lon="12.4102768"><ele>298.0</ele><time>2026-03-28T13:01:14.662Z</time></trkpt><trkpt lat="42.7016656" lon="12.410396"><ele>298.0</ele><time>2026-03-28T13:01:15.674Z</time></trkpt><trkpt lat="42.7016422" lon="12.4104855"><ele>298.0</ele><time>2026-03-28T13:01:16.667Z</time></trkpt><trkpt lat="42.701603" lon="12.4105592"><ele>298.0</ele><time>2026-03-28T13:01:17.649Z</time></trkpt><trkpt lat="42.7015659" lon="12.4106473"><ele>298.0</ele><time>2026-03-28T13:01:18.642Z</time></trkpt><trkpt lat="42.7015318" lon="12.4107684"><ele>298.0</ele><time>2026-03-28T13:01:19.664Z</time></trkpt><trkpt lat="42.7014916" lon="12.4109135"><ele>298.0</ele><time>2026-03-28T13:01:20.659Z</time></trkpt><trkpt lat="42.7014562" lon="12.4110468"><ele>298.0</ele><time>2026-03-28T13:01:21.659Z</time></trkpt><trkpt lat="42.7014238" lon="12.4111706"><ele>298.0</ele><time>2026-03-28T13:01:22.673Z</time></trkpt><trkpt lat="42.7013934" lon="12.411303"><ele>298.0</ele><time>2026-03-28T13:01:23.669Z</time></trkpt><trkpt lat="42.7013698" lon="12.4114493"><ele>298.0</ele><time>2026-03-28T13:01:24.667Z</time></trkpt><trkpt lat="42.7013516" lon="12.4116125"><ele>297.8</ele><time>2026-03-28T13:01:25.649Z</time></trkpt><trkpt lat="42.7013501" lon="12.4117784"><ele>297.6</ele><time>2026-03-28T13:01:26.641Z</time></trkpt><trkpt lat="42.7013612" lon="12.4119312"><ele>297.4</ele><time>2026-03-28T13:01:27.668Z</time></trkpt><trkpt lat="42.7013723" lon="12.412064"><ele>297.2</ele><time>2026-03-28T13:01:28.672Z</time></trkpt><trkpt lat="42.7013788" lon="12.4121925"><ele>297.0</ele><time>2026-03-28T13:01:29.657Z</time></trkpt><trkpt lat="42.7013694" lon="12.4123384"><ele>296.8</ele><time>2026-03-28T13:01:30.647Z</time></trkpt><trkpt lat="42.701353" lon="12.4124893"><ele>296.6</ele><time>2026-03-28T13:01:31.66Z</time></trkpt><trkpt lat="42.7013431" lon="12.4126444"><ele>296.40000000000003</ele><time>2026-03-28T13:01:32.659Z</time></trkpt><trkpt lat="42.701337" lon="12.4127786"><ele>296.2</ele><time>2026-03-28T13:01:33.641Z</time></trkpt><trkpt lat="42.7013378" lon="12.4129024"><ele>296.0</ele><time>2026-03-28T13:01:34.652Z</time></trkpt><trkpt lat="42.7013488" lon="12.4130316"><ele>295.33333333333337</ele><time>2026-03-28T13:01:35.659Z</time></trkpt><trkpt lat="42.7013763" lon="12.4131432"><ele>294.6666666666667</ele><time>2026-03-28T13:01:36.663Z</time></trkpt><trkpt lat="42.7013939" lon="12.4132327"><ele>294.0</ele><time>2026-03-28T13:01:37.659Z</time></trkpt><trkpt lat="42.7014333" lon="12.4133323"><ele>293.3333333333333</ele><time>2026-03-28T13:01:39.663Z</time></trkpt><trkpt lat="42.701433" lon="12.4134234"><ele>292.66666666666663</ele><time>2026-03-28T13:01:42.654Z</time></trkpt><trkpt lat="42.7013515" lon="12.4133875"><ele>292.0</ele><time>2026-03-28T13:01:45.651Z</time></trkpt><trkpt lat="42.7013051" lon="12.4132988"><ele>292.0</ele><time>2026-03-28T13:01:47.657Z</time></trkpt><trkpt lat="42.7012477" lon="12.4132104"><ele>292.0</ele><time>2026-03-28T13:01:49.658Z</time></trkpt><trkpt lat="42.7011802" lon="12.4131361"><ele>292.0</ele><time>2026-03-28T13:01:52.655Z</time></trkpt><trkpt lat="42.7011178" lon="12.4131211"><ele>292.0</ele><time>2026-03-28T13:01:54.662Z</time></trkpt><trkpt lat="42.701052" lon="12.4130834"><ele>292.0</ele><time>2026-03-28T13:01:56.659Z</time></trkpt><trkpt lat="42.7009877" lon="12.4130602"><ele>292.0</ele><time>2026-03-28T13:01:58.659Z</time></trkpt><trkpt lat="42.7009231" lon="12.4130236"><ele>292.0</ele><time>2026-03-28T13:02:01.669Z</time></trkpt><trkpt lat="42.7008357" lon="12.4129861"><ele>291.0</ele><time>2026-03-28T13:02:04.648Z</time></trkpt><trkpt lat="42.7007417" lon="12.4129416"><ele>290.0</ele><time>2026-03-28T13:02:08.662Z</time></trkpt><trkpt lat="42.7006493" lon="12.4129002"><ele>289.0</ele><time>2026-03-28T13:02:10.678Z</time></trkpt><trkpt lat="42.7005218" lon="12.4128461"><ele>288.0</ele><time>2026-03-28T13:02:12.648Z</time></trkpt><trkpt lat="42.700433" lon="12.412812"><ele>287.0</ele><time>2026-03-28T13:02:13.658Z</time></trkpt><trkpt lat="42.7003563" lon="12.4127822"><ele>287.0</ele><time>2026-03-28T13:02:14.678Z</time></trkpt><trkpt lat="42.7002852" lon="12.4127664"><ele>287.0</ele><time>2026-03-28T13:02:15.666Z</time></trkpt><trkpt lat="42.7002176" lon="12.4127482"><ele>287.0</ele><time>2026-03-28T13:02:16.674Z</time></trkpt><trkpt lat="42.7000971" lon="12.4127352"><ele>287.0</ele><time>2026-03-28T13:02:18.67Z</time></trkpt><trkpt lat="42.6999753" lon="12.4127164"><ele>287.0</ele><time>2026-03-28T13:02:20.664Z</time></trkpt><trkpt lat="42.6998575" lon="12.4127037"><ele>287.4</ele><time>2026-03-28T13:02:22.672Z</time></trkpt><trkpt lat="42.6997369" lon="12.412693"><ele>287.79999999999995</ele><time>2026-03-28T13:02:24.657Z</time></trkpt><trkpt lat="42.6996034" lon="12.4126828"><ele>288.2</ele><time>2026-03-28T13:02:26.661Z</time></trkpt><trkpt lat="42.6995359" lon="12.4126835"><ele>288.59999999999997</ele><time>2026-03-28T13:02:27.674Z</time></trkpt><trkpt lat="42.6994309" lon="12.4126762"><ele>289.0</ele><time>2026-03-28T13:02:29.67Z</time></trkpt><trkpt lat="42.6993293" lon="12.4126833"><ele>290.0</ele><time>2026-03-28T13:02:31.657Z</time></trkpt><trkpt lat="42.6992149" lon="12.4126732"><ele>291.0</ele><time>2026-03-28T13:02:33.665Z</time></trkpt><trkpt lat="42.699088" lon="12.4126731"><ele>292.0</ele><time>2026-03-28T13:02:35.661Z</time></trkpt><trkpt lat="42.6989681" lon="12.4126606"><ele>293.0</ele><time>2026-03-28T13:02:37.66Z</time></trkpt><trkpt lat="42.6988486" lon="12.4126377"><ele>293.0</ele><time>2026-03-28T13:02:39.664Z</time></trkpt><trkpt lat="42.6987404" lon="12.4126467"><ele>293.0</ele><time>2026-03-28T13:02:41.659Z</time></trkpt><trkpt lat="42.6986372" lon="12.4126635"><ele>293.0</ele><time>2026-03-28T13:02:43.673Z</time></trkpt><trkpt lat="42.6985289" lon="12.4126949"><ele>293.0</ele><time>2026-03-28T13:02:45.659Z</time></trkpt><trkpt lat="42.6984324" lon="12.41272"><ele>293.0</ele><time>2026-03-28T13:02:47.668Z</time></trkpt><trkpt lat="42.6983288" lon="12.4127229"><ele>294.2</ele><time>2026-03-28T13:02:49.655Z</time></trkpt><trkpt lat="42.6982637" lon="12.412717"><ele>295.4</ele><time>2026-03-28T13:02:50.657Z</time></trkpt><trkpt lat="42.6981393" lon="12.4126984"><ele>296.59999999999997</ele><time>2026-03-28T13:02:52.657Z</time></trkpt><trkpt lat="42.698022" lon="12.4126533"><ele>297.8</ele><time>2026-03-28T13:02:54.648Z</time></trkpt><trkpt lat="42.6979237" lon="12.4125809"><ele>299.0</ele><time>2026-03-28T13:02:56.659Z</time></trkpt><trkpt lat="42.697835" lon="12.4124904"><ele>298.8</ele><time>2026-03-28T13:02:58.664Z</time></trkpt><trkpt lat="42.6977505" lon="12.4124232"><ele>298.59999999999997</ele><time>2026-03-28T13:03:00.663Z</time></trkpt><trkpt lat="42.6976577" lon="12.4124722"><ele>298.4</ele><time>2026-03-28T13:03:03.664Z</time></trkpt><trkpt lat="42.6975409" lon="12.4125197"><ele>298.2</ele><time>2026-03-28T13:03:05.645Z</time></trkpt><trkpt lat="42.6974336" lon="12.4125811"><ele>298.0</ele><time>2026-03-28T13:03:07.666Z</time></trkpt><trkpt lat="42.6973153" lon="12.4126341"><ele>298.0</ele><time>2026-03-28T13:03:09.669Z</time></trkpt><trkpt lat="42.6972514" lon="12.4126608"><ele>298.0</ele><time>2026-03-28T13:03:10.657Z</time></trkpt><trkpt lat="42.6971872" lon="12.412681"><ele>298.0</ele><time>2026-03-28T13:03:11.655Z</time></trkpt><trkpt lat="42.6970711" lon="12.4126761"><ele>298.0</ele><time>2026-03-28T13:03:13.653Z</time></trkpt><trkpt lat="42.6970091" lon="12.4126462"><ele>298.0</ele><time>2026-03-28T13:03:14.655Z</time></trkpt><trkpt lat="42.6968903" lon="12.4126089"><ele>298.0</ele><time>2026-03-28T13:03:16.659Z</time></trkpt><trkpt lat="42.6968283" lon="12.4125908"><ele>297.8</ele><time>2026-03-28T13:03:17.663Z</time></trkpt><trkpt lat="42.6967595" lon="12.412567"><ele>297.6</ele><time>2026-03-28T13:03:18.649Z</time></trkpt><trkpt lat="42.6966949" lon="12.4125438"><ele>297.4</ele><time>2026-03-28T13:03:19.654Z</time></trkpt><trkpt lat="42.6965846" lon="12.4125073"><ele>297.2</ele><time>2026-03-28T13:03:21.666Z</time></trkpt><trkpt lat="42.6964792" lon="12.4125007"><ele>297.0</ele><time>2026-03-28T13:03:23.649Z</time></trkpt><trkpt lat="42.6963804" lon="12.4124588"><ele>297.0</ele><time>2026-03-28T13:03:25.666Z</time></trkpt><trkpt lat="42.6962796" lon="12.412395"><ele>297.0</ele><time>2026-03-28T13:03:27.654Z</time></trkpt><trkpt lat="42.6961707" lon="12.4124208"><ele>297.0</ele><time>2026-03-28T13:03:29.653Z</time></trkpt><trkpt lat="42.6960535" lon="12.4124884"><ele>297.0</ele><time>2026-03-28T13:03:31.653Z</time></trkpt><trkpt lat="42.6959843" lon="12.4125107"><ele>297.0</ele><time>2026-03-28T13:03:32.65Z</time></trkpt><trkpt lat="42.6959148" lon="12.4125101"><ele>297.1666666666667</ele><time>2026-03-28T13:03:33.666Z</time></trkpt><trkpt lat="42.6958444" lon="12.4125026"><ele>297.3333333333333</ele><time>2026-03-28T13:03:34.654Z</time></trkpt><trkpt lat="42.6957736" lon="12.412503"><ele>297.5</ele><time>2026-03-28T13:03:35.649Z</time></trkpt><trkpt lat="42.6957067" lon="12.4125115"><ele>297.66666666666663</ele><time>2026-03-28T13:03:36.657Z</time></trkpt><trkpt lat="42.6956442" lon="12.4125317"><ele>297.8333333333333</ele><time>2026-03-28T13:03:37.664Z</time></trkpt><trkpt lat="42.6955279" lon="12.4125892"><ele>298.0</ele><time>2026-03-28T13:03:39.657Z</time></trkpt><trkpt lat="42.6954666" lon="12.4126192"><ele>298.0</ele><time>2026-03-28T13:03:40.665Z</time></trkpt><trkpt lat="42.6954001" lon="12.4126551"><ele>298.0</ele><time>2026-03-28T13:03:41.641Z</time></trkpt><trkpt lat="42.6953337" lon="12.4126855"><ele>298.0</ele><time>2026-03-28T13:03:42.656Z</time></trkpt><trkpt lat="42.6952665" lon="12.4127071"><ele>298.0</ele><time>2026-03-28T13:03:43.655Z</time></trkpt><trkpt lat="42.6952018" lon="12.4127184"><ele>298.0</ele><time>2026-03-28T13:03:44.659Z</time></trkpt><trkpt lat="42.695137" lon="12.4127258"><ele>298.0</ele><time>2026-03-28T13:03:45.654Z</time></trkpt><trkpt lat="42.6950713" lon="12.4127265"><ele>298.0</ele><time>2026-03-28T13:03:46.67Z</time></trkpt><trkpt lat="42.6949597" lon="12.4126996"><ele>297.5</ele><time>2026-03-28T13:03:48.66Z</time></trkpt><trkpt lat="42.6948714" lon="12.4126705"><ele>297.0</ele><time>2026-03-28T13:03:50.644Z</time></trkpt><trkpt lat="42.6947909" lon="12.4127017"><ele>296.5</ele><time>2026-03-28T13:03:53.653Z</time></trkpt><trkpt lat="42.6947456" lon="12.4128308"><ele>296.0</ele><time>2026-03-28T13:03:55.666Z</time></trkpt><trkpt lat="42.6947185" lon="12.412921"><ele>295.5</ele><time>2026-03-28T13:03:56.643Z</time></trkpt><trkpt lat="42.6946765" lon="12.4129898"><ele>295.0</ele><time>2026-03-28T13:03:57.663Z</time></trkpt><trkpt lat="42.6946177" lon="12.4130363"><ele>295.0</ele><time>2026-03-28T13:03:58.657Z</time></trkpt><trkpt lat="42.6945496" lon="12.4130763"><ele>295.0</ele><time>2026-03-28T13:03:59.655Z</time></trkpt><trkpt lat="42.6944722" lon="12.4131186"><ele>295.0</ele><time>2026-03-28T13:04:00.652Z</time></trkpt><trkpt lat="42.6943874" lon="12.4131507"><ele>295.0</ele><time>2026-03-28T13:04:01.662Z</time></trkpt><trkpt lat="42.6943086" lon="12.4131821"><ele>295.0</ele><time>2026-03-28T13:04:02.644Z</time></trkpt><trkpt lat="42.6942433" lon="12.4132138"><ele>295.0</ele><time>2026-03-28T13:04:03.644Z</time></trkpt><trkpt lat="42.6941248" lon="12.4132264"><ele>296.0</ele><time>2026-03-28T13:04:05.663Z</time></trkpt><trkpt lat="42.6940071" lon="12.4131718"><ele>297.0</ele><time>2026-03-28T13:04:07.657Z</time></trkpt><trkpt lat="42.6939433" lon="12.4131549"><ele>298.0</ele><time>2026-03-28T13:04:08.652Z</time></trkpt><trkpt lat="42.693879" lon="12.4131601"><ele>299.0</ele><time>2026-03-28T13:04:09.67Z</time></trkpt><trkpt lat="42.6937737" lon="12.4132083"><ele>300.0</ele><time>2026-03-28T13:04:11.653Z</time></trkpt><trkpt lat="42.6937089" lon="12.4132437"><ele>301.0</ele><time>2026-03-28T13:04:12.657Z</time></trkpt><trkpt lat="42.6936381" lon="12.4132634"><ele>302.3333333333333</ele><time>2026-03-28T13:04:13.663Z</time></trkpt><trkpt lat="42.6935564" lon="12.4132591"><ele>303.66666666666663</ele><time>2026-03-28T13:04:14.664Z</time></trkpt><trkpt lat="42.6934693" lon="12.4132303"><ele>305.0</ele><time>2026-03-28T13:04:15.647Z</time></trkpt><trkpt lat="42.6933896" lon="12.4131981"><ele>306.3333333333333</ele><time>2026-03-28T13:04:16.649Z</time></trkpt><trkpt lat="42.6933119" lon="12.4131715"><ele>307.6666666666667</ele><time>2026-03-28T13:04:17.662Z</time></trkpt><trkpt lat="42.6932353" lon="12.4131584"><ele>309.0</ele><time>2026-03-28T13:04:18.662Z</time></trkpt><trkpt lat="42.6931539" lon="12.4131577"><ele>309.0</ele><time>2026-03-28T13:04:19.681Z</time></trkpt><trkpt lat="42.6930672" lon="12.4131783"><ele>309.0</ele><time>2026-03-28T13:04:20.678Z</time></trkpt><trkpt lat="42.6929707" lon="12.4132052"><ele>309.0</ele><time>2026-03-28T13:04:21.675Z</time></trkpt><trkpt lat="42.6928841" lon="12.4132212"><ele>309.0</ele><time>2026-03-28T13:04:22.653Z</time></trkpt><trkpt lat="42.6927837" lon="12.4132686"><ele>309.0</ele><time>2026-03-28T13:04:24.679Z</time></trkpt><trkpt lat="42.6927325" lon="12.4133247"><ele>309.0</ele><time>2026-03-28T13:04:25.639Z</time></trkpt><trkpt lat="42.6926747" lon="12.4133947"><ele>311.1666666666667</ele><time>2026-03-28T13:04:26.649Z</time></trkpt><trkpt lat="42.6926119" lon="12.413459"><ele>313.3333333333333</ele><time>2026-03-28T13:04:27.65Z</time></trkpt><trkpt lat="42.6925424" lon="12.4135162"><ele>315.5</ele><time>2026-03-28T13:04:28.664Z</time></trkpt><trkpt lat="42.6924694" lon="12.4135756"><ele>317.66666666666663</ele><time>2026-03-28T13:04:29.666Z</time></trkpt><trkpt lat="42.6923899" lon="12.4136333"><ele>319.8333333333333</ele><time>2026-03-28T13:04:30.646Z</time></trkpt><trkpt lat="42.6923093" lon="12.4136853"><ele>322.0</ele><time>2026-03-28T13:04:31.671Z</time></trkpt><trkpt lat="42.6922308" lon="12.4137294"><ele>322.0</ele><time>2026-03-28T13:04:32.655Z</time></trkpt><trkpt lat="42.6921614" lon="12.4137714"><ele>322.0</ele><time>2026-03-28T13:04:33.654Z</time></trkpt><trkpt lat="42.6920906" lon="12.4138154"><ele>322.0</ele><time>2026-03-28T13:04:34.653Z</time></trkpt><trkpt lat="42.6920109" lon="12.4138443"><ele>322.0</ele><time>2026-03-28T13:04:35.668Z</time></trkpt><trkpt lat="42.691924" lon="12.4138526"><ele>322.0</ele><time>2026-03-28T13:04:36.655Z</time></trkpt><trkpt lat="42.6918289" lon="12.4138527"><ele>322.0</ele><time>2026-03-28T13:04:37.65Z</time></trkpt><trkpt lat="42.6917371" lon="12.413846"><ele>320.8333333333333</ele><time>2026-03-28T13:04:38.662Z</time></trkpt><trkpt lat="42.6916584" lon="12.4138321"><ele>319.66666666666663</ele><time>2026-03-28T13:04:39.665Z</time></trkpt><trkpt lat="42.6915889" lon="12.4138043"><ele>318.5</ele><time>2026-03-28T13:04:40.654Z</time></trkpt><trkpt lat="42.6915218" lon="12.4137602"><ele>317.3333333333333</ele><time>2026-03-28T13:04:41.654Z</time></trkpt><trkpt lat="42.6914524" lon="12.413704"><ele>316.1666666666667</ele><time>2026-03-28T13:04:42.66Z</time></trkpt><trkpt lat="42.6913778" lon="12.4136469"><ele>315.0</ele><time>2026-03-28T13:04:43.669Z</time></trkpt><trkpt lat="42.6913094" lon="12.4136087"><ele>318.4</ele><time>2026-03-28T13:04:44.646Z</time></trkpt><trkpt lat="42.6912031" lon="12.41356"><ele>321.8</ele><time>2026-03-28T13:04:46.646Z</time></trkpt><trkpt lat="42.6911047" lon="12.4135149"><ele>325.20000000000005</ele><time>2026-03-28T13:04:48.666Z</time></trkpt><trkpt lat="42.6910202" lon="12.4134474"><ele>328.6</ele><time>2026-03-28T13:04:50.636Z</time></trkpt><trkpt lat="42.6909666" lon="12.4133789"><ele>332.0</ele><time>2026-03-28T13:04:52.648Z</time></trkpt><trkpt lat="42.6909096" lon="12.4133093"><ele>332.0</ele><time>2026-03-28T13:04:55.65Z</time></trkpt><trkpt lat="42.6908508" lon="12.4132756"><ele>332.0</ele><time>2026-03-28T13:05:00.652Z</time></trkpt><trkpt lat="42.6907858" lon="12.4132946"><ele>332.0</ele><time>2026-03-28T13:07:04.644Z</time></trkpt><trkpt lat="42.6907058" lon="12.4132616"><ele>332.0</ele><time>2026-03-28T13:07:06.641Z</time></trkpt><trkpt lat="42.6906571" lon="12.4131881"><ele>332.0</ele><time>2026-03-28T13:07:08.648Z</time></trkpt><trkpt lat="42.6906274" lon="12.4130738"><ele>332.0</ele><time>2026-03-28T13:11:39.654Z</time></trkpt><trkpt lat="42.6905407" lon="12.413098"><ele>332.0</ele><time>2026-03-28T13:11:42.66Z</time></trkpt><trkpt lat="42.6905064" lon="12.4131774"><ele>332.0</ele><time>2026-03-28T13:11:44.647Z</time></trkpt><trkpt lat="42.6904654" lon="12.413243"><ele>332.0</ele><time>2026-03-28T13:12:17.638Z</time></trkpt><trkpt lat="42.6904288" lon="12.4133249"><ele>332.0</ele><time>2026-03-28T13:12:19.663Z</time></trkpt><trkpt lat="42.6904347" lon="12.4134611"><ele>332.0</ele><time>2026-03-28T13:12:21.644Z</time></trkpt><trkpt lat="42.6904264" lon="12.4136403"><ele>332.0</ele><time>2026-03-28T13:12:23.668Z</time></trkpt><trkpt lat="42.6904212" lon="12.4137335"><ele>331.1666666666667</ele><time>2026-03-28T13:12:24.658Z</time></trkpt><trkpt lat="42.690411" lon="12.4138283"><ele>330.33333333333337</ele><time>2026-03-28T13:12:25.654Z</time></trkpt><trkpt lat="42.6904039" lon="12.4139155"><ele>329.5</ele><time>2026-03-28T13:12:26.648Z</time></trkpt><trkpt lat="42.6903702" lon="12.4140628"><ele>328.6666666666667</ele><time>2026-03-28T13:12:28.667Z</time></trkpt><trkpt lat="42.6903022" lon="12.4141602"><ele>327.8333333333333</ele><time>2026-03-28T13:12:30.656Z</time></trkpt><trkpt lat="42.6902028" lon="12.4141858"><ele>327.0</ele><time>2026-03-28T13:12:32.656Z</time></trkpt><trkpt lat="42.6901393" lon="12.4141877"><ele>330.0</ele><time>2026-03-28T13:12:33.663Z</time></trkpt><trkpt lat="42.6900699" lon="12.4141932"><ele>333.0</ele><time>2026-03-28T13:12:34.669Z</time></trkpt><trkpt lat="42.6899913" lon="12.414206"><ele>336.0</ele><time>2026-03-28T13:12:35.653Z</time></trkpt><trkpt lat="42.6899197" lon="12.4142113"><ele>339.0</ele><time>2026-03-28T13:12:36.668Z</time></trkpt><trkpt lat="42.6898489" lon="12.4142216"><ele>342.0</ele><time>2026-03-28T13:12:37.652Z</time></trkpt><trkpt lat="42.689786" lon="12.414248"><ele>345.0</ele><time>2026-03-28T13:12:38.65Z</time></trkpt><trkpt lat="42.6896802" lon="12.4142919"><ele>345.0</ele><time>2026-03-28T13:12:40.664Z</time></trkpt><trkpt lat="42.689565" lon="12.4142858"><ele>345.0</ele><time>2026-03-28T13:12:42.654Z</time></trkpt><trkpt lat="42.6894558" lon="12.4142548"><ele>345.0</ele><time>2026-03-28T13:12:44.643Z</time></trkpt><trkpt lat="42.6893602" lon="12.4142531"><ele>345.0</ele><time>2026-03-28T13:12:46.651Z</time></trkpt><trkpt lat="42.6892605" lon="12.4143203"><ele>345.0</ele><time>2026-03-28T13:12:48.658Z</time></trkpt><trkpt lat="42.6891458" lon="12.4143802"><ele>348.3333333333333</ele><time>2026-03-28T13:12:50.661Z</time></trkpt><trkpt lat="42.6890249" lon="12.414446"><ele>351.6666666666667</ele><time>2026-03-28T13:12:52.658Z</time></trkpt><trkpt lat="42.6889523" lon="12.4144821"><ele>355.0</ele><time>2026-03-28T13:12:53.662Z</time></trkpt><trkpt lat="42.6888868" lon="12.4144825"><ele>358.33333333333337</ele><time>2026-03-28T13:12:54.653Z</time></trkpt><trkpt lat="42.6888156" lon="12.4144671"><ele>361.6666666666667</ele><time>2026-03-28T13:12:55.659Z</time></trkpt><trkpt lat="42.6887422" lon="12.4144568"><ele>365.0</ele><time>2026-03-28T13:12:56.665Z</time></trkpt><trkpt lat="42.688676" lon="12.4144404"><ele>365.0</ele><time>2026-03-28T13:12:57.659Z</time></trkpt><trkpt lat="42.688602" lon="12.4143987"><ele>365.0</ele><time>2026-03-28T13:12:58.663Z</time></trkpt><trkpt lat="42.6885332" lon="12.4143369"><ele>365.0</ele><time>2026-03-28T13:12:59.652Z</time></trkpt><trkpt lat="42.6884685" lon="12.4142678"><ele>365.0</ele><time>2026-03-28T13:13:00.672Z</time></trkpt><trkpt lat="42.688406" lon="12.4142074"><ele>365.0</ele><time>2026-03-28T13:13:01.665Z</time></trkpt><trkpt lat="42.6883371" lon="12.4141682"><ele>365.0</ele><time>2026-03-28T13:13:02.65Z</time></trkpt><trkpt lat="42.6882534" lon="12.4141345"><ele>367.4</ele><time>2026-03-28T13:13:03.663Z</time></trkpt><trkpt lat="42.6881551" lon="12.4140832"><ele>369.8</ele><time>2026-03-28T13:13:04.661Z</time></trkpt><trkpt lat="42.6880598" lon="12.414031"><ele>372.20000000000005</ele><time>2026-03-28T13:13:05.658Z</time></trkpt><trkpt lat="42.6879756" lon="12.4140033"><ele>374.6</ele><time>2026-03-28T13:13:06.653Z</time></trkpt><trkpt lat="42.6878983" lon="12.4139886"><ele>377.0</ele><time>2026-03-28T13:13:07.656Z</time></trkpt><trkpt lat="42.687816" lon="12.4139839"><ele>377.40000000000003</ele><time>2026-03-28T13:13:08.653Z</time></trkpt><trkpt lat="42.6877239" lon="12.4139822"><ele>377.8</ele><time>2026-03-28T13:13:09.658Z</time></trkpt><trkpt lat="42.6876307" lon="12.4139718"><ele>378.2</ele><time>2026-03-28T13:13:10.651Z</time></trkpt><trkpt lat="42.6875423" lon="12.4139539"><ele>378.6</ele><time>2026-03-28T13:13:11.649Z</time></trkpt><trkpt lat="42.6874693" lon="12.4139252"><ele>379.0</ele><time>2026-03-28T13:13:12.661Z</time></trkpt><trkpt lat="42.687372" lon="12.413836"><ele>379.0</ele><time>2026-03-28T13:13:14.648Z</time></trkpt><trkpt lat="42.6872811" lon="12.4137309"><ele>379.0</ele><time>2026-03-28T13:13:16.656Z</time></trkpt><trkpt lat="42.6871749" lon="12.413726"><ele>379.0</ele><time>2026-03-28T13:13:18.66Z</time></trkpt><trkpt lat="42.6870699" lon="12.4138008"><ele>379.0</ele><time>2026-03-28T13:13:20.641Z</time></trkpt><trkpt lat="42.6870109" lon="12.4138393"><ele>379.0</ele><time>2026-03-28T13:13:21.655Z</time></trkpt><trkpt lat="42.6869025" lon="12.413898"><ele>381.79999999999995</ele><time>2026-03-28T13:13:23.666Z</time></trkpt><trkpt lat="42.6868365" lon="12.4139054"><ele>384.59999999999997</ele><time>2026-03-28T13:13:24.649Z</time></trkpt><trkpt lat="42.6867519" lon="12.4138879"><ele>387.4</ele><time>2026-03-28T13:13:25.678Z</time></trkpt><trkpt lat="42.6866529" lon="12.4138708"><ele>390.2</ele><time>2026-03-28T13:13:26.651Z</time></trkpt><trkpt lat="42.6865409" lon="12.4138528"><ele>393.0</ele><time>2026-03-28T13:13:27.659Z</time></trkpt><trkpt lat="42.686424" lon="12.4138505"><ele>393.0</ele><time>2026-03-28T13:13:28.649Z</time></trkpt><trkpt lat="42.6863124" lon="12.4138466"><ele>393.0</ele><time>2026-03-28T13:13:29.654Z</time></trkpt><trkpt lat="42.6862091" lon="12.4138536"><ele>393.0</ele><time>2026-03-28T13:13:30.658Z</time></trkpt><trkpt lat="42.686121" lon="12.4138711"><ele>393.0</ele><time>2026-03-28T13:13:31.669Z</time></trkpt><trkpt lat="42.6860345" lon="12.4138872"><ele>393.0</ele><time>2026-03-28T13:13:32.651Z</time></trkpt><trkpt lat="42.6859473" lon="12.4139049"><ele>397.4</ele><time>2026-03-28T13:13:33.668Z</time></trkpt><trkpt lat="42.6858589" lon="12.4139329"><ele>401.79999999999995</ele><time>2026-03-28T13:13:34.655Z</time></trkpt><trkpt lat="42.6857728" lon="12.4139638"><ele>406.2</ele><time>2026-03-28T13:13:35.66Z</time></trkpt><trkpt lat="42.6856883" lon="12.4140044"><ele>410.6</ele><time>2026-03-28T13:13:36.658Z</time></trkpt><trkpt lat="42.685599" lon="12.4140573"><ele>415.0</ele><time>2026-03-28T13:13:37.655Z</time></trkpt><trkpt lat="42.6855075" lon="12.4141169"><ele>415.0</ele><time>2026-03-28T13:13:38.65Z</time></trkpt><trkpt lat="42.6854213" lon="12.4141661"><ele>415.0</ele><time>2026-03-28T13:13:39.645Z</time></trkpt><trkpt lat="42.6853343" lon="12.4142143"><ele>415.0</ele><time>2026-03-28T13:13:40.658Z</time></trkpt><trkpt lat="42.6852369" lon="12.4142578"><ele>415.0</ele><time>2026-03-28T13:13:41.655Z</time></trkpt><trkpt lat="42.6851361" lon="12.4142945"><ele>415.0</ele><time>2026-03-28T13:13:42.643Z</time></trkpt><trkpt lat="42.6850361" lon="12.4143184"><ele>420.4</ele><time>2026-03-28T13:13:43.66Z</time></trkpt><trkpt lat="42.6849261" lon="12.4143476"><ele>425.8</ele><time>2026-03-28T13:13:44.647Z</time></trkpt><trkpt lat="42.6848247" lon="12.4143773"><ele>431.20000000000005</ele><time>2026-03-28T13:13:45.662Z</time></trkpt><trkpt lat="42.6847235" lon="12.4144173"><ele>436.6</ele><time>2026-03-28T13:13:46.66Z</time></trkpt><trkpt lat="42.6846243" lon="12.4144541"><ele>442.0</ele><time>2026-03-28T13:13:47.664Z</time></trkpt><trkpt lat="42.6845244" lon="12.4144889"><ele>446.8</ele><time>2026-03-28T13:13:48.659Z</time></trkpt><trkpt lat="42.6844289" lon="12.4145184"><ele>451.6</ele><time>2026-03-28T13:13:49.667Z</time></trkpt><trkpt lat="42.6843335" lon="12.4145502"><ele>456.40000000000003</ele><time>2026-03-28T13:13:50.652Z</time></trkpt><trkpt lat="42.6842344" lon="12.4145809"><ele>461.20000000000005</ele><time>2026-03-28T13:13:51.66Z</time></trkpt><trkpt lat="42.6841356" lon="12.414608"><ele>466.0</ele><time>2026-03-28T13:13:52.666Z</time></trkpt><trkpt lat="42.6840345" lon="12.4146326"><ele>466.6</ele><time>2026-03-28T13:13:53.662Z</time></trkpt><trkpt lat="42.6839346" lon="12.4146602"><ele>467.20000000000005</ele><time>2026-03-28T13:13:54.663Z</time></trkpt><trkpt lat="42.6838385" lon="12.4146954"><ele>467.79999999999995</ele><time>2026-03-28T13:13:55.645Z</time></trkpt><trkpt lat="42.6837523" lon="12.4147328"><ele>468.4</ele><time>2026-03-28T13:13:56.657Z</time></trkpt><trkpt lat="42.6836694" lon="12.4147799"><ele>469.0</ele><time>2026-03-28T13:13:57.646Z</time></trkpt><trkpt lat="42.6835794" lon="12.4148302"><ele>469.00000000000006</ele><time>2026-03-28T13:13:58.649Z</time></trkpt><trkpt lat="42.6834872" lon="12.4148838"><ele>469.0</ele><time>2026-03-28T13:13:59.682Z</time></trkpt><trkpt lat="42.6834008" lon="12.4149404"><ele>469.0</ele><time>2026-03-28T13:14:00.647Z</time></trkpt><trkpt lat="42.6833224" lon="12.4149844"><ele>469.0</ele><time>2026-03-28T13:14:01.652Z</time></trkpt><trkpt lat="42.6832436" lon="12.415009"><ele>469.00000000000006</ele><time>2026-03-28T13:14:02.662Z</time></trkpt><trkpt lat="42.6831583" lon="12.4150304"><ele>469.0</ele><time>2026-03-28T13:14:03.644Z</time></trkpt><trkpt lat="42.6830729" lon="12.4150451"><ele>469.00000000000006</ele><time>2026-03-28T13:14:04.671Z</time></trkpt><trkpt lat="42.6829851" lon="12.4150554"><ele>469.0</ele><time>2026-03-28T13:14:05.658Z</time></trkpt><trkpt lat="42.6828978" lon="12.4150586"><ele>469.0</ele><time>2026-03-28T13:14:06.656Z</time></trkpt><trkpt lat="42.6828066" lon="12.4150534"><ele>469.0</ele><time>2026-03-28T13:14:07.669Z</time></trkpt><trkpt lat="42.6827158" lon="12.4150423"><ele>469.00000000000006</ele><time>2026-03-28T13:14:08.666Z</time></trkpt><trkpt lat="42.6826372" lon="12.4150193"><ele>469.0</ele><time>2026-03-28T13:14:09.665Z</time></trkpt><trkpt lat="42.6825557" lon="12.4149967"><ele>470.50000000000006</ele><time>2026-03-28T13:14:10.663Z</time></trkpt><trkpt lat="42.6824862" lon="12.4149596"><ele>472.0</ele><time>2026-03-28T13:14:11.66Z</time></trkpt><trkpt lat="42.6824295" lon="12.4149167"><ele>473.5</ele><time>2026-03-28T13:14:12.66Z</time></trkpt><trkpt lat="42.6823659" lon="12.4148664"><ele>475.0</ele><time>2026-03-28T13:14:13.654Z</time></trkpt><trkpt lat="42.6822638" lon="12.4148077"><ele>476.50000000000006</ele><time>2026-03-28T13:14:15.66Z</time></trkpt><trkpt lat="42.6821601" lon="12.4148638"><ele>478.0</ele><time>2026-03-28T13:14:17.663Z</time></trkpt><trkpt lat="42.6820672" lon="12.4149515"><ele>478.00000000000006</ele><time>2026-03-28T13:14:19.653Z</time></trkpt><trkpt lat="42.6819447" lon="12.4149907"><ele>478.0</ele><time>2026-03-28T13:14:21.672Z</time></trkpt><trkpt lat="42.6818704" lon="12.4150011"><ele>478.0</ele><time>2026-03-28T13:14:22.647Z</time></trkpt><trkpt lat="42.6817932" lon="12.4150125"><ele>478.0</ele><time>2026-03-28T13:14:23.667Z</time></trkpt><trkpt lat="42.6817137" lon="12.4150201"><ele>478.00000000000006</ele><time>2026-03-28T13:14:24.656Z</time></trkpt><trkpt lat="42.6816376" lon="12.4150182"><ele>478.0</ele><time>2026-03-28T13:14:25.654Z</time></trkpt><trkpt lat="42.6815504" lon="12.4150049"><ele>479.4285714285715</ele><time>2026-03-28T13:14:26.658Z</time></trkpt><trkpt lat="42.6814588" lon="12.4149928"><ele>480.8571428571429</ele><time>2026-03-28T13:14:27.646Z</time></trkpt><trkpt lat="42.6813787" lon="12.4149911"><ele>482.2857142857143</ele><time>2026-03-28T13:14:28.67Z</time></trkpt><trkpt lat="42.6813126" lon="12.4149995"><ele>483.7142857142857</ele><time>2026-03-28T13:14:29.643Z</time></trkpt><trkpt lat="42.6812519" lon="12.4150266"><ele>485.1428571428571</ele><time>2026-03-28T13:14:30.653Z</time></trkpt><trkpt lat="42.6811847" lon="12.415054"><ele>486.5714285714285</ele><time>2026-03-28T13:14:31.655Z</time></trkpt><trkpt lat="42.6811138" lon="12.4150789"><ele>487.99999999999994</ele><time>2026-03-28T13:14:32.653Z</time></trkpt><trkpt lat="42.6810389" lon="12.4150946"><ele>489.66666666666663</ele><time>2026-03-28T13:14:33.655Z</time></trkpt><trkpt lat="42.6809649" lon="12.4150988"><ele>491.3333333333333</ele><time>2026-03-28T13:14:34.672Z</time></trkpt><trkpt lat="42.6808958" lon="12.4150967"><ele>493.0</ele><time>2026-03-28T13:14:35.646Z</time></trkpt><trkpt lat="42.6808299" lon="12.4150923"><ele>494.66666666666663</ele><time>2026-03-28T13:14:36.677Z</time></trkpt><trkpt lat="42.6807579" lon="12.4150607"><ele>496.3333333333333</ele><time>2026-03-28T13:14:37.66Z</time></trkpt><trkpt lat="42.6806711" lon="12.4150189"><ele>498.0</ele><time>2026-03-28T13:14:38.655Z</time></trkpt><trkpt lat="42.6805835" lon="12.4149885"><ele>498.0</ele><time>2026-03-28T13:14:39.652Z</time></trkpt><trkpt lat="42.6804854" lon="12.4149747"><ele>498.0</ele><time>2026-03-28T13:14:40.65Z</time></trkpt><trkpt lat="42.6804043" lon="12.4149879"><ele>498.0</ele><time>2026-03-28T13:14:41.642Z</time></trkpt><trkpt lat="42.6803366" lon="12.4150331"><ele>498.0</ele><time>2026-03-28T13:14:42.643Z</time></trkpt><trkpt lat="42.6802765" lon="12.4150965"><ele>498.0</ele><time>2026-03-28T13:14:43.661Z</time></trkpt><trkpt lat="42.6802158" lon="12.4151681"><ele>498.0</ele><time>2026-03-28T13:14:44.645Z</time></trkpt><trkpt lat="42.6801595" lon="12.4152456"><ele>499.59999999999997</ele><time>2026-03-28T13:14:45.648Z</time></trkpt><trkpt lat="42.6801055" lon="12.4153445"><ele>501.19999999999993</ele><time>2026-03-28T13:14:46.652Z</time></trkpt><trkpt lat="42.6800646" lon="12.4154629"><ele>502.8</ele><time>2026-03-28T13:14:47.663Z</time></trkpt><trkpt lat="42.6800151" lon="12.4155901"><ele>504.4</ele><time>2026-03-28T13:14:48.682Z</time></trkpt><trkpt lat="42.6799604" lon="12.4157327"><ele>506.0</ele><time>2026-03-28T13:14:49.647Z</time></trkpt><trkpt lat="42.6799128" lon="12.4158952"><ele>506.0</ele><time>2026-03-28T13:14:50.666Z</time></trkpt><trkpt lat="42.6798652" lon="12.4160692"><ele>506.0</ele><time>2026-03-28T13:14:51.649Z</time></trkpt><trkpt lat="42.6798177" lon="12.4162333"><ele>506.0</ele><time>2026-03-28T13:14:52.669Z</time></trkpt><trkpt lat="42.6797687" lon="12.4164114"><ele>506.0</ele><time>2026-03-28T13:14:53.654Z</time></trkpt><trkpt lat="42.6797252" lon="12.4165826"><ele>506.8333333333333</ele><time>2026-03-28T13:14:54.657Z</time></trkpt><trkpt lat="42.6796987" lon="12.416722"><ele>507.66666666666663</ele><time>2026-03-28T13:14:55.658Z</time></trkpt><trkpt lat="42.6796853" lon="12.4168394"><ele>508.5</ele><time>2026-03-28T13:14:56.651Z</time></trkpt><trkpt lat="42.6796813" lon="12.4169307"><ele>509.33333333333337</ele><time>2026-03-28T13:14:57.666Z</time></trkpt><trkpt lat="42.6796539" lon="12.4170092"><ele>510.1666666666667</ele><time>2026-03-28T13:16:43.676Z</time></trkpt><trkpt lat="42.6796439" lon="12.4168754"><ele>511.0</ele><time>2026-03-28T13:16:49.683Z</time></trkpt><trkpt lat="42.6796696" lon="12.4167375"><ele>511.0</ele><time>2026-03-28T13:16:51.689Z</time></trkpt><trkpt lat="42.6796899" lon="12.4166052"><ele>511.0</ele><time>2026-03-28T13:16:53.677Z</time></trkpt><trkpt lat="42.6797032" lon="12.4164732"><ele>511.0</ele><time>2026-03-28T13:16:55.651Z</time></trkpt><trkpt lat="42.6797058" lon="12.4163406"><ele>511.0</ele><time>2026-03-28T13:16:57.656Z</time></trkpt><trkpt lat="42.6796758" lon="12.4162235"><ele>511.0</ele><time>2026-03-28T13:16:59.654Z</time></trkpt><trkpt lat="42.679616" lon="12.4161712"><ele>511.00000000000006</ele><time>2026-03-28T13:17:01.667Z</time></trkpt><trkpt lat="42.6795605" lon="12.4162244"><ele>511.0</ele><time>2026-03-28T13:17:03.645Z</time></trkpt><trkpt lat="42.6795282" lon="12.4163589"><ele>511.0</ele><time>2026-03-28T13:17:05.67Z</time></trkpt><trkpt lat="42.6794901" lon="12.4164625"><ele>511.0</ele><time>2026-03-28T13:17:06.668Z</time></trkpt><trkpt lat="42.6794424" lon="12.4165746"><ele>511.00000000000006</ele><time>2026-03-28T13:17:07.65Z</time></trkpt><trkpt lat="42.6793966" lon="12.4166737"><ele>511.0</ele><time>2026-03-28T13:17:08.668Z</time></trkpt><trkpt lat="42.679353" lon="12.4167635"><ele>508.4</ele><time>2026-03-28T13:17:09.657Z</time></trkpt><trkpt lat="42.6792904" lon="12.4168357"><ele>505.8</ele><time>2026-03-28T13:17:10.663Z</time></trkpt><trkpt lat="42.6792097" lon="12.4169049"><ele>503.19999999999993</ele><time>2026-03-28T13:17:11.662Z</time></trkpt><trkpt lat="42.6791215" lon="12.4169773"><ele>500.59999999999997</ele><time>2026-03-28T13:17:12.648Z</time></trkpt><trkpt lat="42.6790353" lon="12.4170514"><ele>498.0</ele><time>2026-03-28T13:17:13.661Z</time></trkpt><trkpt lat="42.6789512" lon="12.4171214"><ele>497.2</ele><time>2026-03-28T13:17:14.646Z</time></trkpt><trkpt lat="42.6788659" lon="12.4171884"><ele>496.4</ele><time>2026-03-28T13:17:15.66Z</time></trkpt><trkpt lat="42.6787823" lon="12.417256"><ele>495.59999999999997</ele><time>2026-03-28T13:17:16.659Z</time></trkpt><trkpt lat="42.6787012" lon="12.417326"><ele>494.79999999999995</ele><time>2026-03-28T13:17:17.657Z</time></trkpt><trkpt lat="42.6786176" lon="12.4173957"><ele>494.0</ele><time>2026-03-28T13:17:18.672Z</time></trkpt><trkpt lat="42.6785408" lon="12.4174717"><ele>491.2</ele><time>2026-03-28T13:17:19.654Z</time></trkpt><trkpt lat="42.6784669" lon="12.4175544"><ele>488.4</ele><time>2026-03-28T13:17:20.649Z</time></trkpt><trkpt lat="42.678401" lon="12.4176406"><ele>485.6</ele><time>2026-03-28T13:17:21.658Z</time></trkpt><trkpt lat="42.6783357" lon="12.4177344"><ele>482.8</ele><time>2026-03-28T13:17:22.652Z</time></trkpt><trkpt lat="42.6782661" lon="12.4178341"><ele>480.0</ele><time>2026-03-28T13:17:23.663Z</time></trkpt><trkpt lat="42.6781956" lon="12.4179149"><ele>480.0</ele><time>2026-03-28T13:17:24.662Z</time></trkpt><trkpt lat="42.6781261" lon="12.4179798"><ele>480.0</ele><time>2026-03-28T13:17:25.656Z</time></trkpt><trkpt lat="42.6780532" lon="12.4180299"><ele>480.0</ele><time>2026-03-28T13:17:26.655Z</time></trkpt><trkpt lat="42.677976" lon="12.4180759"><ele>480.0</ele><time>2026-03-28T13:17:27.665Z</time></trkpt><trkpt lat="42.6779092" lon="12.4180991"><ele>480.0</ele><time>2026-03-28T13:17:28.659Z</time></trkpt><trkpt lat="42.6778051" lon="12.4181347"><ele>480.0</ele><time>2026-03-28T13:17:30.653Z</time></trkpt><trkpt lat="42.6777001" lon="12.4181475"><ele>478.0</ele><time>2026-03-28T13:17:32.656Z</time></trkpt><trkpt lat="42.6776149" lon="12.4181395"><ele>476.0</ele><time>2026-03-28T13:17:34.663Z</time></trkpt><trkpt lat="42.677547" lon="12.4180926"><ele>474.0</ele><time>2026-03-28T13:17:36.653Z</time></trkpt><trkpt lat="42.677511" lon="12.4179405"><ele>472.0</ele><time>2026-03-28T13:17:38.658Z</time></trkpt><trkpt lat="42.6775033" lon="12.4178114"><ele>470.0</ele><time>2026-03-28T13:17:39.649Z</time></trkpt><trkpt lat="42.6775047" lon="12.4176518"><ele>470.0</ele><time>2026-03-28T13:17:40.661Z</time></trkpt><trkpt lat="42.6775143" lon="12.4174825"><ele>470.0</ele><time>2026-03-28T13:17:41.666Z</time></trkpt><trkpt lat="42.6775307" lon="12.4173244"><ele>470.0</ele><time>2026-03-28T13:17:42.654Z</time></trkpt><trkpt lat="42.6775603" lon="12.4171701"><ele>470.0</ele><time>2026-03-28T13:17:43.664Z</time></trkpt><trkpt lat="42.6775916" lon="12.4169978"><ele>472.0</ele><time>2026-03-28T13:17:44.665Z</time></trkpt><trkpt lat="42.6776159" lon="12.4168004"><ele>474.0</ele><time>2026-03-28T13:17:45.668Z</time></trkpt><trkpt lat="42.6776261" lon="12.41657"><ele>476.0</ele><time>2026-03-28T13:17:46.661Z</time></trkpt><trkpt lat="42.6776177" lon="12.4163334"><ele>479.3333333333333</ele><time>2026-03-28T13:17:47.656Z</time></trkpt><trkpt lat="42.6776203" lon="12.4161229"><ele>482.66666666666663</ele><time>2026-03-28T13:17:48.659Z</time></trkpt><trkpt lat="42.6776364" lon="12.4159226"><ele>486.0</ele><time>2026-03-28T13:17:49.646Z</time></trkpt><trkpt lat="42.6776701" lon="12.415717"><ele>486.0</ele><time>2026-03-28T13:17:50.646Z</time></trkpt><trkpt lat="42.677697" lon="12.4155049"><ele>486.0</ele><time>2026-03-28T13:17:51.65Z</time></trkpt><trkpt lat="42.6777022" lon="12.4152685"><ele>486.0</ele><time>2026-03-28T13:17:52.654Z</time></trkpt><trkpt lat="42.6776954" lon="12.4147495"><ele>492.33333333333337</ele><time>2026-03-28T13:17:54.661Z</time></trkpt><trkpt lat="42.6776954" lon="12.4144603"><ele>498.6666666666667</ele><time>2026-03-28T13:17:55.649Z</time></trkpt><trkpt lat="42.6776984" lon="12.4141988"><ele>505.0</ele><time>2026-03-28T13:17:56.655Z</time></trkpt><trkpt lat="42.677696" lon="12.4140047"><ele>505.0</ele><time>2026-03-28T13:17:57.664Z</time></trkpt><trkpt lat="42.6776857" lon="12.4138515"><ele>505.0</ele><time>2026-03-28T13:17:58.667Z</time></trkpt><trkpt lat="42.6776553" lon="12.4137315"><ele>505.0</ele><time>2026-03-28T13:17:59.656Z</time></trkpt><trkpt lat="42.6775954" lon="12.4135974"><ele>505.0</ele><time>2026-03-28T13:18:00.662Z</time></trkpt><trkpt lat="42.6774983" lon="12.4134491"><ele>507.33333333333337</ele><time>2026-03-28T13:18:01.666Z</time></trkpt><trkpt lat="42.677387" lon="12.413288"><ele>509.66666666666663</ele><time>2026-03-28T13:18:02.657Z</time></trkpt><trkpt lat="42.6772884" lon="12.4131229"><ele>512.0</ele><time>2026-03-28T13:18:03.642Z</time></trkpt><trkpt lat="42.6771986" lon="12.4129378"><ele>513.0</ele><time>2026-03-28T13:18:04.667Z</time></trkpt><trkpt lat="42.6771026" lon="12.4127497"><ele>514.0</ele><time>2026-03-28T13:18:05.653Z</time></trkpt><trkpt lat="42.6770151" lon="12.4125894"><ele>515.0</ele><time>2026-03-28T13:18:06.658Z</time></trkpt><trkpt lat="42.6769345" lon="12.4124369"><ele>515.0</ele><time>2026-03-28T13:18:07.645Z</time></trkpt><trkpt lat="42.6768581" lon="12.4122895"><ele>515.0</ele><time>2026-03-28T13:18:08.656Z</time></trkpt><trkpt lat="42.6767882" lon="12.4121653"><ele>515.0</ele><time>2026-03-28T13:18:09.661Z</time></trkpt><trkpt lat="42.6767205" lon="12.4120562"><ele>515.0</ele><time>2026-03-28T13:18:10.651Z</time></trkpt><trkpt lat="42.6766625" lon="12.4119573"><ele>515.0</ele><time>2026-03-28T13:18:11.665Z</time></trkpt><trkpt lat="42.6766104" lon="12.4118618"><ele>515.3333333333333</ele><time>2026-03-28T13:18:12.668Z</time></trkpt><trkpt lat="42.6765642" lon="12.411778"><ele>515.6666666666666</ele><time>2026-03-28T13:18:13.659Z</time></trkpt><trkpt lat="42.6765022" lon="12.4116521"><ele>516.0</ele><time>2026-03-28T13:18:15.659Z</time></trkpt><trkpt lat="42.6764648" lon="12.4115679"><ele>516.3333333333334</ele><time>2026-03-28T13:18:17.655Z</time></trkpt><trkpt lat="42.6764242" lon="12.4114996"><ele>516.6666666666667</ele><time>2026-03-28T13:18:19.667Z</time></trkpt><trkpt lat="42.6763807" lon="12.4114255"><ele>517.0</ele><time>2026-03-28T13:18:22.667Z</time></trkpt><trkpt lat="42.6763136" lon="12.4114673"><ele>517.0</ele><time>2026-03-28T13:18:26.651Z</time></trkpt><trkpt lat="42.6762761" lon="12.411544"><ele>517.0</ele><time>2026-03-28T13:18:27.663Z</time></trkpt><trkpt lat="42.6762196" lon="12.411652"><ele>517.0</ele><time>2026-03-28T13:18:28.647Z</time></trkpt><trkpt lat="42.6761535" lon="12.4117777"><ele>517.0</ele><time>2026-03-28T13:18:29.657Z</time></trkpt><trkpt lat="42.6760922" lon="12.4119127"><ele>517.0</ele><time>2026-03-28T13:18:30.654Z</time></trkpt><trkpt lat="42.6760399" lon="12.4120692"><ele>516.8000000000001</ele><time>2026-03-28T13:18:31.661Z</time></trkpt><trkpt lat="42.6759985" lon="12.4122326"><ele>516.6</ele><time>2026-03-28T13:18:32.655Z</time></trkpt><trkpt lat="42.6759756" lon="12.412369"><ele>516.4000000000001</ele><time>2026-03-28T13:18:33.651Z</time></trkpt><trkpt lat="42.6759706" lon="12.412496"><ele>516.2</ele><time>2026-03-28T13:18:34.676Z</time></trkpt><trkpt lat="42.6759786" lon="12.4126296"><ele>516.0</ele><time>2026-03-28T13:18:35.666Z</time></trkpt><trkpt lat="42.6759981" lon="12.4127653"><ele>516.0</ele><time>2026-03-28T13:18:36.655Z</time></trkpt><trkpt lat="42.6760285" lon="12.4128938"><ele>516.0</ele><time>2026-03-28T13:18:37.649Z</time></trkpt><trkpt lat="42.6760593" lon="12.4130364"><ele>516.0</ele><time>2026-03-28T13:18:38.666Z</time></trkpt><trkpt lat="42.6760824" lon="12.4131927"><ele>516.0</ele><time>2026-03-28T13:18:39.665Z</time></trkpt><trkpt lat="42.6760955" lon="12.4133594"><ele>516.0</ele><time>2026-03-28T13:18:40.667Z</time></trkpt><trkpt lat="42.676106" lon="12.4135154"><ele>515.4</ele><time>2026-03-28T13:18:41.663Z</time></trkpt><trkpt lat="42.6761171" lon="12.4136589"><ele>514.8</ele><time>2026-03-28T13:18:42.653Z</time></trkpt><trkpt lat="42.6761228" lon="12.4137892"><ele>514.1999999999999</ele><time>2026-03-28T13:18:43.661Z</time></trkpt><trkpt lat="42.6761244" lon="12.4139092"><ele>513.6</ele><time>2026-03-28T13:18:44.673Z</time></trkpt><trkpt lat="42.6761244" lon="12.4140211"><ele>513.0</ele><time>2026-03-28T13:18:45.669Z</time></trkpt><trkpt lat="42.6761275" lon="12.4141274"><ele>512.4285714285714</ele><time>2026-03-28T13:18:46.66Z</time></trkpt><trkpt lat="42.6761317" lon="12.4142324"><ele>511.8571428571429</ele><time>2026-03-28T13:18:47.639Z</time></trkpt><trkpt lat="42.6761406" lon="12.4143373"><ele>511.2857142857143</ele><time>2026-03-28T13:18:48.655Z</time></trkpt><trkpt lat="42.6761537" lon="12.4144359"><ele>510.7142857142857</ele><time>2026-03-28T13:18:49.659Z</time></trkpt><trkpt lat="42.6761795" lon="12.414526"><ele>510.1428571428571</ele><time>2026-03-28T13:18:50.64Z</time></trkpt><trkpt lat="42.6762122" lon="12.4146082"><ele>509.5714285714285</ele><time>2026-03-28T13:18:51.676Z</time></trkpt><trkpt lat="42.6762556" lon="12.4146914"><ele>508.99999999999994</ele><time>2026-03-28T13:18:52.665Z</time></trkpt><trkpt lat="42.6763025" lon="12.4147803"><ele>507.49999999999994</ele><time>2026-03-28T13:18:53.666Z</time></trkpt><trkpt lat="42.6763557" lon="12.4148747"><ele>506.0</ele><time>2026-03-28T13:18:54.654Z</time></trkpt><trkpt lat="42.6764166" lon="12.4149698"><ele>504.5</ele><time>2026-03-28T13:18:55.654Z</time></trkpt><trkpt lat="42.6764779" lon="12.4150608"><ele>503.0</ele><time>2026-03-28T13:18:56.655Z</time></trkpt><trkpt lat="42.6765381" lon="12.415154"><ele>501.49999999999994</ele><time>2026-03-28T13:18:57.657Z</time></trkpt><trkpt lat="42.6765854" lon="12.4152516"><ele>500.0</ele><time>2026-03-28T13:18:58.658Z</time></trkpt><trkpt lat="42.6766148" lon="12.4153569"><ele>500.0</ele><time>2026-03-28T13:18:59.661Z</time></trkpt><trkpt lat="42.676628" lon="12.4154748"><ele>500.0</ele><time>2026-03-28T13:19:00.665Z</time></trkpt><trkpt lat="42.6766326" lon="12.4156073"><ele>500.0</ele><time>2026-03-28T13:19:01.666Z</time></trkpt><trkpt lat="42.6766303" lon="12.4157387"><ele>500.0</ele><time>2026-03-28T13:19:02.651Z</time></trkpt><trkpt lat="42.6766468" lon="12.4158687"><ele>500.0</ele><time>2026-03-28T13:19:03.647Z</time></trkpt><trkpt lat="42.6766788" lon="12.4159984"><ele>498.16666666666663</ele><time>2026-03-28T13:19:04.656Z</time></trkpt><trkpt lat="42.6767143" lon="12.4161216"><ele>496.3333333333333</ele><time>2026-03-28T13:19:05.665Z</time></trkpt><trkpt lat="42.6767572" lon="12.4162269"><ele>494.5</ele><time>2026-03-28T13:19:06.672Z</time></trkpt><trkpt lat="42.6768065" lon="12.4163111"><ele>492.66666666666663</ele><time>2026-03-28T13:19:07.648Z</time></trkpt><trkpt lat="42.6768545" lon="12.4163873"><ele>490.8333333333333</ele><time>2026-03-28T13:19:08.656Z</time></trkpt><trkpt lat="42.6769022" lon="12.4164593"><ele>489.0</ele><time>2026-03-28T13:19:09.668Z</time></trkpt><trkpt lat="42.6769498" lon="12.416538"><ele>486.8333333333333</ele><time>2026-03-28T13:19:10.653Z</time></trkpt><trkpt lat="42.6769954" lon="12.4166239"><ele>484.66666666666663</ele><time>2026-03-28T13:19:11.674Z</time></trkpt><trkpt lat="42.6770408" lon="12.4167207"><ele>482.5</ele><time>2026-03-28T13:19:12.652Z</time></trkpt><trkpt lat="42.6770898" lon="12.4168249"><ele>480.3333333333333</ele><time>2026-03-28T13:19:13.649Z</time></trkpt><trkpt lat="42.6771452" lon="12.4169245"><ele>478.16666666666663</ele><time>2026-03-28T13:19:14.653Z</time></trkpt><trkpt lat="42.6771989" lon="12.4170169"><ele>476.0</ele><time>2026-03-28T13:19:15.65Z</time></trkpt><trkpt lat="42.6772639" lon="12.4170986"><ele>474.99999999999994</ele><time>2026-03-28T13:19:16.656Z</time></trkpt><trkpt lat="42.6773321" lon="12.4171737"><ele>474.0</ele><time>2026-03-28T13:19:17.656Z</time></trkpt><trkpt lat="42.6774032" lon="12.4172518"><ele>473.0</ele><time>2026-03-28T13:19:18.655Z</time></trkpt><trkpt lat="42.6774673" lon="12.4173342"><ele>472.0</ele><time>2026-03-28T13:19:19.669Z</time></trkpt><trkpt lat="42.6775065" lon="12.4174281"><ele>470.99999999999994</ele><time>2026-03-28T13:19:20.652Z</time></trkpt><trkpt lat="42.6775188" lon="12.4175488"><ele>470.0</ele><time>2026-03-28T13:19:21.653Z</time></trkpt><trkpt lat="42.6775165" lon="12.4177087"><ele>470.0</ele><time>2026-03-28T13:19:22.658Z</time></trkpt><trkpt lat="42.677518" lon="12.4178897"><ele>470.0</ele><time>2026-03-28T13:19:23.656Z</time></trkpt><trkpt lat="42.6775322" lon="12.4180355"><ele>470.0</ele><time>2026-03-28T13:19:24.669Z</time></trkpt><trkpt lat="42.6775588" lon="12.4181392"><ele>470.0</ele><time>2026-03-28T13:19:25.66Z</time></trkpt><trkpt lat="42.6775921" lon="12.4182206"><ele>470.0</ele><time>2026-03-28T13:19:26.658Z</time></trkpt><trkpt lat="42.6776255" lon="12.418304"><ele>469.49999999999994</ele><time>2026-03-28T13:19:27.669Z</time></trkpt><trkpt lat="42.6776664" lon="12.4184056"><ele>469.0</ele><time>2026-03-28T13:19:28.656Z</time></trkpt><trkpt lat="42.6777159" lon="12.4185144"><ele>468.5</ele><time>2026-03-28T13:19:29.651Z</time></trkpt><trkpt lat="42.6777726" lon="12.4186205"><ele>468.0</ele><time>2026-03-28T13:19:30.654Z</time></trkpt><trkpt lat="42.6778224" lon="12.4187273"><ele>467.49999999999994</ele><time>2026-03-28T13:19:31.648Z</time></trkpt><trkpt lat="42.6778578" lon="12.4188221"><ele>467.0</ele><time>2026-03-28T13:19:32.647Z</time></trkpt><trkpt lat="42.6778937" lon="12.418918"><ele>469.40000000000003</ele><time>2026-03-28T13:19:33.652Z</time></trkpt><trkpt lat="42.677926" lon="12.4190087"><ele>471.80000000000007</ele><time>2026-03-28T13:19:34.65Z</time></trkpt><trkpt lat="42.678013" lon="12.4190994"><ele>474.2</ele><time>2026-03-28T13:19:36.655Z</time></trkpt><trkpt lat="42.6781427" lon="12.4190594"><ele>476.6</ele><time>2026-03-28T13:19:38.654Z</time></trkpt><trkpt lat="42.6782347" lon="12.4190179"><ele>479.0</ele><time>2026-03-28T13:19:39.655Z</time></trkpt><trkpt lat="42.6783426" lon="12.4189809"><ele>479.0</ele><time>2026-03-28T13:19:40.656Z</time></trkpt><trkpt lat="42.6784597" lon="12.4189415"><ele>479.0</ele><time>2026-03-28T13:19:41.668Z</time></trkpt><trkpt lat="42.6785685" lon="12.4189053"><ele>479.0</ele><time>2026-03-28T13:19:42.655Z</time></trkpt><trkpt lat="42.6786692" lon="12.418883"><ele>479.0</ele><time>2026-03-28T13:19:43.663Z</time></trkpt><trkpt lat="42.6787778" lon="12.4188625"><ele>479.0</ele><time>2026-03-28T13:19:44.651Z</time></trkpt><trkpt lat="42.6788976" lon="12.4188581"><ele>482.5</ele><time>2026-03-28T13:19:45.662Z</time></trkpt><trkpt lat="42.6790178" lon="12.4188666"><ele>486.0</ele><time>2026-03-28T13:19:46.655Z</time></trkpt><trkpt lat="42.6791341" lon="12.4188964"><ele>489.5</ele><time>2026-03-28T13:19:47.651Z</time></trkpt><trkpt lat="42.6792505" lon="12.4189443"><ele>493.0</ele><time>2026-03-28T13:19:48.667Z</time></trkpt><trkpt lat="42.6793545" lon="12.4190132"><ele>496.0</ele><time>2026-03-28T13:19:49.651Z</time></trkpt><trkpt lat="42.6794546" lon="12.4191015"><ele>499.0</ele><time>2026-03-28T13:19:50.66Z</time></trkpt><trkpt lat="42.6795632" lon="12.4191965"><ele>502.0</ele><time>2026-03-28T13:19:51.648Z</time></trkpt><trkpt lat="42.6796732" lon="12.4193048"><ele>505.0</ele><time>2026-03-28T13:19:52.665Z</time></trkpt><trkpt lat="42.6797742" lon="12.4194249"><ele>505.0</ele><time>2026-03-28T13:19:53.645Z</time></trkpt><trkpt lat="42.6798672" lon="12.4195307"><ele>505.0</ele><time>2026-03-28T13:19:54.665Z</time></trkpt><trkpt lat="42.6799663" lon="12.4196206"><ele>505.0</ele><time>2026-03-28T13:19:55.667Z</time></trkpt><trkpt lat="42.6800772" lon="12.4196813"><ele>505.0</ele><time>2026-03-28T13:19:56.663Z</time></trkpt><trkpt lat="42.6801702" lon="12.4197117"><ele>505.6666666666667</ele><time>2026-03-28T13:19:57.645Z</time></trkpt><trkpt lat="42.6802301" lon="12.4197399"><ele>506.33333333333337</ele><time>2026-03-28T13:19:58.665Z</time></trkpt><trkpt lat="42.6802781" lon="12.4198779"><ele>507.0</ele><time>2026-03-28T13:20:00.649Z</time></trkpt><trkpt lat="42.6802601" lon="12.4200021"><ele>507.66666666666663</ele><time>2026-03-28T13:20:01.667Z</time></trkpt><trkpt lat="42.6802459" lon="12.4201217"><ele>508.3333333333333</ele><time>2026-03-28T13:20:02.667Z</time></trkpt><trkpt lat="42.6802547" lon="12.4202175"><ele>509.0</ele><time>2026-03-28T13:20:03.668Z</time></trkpt><trkpt lat="42.6803308" lon="12.4203076"><ele>509.8333333333333</ele><time>2026-03-28T13:20:05.646Z</time></trkpt><trkpt lat="42.6803966" lon="12.4203248"><ele>510.66666666666663</ele><time>2026-03-28T13:20:06.669Z</time></trkpt><trkpt lat="42.6804787" lon="12.4203774"><ele>511.5</ele><time>2026-03-28T13:20:08.661Z</time></trkpt><trkpt lat="42.6804901" lon="12.4205109"><ele>512.3333333333334</ele><time>2026-03-28T13:20:10.661Z</time></trkpt><trkpt lat="42.6804799" lon="12.4206172"><ele>513.1666666666667</ele><time>2026-03-28T13:20:11.661Z</time></trkpt><trkpt lat="42.6804753" lon="12.4207535"><ele>514.0</ele><time>2026-03-28T13:20:12.641Z</time></trkpt><trkpt lat="42.680482" lon="12.4209049"><ele>514.0</ele><time>2026-03-28T13:20:13.657Z</time></trkpt><trkpt lat="42.6804997" lon="12.421072"><ele>514.0</ele><time>2026-03-28T13:20:14.659Z</time></trkpt><trkpt lat="42.6805263" lon="12.4212408"><ele>514.0</ele><time>2026-03-28T13:20:15.655Z</time></trkpt><trkpt lat="42.6805523" lon="12.4214233"><ele>514.0</ele><time>2026-03-28T13:20:16.669Z</time></trkpt><trkpt lat="42.6805793" lon="12.4216155"><ele>512.5</ele><time>2026-03-28T13:20:17.648Z</time></trkpt><trkpt lat="42.6806123" lon="12.4218068"><ele>511.0</ele><time>2026-03-28T13:20:18.661Z</time></trkpt><trkpt lat="42.680646" lon="12.4219957"><ele>509.5</ele><time>2026-03-28T13:20:19.681Z</time></trkpt><trkpt lat="42.6806796" lon="12.4221781"><ele>508.0</ele><time>2026-03-28T13:20:20.656Z</time></trkpt><trkpt lat="42.6807057" lon="12.4223602"><ele>507.5</ele><time>2026-03-28T13:20:21.668Z</time></trkpt><trkpt lat="42.680729" lon="12.4225459"><ele>507.0</ele><time>2026-03-28T13:20:22.661Z</time></trkpt><trkpt lat="42.6807511" lon="12.4227389"><ele>506.5</ele><time>2026-03-28T13:20:23.655Z</time></trkpt><trkpt lat="42.6807626" lon="12.4229291"><ele>506.0</ele><time>2026-03-28T13:20:24.644Z</time></trkpt><trkpt lat="42.6807665" lon="12.4231177"><ele>505.0</ele><time>2026-03-28T13:20:25.658Z</time></trkpt><trkpt lat="42.6807648" lon="12.4233015"><ele>504.0</ele><time>2026-03-28T13:20:26.645Z</time></trkpt><trkpt lat="42.6807637" lon="12.4234898"><ele>503.0</ele><time>2026-03-28T13:20:27.662Z</time></trkpt><trkpt lat="42.6807609" lon="12.4236741"><ele>502.0</ele><time>2026-03-28T13:20:28.675Z</time></trkpt><trkpt lat="42.6807543" lon="12.4238508"><ele>501.40000000000003</ele><time>2026-03-28T13:20:29.669Z</time></trkpt><trkpt lat="42.680745" lon="12.4240151"><ele>500.80000000000007</ele><time>2026-03-28T13:20:30.645Z</time></trkpt><trkpt lat="42.6807393" lon="12.4241699"><ele>500.2</ele><time>2026-03-28T13:20:31.662Z</time></trkpt><trkpt lat="42.6807481" lon="12.4243092"><ele>499.6</ele><time>2026-03-28T13:20:32.648Z</time></trkpt><trkpt lat="42.680761" lon="12.4244478"><ele>499.0</ele><time>2026-03-28T13:20:33.647Z</time></trkpt><trkpt lat="42.6807719" lon="12.4245784"><ele>498.0</ele><time>2026-03-28T13:20:34.661Z</time></trkpt><trkpt lat="42.6807824" lon="12.4247039"><ele>497.0</ele><time>2026-03-28T13:20:35.644Z</time></trkpt><trkpt lat="42.6808007" lon="12.424841"><ele>496.0</ele><time>2026-03-28T13:20:36.663Z</time></trkpt><trkpt lat="42.6808108" lon="12.4249886"><ele>495.0</ele><time>2026-03-28T13:20:37.673Z</time></trkpt><trkpt lat="42.6808004" lon="12.4251527"><ele>494.0</ele><time>2026-03-28T13:20:38.645Z</time></trkpt><trkpt lat="42.680771" lon="12.4253079"><ele>494.0</ele><time>2026-03-28T13:20:39.664Z</time></trkpt><trkpt lat="42.6807245" lon="12.4254557"><ele>494.0</ele><time>2026-03-28T13:20:40.663Z</time></trkpt><trkpt lat="42.6806722" lon="12.4256138"><ele>494.0</ele><time>2026-03-28T13:20:41.649Z</time></trkpt><trkpt lat="42.6806185" lon="12.4257769"><ele>494.0</ele><time>2026-03-28T13:20:42.667Z</time></trkpt><trkpt lat="42.6805626" lon="12.425947"><ele>493.0</ele><time>2026-03-28T13:20:43.649Z</time></trkpt><trkpt lat="42.6805099" lon="12.426133"><ele>492.0</ele><time>2026-03-28T13:20:44.665Z</time></trkpt><trkpt lat="42.6804611" lon="12.4263222"><ele>491.0</ele><time>2026-03-28T13:20:45.652Z</time></trkpt><trkpt lat="42.6804109" lon="12.426514"><ele>490.0</ele><time>2026-03-28T13:20:46.649Z</time></trkpt><trkpt lat="42.6803531" lon="12.4266898"><ele>489.25</ele><time>2026-03-28T13:20:47.654Z</time></trkpt><trkpt lat="42.6802907" lon="12.4268433"><ele>488.5</ele><time>2026-03-28T13:20:48.656Z</time></trkpt><trkpt lat="42.6802287" lon="12.4269959"><ele>487.75</ele><time>2026-03-28T13:20:49.657Z</time></trkpt><trkpt lat="42.680164" lon="12.427155"><ele>487.0</ele><time>2026-03-28T13:20:50.65Z</time></trkpt><trkpt lat="42.6800985" lon="12.4273135"><ele>486.5</ele><time>2026-03-28T13:20:51.663Z</time></trkpt><trkpt lat="42.6800342" lon="12.4274813"><ele>486.0</ele><time>2026-03-28T13:20:52.672Z</time></trkpt><trkpt lat="42.6799703" lon="12.4276556"><ele>485.5</ele><time>2026-03-28T13:20:53.657Z</time></trkpt><trkpt lat="42.6799049" lon="12.4278213"><ele>485.0</ele><time>2026-03-28T13:20:54.643Z</time></trkpt><trkpt lat="42.6798434" lon="12.427981"><ele>483.5</ele><time>2026-03-28T13:20:55.648Z</time></trkpt><trkpt lat="42.6797836" lon="12.4281464"><ele>482.0</ele><time>2026-03-28T13:20:56.645Z</time></trkpt><trkpt lat="42.6797217" lon="12.4283181"><ele>480.5</ele><time>2026-03-28T13:20:57.668Z</time></trkpt><trkpt lat="42.6796628" lon="12.4284828"><ele>479.0</ele><time>2026-03-28T13:20:58.663Z</time></trkpt><trkpt lat="42.6796044" lon="12.4286402"><ele>479.0</ele><time>2026-03-28T13:20:59.662Z</time></trkpt><trkpt lat="42.6795475" lon="12.4287991"><ele>479.0</ele><time>2026-03-28T13:21:00.659Z</time></trkpt><trkpt lat="42.6794924" lon="12.4289508"><ele>479.0</ele><time>2026-03-28T13:21:01.649Z</time></trkpt><trkpt lat="42.679431" lon="12.4290878"><ele>479.0</ele><time>2026-03-28T13:21:02.664Z</time></trkpt><trkpt lat="42.6793632" lon="12.4292177"><ele>477.5</ele><time>2026-03-28T13:21:03.651Z</time></trkpt><trkpt lat="42.6792895" lon="12.4293384"><ele>476.0</ele><time>2026-03-28T13:21:04.652Z</time></trkpt><trkpt lat="42.6792101" lon="12.4294655"><ele>474.5</ele><time>2026-03-28T13:21:05.661Z</time></trkpt><trkpt lat="42.6791349" lon="12.4295963"><ele>473.0</ele><time>2026-03-28T13:21:06.648Z</time></trkpt><trkpt lat="42.6790607" lon="12.4297245"><ele>473.0</ele><time>2026-03-28T13:21:07.658Z</time></trkpt><trkpt lat="42.6789903" lon="12.4298405"><ele>472.99999999999994</ele><time>2026-03-28T13:21:08.66Z</time></trkpt><trkpt lat="42.6789264" lon="12.4299402"><ele>472.99999999999994</ele><time>2026-03-28T13:21:09.655Z</time></trkpt><trkpt lat="42.6788649" lon="12.4300432"><ele>473.0</ele><time>2026-03-28T13:21:10.648Z</time></trkpt><trkpt lat="42.6788113" lon="12.4301644"><ele>473.0</ele><time>2026-03-28T13:21:11.662Z</time></trkpt><trkpt lat="42.6787677" lon="12.4303087"><ele>473.0</ele><time>2026-03-28T13:21:12.658Z</time></trkpt><trkpt lat="42.6787289" lon="12.4304602"><ele>473.0</ele><time>2026-03-28T13:21:13.644Z</time></trkpt><trkpt lat="42.6786973" lon="12.4306209"><ele>473.0</ele><time>2026-03-28T13:21:14.661Z</time></trkpt><trkpt lat="42.6786771" lon="12.4307853"><ele>473.0</ele><time>2026-03-28T13:21:15.648Z</time></trkpt><trkpt lat="42.6786594" lon="12.4309588"><ele>473.25</ele><time>2026-03-28T13:21:16.656Z</time></trkpt><trkpt lat="42.6786444" lon="12.4311328"><ele>473.5</ele><time>2026-03-28T13:21:17.647Z</time></trkpt><trkpt lat="42.6786287" lon="12.4313032"><ele>473.75</ele><time>2026-03-28T13:21:18.652Z</time></trkpt><trkpt lat="42.678612" lon="12.4314723"><ele>474.0</ele><time>2026-03-28T13:21:19.647Z</time></trkpt><trkpt lat="42.6785941" lon="12.4316445"><ele>473.0</ele><time>2026-03-28T13:21:20.662Z</time></trkpt><trkpt lat="42.6785718" lon="12.4318202"><ele>472.0</ele><time>2026-03-28T13:21:21.661Z</time></trkpt><trkpt lat="42.6785402" lon="12.4319907"><ele>471.0</ele><time>2026-03-28T13:21:22.656Z</time></trkpt><trkpt lat="42.6784947" lon="12.4321541"><ele>470.0</ele><time>2026-03-28T13:21:23.681Z</time></trkpt><trkpt lat="42.6784468" lon="12.4323316"><ele>470.0</ele><time>2026-03-28T13:21:24.654Z</time></trkpt><trkpt lat="42.6783985" lon="12.4325203"><ele>470.0</ele><time>2026-03-28T13:21:25.662Z</time></trkpt><trkpt lat="42.6783448" lon="12.4327048"><ele>470.0</ele><time>2026-03-28T13:21:26.646Z</time></trkpt><trkpt lat="42.6782889" lon="12.4328951"><ele>470.0</ele><time>2026-03-28T13:21:27.655Z</time></trkpt><trkpt lat="42.6782332" lon="12.4330782"><ele>470.25</ele><time>2026-03-28T13:21:28.657Z</time></trkpt><trkpt lat="42.6781765" lon="12.4332484"><ele>470.5</ele><time>2026-03-28T13:21:29.659Z</time></trkpt><trkpt lat="42.6781231" lon="12.433393"><ele>470.75</ele><time>2026-03-28T13:21:30.662Z</time></trkpt><trkpt lat="42.6780798" lon="12.4335264"><ele>471.0</ele><time>2026-03-28T13:21:31.645Z</time></trkpt><trkpt lat="42.6780391" lon="12.43365"><ele>471.0</ele><time>2026-03-28T13:21:32.641Z</time></trkpt><trkpt lat="42.6780015" lon="12.4337625"><ele>471.0</ele><time>2026-03-28T13:21:33.662Z</time></trkpt><trkpt lat="42.6779675" lon="12.4338771"><ele>471.0</ele><time>2026-03-28T13:21:34.662Z</time></trkpt><trkpt lat="42.6779419" lon="12.4339958"><ele>471.0</ele><time>2026-03-28T13:21:35.663Z</time></trkpt><trkpt lat="42.6779262" lon="12.434113"><ele>471.0</ele><time>2026-03-28T13:21:36.663Z</time></trkpt><trkpt lat="42.6779187" lon="12.4342322"><ele>471.0</ele><time>2026-03-28T13:21:37.658Z</time></trkpt><trkpt lat="42.6779151" lon="12.4343602"><ele>471.8</ele><time>2026-03-28T13:21:38.644Z</time></trkpt><trkpt lat="42.6779157" lon="12.4344938"><ele>472.6</ele><time>2026-03-28T13:21:39.66Z</time></trkpt><trkpt lat="42.677911" lon="12.434635"><ele>473.4</ele><time>2026-03-28T13:21:40.656Z</time></trkpt><trkpt lat="42.6778966" lon="12.434758"><ele>474.2</ele><time>2026-03-28T13:21:41.662Z</time></trkpt><trkpt lat="42.6778719" lon="12.4348622"><ele>475.0</ele><time>2026-03-28T13:21:42.656Z</time></trkpt><trkpt lat="42.6778349" lon="12.4349543"><ele>474.6</ele><time>2026-03-28T13:21:43.662Z</time></trkpt><trkpt lat="42.6777874" lon="12.4350376"><ele>474.2</ele><time>2026-03-28T13:21:44.65Z</time></trkpt><trkpt lat="42.6777229" lon="12.4351188"><ele>473.79999999999995</ele><time>2026-03-28T13:21:45.644Z</time></trkpt><trkpt lat="42.677649" lon="12.4351954"><ele>473.4</ele><time>2026-03-28T13:21:46.661Z</time></trkpt><trkpt lat="42.6775687" lon="12.4352587"><ele>473.0</ele><time>2026-03-28T13:21:47.645Z</time></trkpt><trkpt lat="42.6774749" lon="12.4353168"><ele>473.0</ele><time>2026-03-28T13:21:48.645Z</time></trkpt><trkpt lat="42.6773745" lon="12.4353751"><ele>473.0</ele><time>2026-03-28T13:21:49.661Z</time></trkpt><trkpt lat="42.6772662" lon="12.4354332"><ele>473.0</ele><time>2026-03-28T13:21:50.665Z</time></trkpt><trkpt lat="42.677155" lon="12.4354927"><ele>473.0</ele><time>2026-03-28T13:21:51.657Z</time></trkpt><trkpt lat="42.6770451" lon="12.4355536"><ele>474.0</ele><time>2026-03-28T13:21:52.663Z</time></trkpt><trkpt lat="42.6769374" lon="12.4356183"><ele>474.99999999999994</ele><time>2026-03-28T13:21:53.653Z</time></trkpt><trkpt lat="42.6768345" lon="12.4356829"><ele>475.99999999999994</ele><time>2026-03-28T13:21:54.642Z</time></trkpt><trkpt lat="42.6767369" lon="12.4357429"><ele>477.0</ele><time>2026-03-28T13:21:55.645Z</time></trkpt><trkpt lat="42.6766387" lon="12.4357997"><ele>478.0</ele><time>2026-03-28T13:21:56.655Z</time></trkpt><trkpt lat="42.6765408" lon="12.435852"><ele>478.0</ele><time>2026-03-28T13:21:57.654Z</time></trkpt><trkpt lat="42.6764456" lon="12.4358981"><ele>477.99999999999994</ele><time>2026-03-28T13:21:58.645Z</time></trkpt><trkpt lat="42.6763454" lon="12.4359308"><ele>477.99999999999994</ele><time>2026-03-28T13:21:59.645Z</time></trkpt><trkpt lat="42.6762408" lon="12.4359613"><ele>478.0</ele><time>2026-03-28T13:22:00.656Z</time></trkpt><trkpt lat="42.6761406" lon="12.4359818"><ele>478.0</ele><time>2026-03-28T13:22:01.652Z</time></trkpt><trkpt lat="42.6760456" lon="12.435996"><ele>477.79999999999995</ele><time>2026-03-28T13:22:02.67Z</time></trkpt><trkpt lat="42.6759451" lon="12.4360095"><ele>477.59999999999997</ele><time>2026-03-28T13:22:03.65Z</time></trkpt><trkpt lat="42.6758503" lon="12.4360236"><ele>477.40000000000003</ele><time>2026-03-28T13:22:04.655Z</time></trkpt><trkpt lat="42.675765" lon="12.4360381"><ele>477.20000000000005</ele><time>2026-03-28T13:22:05.653Z</time></trkpt><trkpt lat="42.6756869" lon="12.4360571"><ele>477.0</ele><time>2026-03-28T13:22:06.645Z</time></trkpt><trkpt lat="42.6755673" lon="12.4360806"><ele>477.0</ele><time>2026-03-28T13:22:08.643Z</time></trkpt><trkpt lat="42.6754997" lon="12.4360778"><ele>477.0</ele><time>2026-03-28T13:22:09.657Z</time></trkpt><trkpt lat="42.675423" lon="12.4360701"><ele>477.0</ele><time>2026-03-28T13:22:10.653Z</time></trkpt><trkpt lat="42.6753398" lon="12.4360586"><ele>477.0</ele><time>2026-03-28T13:22:11.656Z</time></trkpt><trkpt lat="42.6752657" lon="12.4360369"><ele>477.0</ele><time>2026-03-28T13:22:12.659Z</time></trkpt><trkpt lat="42.6751987" lon="12.4360043"><ele>477.0</ele><time>2026-03-28T13:22:13.657Z</time></trkpt><trkpt lat="42.6751227" lon="12.4359734"><ele>477.1666666666667</ele><time>2026-03-28T13:22:14.663Z</time></trkpt><trkpt lat="42.6750384" lon="12.4359465"><ele>477.33333333333337</ele><time>2026-03-28T13:22:15.653Z</time></trkpt><trkpt lat="42.6749592" lon="12.4359185"><ele>477.5</ele><time>2026-03-28T13:22:16.66Z</time></trkpt><trkpt lat="42.6748805" lon="12.4358831"><ele>477.6666666666667</ele><time>2026-03-28T13:22:17.662Z</time></trkpt><trkpt lat="42.6747975" lon="12.4358357"><ele>477.83333333333337</ele><time>2026-03-28T13:22:18.653Z</time></trkpt><trkpt lat="42.674715" lon="12.4357826"><ele>478.0</ele><time>2026-03-28T13:22:19.647Z</time></trkpt><trkpt lat="42.6746384" lon="12.4357213"><ele>478.00000000000006</ele><time>2026-03-28T13:22:20.661Z</time></trkpt><trkpt lat="42.6745677" lon="12.4356517"><ele>478.0</ele><time>2026-03-28T13:22:21.661Z</time></trkpt><trkpt lat="42.674497" lon="12.435571"><ele>478.0</ele><time>2026-03-28T13:22:22.654Z</time></trkpt><trkpt lat="42.6744329" lon="12.4354896"><ele>478.0</ele><time>2026-03-28T13:22:23.673Z</time></trkpt><trkpt lat="42.6743748" lon="12.4354093"><ele>478.00000000000006</ele><time>2026-03-28T13:22:24.659Z</time></trkpt><trkpt lat="42.6743242" lon="12.4353366"><ele>478.0</ele><time>2026-03-28T13:22:25.654Z</time></trkpt><trkpt lat="42.6742727" lon="12.4352683"><ele>476.8571428571429</ele><time>2026-03-28T13:22:26.657Z</time></trkpt><trkpt lat="42.6742137" lon="12.4352122"><ele>475.7142857142857</ele><time>2026-03-28T13:22:27.656Z</time></trkpt><trkpt lat="42.6741552" lon="12.4351558"><ele>474.57142857142856</ele><time>2026-03-28T13:22:28.645Z</time></trkpt><trkpt lat="42.6740962" lon="12.4351074"><ele>473.42857142857144</ele><time>2026-03-28T13:22:29.679Z</time></trkpt><trkpt lat="42.67404" lon="12.4350583"><ele>472.2857142857142</ele><time>2026-03-28T13:22:30.652Z</time></trkpt><trkpt lat="42.6739777" lon="12.4350131"><ele>471.1428571428571</ele><time>2026-03-28T13:22:31.653Z</time></trkpt><trkpt lat="42.6739111" lon="12.434981"><ele>470.0</ele><time>2026-03-28T13:22:32.657Z</time></trkpt><trkpt lat="42.6738399" lon="12.4349535"><ele>469.99999999999994</ele><time>2026-03-28T13:22:33.669Z</time></trkpt><trkpt lat="42.6737745" lon="12.4349243"><ele>470.0</ele><time>2026-03-28T13:22:34.648Z</time></trkpt><trkpt lat="42.673671" lon="12.4348616"><ele>470.0</ele><time>2026-03-28T13:22:36.658Z</time></trkpt><trkpt lat="42.6735792" lon="12.434778"><ele>470.0</ele><time>2026-03-28T13:22:38.645Z</time></trkpt><trkpt lat="42.6735349" lon="12.4347035"><ele>469.99999999999994</ele><time>2026-03-28T13:22:39.655Z</time></trkpt><trkpt lat="42.6734907" lon="12.4346154"><ele>470.0</ele><time>2026-03-28T13:22:40.656Z</time></trkpt><trkpt lat="42.6734461" lon="12.4345355"><ele>468.99999999999994</ele><time>2026-03-28T13:22:41.666Z</time></trkpt><trkpt lat="42.6734089" lon="12.4344607"><ele>468.0</ele><time>2026-03-28T13:22:42.654Z</time></trkpt><trkpt lat="42.6733522" lon="12.4343171"><ele>467.0</ele><time>2026-03-28T13:22:44.668Z</time></trkpt><trkpt lat="42.6733118" lon="12.4342417"><ele>466.0</ele><time>2026-03-28T13:22:45.656Z</time></trkpt><trkpt lat="42.6732685" lon="12.4341602"><ele>464.99999999999994</ele><time>2026-03-28T13:22:46.644Z</time></trkpt><trkpt lat="42.6732283" lon="12.4340882"><ele>464.0</ele><time>2026-03-28T13:22:47.672Z</time></trkpt><trkpt lat="42.6731904" lon="12.4340159"><ele>463.99999999999994</ele><time>2026-03-28T13:22:48.67Z</time></trkpt><trkpt lat="42.6731195" lon="12.4338776"><ele>464.0</ele><time>2026-03-28T13:22:50.674Z</time></trkpt><trkpt lat="42.6730735" lon="12.4338015"><ele>464.0</ele><time>2026-03-28T13:22:51.655Z</time></trkpt><trkpt lat="42.6730227" lon="12.4337174"><ele>464.0</ele><time>2026-03-28T13:22:52.65Z</time></trkpt><trkpt lat="42.672972" lon="12.4336289"><ele>463.99999999999994</ele><time>2026-03-28T13:22:53.663Z</time></trkpt><trkpt lat="42.6729268" lon="12.433538"><ele>464.0</ele><time>2026-03-28T13:22:54.655Z</time></trkpt><trkpt lat="42.6728804" lon="12.4334477"><ele>463.99999999999994</ele><time>2026-03-28T13:22:55.673Z</time></trkpt><trkpt lat="42.6728326" lon="12.4333551"><ele>464.0</ele><time>2026-03-28T13:22:56.651Z</time></trkpt><trkpt lat="42.6727829" lon="12.4332584"><ele>464.0</ele><time>2026-03-28T13:22:57.657Z</time></trkpt><trkpt lat="42.6727288" lon="12.433158"><ele>464.0</ele><time>2026-03-28T13:22:58.654Z</time></trkpt><trkpt lat="42.6726719" lon="12.4330636"><ele>463.99999999999994</ele><time>2026-03-28T13:22:59.671Z</time></trkpt><trkpt lat="42.6726037" lon="12.4329902"><ele>464.0</ele><time>2026-03-28T13:23:00.657Z</time></trkpt><trkpt lat="42.6725204" lon="12.4329419"><ele>464.00000000000006</ele><time>2026-03-28T13:23:01.655Z</time></trkpt><trkpt lat="42.6724369" lon="12.4329069"><ele>464.0</ele><time>2026-03-28T13:23:02.645Z</time></trkpt><trkpt lat="42.6723565" lon="12.4328855"><ele>464.00000000000006</ele><time>2026-03-28T13:23:03.661Z</time></trkpt><trkpt lat="42.6722845" lon="12.4328724"><ele>464.00000000000006</ele><time>2026-03-28T13:23:04.657Z</time></trkpt><trkpt lat="42.6722199" lon="12.4328626"><ele>464.0</ele><time>2026-03-28T13:23:05.673Z</time></trkpt><trkpt lat="42.6721558" lon="12.4328557"><ele>464.00000000000006</ele><time>2026-03-28T13:23:06.662Z</time></trkpt><trkpt lat="42.6720846" lon="12.4328527"><ele>464.00000000000006</ele><time>2026-03-28T13:23:07.662Z</time></trkpt><trkpt lat="42.6720032" lon="12.432841"><ele>463.49999999999994</ele><time>2026-03-28T13:23:08.658Z</time></trkpt><trkpt lat="42.6719137" lon="12.4328341"><ele>463.0</ele><time>2026-03-28T13:23:09.656Z</time></trkpt><trkpt lat="42.6718256" lon="12.432833"><ele>462.5</ele><time>2026-03-28T13:23:10.66Z</time></trkpt><trkpt lat="42.6717355" lon="12.4328409"><ele>462.0</ele><time>2026-03-28T13:23:11.642Z</time></trkpt><trkpt lat="42.6716453" lon="12.4328595"><ele>461.49999999999994</ele><time>2026-03-28T13:23:12.667Z</time></trkpt><trkpt lat="42.6715573" lon="12.4328833"><ele>461.0</ele><time>2026-03-28T13:23:13.672Z</time></trkpt><trkpt lat="42.6714765" lon="12.4329113"><ele>460.99999999999994</ele><time>2026-03-28T13:23:14.669Z</time></trkpt><trkpt lat="42.6714063" lon="12.4329422"><ele>461.0</ele><time>2026-03-28T13:23:15.656Z</time></trkpt><trkpt lat="42.6713332" lon="12.432969"><ele>461.0</ele><time>2026-03-28T13:23:16.672Z</time></trkpt><trkpt lat="42.6712568" lon="12.4330001"><ele>461.0</ele><time>2026-03-28T13:23:17.655Z</time></trkpt><trkpt lat="42.6711754" lon="12.4330232"><ele>460.99999999999994</ele><time>2026-03-28T13:23:18.664Z</time></trkpt><trkpt lat="42.6710899" lon="12.4330373"><ele>461.0</ele><time>2026-03-28T13:23:19.657Z</time></trkpt><trkpt lat="42.6710122" lon="12.4330415"><ele>460.16666666666663</ele><time>2026-03-28T13:23:20.652Z</time></trkpt><trkpt lat="42.6709366" lon="12.4330316"><ele>459.3333333333333</ele><time>2026-03-28T13:23:21.656Z</time></trkpt><trkpt lat="42.670848" lon="12.4330183"><ele>458.5</ele><time>2026-03-28T13:23:22.66Z</time></trkpt><trkpt lat="42.6707502" lon="12.4330099"><ele>457.66666666666663</ele><time>2026-03-28T13:23:23.654Z</time></trkpt><trkpt lat="42.6706543" lon="12.4330047"><ele>456.8333333333333</ele><time>2026-03-28T13:23:24.655Z</time></trkpt><trkpt lat="42.6705722" lon="12.4329935"><ele>456.0</ele><time>2026-03-28T13:23:25.656Z</time></trkpt><trkpt lat="42.6704714" lon="12.4329784"><ele>455.71428571428567</ele><time>2026-03-28T13:23:27.657Z</time></trkpt><trkpt lat="42.6704143" lon="12.4329367"><ele>455.4285714285714</ele><time>2026-03-28T13:23:31.659Z</time></trkpt><trkpt lat="42.6704353" lon="12.4328492"><ele>455.1428571428571</ele><time>2026-03-28T13:34:19.641Z</time></trkpt><trkpt lat="42.6705181" lon="12.4328499"><ele>454.8571428571429</ele><time>2026-03-28T13:34:22.655Z</time></trkpt><trkpt lat="42.6705702" lon="12.4327887"><ele>454.5714285714286</ele><time>2026-03-28T13:34:24.661Z</time></trkpt><trkpt lat="42.6705972" lon="12.4327032"><ele>454.28571428571433</ele><time>2026-03-28T13:34:25.658Z</time></trkpt><trkpt lat="42.6706254" lon="12.4325977"><ele>454.0</ele><time>2026-03-28T13:34:26.652Z</time></trkpt><trkpt lat="42.6706598" lon="12.4324757"><ele>454.0</ele><time>2026-03-28T13:34:27.662Z</time></trkpt><trkpt lat="42.670695" lon="12.4323575"><ele>454.0</ele><time>2026-03-28T13:34:28.664Z</time></trkpt><trkpt lat="42.6707299" lon="12.4322362"><ele>454.0</ele><time>2026-03-28T13:34:29.674Z</time></trkpt><trkpt lat="42.6707691" lon="12.432099"><ele>454.0</ele><time>2026-03-28T13:34:30.658Z</time></trkpt><trkpt lat="42.6708142" lon="12.4319466"><ele>454.0</ele><time>2026-03-28T13:34:31.656Z</time></trkpt><trkpt lat="42.6708614" lon="12.4317923"><ele>453.75</ele><time>2026-03-28T13:34:32.659Z</time></trkpt><trkpt lat="42.6709065" lon="12.4316336"><ele>453.5</ele><time>2026-03-28T13:34:33.665Z</time></trkpt><trkpt lat="42.6709515" lon="12.4314692"><ele>453.25</ele><time>2026-03-28T13:34:34.66Z</time></trkpt><trkpt lat="42.6709888" lon="12.4313239"><ele>453.0</ele><time>2026-03-28T13:34:35.678Z</time></trkpt><trkpt lat="42.6710025" lon="12.4311894"><ele>452.8333333333333</ele><time>2026-03-28T13:34:36.647Z</time></trkpt><trkpt lat="42.6709964" lon="12.4310454"><ele>452.66666666666663</ele><time>2026-03-28T13:34:37.66Z</time></trkpt><trkpt lat="42.6709846" lon="12.4309164"><ele>452.5</ele><time>2026-03-28T13:34:38.653Z</time></trkpt><trkpt lat="42.6709756" lon="12.4308137"><ele>452.3333333333333</ele><time>2026-03-28T13:34:39.659Z</time></trkpt><trkpt lat="42.6709644" lon="12.4307225"><ele>452.16666666666663</ele><time>2026-03-28T13:34:40.657Z</time></trkpt><trkpt lat="42.6709474" lon="12.4306376"><ele>452.0</ele><time>2026-03-28T13:34:41.652Z</time></trkpt><trkpt lat="42.670917" lon="12.4305591"><ele>452.0</ele><time>2026-03-28T13:34:42.657Z</time></trkpt><trkpt lat="42.6708704" lon="12.4304781"><ele>452.00000000000006</ele><time>2026-03-28T13:34:43.675Z</time></trkpt><trkpt lat="42.6708003" lon="12.43039"><ele>452.00000000000006</ele><time>2026-03-28T13:34:44.651Z</time></trkpt><trkpt lat="42.6707087" lon="12.4303095"><ele>452.0</ele><time>2026-03-28T13:34:45.646Z</time></trkpt><trkpt lat="42.6706142" lon="12.4302417"><ele>452.0</ele><time>2026-03-28T13:34:46.647Z</time></trkpt><trkpt lat="42.6705263" lon="12.4301948"><ele>451.40000000000003</ele><time>2026-03-28T13:34:47.66Z</time></trkpt><trkpt lat="42.6704433" lon="12.4301597"><ele>450.80000000000007</ele><time>2026-03-28T13:34:48.647Z</time></trkpt><trkpt lat="42.6703576" lon="12.4301436"><ele>450.2</ele><time>2026-03-28T13:34:49.666Z</time></trkpt><trkpt lat="42.6702598" lon="12.4301354"><ele>449.6</ele><time>2026-03-28T13:34:50.664Z</time></trkpt><trkpt lat="42.6701413" lon="12.43013"><ele>449.0</ele><time>2026-03-28T13:34:51.671Z</time></trkpt><trkpt lat="42.6700066" lon="12.430113"><ele>449.0</ele><time>2026-03-28T13:34:52.646Z</time></trkpt><trkpt lat="42.6698651" lon="12.4300868"><ele>449.0</ele><time>2026-03-28T13:34:53.647Z</time></trkpt><trkpt lat="42.6697297" lon="12.4300491"><ele>449.0</ele><time>2026-03-28T13:34:54.674Z</time></trkpt><trkpt lat="42.6696121" lon="12.4300073"><ele>449.0</ele><time>2026-03-28T13:34:55.653Z</time></trkpt><trkpt lat="42.6695075" lon="12.429942"><ele>448.5</ele><time>2026-03-28T13:34:56.663Z</time></trkpt><trkpt lat="42.6694048" lon="12.4298694"><ele>448.0</ele><time>2026-03-28T13:34:57.657Z</time></trkpt><trkpt lat="42.6692973" lon="12.4298063"><ele>447.5</ele><time>2026-03-28T13:34:58.66Z</time></trkpt><trkpt lat="42.6691891" lon="12.429754"><ele>447.0</ele><time>2026-03-28T13:34:59.659Z</time></trkpt><trkpt lat="42.6690843" lon="12.4296947"><ele>446.6</ele><time>2026-03-28T13:35:00.654Z</time></trkpt><trkpt lat="42.6689873" lon="12.4296275"><ele>446.20000000000005</ele><time>2026-03-28T13:35:01.652Z</time></trkpt><trkpt lat="42.6688906" lon="12.4295622"><ele>445.8</ele><time>2026-03-28T13:35:02.658Z</time></trkpt><trkpt lat="42.6687984" lon="12.4294855"><ele>445.4</ele><time>2026-03-28T13:35:03.647Z</time></trkpt><trkpt lat="42.6687152" lon="12.4294209"><ele>445.0</ele><time>2026-03-28T13:35:04.656Z</time></trkpt><trkpt lat="42.668624" lon="12.4293791"><ele>445.8</ele><time>2026-03-28T13:35:05.648Z</time></trkpt><trkpt lat="42.6685194" lon="12.4293418"><ele>446.6</ele><time>2026-03-28T13:35:06.658Z</time></trkpt><trkpt lat="42.6684222" lon="12.4293061"><ele>447.4</ele><time>2026-03-28T13:35:07.645Z</time></trkpt><trkpt lat="42.6683204" lon="12.4292499"><ele>448.2</ele><time>2026-03-28T13:35:08.651Z</time></trkpt><trkpt lat="42.6682183" lon="12.4291936"><ele>449.0</ele><time>2026-03-28T13:35:09.673Z</time></trkpt><trkpt lat="42.6681128" lon="12.4291438"><ele>449.0</ele><time>2026-03-28T13:35:10.655Z</time></trkpt><trkpt lat="42.6680152" lon="12.4290929"><ele>449.0</ele><time>2026-03-28T13:35:11.653Z</time></trkpt><trkpt lat="42.6679295" lon="12.429034"><ele>449.0</ele><time>2026-03-28T13:35:12.659Z</time></trkpt><trkpt lat="42.6678483" lon="12.4289656"><ele>449.0</ele><time>2026-03-28T13:35:13.658Z</time></trkpt><trkpt lat="42.6677641" lon="12.4288984"><ele>449.0</ele><time>2026-03-28T13:35:14.65Z</time></trkpt><trkpt lat="42.6676766" lon="12.4288202"><ele>447.4</ele><time>2026-03-28T13:35:15.665Z</time></trkpt><trkpt lat="42.6675935" lon="12.4287473"><ele>445.79999999999995</ele><time>2026-03-28T13:35:16.659Z</time></trkpt><trkpt lat="42.6675053" lon="12.4286803"><ele>444.20000000000005</ele><time>2026-03-28T13:35:17.657Z</time></trkpt><trkpt lat="42.6673986" lon="12.4286328"><ele>442.6</ele><time>2026-03-28T13:35:18.657Z</time></trkpt><trkpt lat="42.6672856" lon="12.4286063"><ele>441.0</ele><time>2026-03-28T13:35:19.664Z</time></trkpt><trkpt lat="42.667173" lon="12.4285864"><ele>441.0</ele><time>2026-03-28T13:35:20.659Z</time></trkpt><trkpt lat="42.6670743" lon="12.4285601"><ele>441.0</ele><time>2026-03-28T13:35:21.655Z</time></trkpt><trkpt lat="42.6669767" lon="12.4285122"><ele>441.0</ele><time>2026-03-28T13:35:22.653Z</time></trkpt><trkpt lat="42.6668737" lon="12.4284526"><ele>441.0</ele><time>2026-03-28T13:35:23.677Z</time></trkpt><trkpt lat="42.6667654" lon="12.4283894"><ele>441.0</ele><time>2026-03-28T13:35:24.657Z</time></trkpt><trkpt lat="42.6666575" lon="12.4283267"><ele>439.4</ele><time>2026-03-28T13:35:25.665Z</time></trkpt><trkpt lat="42.6665522" lon="12.4282795"><ele>437.8</ele><time>2026-03-28T13:35:26.652Z</time></trkpt><trkpt lat="42.666451" lon="12.4282321"><ele>436.19999999999993</ele><time>2026-03-28T13:35:27.66Z</time></trkpt><trkpt lat="42.6663544" lon="12.4281958"><ele>434.59999999999997</ele><time>2026-03-28T13:35:28.66Z</time></trkpt><trkpt lat="42.6662614" lon="12.4281701"><ele>433.0</ele><time>2026-03-28T13:35:29.66Z</time></trkpt><trkpt lat="42.6661747" lon="12.4281687"><ele>432.4</ele><time>2026-03-28T13:35:30.666Z</time></trkpt><trkpt lat="42.6660911" lon="12.4281866"><ele>431.79999999999995</ele><time>2026-03-28T13:35:31.661Z</time></trkpt><trkpt lat="42.6659993" lon="12.4282162"><ele>431.2</ele><time>2026-03-28T13:35:32.669Z</time></trkpt><trkpt lat="42.6659013" lon="12.4282394"><ele>430.6</ele><time>2026-03-28T13:35:33.66Z</time></trkpt><trkpt lat="42.6658007" lon="12.4282461"><ele>430.0</ele><time>2026-03-28T13:35:34.651Z</time></trkpt><trkpt lat="42.6657018" lon="12.4282459"><ele>430.0</ele><time>2026-03-28T13:35:35.668Z</time></trkpt><trkpt lat="42.6656092" lon="12.4282445"><ele>430.0</ele><time>2026-03-28T13:35:36.658Z</time></trkpt><trkpt lat="42.6655183" lon="12.4282403"><ele>430.0</ele><time>2026-03-28T13:35:37.65Z</time></trkpt><trkpt lat="42.6654263" lon="12.428239"><ele>430.0</ele><time>2026-03-28T13:35:38.672Z</time></trkpt><trkpt lat="42.6653356" lon="12.4282372"><ele>430.0</ele><time>2026-03-28T13:35:39.661Z</time></trkpt><trkpt lat="42.6652449" lon="12.4282212"><ele>429.33333333333337</ele><time>2026-03-28T13:35:40.661Z</time></trkpt><trkpt lat="42.6651628" lon="12.428201"><ele>428.6666666666667</ele><time>2026-03-28T13:35:41.681Z</time></trkpt><trkpt lat="42.6650805" lon="12.4281777"><ele>428.0</ele><time>2026-03-28T13:35:42.656Z</time></trkpt><trkpt lat="42.664998" lon="12.4281472"><ele>427.33333333333337</ele><time>2026-03-28T13:35:43.661Z</time></trkpt><trkpt lat="42.6649157" lon="12.4281138"><ele>426.6666666666667</ele><time>2026-03-28T13:35:44.661Z</time></trkpt><trkpt lat="42.6648339" lon="12.4280716"><ele>426.0</ele><time>2026-03-28T13:35:45.66Z</time></trkpt><trkpt lat="42.664751" lon="12.4280317"><ele>426.0</ele><time>2026-03-28T13:35:46.652Z</time></trkpt><trkpt lat="42.6646683" lon="12.4279811"><ele>426.0</ele><time>2026-03-28T13:35:47.658Z</time></trkpt><trkpt lat="42.6645841" lon="12.427927"><ele>426.0</ele><time>2026-03-28T13:35:48.676Z</time></trkpt><trkpt lat="42.6644993" lon="12.4278704"><ele>426.0</ele><time>2026-03-28T13:35:49.645Z</time></trkpt><trkpt lat="42.6644196" lon="12.4278131"><ele>426.0</ele><time>2026-03-28T13:35:50.667Z</time></trkpt><trkpt lat="42.66435" lon="12.427754"><ele>423.4</ele><time>2026-03-28T13:35:51.662Z</time></trkpt><trkpt lat="42.6642773" lon="12.427674"><ele>420.8</ele><time>2026-03-28T13:35:52.644Z</time></trkpt><trkpt lat="42.6641976" lon="12.427582"><ele>418.2</ele><time>2026-03-28T13:35:53.662Z</time></trkpt><trkpt lat="42.664115" lon="12.4274934"><ele>415.59999999999997</ele><time>2026-03-28T13:35:54.642Z</time></trkpt><trkpt lat="42.6640306" lon="12.4274046"><ele>413.0</ele><time>2026-03-28T13:35:55.658Z</time></trkpt><trkpt lat="42.6639484" lon="12.4273163"><ele>413.0</ele><time>2026-03-28T13:35:56.655Z</time></trkpt><trkpt lat="42.6638654" lon="12.4272286"><ele>413.0</ele><time>2026-03-28T13:35:57.648Z</time></trkpt><trkpt lat="42.6637977" lon="12.4271361"><ele>413.0</ele><time>2026-03-28T13:35:58.661Z</time></trkpt><trkpt lat="42.6637455" lon="12.4270328"><ele>413.0</ele><time>2026-03-28T13:35:59.645Z</time></trkpt><trkpt lat="42.6637124" lon="12.426921"><ele>413.0</ele><time>2026-03-28T13:36:00.648Z</time></trkpt><trkpt lat="42.6636845" lon="12.4268029"><ele>412.2</ele><time>2026-03-28T13:36:01.654Z</time></trkpt><trkpt lat="42.6636516" lon="12.4266938"><ele>411.4</ele><time>2026-03-28T13:36:02.662Z</time></trkpt><trkpt lat="42.6636059" lon="12.4265963"><ele>410.59999999999997</ele><time>2026-03-28T13:36:03.645Z</time></trkpt><trkpt lat="42.6635426" lon="12.4265004"><ele>409.79999999999995</ele><time>2026-03-28T13:36:04.654Z</time></trkpt><trkpt lat="42.6634701" lon="12.4264102"><ele>409.0</ele><time>2026-03-28T13:36:05.66Z</time></trkpt><trkpt lat="42.6634004" lon="12.4263327"><ele>406.83333333333337</ele><time>2026-03-28T13:36:06.657Z</time></trkpt><trkpt lat="42.6633288" lon="12.4262605"><ele>404.6666666666667</ele><time>2026-03-28T13:36:07.66Z</time></trkpt><trkpt lat="42.6632585" lon="12.426197"><ele>402.5</ele><time>2026-03-28T13:36:08.648Z</time></trkpt><trkpt lat="42.6631871" lon="12.4261356"><ele>400.33333333333337</ele><time>2026-03-28T13:36:09.643Z</time></trkpt><trkpt lat="42.6631081" lon="12.4260896"><ele>398.1666666666667</ele><time>2026-03-28T13:36:10.659Z</time></trkpt><trkpt lat="42.6630288" lon="12.4260497"><ele>396.0</ele><time>2026-03-28T13:36:11.643Z</time></trkpt><trkpt lat="42.6629461" lon="12.4260147"><ele>396.0</ele><time>2026-03-28T13:36:12.641Z</time></trkpt><trkpt lat="42.6628645" lon="12.4259922"><ele>396.0</ele><time>2026-03-28T13:36:13.649Z</time></trkpt><trkpt lat="42.6627942" lon="12.4260056"><ele>396.0</ele><time>2026-03-28T13:36:14.649Z</time></trkpt><trkpt lat="42.6627233" lon="12.4260632"><ele>396.0</ele><time>2026-03-28T13:36:15.655Z</time></trkpt><trkpt lat="42.6626603" lon="12.4261533"><ele>396.0</ele><time>2026-03-28T13:36:16.652Z</time></trkpt><trkpt lat="42.662599" lon="12.426249"><ele>396.0</ele><time>2026-03-28T13:36:17.642Z</time></trkpt><trkpt lat="42.662531" lon="12.42634"><ele>394.5</ele><time>2026-03-28T13:36:18.646Z</time></trkpt><trkpt lat="42.6624551" lon="12.4264273"><ele>393.0</ele><time>2026-03-28T13:36:19.669Z</time></trkpt><trkpt lat="42.6623714" lon="12.4265063"><ele>391.5</ele><time>2026-03-28T13:36:20.658Z</time></trkpt><trkpt lat="42.6622961" lon="12.4265631"><ele>390.0</ele><time>2026-03-28T13:36:21.666Z</time></trkpt><trkpt lat="42.6622235" lon="12.4266064"><ele>388.5</ele><time>2026-03-28T13:36:22.649Z</time></trkpt><trkpt lat="42.6621584" lon="12.426647"><ele>387.0</ele><time>2026-03-28T13:36:23.669Z</time></trkpt><trkpt lat="42.6620942" lon="12.4266996"><ele>387.0</ele><time>2026-03-28T13:36:24.656Z</time></trkpt><trkpt lat="42.6620275" lon="12.426772"><ele>387.0</ele><time>2026-03-28T13:36:25.65Z</time></trkpt><trkpt lat="42.6619776" lon="12.4268885"><ele>387.0</ele><time>2026-03-28T13:36:26.657Z</time></trkpt><trkpt lat="42.6619572" lon="12.4270233"><ele>387.0</ele><time>2026-03-28T13:36:27.667Z</time></trkpt><trkpt lat="42.661937" lon="12.427151"><ele>387.0</ele><time>2026-03-28T13:36:28.656Z</time></trkpt><trkpt lat="42.6619162" lon="12.427279"><ele>385.8333333333333</ele><time>2026-03-28T13:36:29.658Z</time></trkpt><trkpt lat="42.6618936" lon="12.4273934"><ele>384.6666666666667</ele><time>2026-03-28T13:36:30.66Z</time></trkpt><trkpt lat="42.6618639" lon="12.4274867"><ele>383.5</ele><time>2026-03-28T13:36:31.662Z</time></trkpt><trkpt lat="42.6618204" lon="12.4275574"><ele>382.33333333333337</ele><time>2026-03-28T13:36:32.655Z</time></trkpt><trkpt lat="42.661702" lon="12.4276128"><ele>381.1666666666667</ele><time>2026-03-28T13:36:34.652Z</time></trkpt><trkpt lat="42.6616345" lon="12.4276003"><ele>380.0</ele><time>2026-03-28T13:36:35.67Z</time></trkpt><trkpt lat="42.6615158" lon="12.4275575"><ele>380.0</ele><time>2026-03-28T13:36:37.652Z</time></trkpt><trkpt lat="42.6614461" lon="12.4275496"><ele>380.0</ele><time>2026-03-28T13:36:38.654Z</time></trkpt><trkpt lat="42.6613704" lon="12.4275559"><ele>380.0</ele><time>2026-03-28T13:36:39.652Z</time></trkpt><trkpt lat="42.6612972" lon="12.4275742"><ele>380.0</ele><time>2026-03-28T13:36:40.659Z</time></trkpt><trkpt lat="42.6612217" lon="12.4276013"><ele>380.0</ele><time>2026-03-28T13:36:41.659Z</time></trkpt><trkpt lat="42.6611474" lon="12.4276313"><ele>380.0</ele><time>2026-03-28T13:36:42.669Z</time></trkpt><trkpt lat="42.661067" lon="12.4276616"><ele>380.1666666666667</ele><time>2026-03-28T13:36:43.657Z</time></trkpt><trkpt lat="42.6609807" lon="12.4276939"><ele>380.33333333333337</ele><time>2026-03-28T13:36:44.657Z</time></trkpt><trkpt lat="42.6608935" lon="12.4277279"><ele>380.5</ele><time>2026-03-28T13:36:45.653Z</time></trkpt><trkpt lat="42.660814" lon="12.4277642"><ele>380.6666666666667</ele><time>2026-03-28T13:36:46.661Z</time></trkpt><trkpt lat="42.6607343" lon="12.4277946"><ele>380.8333333333333</ele><time>2026-03-28T13:36:47.647Z</time></trkpt><trkpt lat="42.6606533" lon="12.427832"><ele>381.0</ele><time>2026-03-28T13:36:48.67Z</time></trkpt><trkpt lat="42.6605777" lon="12.4278732"><ele>381.0</ele><time>2026-03-28T13:36:49.673Z</time></trkpt><trkpt lat="42.6605029" lon="12.427914"><ele>381.0</ele><time>2026-03-28T13:36:50.654Z</time></trkpt><trkpt lat="42.6604256" lon="12.4279496"><ele>381.0</ele><time>2026-03-28T13:36:51.655Z</time></trkpt><trkpt lat="42.6603467" lon="12.4279874"><ele>381.0</ele><time>2026-03-28T13:36:52.653Z</time></trkpt><trkpt lat="42.6602678" lon="12.4280185"><ele>381.0</ele><time>2026-03-28T13:36:53.655Z</time></trkpt><trkpt lat="42.660194" lon="12.4280441"><ele>381.0</ele><time>2026-03-28T13:36:54.656Z</time></trkpt><trkpt lat="42.6601191" lon="12.4280733"><ele>383.0</ele><time>2026-03-28T13:36:55.667Z</time></trkpt><trkpt lat="42.6600381" lon="12.4281061"><ele>385.0</ele><time>2026-03-28T13:36:56.656Z</time></trkpt><trkpt lat="42.6599532" lon="12.4281405"><ele>387.0</ele><time>2026-03-28T13:36:57.656Z</time></trkpt><trkpt lat="42.6598702" lon="12.4281774"><ele>389.0</ele><time>2026-03-28T13:36:58.656Z</time></trkpt><trkpt lat="42.6597881" lon="12.4282171"><ele>391.0</ele><time>2026-03-28T13:36:59.654Z</time></trkpt><trkpt lat="42.6597095" lon="12.4282705"><ele>393.0</ele><time>2026-03-28T13:37:00.644Z</time></trkpt><trkpt lat="42.6596331" lon="12.428329"><ele>393.0</ele><time>2026-03-28T13:37:01.682Z</time></trkpt><trkpt lat="42.6595585" lon="12.4284008"><ele>393.0</ele><time>2026-03-28T13:37:02.653Z</time></trkpt><trkpt lat="42.6594843" lon="12.4284795"><ele>393.0</ele><time>2026-03-28T13:37:03.657Z</time></trkpt><trkpt lat="42.6594011" lon="12.4285623"><ele>393.0</ele><time>2026-03-28T13:37:04.646Z</time></trkpt><trkpt lat="42.6593129" lon="12.4286408"><ele>393.0</ele><time>2026-03-28T13:37:05.657Z</time></trkpt><trkpt lat="42.6592139" lon="12.4287238"><ele>395.75</ele><time>2026-03-28T13:37:06.653Z</time></trkpt><trkpt lat="42.6590986" lon="12.4288093"><ele>398.5</ele><time>2026-03-28T13:37:07.655Z</time></trkpt><trkpt lat="42.6589908" lon="12.4288939"><ele>401.25</ele><time>2026-03-28T13:37:08.657Z</time></trkpt><trkpt lat="42.65889" lon="12.4289742"><ele>404.0</ele><time>2026-03-28T13:37:09.659Z</time></trkpt><trkpt lat="42.6587883" lon="12.4290409"><ele>405.0</ele><time>2026-03-28T13:37:10.654Z</time></trkpt><trkpt lat="42.6586768" lon="12.4290961"><ele>406.0</ele><time>2026-03-28T13:37:11.656Z</time></trkpt><trkpt lat="42.6585578" lon="12.4291545"><ele>407.0</ele><time>2026-03-28T13:37:12.651Z</time></trkpt><trkpt lat="42.6584488" lon="12.4292218"><ele>408.0</ele><time>2026-03-28T13:37:13.668Z</time></trkpt><trkpt lat="42.6583539" lon="12.4293168"><ele>410.0</ele><time>2026-03-28T13:37:14.649Z</time></trkpt><trkpt lat="42.6582663" lon="12.4294194"><ele>412.0</ele><time>2026-03-28T13:37:15.671Z</time></trkpt><trkpt lat="42.6581828" lon="12.4295146"><ele>414.0</ele><time>2026-03-28T13:37:16.638Z</time></trkpt><trkpt lat="42.6581048" lon="12.4295861"><ele>416.0</ele><time>2026-03-28T13:37:17.653Z</time></trkpt><trkpt lat="42.6580295" lon="12.4296372"><ele>418.0</ele><time>2026-03-28T13:37:18.659Z</time></trkpt><trkpt lat="42.6579612" lon="12.4296811"><ele>418.33333333333337</ele><time>2026-03-28T13:37:19.665Z</time></trkpt><trkpt lat="42.6578918" lon="12.4297238"><ele>418.6666666666667</ele><time>2026-03-28T13:37:20.648Z</time></trkpt><trkpt lat="42.6578211" lon="12.4297719"><ele>419.0</ele><time>2026-03-28T13:37:21.662Z</time></trkpt><trkpt lat="42.6577413" lon="12.4298162"><ele>419.33333333333337</ele><time>2026-03-28T13:37:22.646Z</time></trkpt><trkpt lat="42.6576584" lon="12.4298561"><ele>419.6666666666667</ele><time>2026-03-28T13:37:23.653Z</time></trkpt><trkpt lat="42.6575809" lon="12.4298899"><ele>420.0</ele><time>2026-03-28T13:37:24.666Z</time></trkpt><trkpt lat="42.6575084" lon="12.4299172"><ele>422.1666666666667</ele><time>2026-03-28T13:37:25.658Z</time></trkpt><trkpt lat="42.6574441" lon="12.4299379"><ele>424.33333333333337</ele><time>2026-03-28T13:37:26.645Z</time></trkpt><trkpt lat="42.6573103" lon="12.429975"><ele>426.5</ele><time>2026-03-28T13:37:28.663Z</time></trkpt><trkpt lat="42.6572304" lon="12.4299975"><ele>428.6666666666667</ele><time>2026-03-28T13:37:29.652Z</time></trkpt><trkpt lat="42.6571635" lon="12.4300279"><ele>430.83333333333337</ele><time>2026-03-28T13:37:30.653Z</time></trkpt><trkpt lat="42.6570985" lon="12.4300685"><ele>433.0</ele><time>2026-03-28T13:37:32.664Z</time></trkpt><trkpt lat="42.6570273" lon="12.4301171"><ele>434.33333333333337</ele><time>2026-03-28T13:37:35.67Z</time></trkpt><trkpt lat="42.6569279" lon="12.4301876"><ele>435.6666666666667</ele><time>2026-03-28T13:37:37.66Z</time></trkpt><trkpt lat="42.6568619" lon="12.4302222"><ele>437.0</ele><time>2026-03-28T13:37:38.647Z</time></trkpt><trkpt lat="42.6567982" lon="12.4302579"><ele>438.33333333333337</ele><time>2026-03-28T13:37:39.654Z</time></trkpt><trkpt lat="42.6567298" lon="12.430307"><ele>439.6666666666667</ele><time>2026-03-28T13:37:40.658Z</time></trkpt><trkpt lat="42.6566595" lon="12.4303418"><ele>441.0</ele><time>2026-03-28T13:37:41.664Z</time></trkpt><trkpt lat="42.6566009" lon="12.4303823"><ele>441.0</ele><time>2026-03-28T13:37:42.639Z</time></trkpt><trkpt lat="42.6564975" lon="12.4304506"><ele>441.0</ele><time>2026-03-28T13:37:44.653Z</time></trkpt><trkpt lat="42.6564246" lon="12.4305149"><ele>441.0</ele><time>2026-03-28T13:37:46.655Z</time></trkpt><trkpt lat="42.6563718" lon="12.4305617"><ele>441.0</ele><time>2026-03-28T13:37:48.667Z</time></trkpt><trkpt lat="42.6563824" lon="12.4306578"><ele>441.0</ele><time>2026-03-28T13:38:11.684Z</time></trkpt><trkpt lat="42.6564075" lon="12.4307401"><ele>441.0</ele><time>2026-03-28T13:38:13.679Z</time></trkpt><trkpt lat="42.6564123" lon="12.4306452"><ele>441.0</ele><time>2026-03-28T13:38:29.643Z</time></trkpt><trkpt lat="42.6564272" lon="12.4305576"><ele>441.0</ele><time>2026-03-28T13:38:32.66Z</time></trkpt><trkpt lat="42.656477" lon="12.430489"><ele>441.0</ele><time>2026-03-28T13:38:34.659Z</time></trkpt><trkpt lat="42.6565799" lon="12.4304052"><ele>441.0</ele><time>2026-03-28T13:38:36.653Z</time></trkpt><trkpt lat="42.6566872" lon="12.4303297"><ele>441.0</ele><time>2026-03-28T13:38:38.653Z</time></trkpt><trkpt lat="42.6567515" lon="12.430287"><ele>441.0</ele><time>2026-03-28T13:38:39.657Z</time></trkpt><trkpt lat="42.6568145" lon="12.4302477"><ele>441.0</ele><time>2026-03-28T13:38:40.664Z</time></trkpt><trkpt lat="42.6568774" lon="12.4302092"><ele>441.0</ele><time>2026-03-28T13:38:41.65Z</time></trkpt><trkpt lat="42.6569414" lon="12.4301756"><ele>441.0</ele><time>2026-03-28T13:38:42.655Z</time></trkpt><trkpt lat="42.6570028" lon="12.430137"><ele>441.0</ele><time>2026-03-28T13:38:43.645Z</time></trkpt><trkpt lat="42.6570597" lon="12.4300966"><ele>441.0</ele><time>2026-03-28T13:38:44.658Z</time></trkpt><trkpt lat="42.6571186" lon="12.4300519"><ele>441.0</ele><time>2026-03-28T13:38:45.67Z</time></trkpt><trkpt lat="42.6571749" lon="12.4300099"><ele>441.0</ele><time>2026-03-28T13:38:46.652Z</time></trkpt><trkpt lat="42.6572359" lon="12.4299734"><ele>439.6666666666667</ele><time>2026-03-28T13:38:47.652Z</time></trkpt><trkpt lat="42.6573038" lon="12.4299407"><ele>438.33333333333337</ele><time>2026-03-28T13:38:48.655Z</time></trkpt><trkpt lat="42.6573764" lon="12.429911"><ele>437.0</ele><time>2026-03-28T13:38:49.666Z</time></trkpt><trkpt lat="42.6574516" lon="12.4298853"><ele>435.6666666666667</ele><time>2026-03-28T13:38:50.663Z</time></trkpt><trkpt lat="42.6575246" lon="12.4298595"><ele>434.33333333333337</ele><time>2026-03-28T13:38:51.646Z</time></trkpt><trkpt lat="42.6575961" lon="12.4298358"><ele>433.0</ele><time>2026-03-28T13:38:52.68Z</time></trkpt><trkpt lat="42.6576718" lon="12.429814"><ele>433.0</ele><time>2026-03-28T13:38:53.645Z</time></trkpt><trkpt lat="42.6577526" lon="12.429782"><ele>432.99999999999994</ele><time>2026-03-28T13:38:54.652Z</time></trkpt><trkpt lat="42.6578429" lon="12.4297438"><ele>432.99999999999994</ele><time>2026-03-28T13:38:55.651Z</time></trkpt><trkpt lat="42.6579328" lon="12.4296837"><ele>433.0</ele><time>2026-03-28T13:38:56.666Z</time></trkpt><trkpt lat="42.6580298" lon="12.4296092"><ele>433.0</ele><time>2026-03-28T13:38:57.661Z</time></trkpt><trkpt lat="42.6581274" lon="12.4295305"><ele>429.25</ele><time>2026-03-28T13:38:58.671Z</time></trkpt><trkpt lat="42.6582218" lon="12.4294474"><ele>425.5</ele><time>2026-03-28T13:38:59.644Z</time></trkpt><trkpt lat="42.6583128" lon="12.4293561"><ele>421.75</ele><time>2026-03-28T13:39:00.664Z</time></trkpt><trkpt lat="42.658403" lon="12.4292668"><ele>418.0</ele><time>2026-03-28T13:39:01.662Z</time></trkpt><trkpt lat="42.6585021" lon="12.4291788"><ele>418.0</ele><time>2026-03-28T13:39:02.652Z</time></trkpt><trkpt lat="42.6585988" lon="12.4291013"><ele>418.0</ele><time>2026-03-28T13:39:03.65Z</time></trkpt><trkpt lat="42.6586992" lon="12.4290433"><ele>418.0</ele><time>2026-03-28T13:39:04.677Z</time></trkpt><trkpt lat="42.6587972" lon="12.4289923"><ele>418.0</ele><time>2026-03-28T13:39:05.65Z</time></trkpt><trkpt lat="42.6588829" lon="12.4289343"><ele>418.0</ele><time>2026-03-28T13:39:06.654Z</time></trkpt><trkpt lat="42.6589615" lon="12.4288672"><ele>415.2</ele><time>2026-03-28T13:39:07.65Z</time></trkpt><trkpt lat="42.6590458" lon="12.4287926"><ele>412.4</ele><time>2026-03-28T13:39:08.654Z</time></trkpt><trkpt lat="42.6591401" lon="12.4287134"><ele>409.59999999999997</ele><time>2026-03-28T13:39:09.662Z</time></trkpt><trkpt lat="42.6592402" lon="12.4286378"><ele>406.79999999999995</ele><time>2026-03-28T13:39:10.671Z</time></trkpt><trkpt lat="42.6593423" lon="12.4285631"><ele>404.0</ele><time>2026-03-28T13:39:11.668Z</time></trkpt><trkpt lat="42.6594382" lon="12.4284937"><ele>401.79999999999995</ele><time>2026-03-28T13:39:12.664Z</time></trkpt><trkpt lat="42.6595335" lon="12.4284211"><ele>399.59999999999997</ele><time>2026-03-28T13:39:13.642Z</time></trkpt><trkpt lat="42.659628" lon="12.428341"><ele>397.4</ele><time>2026-03-28T13:39:14.663Z</time></trkpt><trkpt lat="42.6597177" lon="12.4282647"><ele>395.2</ele><time>2026-03-28T13:39:15.654Z</time></trkpt><trkpt lat="42.6598124" lon="12.4282037"><ele>393.0</ele><time>2026-03-28T13:39:16.656Z</time></trkpt><trkpt lat="42.6599141" lon="12.428152"><ele>393.0</ele><time>2026-03-28T13:39:17.659Z</time></trkpt><trkpt lat="42.6600199" lon="12.4281063"><ele>393.0</ele><time>2026-03-28T13:39:18.649Z</time></trkpt><trkpt lat="42.6601343" lon="12.4280588"><ele>393.0</ele><time>2026-03-28T13:39:19.661Z</time></trkpt><trkpt lat="42.6602479" lon="12.4280105"><ele>393.0</ele><time>2026-03-28T13:39:20.65Z</time></trkpt><trkpt lat="42.6603642" lon="12.427961"><ele>390.0</ele><time>2026-03-28T13:39:21.655Z</time></trkpt><trkpt lat="42.6604811" lon="12.4279123"><ele>387.0</ele><time>2026-03-28T13:39:22.673Z</time></trkpt><trkpt lat="42.6605908" lon="12.4278641"><ele>384.0</ele><time>2026-03-28T13:39:23.66Z</time></trkpt><trkpt lat="42.6606975" lon="12.4278148"><ele>381.0</ele><time>2026-03-28T13:39:24.661Z</time></trkpt><trkpt lat="42.6608036" lon="12.4277646"><ele>381.0</ele><time>2026-03-28T13:39:25.644Z</time></trkpt><trkpt lat="42.6609122" lon="12.4277158"><ele>381.0</ele><time>2026-03-28T13:39:26.67Z</time></trkpt><trkpt lat="42.6610221" lon="12.4276691"><ele>381.0</ele><time>2026-03-28T13:39:27.658Z</time></trkpt><trkpt lat="42.661135" lon="12.4276287"><ele>381.0</ele><time>2026-03-28T13:39:28.663Z</time></trkpt><trkpt lat="42.6612484" lon="12.4275945"><ele>380.8</ele><time>2026-03-28T13:39:29.651Z</time></trkpt><trkpt lat="42.6613538" lon="12.4275627"><ele>380.6</ele><time>2026-03-28T13:39:30.662Z</time></trkpt><trkpt lat="42.6614523" lon="12.4275472"><ele>380.4</ele><time>2026-03-28T13:39:31.654Z</time></trkpt><trkpt lat="42.661542" lon="12.4275553"><ele>380.2</ele><time>2026-03-28T13:39:32.669Z</time></trkpt><trkpt lat="42.6616305" lon="12.4275777"><ele>380.0</ele><time>2026-03-28T13:39:33.674Z</time></trkpt><trkpt lat="42.6617189" lon="12.4275962"><ele>380.0</ele><time>2026-03-28T13:39:34.649Z</time></trkpt><trkpt lat="42.6617982" lon="12.4275879"><ele>380.0</ele><time>2026-03-28T13:39:35.664Z</time></trkpt><trkpt lat="42.6618557" lon="12.4275293"><ele>380.0</ele><time>2026-03-28T13:39:36.663Z</time></trkpt><trkpt lat="42.6619007" lon="12.4274317"><ele>380.0</ele><time>2026-03-28T13:39:37.643Z</time></trkpt><trkpt lat="42.6619367" lon="12.4273189"><ele>380.0</ele><time>2026-03-28T13:39:38.661Z</time></trkpt><trkpt lat="42.6619581" lon="12.427194"><ele>380.0</ele><time>2026-03-28T13:39:39.65Z</time></trkpt><trkpt lat="42.6619782" lon="12.4270552"><ele>381.4</ele><time>2026-03-28T13:39:40.654Z</time></trkpt><trkpt lat="42.6620031" lon="12.4269092"><ele>382.8</ele><time>2026-03-28T13:39:41.642Z</time></trkpt><trkpt lat="42.662043" lon="12.4267828"><ele>384.20000000000005</ele><time>2026-03-28T13:39:42.673Z</time></trkpt><trkpt lat="42.662113" lon="12.4266833"><ele>385.6</ele><time>2026-03-28T13:39:43.666Z</time></trkpt><trkpt lat="42.6622012" lon="12.4265937"><ele>387.0</ele><time>2026-03-28T13:39:44.648Z</time></trkpt><trkpt lat="42.6622989" lon="12.4265206"><ele>387.0</ele><time>2026-03-28T13:39:45.661Z</time></trkpt><trkpt lat="42.6624015" lon="12.4264602"><ele>387.0</ele><time>2026-03-28T13:39:46.65Z</time></trkpt><trkpt lat="42.6624978" lon="12.4263859"><ele>387.0</ele><time>2026-03-28T13:39:47.663Z</time></trkpt><trkpt lat="42.662581" lon="12.4262828"><ele>387.0</ele><time>2026-03-28T13:39:48.667Z</time></trkpt><trkpt lat="42.6626508" lon="12.4261772"><ele>387.0</ele><time>2026-03-28T13:39:49.657Z</time></trkpt><trkpt lat="42.6627218" lon="12.4260801"><ele>388.5</ele><time>2026-03-28T13:39:50.668Z</time></trkpt><trkpt lat="42.6627934" lon="12.4260109"><ele>390.0</ele><time>2026-03-28T13:39:51.659Z</time></trkpt><trkpt lat="42.6628759" lon="12.4259897"><ele>391.5</ele><time>2026-03-28T13:39:52.651Z</time></trkpt><trkpt lat="42.6629649" lon="12.4260039"><ele>393.0</ele><time>2026-03-28T13:39:53.649Z</time></trkpt><trkpt lat="42.6630532" lon="12.4260395"><ele>394.5</ele><time>2026-03-28T13:39:54.677Z</time></trkpt><trkpt lat="42.6631355" lon="12.4260739"><ele>396.0</ele><time>2026-03-28T13:39:55.646Z</time></trkpt><trkpt lat="42.6632101" lon="12.4261175"><ele>396.0</ele><time>2026-03-28T13:39:57.651Z</time></trkpt><trkpt lat="42.6632635" lon="12.4261674"><ele>396.0</ele><time>2026-03-28T13:39:59.653Z</time></trkpt><trkpt lat="42.663332" lon="12.4262437"><ele>396.0</ele><time>2026-03-28T13:40:01.657Z</time></trkpt><trkpt lat="42.6634253" lon="12.4263417"><ele>396.0</ele><time>2026-03-28T13:40:03.681Z</time></trkpt><trkpt lat="42.6635183" lon="12.4264553"><ele>396.0</ele><time>2026-03-28T13:40:05.654Z</time></trkpt><trkpt lat="42.6635732" lon="12.4265145"><ele>398.1666666666667</ele><time>2026-03-28T13:40:06.657Z</time></trkpt><trkpt lat="42.6636253" lon="12.4265895"><ele>400.33333333333337</ele><time>2026-03-28T13:40:07.661Z</time></trkpt><trkpt lat="42.663665" lon="12.4266713"><ele>402.5</ele><time>2026-03-28T13:40:08.674Z</time></trkpt><trkpt lat="42.6636964" lon="12.426769"><ele>404.6666666666667</ele><time>2026-03-28T13:40:09.643Z</time></trkpt><trkpt lat="42.6637273" lon="12.426869"><ele>406.83333333333337</ele><time>2026-03-28T13:40:10.662Z</time></trkpt><trkpt lat="42.6637554" lon="12.4269743"><ele>409.0</ele><time>2026-03-28T13:40:11.663Z</time></trkpt><trkpt lat="42.663789" lon="12.4270762"><ele>410.0</ele><time>2026-03-28T13:40:12.664Z</time></trkpt><trkpt lat="42.6638439" lon="12.4271727"><ele>411.0</ele><time>2026-03-28T13:40:13.645Z</time></trkpt><trkpt lat="42.6639269" lon="12.4272694"><ele>412.0</ele><time>2026-03-28T13:40:14.652Z</time></trkpt><trkpt lat="42.6640363" lon="12.4273826"><ele>413.0</ele><time>2026-03-28T13:40:15.659Z</time></trkpt><trkpt lat="42.6641474" lon="12.4274968"><ele>413.0</ele><time>2026-03-28T13:40:16.659Z</time></trkpt><trkpt lat="42.6642541" lon="12.4276091"><ele>413.0</ele><time>2026-03-28T13:40:17.646Z</time></trkpt><trkpt lat="42.6643608" lon="12.4277182"><ele>413.0</ele><time>2026-03-28T13:40:18.653Z</time></trkpt><trkpt lat="42.6644597" lon="12.4278207"><ele>413.0</ele><time>2026-03-28T13:40:19.658Z</time></trkpt><trkpt lat="42.6645551" lon="12.4279076"><ele>415.59999999999997</ele><time>2026-03-28T13:40:20.655Z</time></trkpt><trkpt lat="42.6646553" lon="12.4279752"><ele>418.2</ele><time>2026-03-28T13:40:21.649Z</time></trkpt><trkpt lat="42.6647546" lon="12.428028"><ele>420.8</ele><time>2026-03-28T13:40:22.663Z</time></trkpt><trkpt lat="42.6648549" lon="12.4280787"><ele>423.4</ele><time>2026-03-28T13:40:23.663Z</time></trkpt><trkpt lat="42.6649562" lon="12.4281242"><ele>426.0</ele><time>2026-03-28T13:40:24.68Z</time></trkpt><trkpt lat="42.6650623" lon="12.428162"><ele>426.0</ele><time>2026-03-28T13:40:25.663Z</time></trkpt><trkpt lat="42.6651674" lon="12.4281864"><ele>426.0</ele><time>2026-03-28T13:40:26.651Z</time></trkpt><trkpt lat="42.665249" lon="12.4282118"><ele>426.0</ele><time>2026-03-28T13:40:27.663Z</time></trkpt><trkpt lat="42.6653154" lon="12.4282326"><ele>426.0</ele><time>2026-03-28T13:40:28.653Z</time></trkpt><trkpt lat="42.665409" lon="12.4282554"><ele>426.0</ele><time>2026-03-28T13:40:30.665Z</time></trkpt><trkpt lat="42.6654754" lon="12.428241"><ele>426.0</ele><time>2026-03-28T13:41:54.649Z</time></trkpt><trkpt lat="42.6655894" lon="12.4282343"><ele>426.8</ele><time>2026-03-28T13:41:57.678Z</time></trkpt><trkpt lat="42.6657188" lon="12.4282343"><ele>427.6</ele><time>2026-03-28T13:41:59.66Z</time></trkpt><trkpt lat="42.6657987" lon="12.4282337"><ele>428.4</ele><time>2026-03-28T13:42:00.651Z</time></trkpt><trkpt lat="42.6658807" lon="12.4282287"><ele>429.2</ele><time>2026-03-28T13:42:01.657Z</time></trkpt><trkpt lat="42.665964" lon="12.4282255"><ele>430.0</ele><time>2026-03-28T13:42:02.666Z</time></trkpt><trkpt lat="42.6660452" lon="12.4282163"><ele>430.50000000000006</ele><time>2026-03-28T13:42:03.662Z</time></trkpt><trkpt lat="42.6661234" lon="12.4281971"><ele>431.0</ele><time>2026-03-28T13:42:04.647Z</time></trkpt><trkpt lat="42.6661987" lon="12.4281788"><ele>431.5</ele><time>2026-03-28T13:42:05.665Z</time></trkpt><trkpt lat="42.6662685" lon="12.428165"><ele>432.0</ele><time>2026-03-28T13:42:06.656Z</time></trkpt><trkpt lat="42.6663426" lon="12.4281708"><ele>432.50000000000006</ele><time>2026-03-28T13:42:07.657Z</time></trkpt><trkpt lat="42.6664184" lon="12.4281923"><ele>433.0</ele><time>2026-03-28T13:42:08.662Z</time></trkpt><trkpt lat="42.6665002" lon="12.4282272"><ele>433.0</ele><time>2026-03-28T13:42:09.653Z</time></trkpt><trkpt lat="42.6666009" lon="12.428272"><ele>433.0</ele><time>2026-03-28T13:42:10.664Z</time></trkpt><trkpt lat="42.6667176" lon="12.4283312"><ele>433.0</ele><time>2026-03-28T13:42:11.657Z</time></trkpt><trkpt lat="42.666849" lon="12.4284014"><ele>433.0</ele><time>2026-03-28T13:42:12.669Z</time></trkpt><trkpt lat="42.6669822" lon="12.4284755"><ele>435.0</ele><time>2026-03-28T13:42:13.66Z</time></trkpt><trkpt lat="42.6671143" lon="12.4285522"><ele>437.0</ele><time>2026-03-28T13:42:14.663Z</time></trkpt><trkpt lat="42.6672499" lon="12.4286"><ele>439.0</ele><time>2026-03-28T13:42:15.657Z</time></trkpt><trkpt lat="42.6673883" lon="12.4286264"><ele>441.0</ele><time>2026-03-28T13:42:16.657Z</time></trkpt><trkpt lat="42.667514" lon="12.4286595"><ele>441.0</ele><time>2026-03-28T13:42:17.658Z</time></trkpt><trkpt lat="42.6676078" lon="12.4286991"><ele>441.0</ele><time>2026-03-28T13:42:18.662Z</time></trkpt><trkpt lat="42.6676778" lon="12.428769"><ele>441.0</ele><time>2026-03-28T13:42:19.665Z</time></trkpt><trkpt lat="42.6677477" lon="12.4288535"><ele>441.0</ele><time>2026-03-28T13:42:20.655Z</time></trkpt><trkpt lat="42.6678351" lon="12.428949"><ele>441.0</ele><time>2026-03-28T13:42:21.664Z</time></trkpt><trkpt lat="42.6679364" lon="12.4290358"><ele>443.0</ele><time>2026-03-28T13:42:22.656Z</time></trkpt><trkpt lat="42.6680521" lon="12.4291275"><ele>445.0</ele><time>2026-03-28T13:42:23.656Z</time></trkpt><trkpt lat="42.6681805" lon="12.4292106"><ele>447.0</ele><time>2026-03-28T13:42:24.656Z</time></trkpt><trkpt lat="42.6683178" lon="12.429282"><ele>449.0</ele><time>2026-03-28T13:42:25.652Z</time></trkpt><trkpt lat="42.6684503" lon="12.4293496"><ele>449.0</ele><time>2026-03-28T13:42:26.651Z</time></trkpt><trkpt lat="42.6685679" lon="12.4294075"><ele>449.0</ele><time>2026-03-28T13:42:27.65Z</time></trkpt><trkpt lat="42.6686868" lon="12.4294507"><ele>449.0</ele><time>2026-03-28T13:42:28.659Z</time></trkpt><trkpt lat="42.6688099" lon="12.4295089"><ele>449.0</ele><time>2026-03-28T13:42:29.661Z</time></trkpt><trkpt lat="42.6689399" lon="12.4295991"><ele>448.5</ele><time>2026-03-28T13:42:30.656Z</time></trkpt><trkpt lat="42.6690687" lon="12.429687"><ele>448.0</ele><time>2026-03-28T13:42:31.663Z</time></trkpt><trkpt lat="42.6691945" lon="12.429761"><ele>447.5</ele><time>2026-03-28T13:42:32.662Z</time></trkpt><trkpt lat="42.6693184" lon="12.4298191"><ele>447.0</ele><time>2026-03-28T13:42:33.683Z</time></trkpt><trkpt lat="42.6694324" lon="12.4298752"><ele>447.5</ele><time>2026-03-28T13:42:34.652Z</time></trkpt><trkpt lat="42.6695491" lon="12.4299462"><ele>448.0</ele><time>2026-03-28T13:42:35.644Z</time></trkpt><trkpt lat="42.6696738" lon="12.4300089"><ele>448.5</ele><time>2026-03-28T13:42:36.644Z</time></trkpt><trkpt lat="42.6698205" lon="12.4300595"><ele>449.0</ele><time>2026-03-28T13:42:37.653Z</time></trkpt><trkpt lat="42.6699736" lon="12.4300865"><ele>449.0</ele><time>2026-03-28T13:42:38.655Z</time></trkpt><trkpt lat="42.6701189" lon="12.4301058"><ele>449.0</ele><time>2026-03-28T13:42:39.659Z</time></trkpt><trkpt lat="42.670254" lon="12.4301219"><ele>449.0</ele><time>2026-03-28T13:42:40.671Z</time></trkpt><trkpt lat="42.670377" lon="12.4301405"><ele>449.0</ele><time>2026-03-28T13:42:41.656Z</time></trkpt><trkpt lat="42.6704891" lon="12.4301647"><ele>448.75</ele><time>2026-03-28T13:42:42.66Z</time></trkpt><trkpt lat="42.6705953" lon="12.4302083"><ele>448.5</ele><time>2026-03-28T13:42:43.658Z</time></trkpt><trkpt lat="42.6707094" lon="12.4302896"><ele>448.25</ele><time>2026-03-28T13:42:44.657Z</time></trkpt><trkpt lat="42.6708248" lon="12.4304019"><ele>448.0</ele><time>2026-03-28T13:42:45.653Z</time></trkpt><trkpt lat="42.670936" lon="12.4305101"><ele>449.0</ele><time>2026-03-28T13:42:46.651Z</time></trkpt><trkpt lat="42.6709978" lon="12.4306232"><ele>450.0</ele><time>2026-03-28T13:42:47.655Z</time></trkpt><trkpt lat="42.6710181" lon="12.43077"><ele>451.0</ele><time>2026-03-28T13:42:48.677Z</time></trkpt><trkpt lat="42.6710108" lon="12.4309637"><ele>452.0</ele><time>2026-03-28T13:42:49.649Z</time></trkpt><trkpt lat="42.6710097" lon="12.4311655"><ele>452.25</ele><time>2026-03-28T13:42:50.659Z</time></trkpt><trkpt lat="42.6710064" lon="12.4313159"><ele>452.5</ele><time>2026-03-28T13:42:51.654Z</time></trkpt><trkpt lat="42.6709737" lon="12.4314529"><ele>452.75</ele><time>2026-03-28T13:42:52.666Z</time></trkpt><trkpt lat="42.6709248" lon="12.4316204"><ele>453.0</ele><time>2026-03-28T13:42:53.656Z</time></trkpt><trkpt lat="42.6708679" lon="12.4318092"><ele>453.0</ele><time>2026-03-28T13:42:54.671Z</time></trkpt><trkpt lat="42.6708168" lon="12.4319842"><ele>453.0</ele><time>2026-03-28T13:42:55.656Z</time></trkpt><trkpt lat="42.6707641" lon="12.4321599"><ele>453.0</ele><time>2026-03-28T13:42:56.662Z</time></trkpt><trkpt lat="42.6707147" lon="12.4323362"><ele>453.0</ele><time>2026-03-28T13:42:57.653Z</time></trkpt><trkpt lat="42.6706632" lon="12.4325026"><ele>453.2</ele><time>2026-03-28T13:42:58.659Z</time></trkpt><trkpt lat="42.6706176" lon="12.4326462"><ele>453.4</ele><time>2026-03-28T13:42:59.649Z</time></trkpt><trkpt lat="42.670579" lon="12.4327723"><ele>453.59999999999997</ele><time>2026-03-28T13:43:00.669Z</time></trkpt><trkpt lat="42.6705449" lon="12.4328704"><ele>453.79999999999995</ele><time>2026-03-28T13:43:01.66Z</time></trkpt><trkpt lat="42.6705122" lon="12.4329532"><ele>454.0</ele><time>2026-03-28T13:43:03.644Z</time></trkpt><trkpt lat="42.6705843" lon="12.433028"><ele>454.5</ele><time>2026-03-28T13:43:12.652Z</time></trkpt><trkpt lat="42.6707242" lon="12.4330312"><ele>455.0</ele><time>2026-03-28T13:43:14.657Z</time></trkpt><trkpt lat="42.6708228" lon="12.4330387"><ele>455.5</ele><time>2026-03-28T13:43:15.65Z</time></trkpt><trkpt lat="42.6709344" lon="12.4330509"><ele>456.0</ele><time>2026-03-28T13:43:16.651Z</time></trkpt><trkpt lat="42.6710512" lon="12.4330558"><ele>456.25</ele><time>2026-03-28T13:43:17.651Z</time></trkpt><trkpt lat="42.6711673" lon="12.4330584"><ele>456.5</ele><time>2026-03-28T13:43:18.661Z</time></trkpt><trkpt lat="42.6712829" lon="12.4330356"><ele>456.75</ele><time>2026-03-28T13:43:19.653Z</time></trkpt><trkpt lat="42.671401" lon="12.4329891"><ele>457.0</ele><time>2026-03-28T13:43:20.655Z</time></trkpt><trkpt lat="42.6715236" lon="12.4329404"><ele>458.0</ele><time>2026-03-28T13:43:21.653Z</time></trkpt><trkpt lat="42.6716523" lon="12.4329043"><ele>459.0</ele><time>2026-03-28T13:43:22.656Z</time></trkpt><trkpt lat="42.6717839" lon="12.4328852"><ele>460.0</ele><time>2026-03-28T13:43:23.656Z</time></trkpt><trkpt lat="42.6719138" lon="12.4328747"><ele>461.0</ele><time>2026-03-28T13:43:24.663Z</time></trkpt><trkpt lat="42.6720333" lon="12.4328793"><ele>461.75</ele><time>2026-03-28T13:43:25.66Z</time></trkpt><trkpt lat="42.6721617" lon="12.4328896"><ele>462.5</ele><time>2026-03-28T13:43:26.652Z</time></trkpt><trkpt lat="42.6722774" lon="12.4329082"><ele>463.25</ele><time>2026-03-28T13:43:27.656Z</time></trkpt><trkpt lat="42.6723815" lon="12.4329346"><ele>464.0</ele><time>2026-03-28T13:43:28.665Z</time></trkpt><trkpt lat="42.6724837" lon="12.4329707"><ele>463.49999999999994</ele><time>2026-03-28T13:43:29.653Z</time></trkpt><trkpt lat="42.6725769" lon="12.4330092"><ele>463.0</ele><time>2026-03-28T13:43:30.662Z</time></trkpt><trkpt lat="42.672657" lon="12.4330682"><ele>462.5</ele><time>2026-03-28T13:43:31.64Z</time></trkpt><trkpt lat="42.6727136" lon="12.4331479"><ele>462.0</ele><time>2026-03-28T13:43:32.652Z</time></trkpt><trkpt lat="42.6727663" lon="12.4332319"><ele>461.49999999999994</ele><time>2026-03-28T13:43:33.661Z</time></trkpt><trkpt lat="42.6728168" lon="12.4333309"><ele>461.0</ele><time>2026-03-28T13:43:34.656Z</time></trkpt><trkpt lat="42.6728809" lon="12.4334703"><ele>461.0</ele><time>2026-03-28T13:43:35.665Z</time></trkpt><trkpt lat="42.6729549" lon="12.4336153"><ele>461.0</ele><time>2026-03-28T13:43:36.654Z</time></trkpt><trkpt lat="42.6730147" lon="12.4337426"><ele>461.0</ele><time>2026-03-28T13:43:37.658Z</time></trkpt><trkpt lat="42.6730743" lon="12.4338573"><ele>461.0</ele><time>2026-03-28T13:43:38.676Z</time></trkpt><trkpt lat="42.6731365" lon="12.4339697"><ele>461.0</ele><time>2026-03-28T13:43:39.669Z</time></trkpt><trkpt lat="42.6731954" lon="12.434079"><ele>461.75</ele><time>2026-03-28T13:43:40.667Z</time></trkpt><trkpt lat="42.6732677" lon="12.4342015"><ele>462.5</ele><time>2026-03-28T13:43:41.67Z</time></trkpt><trkpt lat="42.6733447" lon="12.4343361"><ele>463.25</ele><time>2026-03-28T13:43:42.656Z</time></trkpt><trkpt lat="42.6734218" lon="12.43448"><ele>464.0</ele><time>2026-03-28T13:43:43.656Z</time></trkpt><trkpt lat="42.673493" lon="12.4346117"><ele>463.6</ele><time>2026-03-28T13:43:44.659Z</time></trkpt><trkpt lat="42.6735496" lon="12.4347227"><ele>463.2</ele><time>2026-03-28T13:43:45.652Z</time></trkpt><trkpt lat="42.6735894" lon="12.434803"><ele>462.80000000000007</ele><time>2026-03-28T13:43:46.654Z</time></trkpt><trkpt lat="42.6736718" lon="12.4349112"><ele>462.40000000000003</ele><time>2026-03-28T13:43:48.651Z</time></trkpt><trkpt lat="42.6737475" lon="12.4349546"><ele>462.0</ele><time>2026-03-28T13:43:49.645Z</time></trkpt><trkpt lat="42.6738426" lon="12.4349992"><ele>463.6</ele><time>2026-03-28T13:43:50.651Z</time></trkpt><trkpt lat="42.6739386" lon="12.4350423"><ele>465.20000000000005</ele><time>2026-03-28T13:43:51.652Z</time></trkpt><trkpt lat="42.6740307" lon="12.435096"><ele>466.8</ele><time>2026-03-28T13:43:52.666Z</time></trkpt><trkpt lat="42.6741261" lon="12.4351723"><ele>468.4</ele><time>2026-03-28T13:43:53.665Z</time></trkpt><trkpt lat="42.674225" lon="12.4352541"><ele>470.0</ele><time>2026-03-28T13:43:54.66Z</time></trkpt><trkpt lat="42.6743051" lon="12.435333"><ele>470.0</ele><time>2026-03-28T13:43:55.659Z</time></trkpt><trkpt lat="42.6743762" lon="12.4354151"><ele>470.0</ele><time>2026-03-28T13:43:56.657Z</time></trkpt><trkpt lat="42.6744474" lon="12.4355036"><ele>470.0</ele><time>2026-03-28T13:43:57.652Z</time></trkpt><trkpt lat="42.6745169" lon="12.435594"><ele>470.0</ele><time>2026-03-28T13:43:58.651Z</time></trkpt><trkpt lat="42.6745893" lon="12.4356785"><ele>470.0</ele><time>2026-03-28T13:43:59.66Z</time></trkpt><trkpt lat="42.6746679" lon="12.4357537"><ele>471.6</ele><time>2026-03-28T13:44:00.655Z</time></trkpt><trkpt lat="42.6747549" lon="12.4358202"><ele>473.2</ele><time>2026-03-28T13:44:01.648Z</time></trkpt><trkpt lat="42.6748507" lon="12.4358752"><ele>474.79999999999995</ele><time>2026-03-28T13:44:02.648Z</time></trkpt><trkpt lat="42.6749407" lon="12.4359206"><ele>476.4</ele><time>2026-03-28T13:44:03.667Z</time></trkpt><trkpt lat="42.6750294" lon="12.4359577"><ele>478.0</ele><time>2026-03-28T13:44:04.658Z</time></trkpt><trkpt lat="42.6751118" lon="12.4359857"><ele>478.00000000000006</ele><time>2026-03-28T13:44:05.647Z</time></trkpt><trkpt lat="42.6751905" lon="12.4360073"><ele>478.0</ele><time>2026-03-28T13:44:06.667Z</time></trkpt><trkpt lat="42.6752616" lon="12.436024"><ele>478.0</ele><time>2026-03-28T13:44:07.658Z</time></trkpt><trkpt lat="42.6753354" lon="12.4360361"><ele>478.0</ele><time>2026-03-28T13:44:08.674Z</time></trkpt><trkpt lat="42.6754231" lon="12.436049"><ele>478.00000000000006</ele><time>2026-03-28T13:44:09.655Z</time></trkpt><trkpt lat="42.6755201" lon="12.4360586"><ele>478.0</ele><time>2026-03-28T13:44:10.65Z</time></trkpt><trkpt lat="42.6756075" lon="12.4360627"><ele>478.00000000000006</ele><time>2026-03-28T13:44:11.661Z</time></trkpt><trkpt lat="42.675689" lon="12.4360599"><ele>478.0</ele><time>2026-03-28T13:44:12.655Z</time></trkpt><trkpt lat="42.6757705" lon="12.436052"><ele>478.0</ele><time>2026-03-28T13:44:13.657Z</time></trkpt><trkpt lat="42.6758594" lon="12.4360353"><ele>478.0</ele><time>2026-03-28T13:44:14.658Z</time></trkpt><trkpt lat="42.6759518" lon="12.4360168"><ele>478.00000000000006</ele><time>2026-03-28T13:44:15.641Z</time></trkpt><trkpt lat="42.6760462" lon="12.4360052"><ele>478.0</ele><time>2026-03-28T13:44:16.652Z</time></trkpt><trkpt lat="42.6761454" lon="12.4359899"><ele>478.0</ele><time>2026-03-28T13:44:17.665Z</time></trkpt><trkpt lat="42.6762528" lon="12.435967"><ele>477.99999999999994</ele><time>2026-03-28T13:44:18.668Z</time></trkpt><trkpt lat="42.6763618" lon="12.4359343"><ele>477.99999999999994</ele><time>2026-03-28T13:44:19.653Z</time></trkpt><trkpt lat="42.6764649" lon="12.4358935"><ele>478.0</ele><time>2026-03-28T13:44:20.653Z</time></trkpt><trkpt lat="42.6765597" lon="12.4358532"><ele>478.0</ele><time>2026-03-28T13:44:21.648Z</time></trkpt><trkpt lat="42.676649" lon="12.435803"><ele>478.0</ele><time>2026-03-28T13:44:22.645Z</time></trkpt><trkpt lat="42.6767446" lon="12.4357511"><ele>477.99999999999994</ele><time>2026-03-28T13:44:23.656Z</time></trkpt><trkpt lat="42.6768439" lon="12.4356981"><ele>477.99999999999994</ele><time>2026-03-28T13:44:24.653Z</time></trkpt><trkpt lat="42.6769448" lon="12.4356406"><ele>478.0</ele><time>2026-03-28T13:44:25.664Z</time></trkpt><trkpt lat="42.6770448" lon="12.4355805"><ele>478.0</ele><time>2026-03-28T13:44:26.656Z</time></trkpt><trkpt lat="42.6771427" lon="12.435524"><ele>478.59999999999997</ele><time>2026-03-28T13:44:27.67Z</time></trkpt><trkpt lat="42.6772334" lon="12.435476"><ele>479.19999999999993</ele><time>2026-03-28T13:44:28.664Z</time></trkpt><trkpt lat="42.6773178" lon="12.435427"><ele>479.8</ele><time>2026-03-28T13:44:29.658Z</time></trkpt><trkpt lat="42.6774019" lon="12.4353796"><ele>480.4</ele><time>2026-03-28T13:44:30.651Z</time></trkpt><trkpt lat="42.6774874" lon="12.4353306"><ele>481.0</ele><time>2026-03-28T13:44:31.657Z</time></trkpt><trkpt lat="42.6775704" lon="12.4352783"><ele>480.6</ele><time>2026-03-28T13:44:32.654Z</time></trkpt><trkpt lat="42.6776541" lon="12.4352064"><ele>480.20000000000005</ele><time>2026-03-28T13:44:33.659Z</time></trkpt><trkpt lat="42.6777344" lon="12.4351222"><ele>479.79999999999995</ele><time>2026-03-28T13:44:34.642Z</time></trkpt><trkpt lat="42.6778014" lon="12.4350178"><ele>479.4</ele><time>2026-03-28T13:44:35.656Z</time></trkpt><trkpt lat="42.6778608" lon="12.4349053"><ele>479.0</ele><time>2026-03-28T13:44:36.658Z</time></trkpt><trkpt lat="42.6778974" lon="12.434784"><ele>478.0</ele><time>2026-03-28T13:44:37.649Z</time></trkpt><trkpt lat="42.6779065" lon="12.4346148"><ele>477.0</ele><time>2026-03-28T13:44:38.647Z</time></trkpt><trkpt lat="42.6779125" lon="12.4344075"><ele>476.0</ele><time>2026-03-28T13:44:39.657Z</time></trkpt><trkpt lat="42.6779254" lon="12.4342228"><ele>475.0</ele><time>2026-03-28T13:44:40.654Z</time></trkpt><trkpt lat="42.6779361" lon="12.4340643"><ele>475.0</ele><time>2026-03-28T13:44:41.652Z</time></trkpt><trkpt lat="42.6779625" lon="12.4338986"><ele>475.0</ele><time>2026-03-28T13:44:42.662Z</time></trkpt><trkpt lat="42.6780263" lon="12.4336939"><ele>475.0</ele><time>2026-03-28T13:44:43.646Z</time></trkpt><trkpt lat="42.6781008" lon="12.4334642"><ele>473.6666666666667</ele><time>2026-03-28T13:44:44.64Z</time></trkpt><trkpt lat="42.6781813" lon="12.4332229"><ele>472.33333333333337</ele><time>2026-03-28T13:44:45.667Z</time></trkpt><trkpt lat="42.6782581" lon="12.4329994"><ele>471.0</ele><time>2026-03-28T13:44:46.657Z</time></trkpt><trkpt lat="42.6783372" lon="12.4327711"><ele>470.66666666666663</ele><time>2026-03-28T13:44:47.654Z</time></trkpt><trkpt lat="42.6784103" lon="12.4325176"><ele>470.3333333333333</ele><time>2026-03-28T13:44:48.665Z</time></trkpt><trkpt lat="42.6784733" lon="12.4322722"><ele>470.0</ele><time>2026-03-28T13:44:49.649Z</time></trkpt><trkpt lat="42.6785322" lon="12.4320408"><ele>470.0</ele><time>2026-03-28T13:44:50.665Z</time></trkpt><trkpt lat="42.6785893" lon="12.4318021"><ele>470.0</ele><time>2026-03-28T13:44:51.653Z</time></trkpt><trkpt lat="42.678626" lon="12.4315628"><ele>470.0</ele><time>2026-03-28T13:44:52.653Z</time></trkpt><trkpt lat="42.6786478" lon="12.4313422"><ele>471.3333333333333</ele><time>2026-03-28T13:44:53.669Z</time></trkpt><trkpt lat="42.6786654" lon="12.4311068"><ele>472.66666666666663</ele><time>2026-03-28T13:44:54.649Z</time></trkpt><trkpt lat="42.6786922" lon="12.4308683"><ele>474.0</ele><time>2026-03-28T13:44:55.65Z</time></trkpt><trkpt lat="42.678726" lon="12.4306519"><ele>473.75</ele><time>2026-03-28T13:44:56.657Z</time></trkpt><trkpt lat="42.6787661" lon="12.4304559"><ele>473.5</ele><time>2026-03-28T13:44:57.661Z</time></trkpt><trkpt lat="42.6788084" lon="12.4302701"><ele>473.25</ele><time>2026-03-28T13:44:58.672Z</time></trkpt><trkpt lat="42.6788539" lon="12.4301139"><ele>473.0</ele><time>2026-03-28T13:44:59.651Z</time></trkpt><trkpt lat="42.6788951" lon="12.4300035"><ele>473.0</ele><time>2026-03-28T13:45:00.653Z</time></trkpt><trkpt lat="42.678928" lon="12.4299071"><ele>473.0</ele><time>2026-03-28T13:45:02.648Z</time></trkpt><trkpt lat="42.6789294" lon="12.4298124"><ele>473.0</ele><time>2026-03-28T13:45:15.658Z</time></trkpt><trkpt lat="42.6789239" lon="12.4296927"><ele>473.0</ele><time>2026-03-28T13:45:17.665Z</time></trkpt><trkpt lat="42.6789247" lon="12.4296037"><ele>473.0</ele><time>2026-03-28T13:45:18.648Z</time></trkpt><trkpt lat="42.6789229" lon="12.4295102"><ele>473.0</ele><time>2026-03-28T13:45:19.657Z</time></trkpt><trkpt lat="42.6789157" lon="12.4294145"><ele>473.0</ele><time>2026-03-28T13:45:20.664Z</time></trkpt><trkpt lat="42.6789008" lon="12.4293098"><ele>473.0</ele><time>2026-03-28T13:45:21.661Z</time></trkpt><trkpt lat="42.6788646" lon="12.4292013"><ele>472.99999999999994</ele><time>2026-03-28T13:45:22.664Z</time></trkpt><trkpt lat="42.6788084" lon="12.4290853"><ele>472.99999999999994</ele><time>2026-03-28T13:45:23.648Z</time></trkpt><trkpt lat="42.6787434" lon="12.4289651"><ele>473.0</ele><time>2026-03-28T13:45:24.649Z</time></trkpt><trkpt lat="42.678676" lon="12.4288331"><ele>473.0</ele><time>2026-03-28T13:45:25.655Z</time></trkpt><trkpt lat="42.6786149" lon="12.4286938"><ele>473.25</ele><time>2026-03-28T13:45:26.655Z</time></trkpt><trkpt lat="42.6785592" lon="12.4285524"><ele>473.5</ele><time>2026-03-28T13:45:27.649Z</time></trkpt><trkpt lat="42.6785139" lon="12.4284008"><ele>473.75</ele><time>2026-03-28T13:45:28.658Z</time></trkpt><trkpt lat="42.6784684" lon="12.4282505"><ele>474.0</ele><time>2026-03-28T13:45:29.647Z</time></trkpt><trkpt lat="42.6784046" lon="12.4281108"><ele>474.0</ele><time>2026-03-28T13:45:30.666Z</time></trkpt><trkpt lat="42.6783202" lon="12.4279769"><ele>474.0</ele><time>2026-03-28T13:45:31.645Z</time></trkpt><trkpt lat="42.6782236" lon="12.4278524"><ele>474.0</ele><time>2026-03-28T13:45:32.659Z</time></trkpt><trkpt lat="42.67813" lon="12.4277327"><ele>474.0</ele><time>2026-03-28T13:45:33.66Z</time></trkpt><trkpt lat="42.6780413" lon="12.4276281"><ele>474.0</ele><time>2026-03-28T13:45:34.659Z</time></trkpt><trkpt lat="42.6779605" lon="12.4275322"><ele>474.0</ele><time>2026-03-28T13:45:35.656Z</time></trkpt><trkpt lat="42.6778879" lon="12.4274384"><ele>474.0</ele><time>2026-03-28T13:45:36.661Z</time></trkpt><trkpt lat="42.6778283" lon="12.42735"><ele>474.0</ele><time>2026-03-28T13:45:37.666Z</time></trkpt><trkpt lat="42.6777775" lon="12.427264"><ele>474.0</ele><time>2026-03-28T13:45:38.655Z</time></trkpt><trkpt lat="42.6777349" lon="12.4271751"><ele>474.6</ele><time>2026-03-28T13:45:39.66Z</time></trkpt><trkpt lat="42.6776921" lon="12.4270847"><ele>475.2</ele><time>2026-03-28T13:45:40.649Z</time></trkpt><trkpt lat="42.6776573" lon="12.4269786"><ele>475.80000000000007</ele><time>2026-03-28T13:45:41.65Z</time></trkpt><trkpt lat="42.6776269" lon="12.426864"><ele>476.40000000000003</ele><time>2026-03-28T13:45:42.659Z</time></trkpt><trkpt lat="42.6776004" lon="12.4267232"><ele>477.0</ele><time>2026-03-28T13:45:43.653Z</time></trkpt><trkpt lat="42.6775736" lon="12.4265467"><ele>477.0</ele><time>2026-03-28T13:45:44.654Z</time></trkpt><trkpt lat="42.6775497" lon="12.4263212"><ele>477.0</ele><time>2026-03-28T13:45:45.668Z</time></trkpt><trkpt lat="42.6775288" lon="12.4260725"><ele>477.0</ele><time>2026-03-28T13:45:46.658Z</time></trkpt><trkpt lat="42.6775032" lon="12.425805"><ele>478.0</ele><time>2026-03-28T13:45:47.658Z</time></trkpt><trkpt lat="42.6774785" lon="12.4255238"><ele>479.0</ele><time>2026-03-28T13:45:48.667Z</time></trkpt><trkpt lat="42.6774571" lon="12.4252608"><ele>480.0</ele><time>2026-03-28T13:45:49.667Z</time></trkpt><trkpt lat="42.6774344" lon="12.4250322"><ele>481.25</ele><time>2026-03-28T13:45:50.661Z</time></trkpt><trkpt lat="42.6774221" lon="12.4248189"><ele>482.5</ele><time>2026-03-28T13:45:51.664Z</time></trkpt><trkpt lat="42.6774147" lon="12.4246151"><ele>483.75</ele><time>2026-03-28T13:45:52.647Z</time></trkpt><trkpt lat="42.6774071" lon="12.424433"><ele>485.0</ele><time>2026-03-28T13:45:53.675Z</time></trkpt><trkpt lat="42.6773994" lon="12.4242559"><ele>485.2</ele><time>2026-03-28T13:45:54.641Z</time></trkpt><trkpt lat="42.6773958" lon="12.4240915"><ele>485.4</ele><time>2026-03-28T13:45:55.67Z</time></trkpt><trkpt lat="42.6773934" lon="12.4239415"><ele>485.6</ele><time>2026-03-28T13:45:56.665Z</time></trkpt><trkpt lat="42.6773965" lon="12.4237975"><ele>485.8</ele><time>2026-03-28T13:45:57.652Z</time></trkpt><trkpt lat="42.6773989" lon="12.4236593"><ele>486.0</ele><time>2026-03-28T13:45:58.651Z</time></trkpt><trkpt lat="42.6774062" lon="12.423525"><ele>486.0</ele><time>2026-03-28T13:45:59.668Z</time></trkpt><trkpt lat="42.6774212" lon="12.4233889"><ele>486.0</ele><time>2026-03-28T13:46:00.666Z</time></trkpt><trkpt lat="42.6774428" lon="12.4232432"><ele>486.0</ele><time>2026-03-28T13:46:01.66Z</time></trkpt><trkpt lat="42.6774704" lon="12.4230941"><ele>486.0</ele><time>2026-03-28T13:46:02.667Z</time></trkpt><trkpt lat="42.6774987" lon="12.4229557"><ele>486.0</ele><time>2026-03-28T13:46:03.678Z</time></trkpt><trkpt lat="42.6775205" lon="12.4228248"><ele>484.8333333333333</ele><time>2026-03-28T13:46:04.662Z</time></trkpt><trkpt lat="42.6775338" lon="12.4226976"><ele>483.66666666666663</ele><time>2026-03-28T13:46:05.646Z</time></trkpt><trkpt lat="42.6775472" lon="12.4225834"><ele>482.5</ele><time>2026-03-28T13:46:06.659Z</time></trkpt><trkpt lat="42.6775645" lon="12.422476"><ele>481.3333333333333</ele><time>2026-03-28T13:46:07.656Z</time></trkpt><trkpt lat="42.6775918" lon="12.4223608"><ele>480.16666666666663</ele><time>2026-03-28T13:46:08.653Z</time></trkpt><trkpt lat="42.6776227" lon="12.4222335"><ele>479.0</ele><time>2026-03-28T13:46:09.665Z</time></trkpt><trkpt lat="42.6776516" lon="12.4221133"><ele>479.99999999999994</ele><time>2026-03-28T13:46:10.667Z</time></trkpt><trkpt lat="42.6776837" lon="12.4219911"><ele>481.0</ele><time>2026-03-28T13:46:11.643Z</time></trkpt><trkpt lat="42.6777231" lon="12.4218791"><ele>482.0</ele><time>2026-03-28T13:46:12.661Z</time></trkpt><trkpt lat="42.6777658" lon="12.4217787"><ele>483.0</ele><time>2026-03-28T13:46:13.656Z</time></trkpt><trkpt lat="42.6778088" lon="12.4216994"><ele>483.99999999999994</ele><time>2026-03-28T13:46:14.646Z</time></trkpt><trkpt lat="42.6778575" lon="12.421626"><ele>485.0</ele><time>2026-03-28T13:46:15.662Z</time></trkpt><trkpt lat="42.6779054" lon="12.4215596"><ele>484.99999999999994</ele><time>2026-03-28T13:46:16.658Z</time></trkpt><trkpt lat="42.6779509" lon="12.4214873"><ele>485.0</ele><time>2026-03-28T13:46:17.654Z</time></trkpt><trkpt lat="42.677991" lon="12.4213989"><ele>485.0</ele><time>2026-03-28T13:46:18.652Z</time></trkpt><trkpt lat="42.6780086" lon="12.4213099"><ele>485.0</ele><time>2026-03-28T13:46:19.654Z</time></trkpt><trkpt lat="42.6779749" lon="12.4211571"><ele>484.99999999999994</ele><time>2026-03-28T13:46:21.658Z</time></trkpt><trkpt lat="42.6779248" lon="12.4210744"><ele>485.0</ele><time>2026-03-28T13:46:22.658Z</time></trkpt><trkpt lat="42.6778463" lon="12.4209944"><ele>482.0</ele><time>2026-03-28T13:46:23.65Z</time></trkpt><trkpt lat="42.6777558" lon="12.4209104"><ele>479.0</ele><time>2026-03-28T13:46:24.647Z</time></trkpt><trkpt lat="42.6776741" lon="12.4208168"><ele>476.0</ele><time>2026-03-28T13:46:25.672Z</time></trkpt><trkpt lat="42.6776125" lon="12.4207264"><ele>473.0</ele><time>2026-03-28T13:46:26.674Z</time></trkpt><trkpt lat="42.6775693" lon="12.4206294"><ele>470.0</ele><time>2026-03-28T13:46:27.653Z</time></trkpt><trkpt lat="42.6775366" lon="12.4205302"><ele>469.66666666666663</ele><time>2026-03-28T13:46:28.665Z</time></trkpt><trkpt lat="42.6775141" lon="12.4204227"><ele>469.3333333333333</ele><time>2026-03-28T13:46:29.654Z</time></trkpt><trkpt lat="42.677508" lon="12.4203165"><ele>469.0</ele><time>2026-03-28T13:46:30.654Z</time></trkpt><trkpt lat="42.6775175" lon="12.4202083"><ele>468.66666666666663</ele><time>2026-03-28T13:46:31.648Z</time></trkpt><trkpt lat="42.677536" lon="12.4201026"><ele>468.3333333333333</ele><time>2026-03-28T13:46:32.661Z</time></trkpt><trkpt lat="42.6775641" lon="12.4200021"><ele>468.0</ele><time>2026-03-28T13:46:33.661Z</time></trkpt><trkpt lat="42.677588" lon="12.4199108"><ele>468.0</ele><time>2026-03-28T13:46:34.671Z</time></trkpt><trkpt lat="42.6776152" lon="12.4198197"><ele>468.00000000000006</ele><time>2026-03-28T13:46:35.669Z</time></trkpt><trkpt lat="42.6776436" lon="12.419728"><ele>468.0</ele><time>2026-03-28T13:46:36.669Z</time></trkpt><trkpt lat="42.6776737" lon="12.4196368"><ele>468.0</ele><time>2026-03-28T13:46:37.651Z</time></trkpt><trkpt lat="42.6777058" lon="12.419552"><ele>468.00000000000006</ele><time>2026-03-28T13:46:38.662Z</time></trkpt><trkpt lat="42.6777397" lon="12.4194678"><ele>468.0</ele><time>2026-03-28T13:46:39.655Z</time></trkpt><trkpt lat="42.6777716" lon="12.4193839"><ele>468.0</ele><time>2026-03-28T13:46:40.652Z</time></trkpt><trkpt lat="42.6778042" lon="12.4192966"><ele>469.0</ele><time>2026-03-28T13:46:41.645Z</time></trkpt><trkpt lat="42.6778312" lon="12.4192132"><ele>470.00000000000006</ele><time>2026-03-28T13:46:42.658Z</time></trkpt><trkpt lat="42.6778571" lon="12.4191225"><ele>471.0</ele><time>2026-03-28T13:46:43.658Z</time></trkpt><trkpt lat="42.677875" lon="12.4190303"><ele>472.0</ele><time>2026-03-28T13:46:44.66Z</time></trkpt><trkpt lat="42.6778785" lon="12.4189378"><ele>473.00000000000006</ele><time>2026-03-28T13:46:45.65Z</time></trkpt><trkpt lat="42.6778645" lon="12.4188421"><ele>474.0</ele><time>2026-03-28T13:46:46.664Z</time></trkpt><trkpt lat="42.6778377" lon="12.4187484"><ele>475.0</ele><time>2026-03-28T13:46:47.65Z</time></trkpt><trkpt lat="42.6777962" lon="12.4186572"><ele>473.6666666666667</ele><time>2026-03-28T13:46:48.666Z</time></trkpt><trkpt lat="42.6777464" lon="12.4185682"><ele>472.33333333333337</ele><time>2026-03-28T13:46:49.655Z</time></trkpt><trkpt lat="42.6776934" lon="12.4184795"><ele>471.0</ele><time>2026-03-28T13:46:50.673Z</time></trkpt><trkpt lat="42.67765" lon="12.4183956"><ele>469.66666666666663</ele><time>2026-03-28T13:46:51.658Z</time></trkpt><trkpt lat="42.6776107" lon="12.4183181"><ele>468.3333333333333</ele><time>2026-03-28T13:46:52.657Z</time></trkpt><trkpt lat="42.6775547" lon="12.4182257"><ele>467.0</ele><time>2026-03-28T13:46:54.664Z</time></trkpt><trkpt lat="42.6774833" lon="12.4181856"><ele>467.0</ele><time>2026-03-28T13:46:57.661Z</time></trkpt><trkpt lat="42.6773903" lon="12.4182042"><ele>467.00000000000006</ele><time>2026-03-28T13:46:59.66Z</time></trkpt><trkpt lat="42.677257" lon="12.4182667"><ele>467.00000000000006</ele><time>2026-03-28T13:47:01.664Z</time></trkpt><trkpt lat="42.6771723" lon="12.4183106"><ele>467.0</ele><time>2026-03-28T13:47:02.645Z</time></trkpt><trkpt lat="42.6770818" lon="12.4183508"><ele>467.0</ele><time>2026-03-28T13:47:03.643Z</time></trkpt><trkpt lat="42.6769811" lon="12.4183906"><ele>466.0</ele><time>2026-03-28T13:47:04.66Z</time></trkpt><trkpt lat="42.6768793" lon="12.4184271"><ele>465.00000000000006</ele><time>2026-03-28T13:47:05.655Z</time></trkpt><trkpt lat="42.6767849" lon="12.4184584"><ele>464.00000000000006</ele><time>2026-03-28T13:47:06.657Z</time></trkpt><trkpt lat="42.6766949" lon="12.4184864"><ele>463.0</ele><time>2026-03-28T13:47:07.66Z</time></trkpt><trkpt lat="42.6765896" lon="12.4185156"><ele>462.0</ele><time>2026-03-28T13:47:08.645Z</time></trkpt><trkpt lat="42.6764768" lon="12.418538"><ele>462.0</ele><time>2026-03-28T13:47:09.655Z</time></trkpt><trkpt lat="42.6763701" lon="12.4185578"><ele>462.00000000000006</ele><time>2026-03-28T13:47:10.642Z</time></trkpt><trkpt lat="42.6762674" lon="12.4185733"><ele>462.00000000000006</ele><time>2026-03-28T13:47:11.661Z</time></trkpt><trkpt lat="42.6761763" lon="12.4185888"><ele>462.0</ele><time>2026-03-28T13:47:12.65Z</time></trkpt><trkpt lat="42.6760873" lon="12.4186015"><ele>462.0</ele><time>2026-03-28T13:47:13.654Z</time></trkpt><trkpt lat="42.6759932" lon="12.4186294"><ele>461.0</ele><time>2026-03-28T13:47:14.659Z</time></trkpt><trkpt lat="42.6758902" lon="12.418682"><ele>460.00000000000006</ele><time>2026-03-28T13:47:15.659Z</time></trkpt><trkpt lat="42.6757835" lon="12.4187354"><ele>459.00000000000006</ele><time>2026-03-28T13:47:16.655Z</time></trkpt><trkpt lat="42.6756863" lon="12.4187979"><ele>458.0</ele><time>2026-03-28T13:47:17.66Z</time></trkpt><trkpt lat="42.6755861" lon="12.4188812"><ele>457.0</ele><time>2026-03-28T13:47:18.662Z</time></trkpt><trkpt lat="42.6754688" lon="12.4189999"><ele>457.0</ele><time>2026-03-28T13:47:19.644Z</time></trkpt><trkpt lat="42.6753496" lon="12.4191362"><ele>457.0</ele><time>2026-03-28T13:47:20.672Z</time></trkpt><trkpt lat="42.6752591" lon="12.4192431"><ele>457.0</ele><time>2026-03-28T13:47:21.646Z</time></trkpt><trkpt lat="42.6751719" lon="12.4193233"><ele>457.0</ele><time>2026-03-28T13:47:22.651Z</time></trkpt><trkpt lat="42.6750873" lon="12.4193904"><ele>456.6</ele><time>2026-03-28T13:47:23.668Z</time></trkpt><trkpt lat="42.6750028" lon="12.4194489"><ele>456.20000000000005</ele><time>2026-03-28T13:47:24.651Z</time></trkpt><trkpt lat="42.6749158" lon="12.4195033"><ele>455.8</ele><time>2026-03-28T13:47:25.648Z</time></trkpt><trkpt lat="42.6748224" lon="12.419559"><ele>455.4</ele><time>2026-03-28T13:47:26.646Z</time></trkpt><trkpt lat="42.6747064" lon="12.4196196"><ele>455.0</ele><time>2026-03-28T13:47:27.654Z</time></trkpt><trkpt lat="42.6745848" lon="12.419682"><ele>454.25</ele><time>2026-03-28T13:47:28.651Z</time></trkpt><trkpt lat="42.6744599" lon="12.4197458"><ele>453.5</ele><time>2026-03-28T13:47:29.661Z</time></trkpt><trkpt lat="42.6743302" lon="12.4198209"><ele>452.75</ele><time>2026-03-28T13:47:30.658Z</time></trkpt><trkpt lat="42.6742019" lon="12.4198987"><ele>452.0</ele><time>2026-03-28T13:47:31.645Z</time></trkpt><trkpt lat="42.674074" lon="12.4199761"><ele>451.0</ele><time>2026-03-28T13:47:32.651Z</time></trkpt><trkpt lat="42.6739418" lon="12.4200514"><ele>450.0</ele><time>2026-03-28T13:47:33.663Z</time></trkpt><trkpt lat="42.6738023" lon="12.4201206"><ele>449.0</ele><time>2026-03-28T13:47:34.648Z</time></trkpt><trkpt lat="42.6736674" lon="12.4201897"><ele>448.0</ele><time>2026-03-28T13:47:35.66Z</time></trkpt><trkpt lat="42.6735565" lon="12.4202438"><ele>447.83333333333337</ele><time>2026-03-28T13:47:36.649Z</time></trkpt><trkpt lat="42.6734655" lon="12.4202786"><ele>447.6666666666667</ele><time>2026-03-28T13:47:37.654Z</time></trkpt><trkpt lat="42.6733904" lon="12.4202857"><ele>447.5</ele><time>2026-03-28T13:47:38.658Z</time></trkpt><trkpt lat="42.6733122" lon="12.4202888"><ele>447.33333333333337</ele><time>2026-03-28T13:47:39.659Z</time></trkpt><trkpt lat="42.6732268" lon="12.4202783"><ele>447.1666666666667</ele><time>2026-03-28T13:47:40.659Z</time></trkpt><trkpt lat="42.6731204" lon="12.4202401"><ele>447.0</ele><time>2026-03-28T13:47:41.659Z</time></trkpt><trkpt lat="42.6729973" lon="12.4201811"><ele>447.0</ele><time>2026-03-28T13:47:42.648Z</time></trkpt><trkpt lat="42.6728741" lon="12.4201245"><ele>447.00000000000006</ele><time>2026-03-28T13:47:43.661Z</time></trkpt><trkpt lat="42.6727651" lon="12.4200865"><ele>447.00000000000006</ele><time>2026-03-28T13:47:44.658Z</time></trkpt><trkpt lat="42.6726922" lon="12.4200563"><ele>447.0</ele><time>2026-03-28T13:47:45.643Z</time></trkpt><trkpt lat="42.6726317" lon="12.4200279"><ele>447.0</ele><time>2026-03-28T13:47:46.665Z</time></trkpt><trkpt lat="42.6725186" lon="12.4199432"><ele>447.0</ele><time>2026-03-28T13:47:48.663Z</time></trkpt><trkpt lat="42.6724396" lon="12.419924"><ele>447.00000000000006</ele><time>2026-03-28T13:47:49.683Z</time></trkpt><trkpt lat="42.6723229" lon="12.4199308"><ele>447.00000000000006</ele><time>2026-03-28T13:47:50.662Z</time></trkpt><trkpt lat="42.6721968" lon="12.419935"><ele>447.0</ele><time>2026-03-28T13:47:51.648Z</time></trkpt><trkpt lat="42.6720818" lon="12.4199365"><ele>447.0</ele><time>2026-03-28T13:47:52.65Z</time></trkpt><trkpt lat="42.6719937" lon="12.4199392"><ele>447.3333333333333</ele><time>2026-03-28T13:47:53.647Z</time></trkpt><trkpt lat="42.6719189" lon="12.4199327"><ele>447.66666666666663</ele><time>2026-03-28T13:47:55.652Z</time></trkpt><trkpt lat="42.6718526" lon="12.4199812"><ele>448.0</ele><time>2026-03-28T13:48:02.656Z</time></trkpt><trkpt lat="42.6717619" lon="12.4200267"><ele>448.3333333333333</ele><time>2026-03-28T13:48:04.668Z</time></trkpt><trkpt lat="42.6716878" lon="12.4200053"><ele>448.66666666666663</ele><time>2026-03-28T13:48:05.647Z</time></trkpt><trkpt lat="42.6716124" lon="12.4199673"><ele>449.0</ele><time>2026-03-28T13:48:06.664Z</time></trkpt><trkpt lat="42.6715257" lon="12.4199098"><ele>449.0</ele><time>2026-03-28T13:48:07.664Z</time></trkpt><trkpt lat="42.6714293" lon="12.4198371"><ele>449.0</ele><time>2026-03-28T13:48:08.668Z</time></trkpt><trkpt lat="42.6713281" lon="12.4197563"><ele>449.0</ele><time>2026-03-28T13:48:09.66Z</time></trkpt><trkpt lat="42.6712246" lon="12.4196725"><ele>449.0</ele><time>2026-03-28T13:48:10.648Z</time></trkpt><trkpt lat="42.671119" lon="12.4195875"><ele>446.75</ele><time>2026-03-28T13:48:11.656Z</time></trkpt><trkpt lat="42.6710132" lon="12.4195143"><ele>444.5</ele><time>2026-03-28T13:48:12.654Z</time></trkpt><trkpt lat="42.6709063" lon="12.4194539"><ele>442.25</ele><time>2026-03-28T13:48:13.657Z</time></trkpt><trkpt lat="42.6707983" lon="12.4193888"><ele>440.0</ele><time>2026-03-28T13:48:14.663Z</time></trkpt><trkpt lat="42.6706866" lon="12.4193234"><ele>440.0</ele><time>2026-03-28T13:48:15.642Z</time></trkpt><trkpt lat="42.6705759" lon="12.4192645"><ele>440.0</ele><time>2026-03-28T13:48:16.679Z</time></trkpt><trkpt lat="42.6704713" lon="12.4192259"><ele>440.0</ele><time>2026-03-28T13:48:17.658Z</time></trkpt><trkpt lat="42.6703664" lon="12.4191996"><ele>440.0</ele><time>2026-03-28T13:48:18.667Z</time></trkpt><trkpt lat="42.6702654" lon="12.4191751"><ele>440.0</ele><time>2026-03-28T13:48:19.666Z</time></trkpt><trkpt lat="42.6701732" lon="12.4191488"><ele>439.66666666666663</ele><time>2026-03-28T13:48:20.655Z</time></trkpt><trkpt lat="42.670085" lon="12.4191274"><ele>439.3333333333333</ele><time>2026-03-28T13:48:21.646Z</time></trkpt><trkpt lat="42.6699968" lon="12.4191123"><ele>439.0</ele><time>2026-03-28T13:48:22.66Z</time></trkpt><trkpt lat="42.6699154" lon="12.4190953"><ele>438.66666666666663</ele><time>2026-03-28T13:48:23.676Z</time></trkpt><trkpt lat="42.6698376" lon="12.4190769"><ele>438.3333333333333</ele><time>2026-03-28T13:48:24.658Z</time></trkpt><trkpt lat="42.6697695" lon="12.4190466"><ele>438.0</ele><time>2026-03-28T13:48:25.65Z</time></trkpt><trkpt lat="42.6696983" lon="12.4189913"><ele>438.0</ele><time>2026-03-28T13:48:26.669Z</time></trkpt><trkpt lat="42.6696153" lon="12.4189302"><ele>437.99999999999994</ele><time>2026-03-28T13:48:27.654Z</time></trkpt><trkpt lat="42.6695245" lon="12.4188649"><ele>437.99999999999994</ele><time>2026-03-28T13:48:28.666Z</time></trkpt><trkpt lat="42.6694367" lon="12.4187997"><ele>438.0</ele><time>2026-03-28T13:48:29.659Z</time></trkpt><trkpt lat="42.669343" lon="12.4187235"><ele>438.0</ele><time>2026-03-28T13:48:30.673Z</time></trkpt><trkpt lat="42.6692448" lon="12.4186476"><ele>437.25</ele><time>2026-03-28T13:48:31.656Z</time></trkpt><trkpt lat="42.6691411" lon="12.4185686"><ele>436.5</ele><time>2026-03-28T13:48:32.66Z</time></trkpt><trkpt lat="42.6690343" lon="12.4184887"><ele>435.75</ele><time>2026-03-28T13:48:33.669Z</time></trkpt><trkpt lat="42.6689348" lon="12.4184016"><ele>435.0</ele><time>2026-03-28T13:48:34.666Z</time></trkpt><trkpt lat="42.6688406" lon="12.4183058"><ele>435.0</ele><time>2026-03-28T13:48:35.658Z</time></trkpt><trkpt lat="42.6687496" lon="12.4182074"><ele>435.0</ele><time>2026-03-28T13:48:36.671Z</time></trkpt><trkpt lat="42.6686569" lon="12.4181086"><ele>435.0</ele><time>2026-03-28T13:48:37.656Z</time></trkpt><trkpt lat="42.6685634" lon="12.4180075"><ele>435.0</ele><time>2026-03-28T13:48:38.653Z</time></trkpt><trkpt lat="42.6684648" lon="12.4179029"><ele>433.5</ele><time>2026-03-28T13:48:39.665Z</time></trkpt><trkpt lat="42.6683622" lon="12.4177996"><ele>432.0</ele><time>2026-03-28T13:48:40.658Z</time></trkpt><trkpt lat="42.668255" lon="12.4177038"><ele>430.5</ele><time>2026-03-28T13:48:41.655Z</time></trkpt><trkpt lat="42.6681497" lon="12.4176113"><ele>429.0</ele><time>2026-03-28T13:48:42.651Z</time></trkpt><trkpt lat="42.668061" lon="12.4175251"><ele>429.0</ele><time>2026-03-28T13:48:43.662Z</time></trkpt><trkpt lat="42.6679919" lon="12.4174347"><ele>429.0</ele><time>2026-03-28T13:48:44.673Z</time></trkpt><trkpt lat="42.667927" lon="12.4173454"><ele>429.0</ele><time>2026-03-28T13:48:45.666Z</time></trkpt><trkpt lat="42.6678693" lon="12.4172653"><ele>429.0</ele><time>2026-03-28T13:48:46.655Z</time></trkpt><trkpt lat="42.6678316" lon="12.4171892"><ele>429.0</ele><time>2026-03-28T13:48:47.651Z</time></trkpt><trkpt lat="42.6677992" lon="12.4171013"><ele>429.0</ele><time>2026-03-28T13:48:48.674Z</time></trkpt><trkpt lat="42.6677696" lon="12.4170015"><ele>429.6</ele><time>2026-03-28T13:48:49.656Z</time></trkpt><trkpt lat="42.6677421" lon="12.4168905"><ele>430.2</ele><time>2026-03-28T13:48:50.671Z</time></trkpt><trkpt lat="42.6677129" lon="12.4167733"><ele>430.80000000000007</ele><time>2026-03-28T13:48:51.654Z</time></trkpt><trkpt lat="42.667685" lon="12.4166505"><ele>431.40000000000003</ele><time>2026-03-28T13:48:52.671Z</time></trkpt><trkpt lat="42.6676621" lon="12.4165249"><ele>432.0</ele><time>2026-03-28T13:48:53.66Z</time></trkpt><trkpt lat="42.6676451" lon="12.4163984"><ele>431.42857142857144</ele><time>2026-03-28T13:48:54.657Z</time></trkpt><trkpt lat="42.6676336" lon="12.4162945"><ele>430.85714285714283</ele><time>2026-03-28T13:48:55.656Z</time></trkpt><trkpt lat="42.6676268" lon="12.4162056"><ele>430.28571428571433</ele><time>2026-03-28T13:48:56.655Z</time></trkpt><trkpt lat="42.6676107" lon="12.4161148"><ele>429.7142857142857</ele><time>2026-03-28T13:48:57.658Z</time></trkpt><trkpt lat="42.6675862" lon="12.4160185"><ele>429.14285714285717</ele><time>2026-03-28T13:48:58.663Z</time></trkpt><trkpt lat="42.6675516" lon="12.4159212"><ele>428.5714285714286</ele><time>2026-03-28T13:48:59.65Z</time></trkpt><trkpt lat="42.6675137" lon="12.4158264"><ele>428.0</ele><time>2026-03-28T13:49:00.656Z</time></trkpt><trkpt lat="42.6674651" lon="12.4157296"><ele>427.99999999999994</ele><time>2026-03-28T13:49:01.665Z</time></trkpt><trkpt lat="42.6674095" lon="12.4156296"><ele>428.0</ele><time>2026-03-28T13:49:02.668Z</time></trkpt><trkpt lat="42.6673609" lon="12.4155361"><ele>428.0</ele><time>2026-03-28T13:49:03.651Z</time></trkpt><trkpt lat="42.6673145" lon="12.415441"><ele>428.0</ele><time>2026-03-28T13:49:04.666Z</time></trkpt><trkpt lat="42.6672698" lon="12.4153441"><ele>427.99999999999994</ele><time>2026-03-28T13:49:05.663Z</time></trkpt><trkpt lat="42.6672239" lon="12.415244"><ele>428.0</ele><time>2026-03-28T13:49:06.671Z</time></trkpt><trkpt lat="42.6671775" lon="12.4151438"><ele>426.66666666666663</ele><time>2026-03-28T13:49:07.679Z</time></trkpt><trkpt lat="42.6671366" lon="12.4150512"><ele>425.3333333333333</ele><time>2026-03-28T13:49:08.663Z</time></trkpt><trkpt lat="42.6671006" lon="12.4149575"><ele>424.0</ele><time>2026-03-28T13:49:09.657Z</time></trkpt><trkpt lat="42.6670625" lon="12.4148569"><ele>422.66666666666663</ele><time>2026-03-28T13:49:10.668Z</time></trkpt><trkpt lat="42.6670241" lon="12.4147683"><ele>421.3333333333333</ele><time>2026-03-28T13:49:11.648Z</time></trkpt><trkpt lat="42.6669846" lon="12.4146848"><ele>420.0</ele><time>2026-03-28T13:49:12.659Z</time></trkpt><trkpt lat="42.6669459" lon="12.414601"><ele>421.0</ele><time>2026-03-28T13:49:13.659Z</time></trkpt><trkpt lat="42.6669017" lon="12.4145152"><ele>422.0</ele><time>2026-03-28T13:49:14.657Z</time></trkpt><trkpt lat="42.6668475" lon="12.4144233"><ele>423.0</ele><time>2026-03-28T13:49:15.657Z</time></trkpt><trkpt lat="42.6667882" lon="12.4143303"><ele>424.0</ele><time>2026-03-28T13:49:16.657Z</time></trkpt><trkpt lat="42.6667276" lon="12.4142418"><ele>425.0</ele><time>2026-03-28T13:49:17.671Z</time></trkpt><trkpt lat="42.6666766" lon="12.4141465"><ele>426.0</ele><time>2026-03-28T13:49:18.658Z</time></trkpt><trkpt lat="42.666631" lon="12.414058"><ele>426.0</ele><time>2026-03-28T13:49:19.653Z</time></trkpt><trkpt lat="42.6665879" lon="12.413976"><ele>426.0</ele><time>2026-03-28T13:49:20.66Z</time></trkpt><trkpt lat="42.6665533" lon="12.4139031"><ele>426.0</ele><time>2026-03-28T13:49:21.664Z</time></trkpt><trkpt lat="42.6664845" lon="12.4137583"><ele>426.0</ele><time>2026-03-28T13:49:23.665Z</time></trkpt><trkpt lat="42.6664414" lon="12.4136804"><ele>426.0</ele><time>2026-03-28T13:49:24.658Z</time></trkpt><trkpt lat="42.6663896" lon="12.413604"><ele>426.0</ele><time>2026-03-28T13:49:25.664Z</time></trkpt><trkpt lat="42.6663375" lon="12.4135304"><ele>426.0</ele><time>2026-03-28T13:49:26.657Z</time></trkpt><trkpt lat="42.666246" lon="12.4134168"><ele>426.0</ele><time>2026-03-28T13:49:28.659Z</time></trkpt><trkpt lat="42.6661988" lon="12.4133523"><ele>426.0</ele><time>2026-03-28T13:49:29.671Z</time></trkpt><trkpt lat="42.6661505" lon="12.4132823"><ele>426.0</ele><time>2026-03-28T13:49:30.668Z</time></trkpt><trkpt lat="42.666105" lon="12.4132128"><ele>426.0</ele><time>2026-03-28T13:49:31.668Z</time></trkpt><trkpt lat="42.6660385" lon="12.4130799"><ele>426.0</ele><time>2026-03-28T13:49:33.678Z</time></trkpt><trkpt lat="42.6659986" lon="12.4129318"><ele>425.75</ele><time>2026-03-28T13:49:35.666Z</time></trkpt><trkpt lat="42.6659116" lon="12.412791"><ele>425.5</ele><time>2026-03-28T13:49:37.654Z</time></trkpt><trkpt lat="42.6658315" lon="12.4127098"><ele>425.25</ele><time>2026-03-28T13:49:38.658Z</time></trkpt><trkpt lat="42.6657322" lon="12.4126181"><ele>425.0</ele><time>2026-03-28T13:49:39.661Z</time></trkpt><trkpt lat="42.6656375" lon="12.4125283"><ele>425.0</ele><time>2026-03-28T13:49:40.66Z</time></trkpt><trkpt lat="42.6655513" lon="12.4124276"><ele>425.0</ele><time>2026-03-28T13:49:41.654Z</time></trkpt><trkpt lat="42.6654731" lon="12.4123123"><ele>425.0</ele><time>2026-03-28T13:49:42.65Z</time></trkpt><trkpt lat="42.6653915" lon="12.4121795"><ele>425.0</ele><time>2026-03-28T13:49:43.658Z</time></trkpt><trkpt lat="42.6653106" lon="12.4120294"><ele>424.5</ele><time>2026-03-28T13:49:44.655Z</time></trkpt><trkpt lat="42.6652306" lon="12.4118867"><ele>424.0</ele><time>2026-03-28T13:49:45.668Z</time></trkpt><trkpt lat="42.6651516" lon="12.4117578"><ele>423.5</ele><time>2026-03-28T13:49:46.654Z</time></trkpt><trkpt lat="42.6650847" lon="12.4116323"><ele>423.0</ele><time>2026-03-28T13:49:47.659Z</time></trkpt><trkpt lat="42.6650231" lon="12.4114952"><ele>423.0</ele><time>2026-03-28T13:49:48.659Z</time></trkpt><trkpt lat="42.6649632" lon="12.4113437"><ele>423.0</ele><time>2026-03-28T13:49:49.657Z</time></trkpt><trkpt lat="42.6649037" lon="12.411189"><ele>423.0</ele><time>2026-03-28T13:49:50.657Z</time></trkpt><trkpt lat="42.6648414" lon="12.4110332"><ele>423.0</ele><time>2026-03-28T13:49:51.658Z</time></trkpt><trkpt lat="42.6647707" lon="12.4108805"><ele>423.0</ele><time>2026-03-28T13:49:52.655Z</time></trkpt><trkpt lat="42.6647028" lon="12.4107374"><ele>423.0</ele><time>2026-03-28T13:49:53.665Z</time></trkpt><trkpt lat="42.6646388" lon="12.4105981"><ele>423.0</ele><time>2026-03-28T13:49:54.675Z</time></trkpt><trkpt lat="42.6645859" lon="12.4104605"><ele>423.0</ele><time>2026-03-28T13:49:55.658Z</time></trkpt><trkpt lat="42.6645442" lon="12.4103281"><ele>423.0</ele><time>2026-03-28T13:49:56.661Z</time></trkpt><trkpt lat="42.6645077" lon="12.410205"><ele>423.0</ele><time>2026-03-28T13:49:57.655Z</time></trkpt><trkpt lat="42.6644629" lon="12.4100911"><ele>423.0</ele><time>2026-03-28T13:49:58.658Z</time></trkpt><trkpt lat="42.6644097" lon="12.4099828"><ele>423.0</ele><time>2026-03-28T13:49:59.649Z</time></trkpt><trkpt lat="42.6643538" lon="12.4098911"><ele>423.0</ele><time>2026-03-28T13:50:00.661Z</time></trkpt><trkpt lat="42.6642991" lon="12.4098009"><ele>423.0</ele><time>2026-03-28T13:50:01.677Z</time></trkpt><trkpt lat="42.6642418" lon="12.4096966"><ele>423.0</ele><time>2026-03-28T13:50:02.651Z</time></trkpt><trkpt lat="42.6641751" lon="12.4095734"><ele>423.0</ele><time>2026-03-28T13:50:03.653Z</time></trkpt><trkpt lat="42.664096" lon="12.4094377"><ele>423.0</ele><time>2026-03-28T13:50:04.664Z</time></trkpt><trkpt lat="42.6640209" lon="12.4093072"><ele>422.59999999999997</ele><time>2026-03-28T13:50:05.645Z</time></trkpt><trkpt lat="42.6639573" lon="12.4091904"><ele>422.2</ele><time>2026-03-28T13:50:06.685Z</time></trkpt><trkpt lat="42.663905" lon="12.4090872"><ele>421.8</ele><time>2026-03-28T13:50:07.669Z</time></trkpt><trkpt lat="42.6638586" lon="12.4089824"><ele>421.4</ele><time>2026-03-28T13:50:08.67Z</time></trkpt><trkpt lat="42.6638124" lon="12.4088689"><ele>421.0</ele><time>2026-03-28T13:50:09.651Z</time></trkpt><trkpt lat="42.6637755" lon="12.4087554"><ele>421.33333333333337</ele><time>2026-03-28T13:50:10.676Z</time></trkpt><trkpt lat="42.6637477" lon="12.4086606"><ele>421.6666666666667</ele><time>2026-03-28T13:50:11.658Z</time></trkpt><trkpt lat="42.6637324" lon="12.4085718"><ele>422.0</ele><time>2026-03-28T13:50:12.659Z</time></trkpt><trkpt lat="42.6637144" lon="12.4084819"><ele>422.33333333333337</ele><time>2026-03-28T13:50:13.651Z</time></trkpt><trkpt lat="42.6636735" lon="12.4083975"><ele>422.6666666666667</ele><time>2026-03-28T13:50:14.659Z</time></trkpt><trkpt lat="42.6636144" lon="12.4083151"><ele>423.0</ele><time>2026-03-28T13:50:15.666Z</time></trkpt><trkpt lat="42.6635499" lon="12.4082308"><ele>423.0</ele><time>2026-03-28T13:50:16.661Z</time></trkpt><trkpt lat="42.663481" lon="12.4081568"><ele>423.0</ele><time>2026-03-28T13:50:17.659Z</time></trkpt><trkpt lat="42.6634028" lon="12.4080843"><ele>423.0</ele><time>2026-03-28T13:50:18.65Z</time></trkpt><trkpt lat="42.6633214" lon="12.4080104"><ele>423.0</ele><time>2026-03-28T13:50:19.683Z</time></trkpt><trkpt lat="42.6632515" lon="12.4079371"><ele>423.0</ele><time>2026-03-28T13:50:20.654Z</time></trkpt><trkpt lat="42.6631834" lon="12.4078638"><ele>423.4</ele><time>2026-03-28T13:50:21.653Z</time></trkpt><trkpt lat="42.6631119" lon="12.4077904"><ele>423.79999999999995</ele><time>2026-03-28T13:50:22.659Z</time></trkpt><trkpt lat="42.6630351" lon="12.407708"><ele>424.2</ele><time>2026-03-28T13:50:23.653Z</time></trkpt><trkpt lat="42.6629575" lon="12.4076204"><ele>424.6</ele><time>2026-03-28T13:50:24.671Z</time></trkpt><trkpt lat="42.6628755" lon="12.4075124"><ele>425.0</ele><time>2026-03-28T13:50:25.653Z</time></trkpt><trkpt lat="42.6627973" lon="12.4073959"><ele>425.2</ele><time>2026-03-28T13:50:26.659Z</time></trkpt><trkpt lat="42.6627192" lon="12.4072822"><ele>425.4</ele><time>2026-03-28T13:50:27.671Z</time></trkpt><trkpt lat="42.6626474" lon="12.407171"><ele>425.6</ele><time>2026-03-28T13:50:28.666Z</time></trkpt><trkpt lat="42.6625833" lon="12.4070666"><ele>425.8</ele><time>2026-03-28T13:50:29.652Z</time></trkpt><trkpt lat="42.6625243" lon="12.4069688"><ele>426.0</ele><time>2026-03-28T13:50:30.665Z</time></trkpt><trkpt lat="42.6624676" lon="12.4068734"><ele>426.4</ele><time>2026-03-28T13:50:31.675Z</time></trkpt><trkpt lat="42.6624151" lon="12.4067865"><ele>426.8</ele><time>2026-03-28T13:50:32.656Z</time></trkpt><trkpt lat="42.6623346" lon="12.4066786"><ele>427.19999999999993</ele><time>2026-03-28T13:50:34.667Z</time></trkpt><trkpt lat="42.6622252" lon="12.4066304"><ele>427.59999999999997</ele><time>2026-03-28T13:50:36.653Z</time></trkpt><trkpt lat="42.6621646" lon="12.4065895"><ele>428.0</ele><time>2026-03-28T13:50:37.664Z</time></trkpt><trkpt lat="42.6620987" lon="12.4065097"><ele>427.99999999999994</ele><time>2026-03-28T13:50:38.66Z</time></trkpt><trkpt lat="42.6620243" lon="12.4064072"><ele>428.0</ele><time>2026-03-28T13:50:39.653Z</time></trkpt><trkpt lat="42.6619591" lon="12.4063099"><ele>428.0</ele><time>2026-03-28T13:50:40.657Z</time></trkpt><trkpt lat="42.6619102" lon="12.4062183"><ele>428.0</ele><time>2026-03-28T13:50:41.647Z</time></trkpt><trkpt lat="42.6618648" lon="12.4061268"><ele>427.99999999999994</ele><time>2026-03-28T13:50:42.658Z</time></trkpt><trkpt lat="42.6618243" lon="12.4060482"><ele>428.0</ele><time>2026-03-28T13:50:43.651Z</time></trkpt><trkpt lat="42.6617795" lon="12.4059754"><ele>428.16666666666663</ele><time>2026-03-28T13:50:44.669Z</time></trkpt><trkpt lat="42.6617351" lon="12.4059002"><ele>428.3333333333333</ele><time>2026-03-28T13:50:45.658Z</time></trkpt><trkpt lat="42.6616917" lon="12.4058216"><ele>428.5</ele><time>2026-03-28T13:50:46.654Z</time></trkpt><trkpt lat="42.6616485" lon="12.4057416"><ele>428.66666666666663</ele><time>2026-03-28T13:50:47.651Z</time></trkpt><trkpt lat="42.6616013" lon="12.4056559"><ele>428.8333333333333</ele><time>2026-03-28T13:50:48.649Z</time></trkpt><trkpt lat="42.6615536" lon="12.4055702"><ele>429.0</ele><time>2026-03-28T13:50:49.657Z</time></trkpt><trkpt lat="42.6615083" lon="12.405484"><ele>427.5</ele><time>2026-03-28T13:50:50.656Z</time></trkpt><trkpt lat="42.6614647" lon="12.4054013"><ele>426.0</ele><time>2026-03-28T13:50:51.659Z</time></trkpt><trkpt lat="42.6614247" lon="12.405319"><ele>424.5</ele><time>2026-03-28T13:50:52.669Z</time></trkpt><trkpt lat="42.6613832" lon="12.4052303"><ele>423.0</ele><time>2026-03-28T13:50:53.667Z</time></trkpt><trkpt lat="42.6613351" lon="12.4051256"><ele>421.5</ele><time>2026-03-28T13:50:54.669Z</time></trkpt><trkpt lat="42.6612906" lon="12.4050174"><ele>420.0</ele><time>2026-03-28T13:50:55.652Z</time></trkpt><trkpt lat="42.6612537" lon="12.4049171"><ele>420.0</ele><time>2026-03-28T13:50:56.665Z</time></trkpt><trkpt lat="42.6612217" lon="12.4048169"><ele>420.0</ele><time>2026-03-28T13:50:57.658Z</time></trkpt><trkpt lat="42.6611947" lon="12.4047286"><ele>420.0</ele><time>2026-03-28T13:50:58.657Z</time></trkpt><trkpt lat="42.6611443" lon="12.4045768"><ele>420.0</ele><time>2026-03-28T13:51:00.653Z</time></trkpt><trkpt lat="42.6610953" lon="12.404407"><ele>420.0</ele><time>2026-03-28T13:51:02.66Z</time></trkpt><trkpt lat="42.6610711" lon="12.4043236"><ele>420.0</ele><time>2026-03-28T13:51:03.672Z</time></trkpt><trkpt lat="42.6610312" lon="12.4041729"><ele>420.0</ele><time>2026-03-28T13:51:05.66Z</time></trkpt><trkpt lat="42.6609822" lon="12.4040348"><ele>420.0</ele><time>2026-03-28T13:51:07.654Z</time></trkpt><trkpt lat="42.6609545" lon="12.4038885"><ele>420.0</ele><time>2026-03-28T13:51:09.67Z</time></trkpt><trkpt lat="42.6609345" lon="12.4037225"><ele>419.2</ele><time>2026-03-28T13:51:11.658Z</time></trkpt><trkpt lat="42.6609471" lon="12.4035531"><ele>418.4</ele><time>2026-03-28T13:51:13.669Z</time></trkpt><trkpt lat="42.6609917" lon="12.4034207"><ele>417.6</ele><time>2026-03-28T13:51:15.669Z</time></trkpt><trkpt lat="42.6610533" lon="12.4032892"><ele>416.8</ele><time>2026-03-28T13:51:17.655Z</time></trkpt><trkpt lat="42.6610802" lon="12.4032081"><ele>416.0</ele><time>2026-03-28T13:51:18.668Z</time></trkpt><trkpt lat="42.6611025" lon="12.4031081"><ele>415.99999999999994</ele><time>2026-03-28T13:51:19.656Z</time></trkpt><trkpt lat="42.6611176" lon="12.4029828"><ele>416.0</ele><time>2026-03-28T13:51:20.658Z</time></trkpt><trkpt lat="42.6611318" lon="12.4028776"><ele>416.0</ele><time>2026-03-28T13:51:21.666Z</time></trkpt><trkpt lat="42.661151" lon="12.4027691"><ele>416.0</ele><time>2026-03-28T13:51:23.671Z</time></trkpt><trkpt lat="42.6611211" lon="12.4028572"><ele>415.99999999999994</ele><time>2026-03-28T13:55:25.655Z</time></trkpt><trkpt lat="42.6610886" lon="12.4029479"><ele>416.0</ele><time>2026-03-28T13:55:29.656Z</time></trkpt><trkpt lat="42.6610865" lon="12.4030647"><ele>415.99999999999994</ele><time>2026-03-28T13:55:31.663Z</time></trkpt><trkpt lat="42.6610894" lon="12.4031744"><ele>416.0</ele><time>2026-03-28T13:55:33.662Z</time></trkpt><trkpt lat="42.6610911" lon="12.4032769"><ele>416.0</ele><time>2026-03-28T13:55:35.653Z</time></trkpt><trkpt lat="42.6611075" lon="12.4033599"><ele>416.0</ele><time>2026-03-28T13:55:37.657Z</time></trkpt><trkpt lat="42.6611023" lon="12.4034689"><ele>415.99999999999994</ele><time>2026-03-28T13:55:40.656Z</time></trkpt><trkpt lat="42.6610573" lon="12.4035629"><ele>416.0</ele><time>2026-03-28T13:55:42.651Z</time></trkpt><trkpt lat="42.6610286" lon="12.4036723"><ele>416.0</ele><time>2026-03-28T13:55:44.658Z</time></trkpt><trkpt lat="42.6610275" lon="12.4037898"><ele>416.0</ele><time>2026-03-28T13:55:46.652Z</time></trkpt><trkpt lat="42.6610381" lon="12.4038776"><ele>416.0</ele><time>2026-03-28T13:55:47.677Z</time></trkpt><trkpt lat="42.6610603" lon="12.4039806"><ele>416.0</ele><time>2026-03-28T13:55:48.657Z</time></trkpt><trkpt lat="42.6610905" lon="12.404073"><ele>416.0</ele><time>2026-03-28T13:55:49.678Z</time></trkpt><trkpt lat="42.661124" lon="12.4041572"><ele>416.0</ele><time>2026-03-28T13:55:50.658Z</time></trkpt><trkpt lat="42.6611543" lon="12.4042439"><ele>416.0</ele><time>2026-03-28T13:55:51.654Z</time></trkpt><trkpt lat="42.6611847" lon="12.404327"><ele>415.8333333333333</ele><time>2026-03-28T13:55:52.672Z</time></trkpt><trkpt lat="42.6612121" lon="12.4044156"><ele>415.66666666666663</ele><time>2026-03-28T13:55:53.647Z</time></trkpt><trkpt lat="42.6612378" lon="12.4045112"><ele>415.5</ele><time>2026-03-28T13:55:54.653Z</time></trkpt><trkpt lat="42.6612644" lon="12.404611"><ele>415.33333333333337</ele><time>2026-03-28T13:55:55.668Z</time></trkpt><trkpt lat="42.6612924" lon="12.4047167"><ele>415.1666666666667</ele><time>2026-03-28T13:55:56.662Z</time></trkpt><trkpt lat="42.6613266" lon="12.4048226"><ele>415.0</ele><time>2026-03-28T13:55:57.651Z</time></trkpt><trkpt lat="42.6613713" lon="12.4049253"><ele>416.0</ele><time>2026-03-28T13:55:58.659Z</time></trkpt><trkpt lat="42.6614178" lon="12.405025"><ele>417.0</ele><time>2026-03-28T13:55:59.658Z</time></trkpt><trkpt lat="42.6614669" lon="12.4051283"><ele>418.0</ele><time>2026-03-28T13:56:00.664Z</time></trkpt><trkpt lat="42.6615141" lon="12.4052321"><ele>419.0</ele><time>2026-03-28T13:56:01.657Z</time></trkpt><trkpt lat="42.6615594" lon="12.405339"><ele>420.0</ele><time>2026-03-28T13:56:02.671Z</time></trkpt><trkpt lat="42.6616086" lon="12.4054461"><ele>421.8</ele><time>2026-03-28T13:56:03.662Z</time></trkpt><trkpt lat="42.6616593" lon="12.4055527"><ele>423.6</ele><time>2026-03-28T13:56:04.662Z</time></trkpt><trkpt lat="42.6617143" lon="12.4056669"><ele>425.4</ele><time>2026-03-28T13:56:05.643Z</time></trkpt><trkpt lat="42.6617762" lon="12.4057831"><ele>427.2</ele><time>2026-03-28T13:56:06.659Z</time></trkpt><trkpt lat="42.6618309" lon="12.4058832"><ele>429.0</ele><time>2026-03-28T13:56:07.656Z</time></trkpt><trkpt lat="42.6618788" lon="12.4059668"><ele>429.0</ele><time>2026-03-28T13:56:08.661Z</time></trkpt><trkpt lat="42.661927" lon="12.4060466"><ele>429.0</ele><time>2026-03-28T13:56:09.656Z</time></trkpt><trkpt lat="42.661974" lon="12.4061172"><ele>429.0</ele><time>2026-03-28T13:56:10.66Z</time></trkpt><trkpt lat="42.6620173" lon="12.4061824"><ele>429.0</ele><time>2026-03-28T13:56:11.654Z</time></trkpt><trkpt lat="42.6620983" lon="12.4062975"><ele>429.0</ele><time>2026-03-28T13:56:13.643Z</time></trkpt><trkpt lat="42.6621459" lon="12.4063637"><ele>429.0</ele><time>2026-03-28T13:56:14.658Z</time></trkpt><trkpt lat="42.6621951" lon="12.4064354"><ele>428.8333333333333</ele><time>2026-03-28T13:56:15.656Z</time></trkpt><trkpt lat="42.6622477" lon="12.4065064"><ele>428.66666666666663</ele><time>2026-03-28T13:56:16.657Z</time></trkpt><trkpt lat="42.6623126" lon="12.4066026"><ele>428.5</ele><time>2026-03-28T13:56:18.666Z</time></trkpt><trkpt lat="42.6622616" lon="12.4066787"><ele>428.3333333333333</ele><time>2026-03-28T13:56:27.65Z</time></trkpt><trkpt lat="42.6621899" lon="12.4066197"><ele>428.16666666666663</ele><time>2026-03-28T13:56:29.668Z</time></trkpt><trkpt lat="42.6621465" lon="12.4065543"><ele>428.0</ele><time>2026-03-28T13:56:30.651Z</time></trkpt><trkpt lat="42.6620931" lon="12.4064833"><ele>427.99999999999994</ele><time>2026-03-28T13:56:31.658Z</time></trkpt><trkpt lat="42.6620363" lon="12.4063961"><ele>428.0</ele><time>2026-03-28T13:56:32.661Z</time></trkpt><trkpt lat="42.6619865" lon="12.4063028"><ele>428.0</ele><time>2026-03-28T13:56:33.663Z</time></trkpt><trkpt lat="42.6619416" lon="12.4062391"><ele>428.0</ele><time>2026-03-28T13:56:34.656Z</time></trkpt><trkpt lat="42.6618373" lon="12.4061877"><ele>427.99999999999994</ele><time>2026-03-28T13:56:36.666Z</time></trkpt><trkpt lat="42.6617628" lon="12.406203"><ele>428.0</ele><time>2026-03-28T13:56:37.654Z</time></trkpt><trkpt lat="42.6616854" lon="12.4062141"><ele>428.2</ele><time>2026-03-28T13:56:38.644Z</time></trkpt><trkpt lat="42.6615986" lon="12.4062127"><ele>428.4</ele><time>2026-03-28T13:56:39.658Z</time></trkpt><trkpt lat="42.6615009" lon="12.4062164"><ele>428.59999999999997</ele><time>2026-03-28T13:56:40.654Z</time></trkpt><trkpt lat="42.661392" lon="12.4062232"><ele>428.79999999999995</ele><time>2026-03-28T13:56:41.658Z</time></trkpt><trkpt lat="42.6612847" lon="12.4062399"><ele>429.0</ele><time>2026-03-28T13:56:42.653Z</time></trkpt><trkpt lat="42.6611825" lon="12.4062605"><ele>430.79999999999995</ele><time>2026-03-28T13:56:43.676Z</time></trkpt><trkpt lat="42.6610846" lon="12.4062818"><ele>432.59999999999997</ele><time>2026-03-28T13:56:44.664Z</time></trkpt><trkpt lat="42.6609912" lon="12.4062983"><ele>434.4</ele><time>2026-03-28T13:56:45.645Z</time></trkpt><trkpt lat="42.6608963" lon="12.4063115"><ele>436.2</ele><time>2026-03-28T13:56:46.675Z</time></trkpt><trkpt lat="42.6607962" lon="12.4063151"><ele>438.0</ele><time>2026-03-28T13:56:47.649Z</time></trkpt><trkpt lat="42.6606987" lon="12.4063078"><ele>438.0</ele><time>2026-03-28T13:56:48.659Z</time></trkpt><trkpt lat="42.660617" lon="12.4062779"><ele>438.0</ele><time>2026-03-28T13:56:49.661Z</time></trkpt><trkpt lat="42.6605496" lon="12.4062414"><ele>438.0</ele><time>2026-03-28T13:56:50.654Z</time></trkpt><trkpt lat="42.6604796" lon="12.4062172"><ele>438.0</ele><time>2026-03-28T13:56:51.665Z</time></trkpt><trkpt lat="42.6604117" lon="12.4062041"><ele>438.0</ele><time>2026-03-28T13:56:52.659Z</time></trkpt><trkpt lat="42.6603037" lon="12.4061846"><ele>438.0</ele><time>2026-03-28T13:56:54.644Z</time></trkpt><trkpt lat="42.6602177" lon="12.4061782"><ele>437.5</ele><time>2026-03-28T13:56:56.659Z</time></trkpt><trkpt lat="42.6601397" lon="12.4061512"><ele>437.0</ele><time>2026-03-28T13:57:16.653Z</time></trkpt><trkpt lat="42.6600684" lon="12.4061177"><ele>436.5</ele><time>2026-03-28T13:57:18.651Z</time></trkpt><trkpt lat="42.6599975" lon="12.4061055"><ele>436.0</ele><time>2026-03-28T13:57:20.668Z</time></trkpt><trkpt lat="42.6598844" lon="12.4060887"><ele>435.5</ele><time>2026-03-28T13:57:22.672Z</time></trkpt><trkpt lat="42.6597865" lon="12.4060742"><ele>435.0</ele><time>2026-03-28T13:57:24.663Z</time></trkpt><trkpt lat="42.6596687" lon="12.4060242"><ele>435.0</ele><time>2026-03-28T13:57:26.653Z</time></trkpt><trkpt lat="42.6596064" lon="12.4060007"><ele>435.0</ele><time>2026-03-28T13:57:27.657Z</time></trkpt><trkpt lat="42.6594749" lon="12.4059703"><ele>435.0</ele><time>2026-03-28T13:57:29.656Z</time></trkpt><trkpt lat="42.6593941" lon="12.4059651"><ele>435.0</ele><time>2026-03-28T13:57:30.656Z</time></trkpt><trkpt lat="42.6593121" lon="12.405968"><ele>435.0</ele><time>2026-03-28T13:57:31.65Z</time></trkpt><trkpt lat="42.6592288" lon="12.4059798"><ele>435.0</ele><time>2026-03-28T13:57:32.652Z</time></trkpt><trkpt lat="42.6591435" lon="12.4059836"><ele>433.5</ele><time>2026-03-28T13:57:33.655Z</time></trkpt><trkpt lat="42.6590642" lon="12.4059826"><ele>432.0</ele><time>2026-03-28T13:57:34.658Z</time></trkpt><trkpt lat="42.6589973" lon="12.4059872"><ele>430.5</ele><time>2026-03-28T13:57:35.659Z</time></trkpt><trkpt lat="42.6589244" lon="12.4060048"><ele>429.0</ele><time>2026-03-28T13:57:36.669Z</time></trkpt><trkpt lat="42.6588519" lon="12.40604"><ele>427.5</ele><time>2026-03-28T13:57:37.665Z</time></trkpt><trkpt lat="42.6587786" lon="12.4060747"><ele>426.0</ele><time>2026-03-28T13:57:38.652Z</time></trkpt><trkpt lat="42.6587079" lon="12.4061172"><ele>426.0</ele><time>2026-03-28T13:57:39.679Z</time></trkpt><trkpt lat="42.6586398" lon="12.4061469"><ele>426.0</ele><time>2026-03-28T13:57:40.653Z</time></trkpt><trkpt lat="42.6585752" lon="12.4061703"><ele>426.0</ele><time>2026-03-28T13:57:41.648Z</time></trkpt><trkpt lat="42.6585124" lon="12.4062063"><ele>426.0</ele><time>2026-03-28T13:57:42.653Z</time></trkpt><trkpt lat="42.6584393" lon="12.4062607"><ele>426.0</ele><time>2026-03-28T13:57:43.658Z</time></trkpt><trkpt lat="42.6583568" lon="12.4063208"><ele>426.0</ele><time>2026-03-28T13:57:44.656Z</time></trkpt><trkpt lat="42.6582658" lon="12.4063742"><ele>425.0</ele><time>2026-03-28T13:57:45.655Z</time></trkpt><trkpt lat="42.6581801" lon="12.4064185"><ele>424.0</ele><time>2026-03-28T13:57:46.65Z</time></trkpt><trkpt lat="42.6580959" lon="12.4064664"><ele>423.0</ele><time>2026-03-28T13:57:47.655Z</time></trkpt><trkpt lat="42.6580146" lon="12.4065111"><ele>422.0</ele><time>2026-03-28T13:57:48.654Z</time></trkpt><trkpt lat="42.657941" lon="12.4065525"><ele>421.0</ele><time>2026-03-28T13:57:49.671Z</time></trkpt><trkpt lat="42.6578647" lon="12.406588"><ele>420.0</ele><time>2026-03-28T13:57:50.652Z</time></trkpt><trkpt lat="42.6577708" lon="12.4066259"><ele>419.0</ele><time>2026-03-28T13:57:51.646Z</time></trkpt><trkpt lat="42.6576785" lon="12.4066726"><ele>418.0</ele><time>2026-03-28T13:57:52.669Z</time></trkpt><trkpt lat="42.6575812" lon="12.4067205"><ele>417.0</ele><time>2026-03-28T13:57:53.663Z</time></trkpt><trkpt lat="42.657484" lon="12.406764"><ele>416.0</ele><time>2026-03-28T13:57:54.665Z</time></trkpt><trkpt lat="42.6573872" lon="12.4068111"><ele>415.0</ele><time>2026-03-28T13:57:55.664Z</time></trkpt><trkpt lat="42.6572885" lon="12.4068494"><ele>415.00000000000006</ele><time>2026-03-28T13:57:56.666Z</time></trkpt><trkpt lat="42.6571987" lon="12.4068869"><ele>415.0</ele><time>2026-03-28T13:57:57.677Z</time></trkpt><trkpt lat="42.6571294" lon="12.4069175"><ele>415.0</ele><time>2026-03-28T13:57:58.671Z</time></trkpt><trkpt lat="42.6570516" lon="12.4069417"><ele>415.0</ele><time>2026-03-28T13:58:00.665Z</time></trkpt><trkpt lat="42.6569365" lon="12.4069247"><ele>415.00000000000006</ele><time>2026-03-28T13:58:02.659Z</time></trkpt><trkpt lat="42.6568617" lon="12.4069144"><ele>415.0</ele><time>2026-03-28T13:58:03.646Z</time></trkpt><trkpt lat="42.6567834" lon="12.4069124"><ele>414.2</ele><time>2026-03-28T13:58:04.671Z</time></trkpt><trkpt lat="42.6567122" lon="12.4069158"><ele>413.4</ele><time>2026-03-28T13:58:05.647Z</time></trkpt><trkpt lat="42.6565886" lon="12.4069232"><ele>412.6</ele><time>2026-03-28T13:58:07.652Z</time></trkpt><trkpt lat="42.6564666" lon="12.4069156"><ele>411.8</ele><time>2026-03-28T13:58:09.69Z</time></trkpt><trkpt lat="42.6563492" lon="12.406867"><ele>411.0</ele><time>2026-03-28T13:58:11.652Z</time></trkpt><trkpt lat="42.6562447" lon="12.4067886"><ele>411.0</ele><time>2026-03-28T13:58:13.65Z</time></trkpt><trkpt lat="42.6561364" lon="12.4067095"><ele>411.0</ele><time>2026-03-28T13:58:15.652Z</time></trkpt><trkpt lat="42.6560714" lon="12.4066738"><ele>411.0</ele><time>2026-03-28T13:58:16.655Z</time></trkpt><trkpt lat="42.6560104" lon="12.4066385"><ele>411.0</ele><time>2026-03-28T13:58:17.666Z</time></trkpt><trkpt lat="42.6559505" lon="12.4066019"><ele>411.0</ele><time>2026-03-28T13:58:18.652Z</time></trkpt><trkpt lat="42.6558896" lon="12.406557"><ele>411.0</ele><time>2026-03-28T13:58:19.664Z</time></trkpt><trkpt lat="42.6558298" lon="12.4065068"><ele>409.57142857142856</ele><time>2026-03-28T13:58:20.66Z</time></trkpt><trkpt lat="42.6557695" lon="12.4064603"><ele>408.1428571428571</ele><time>2026-03-28T13:58:21.668Z</time></trkpt><trkpt lat="42.6557075" lon="12.406419"><ele>406.7142857142857</ele><time>2026-03-28T13:58:22.674Z</time></trkpt><trkpt lat="42.6556452" lon="12.4063802"><ele>405.2857142857143</ele><time>2026-03-28T13:58:23.666Z</time></trkpt><trkpt lat="42.6555798" lon="12.4063406"><ele>403.8571428571429</ele><time>2026-03-28T13:58:24.667Z</time></trkpt><trkpt lat="42.6555122" lon="12.4063098"><ele>402.42857142857144</ele><time>2026-03-28T13:58:25.647Z</time></trkpt><trkpt lat="42.655443" lon="12.406283"><ele>401.0</ele><time>2026-03-28T13:58:26.665Z</time></trkpt><trkpt lat="42.6553776" lon="12.4062559"><ele>400.7142857142857</ele><time>2026-03-28T13:58:27.658Z</time></trkpt><trkpt lat="42.6553086" lon="12.4062323"><ele>400.42857142857144</ele><time>2026-03-28T13:58:28.664Z</time></trkpt><trkpt lat="42.6552353" lon="12.4062072"><ele>400.1428571428571</ele><time>2026-03-28T13:58:29.665Z</time></trkpt><trkpt lat="42.655164" lon="12.4061929"><ele>399.8571428571429</ele><time>2026-03-28T13:58:30.649Z</time></trkpt><trkpt lat="42.655098" lon="12.40619"><ele>399.57142857142856</ele><time>2026-03-28T13:58:31.658Z</time></trkpt><trkpt lat="42.6550295" lon="12.4061888"><ele>399.2857142857143</ele><time>2026-03-28T13:58:32.661Z</time></trkpt><trkpt lat="42.6549643" lon="12.4061907"><ele>399.0</ele><time>2026-03-28T13:58:33.664Z</time></trkpt><trkpt lat="42.6548928" lon="12.4061872"><ele>397.1666666666667</ele><time>2026-03-28T13:58:34.666Z</time></trkpt><trkpt lat="42.6548176" lon="12.4061802"><ele>395.33333333333337</ele><time>2026-03-28T13:58:35.668Z</time></trkpt><trkpt lat="42.6547372" lon="12.4061747"><ele>393.5</ele><time>2026-03-28T13:58:36.665Z</time></trkpt><trkpt lat="42.6546569" lon="12.4061691"><ele>391.6666666666667</ele><time>2026-03-28T13:58:37.662Z</time></trkpt><trkpt lat="42.6545776" lon="12.4061593"><ele>389.83333333333337</ele><time>2026-03-28T13:58:38.66Z</time></trkpt><trkpt lat="42.6544956" lon="12.4061511"><ele>388.0</ele><time>2026-03-28T13:58:39.653Z</time></trkpt><trkpt lat="42.6544141" lon="12.4061388"><ele>386.83333333333337</ele><time>2026-03-28T13:58:40.671Z</time></trkpt><trkpt lat="42.6543344" lon="12.406112"><ele>385.6666666666667</ele><time>2026-03-28T13:58:41.667Z</time></trkpt><trkpt lat="42.6542568" lon="12.4060896"><ele>384.5</ele><time>2026-03-28T13:58:42.658Z</time></trkpt><trkpt lat="42.654185" lon="12.4060683"><ele>383.33333333333337</ele><time>2026-03-28T13:58:43.654Z</time></trkpt><trkpt lat="42.6540719" lon="12.4060376"><ele>382.1666666666667</ele><time>2026-03-28T13:58:45.649Z</time></trkpt><trkpt lat="42.6540054" lon="12.4060256"><ele>381.0</ele><time>2026-03-28T13:58:46.665Z</time></trkpt><trkpt lat="42.6539287" lon="12.4060048"><ele>381.0</ele><time>2026-03-28T13:58:47.646Z</time></trkpt><trkpt lat="42.6538436" lon="12.405989"><ele>381.0</ele><time>2026-03-28T13:58:48.665Z</time></trkpt><trkpt lat="42.6537538" lon="12.4059772"><ele>381.0</ele><time>2026-03-28T13:58:49.666Z</time></trkpt><trkpt lat="42.653668" lon="12.4059634"><ele>381.0</ele><time>2026-03-28T13:58:50.654Z</time></trkpt><trkpt lat="42.653601" lon="12.405938"><ele>381.0</ele><time>2026-03-28T13:58:51.661Z</time></trkpt><trkpt lat="42.6535339" lon="12.4058817"><ele>381.0</ele><time>2026-03-28T13:58:53.665Z</time></trkpt><trkpt lat="42.6534536" lon="12.4058247"><ele>379.8</ele><time>2026-03-28T13:58:55.673Z</time></trkpt><trkpt lat="42.6533371" lon="12.4057399"><ele>378.6</ele><time>2026-03-28T13:58:57.653Z</time></trkpt><trkpt lat="42.6532759" lon="12.405698"><ele>377.4</ele><time>2026-03-28T13:58:58.665Z</time></trkpt><trkpt lat="42.6531675" lon="12.4056484"><ele>376.2</ele><time>2026-03-28T13:59:00.65Z</time></trkpt><trkpt lat="42.6530352" lon="12.4056352"><ele>375.0</ele><time>2026-03-28T13:59:02.651Z</time></trkpt><trkpt lat="42.652958" lon="12.4056298"><ele>375.0</ele><time>2026-03-28T13:59:03.648Z</time></trkpt><trkpt lat="42.652878" lon="12.4056266"><ele>375.0</ele><time>2026-03-28T13:59:04.668Z</time></trkpt><trkpt lat="42.6527927" lon="12.4056287"><ele>375.0</ele><time>2026-03-28T13:59:05.652Z</time></trkpt><trkpt lat="42.652709" lon="12.4056283"><ele>375.0</ele><time>2026-03-28T13:59:06.658Z</time></trkpt><trkpt lat="42.6526388" lon="12.405623"><ele>375.0</ele><time>2026-03-28T13:59:07.648Z</time></trkpt><trkpt lat="42.6525298" lon="12.40558"><ele>375.0</ele><time>2026-03-28T13:59:09.67Z</time></trkpt><trkpt lat="42.6524328" lon="12.4054872"><ele>373.8333333333333</ele><time>2026-03-28T13:59:11.653Z</time></trkpt><trkpt lat="42.6523798" lon="12.4054191"><ele>372.6666666666667</ele><time>2026-03-28T13:59:12.646Z</time></trkpt><trkpt lat="42.6523211" lon="12.4053475"><ele>371.5</ele><time>2026-03-28T13:59:13.665Z</time></trkpt><trkpt lat="42.6522528" lon="12.4052888"><ele>370.33333333333337</ele><time>2026-03-28T13:59:14.661Z</time></trkpt><trkpt lat="42.6521629" lon="12.4052405"><ele>369.1666666666667</ele><time>2026-03-28T13:59:15.658Z</time></trkpt><trkpt lat="42.652062" lon="12.4051995"><ele>368.0</ele><time>2026-03-28T13:59:16.653Z</time></trkpt><trkpt lat="42.6519625" lon="12.4051589"><ele>365.0</ele><time>2026-03-28T13:59:17.653Z</time></trkpt><trkpt lat="42.6518534" lon="12.4051146"><ele>362.0</ele><time>2026-03-28T13:59:18.646Z</time></trkpt><trkpt lat="42.6517253" lon="12.4050555"><ele>359.0</ele><time>2026-03-28T13:59:19.666Z</time></trkpt><trkpt lat="42.6515997" lon="12.404995"><ele>356.0</ele><time>2026-03-28T13:59:20.653Z</time></trkpt><trkpt lat="42.6514779" lon="12.4049336"><ele>356.0</ele><time>2026-03-28T13:59:21.67Z</time></trkpt><trkpt lat="42.6513553" lon="12.4048791"><ele>356.0</ele><time>2026-03-28T13:59:22.647Z</time></trkpt><trkpt lat="42.6512405" lon="12.4048263"><ele>356.0</ele><time>2026-03-28T13:59:23.656Z</time></trkpt><trkpt lat="42.6511329" lon="12.4047849"><ele>356.0</ele><time>2026-03-28T13:59:24.684Z</time></trkpt><trkpt lat="42.6510313" lon="12.4047465"><ele>355.20000000000005</ele><time>2026-03-28T13:59:25.647Z</time></trkpt><trkpt lat="42.6509384" lon="12.4046997"><ele>354.40000000000003</ele><time>2026-03-28T13:59:26.651Z</time></trkpt><trkpt lat="42.6508631" lon="12.4046363"><ele>353.6</ele><time>2026-03-28T13:59:27.658Z</time></trkpt><trkpt lat="42.6508004" lon="12.4045526"><ele>352.8</ele><time>2026-03-28T13:59:28.663Z</time></trkpt><trkpt lat="42.6507535" lon="12.4044531"><ele>352.0</ele><time>2026-03-28T13:59:29.651Z</time></trkpt><trkpt lat="42.6507211" lon="12.4043406"><ele>351.66666666666663</ele><time>2026-03-28T13:59:30.661Z</time></trkpt><trkpt lat="42.6507063" lon="12.4042177"><ele>351.3333333333333</ele><time>2026-03-28T13:59:31.654Z</time></trkpt><trkpt lat="42.6506993" lon="12.4041015"><ele>351.0</ele><time>2026-03-28T13:59:32.649Z</time></trkpt><trkpt lat="42.6506791" lon="12.404015"><ele>350.6666666666667</ele><time>2026-03-28T13:59:33.666Z</time></trkpt><trkpt lat="42.6505628" lon="12.4039657"><ele>350.33333333333337</ele><time>2026-03-28T13:59:35.665Z</time></trkpt><trkpt lat="42.6504939" lon="12.4039782"><ele>350.0</ele><time>2026-03-28T13:59:36.665Z</time></trkpt><trkpt lat="42.6504236" lon="12.404026"><ele>350.0</ele><time>2026-03-28T13:59:37.656Z</time></trkpt><trkpt lat="42.6503416" lon="12.4040946"><ele>350.0</ele><time>2026-03-28T13:59:38.66Z</time></trkpt><trkpt lat="42.6502453" lon="12.4041684"><ele>350.0</ele><time>2026-03-28T13:59:39.669Z</time></trkpt><trkpt lat="42.6501385" lon="12.4042447"><ele>350.0</ele><time>2026-03-28T13:59:40.651Z</time></trkpt><trkpt lat="42.650027" lon="12.404316"><ele>349.8</ele><time>2026-03-28T13:59:41.664Z</time></trkpt><trkpt lat="42.6499278" lon="12.404374"><ele>349.6</ele><time>2026-03-28T13:59:42.646Z</time></trkpt><trkpt lat="42.6498345" lon="12.4044218"><ele>349.4</ele><time>2026-03-28T13:59:43.652Z</time></trkpt><trkpt lat="42.6497405" lon="12.4044537"><ele>349.2</ele><time>2026-03-28T13:59:44.665Z</time></trkpt><trkpt lat="42.6496421" lon="12.4044974"><ele>349.0</ele><time>2026-03-28T13:59:45.661Z</time></trkpt><trkpt lat="42.6495334" lon="12.4045582"><ele>348.5</ele><time>2026-03-28T13:59:46.647Z</time></trkpt><trkpt lat="42.6494131" lon="12.4046345"><ele>348.0</ele><time>2026-03-28T13:59:47.665Z</time></trkpt><trkpt lat="42.6492981" lon="12.4047274"><ele>347.5</ele><time>2026-03-28T13:59:48.653Z</time></trkpt><trkpt lat="42.649182" lon="12.4048345"><ele>347.0</ele><time>2026-03-28T13:59:49.673Z</time></trkpt><trkpt lat="42.6490709" lon="12.4049336"><ele>347.5</ele><time>2026-03-28T13:59:50.664Z</time></trkpt><trkpt lat="42.648955" lon="12.4050243"><ele>348.0</ele><time>2026-03-28T13:59:51.661Z</time></trkpt><trkpt lat="42.6488282" lon="12.4051066"><ele>348.5</ele><time>2026-03-28T13:59:52.648Z</time></trkpt><trkpt lat="42.6486943" lon="12.4051668"><ele>349.0</ele><time>2026-03-28T13:59:53.65Z</time></trkpt><trkpt lat="42.6485609" lon="12.4052348"><ele>349.0</ele><time>2026-03-28T13:59:54.651Z</time></trkpt><trkpt lat="42.6484164" lon="12.4053136"><ele>349.0</ele><time>2026-03-28T13:59:55.678Z</time></trkpt><trkpt lat="42.6482661" lon="12.4053873"><ele>349.0</ele><time>2026-03-28T13:59:56.664Z</time></trkpt><trkpt lat="42.6481065" lon="12.4054495"><ele>350.0</ele><time>2026-03-28T13:59:57.658Z</time></trkpt><trkpt lat="42.6479528" lon="12.4055122"><ele>351.0</ele><time>2026-03-28T13:59:58.673Z</time></trkpt><trkpt lat="42.6478206" lon="12.4055759"><ele>352.0</ele><time>2026-03-28T13:59:59.65Z</time></trkpt><trkpt lat="42.6476991" lon="12.4056316"><ele>353.0</ele><time>2026-03-28T14:00:00.652Z</time></trkpt><trkpt lat="42.6475845" lon="12.405686"><ele>353.0</ele><time>2026-03-28T14:00:01.659Z</time></trkpt><trkpt lat="42.647468" lon="12.4057246"><ele>353.0</ele><time>2026-03-28T14:00:02.65Z</time></trkpt><trkpt lat="42.6473402" lon="12.4057455"><ele>353.0</ele><time>2026-03-28T14:00:03.649Z</time></trkpt><trkpt lat="42.6471992" lon="12.4057458"><ele>353.0</ele><time>2026-03-28T14:00:04.663Z</time></trkpt><trkpt lat="42.6470527" lon="12.4057334"><ele>352.25</ele><time>2026-03-28T14:00:05.66Z</time></trkpt><trkpt lat="42.6469" lon="12.4057161"><ele>351.5</ele><time>2026-03-28T14:00:06.661Z</time></trkpt><trkpt lat="42.6467508" lon="12.4056913"><ele>350.75</ele><time>2026-03-28T14:00:07.657Z</time></trkpt><trkpt lat="42.6466091" lon="12.4056589"><ele>350.0</ele><time>2026-03-28T14:00:08.66Z</time></trkpt><trkpt lat="42.646473" lon="12.4056235"><ele>350.0</ele><time>2026-03-28T14:00:09.646Z</time></trkpt><trkpt lat="42.6463377" lon="12.4055897"><ele>350.0</ele><time>2026-03-28T14:00:10.658Z</time></trkpt><trkpt lat="42.6462033" lon="12.4055605"><ele>350.0</ele><time>2026-03-28T14:00:11.68Z</time></trkpt><trkpt lat="42.6460761" lon="12.4055407"><ele>350.0</ele><time>2026-03-28T14:00:12.659Z</time></trkpt><trkpt lat="42.6459587" lon="12.405531"><ele>350.75</ele><time>2026-03-28T14:00:13.655Z</time></trkpt><trkpt lat="42.6458469" lon="12.4055242"><ele>351.5</ele><time>2026-03-28T14:00:14.65Z</time></trkpt><trkpt lat="42.6457305" lon="12.4055194"><ele>352.25</ele><time>2026-03-28T14:00:15.648Z</time></trkpt><trkpt lat="42.6456085" lon="12.4055181"><ele>353.0</ele><time>2026-03-28T14:00:16.661Z</time></trkpt><trkpt lat="42.6454905" lon="12.4055207"><ele>353.0</ele><time>2026-03-28T14:00:17.658Z</time></trkpt><trkpt lat="42.6453788" lon="12.4055258"><ele>353.0</ele><time>2026-03-28T14:00:18.651Z</time></trkpt><trkpt lat="42.6452736" lon="12.4055246"><ele>353.0</ele><time>2026-03-28T14:00:19.665Z</time></trkpt><trkpt lat="42.6451802" lon="12.4055219"><ele>353.0</ele><time>2026-03-28T14:00:20.655Z</time></trkpt><trkpt lat="42.6450925" lon="12.4055184"><ele>353.0</ele><time>2026-03-28T14:00:21.663Z</time></trkpt><trkpt lat="42.645015" lon="12.4054971"><ele>351.4</ele><time>2026-03-28T14:00:22.655Z</time></trkpt><trkpt lat="42.6449358" lon="12.4054649"><ele>349.79999999999995</ele><time>2026-03-28T14:00:23.65Z</time></trkpt><trkpt lat="42.6448504" lon="12.4054244"><ele>348.2</ele><time>2026-03-28T14:00:24.659Z</time></trkpt><trkpt lat="42.6447591" lon="12.4053691"><ele>346.6</ele><time>2026-03-28T14:00:25.662Z</time></trkpt><trkpt lat="42.6446617" lon="12.4053114"><ele>345.0</ele><time>2026-03-28T14:00:26.675Z</time></trkpt><trkpt lat="42.644565" lon="12.405255"><ele>345.0</ele><time>2026-03-28T14:00:27.66Z</time></trkpt><trkpt lat="42.6444678" lon="12.4052007"><ele>345.0</ele><time>2026-03-28T14:00:28.669Z</time></trkpt><trkpt lat="42.6443677" lon="12.4051477"><ele>345.0</ele><time>2026-03-28T14:00:29.656Z</time></trkpt><trkpt lat="42.6442789" lon="12.4051066"><ele>345.0</ele><time>2026-03-28T14:00:30.655Z</time></trkpt><trkpt lat="42.6441947" lon="12.4050779"><ele>345.0</ele><time>2026-03-28T14:00:31.651Z</time></trkpt><trkpt lat="42.6441009" lon="12.4050677"><ele>345.0</ele><time>2026-03-28T14:00:32.658Z</time></trkpt><trkpt lat="42.6439949" lon="12.4050747"><ele>345.0</ele><time>2026-03-28T14:00:33.646Z</time></trkpt><trkpt lat="42.6438745" lon="12.4050932"><ele>345.0</ele><time>2026-03-28T14:00:34.648Z</time></trkpt><trkpt lat="42.6437311" lon="12.4051191"><ele>345.0</ele><time>2026-03-28T14:00:35.661Z</time></trkpt><trkpt lat="42.6435811" lon="12.4051452"><ele>345.0</ele><time>2026-03-28T14:00:36.647Z</time></trkpt><trkpt lat="42.6434337" lon="12.4051723"><ele>345.0</ele><time>2026-03-28T14:00:37.646Z</time></trkpt><trkpt lat="42.6432914" lon="12.4051948"><ele>345.0</ele><time>2026-03-28T14:00:38.661Z</time></trkpt><trkpt lat="42.6431599" lon="12.4052049"><ele>345.0</ele><time>2026-03-28T14:00:39.653Z</time></trkpt><trkpt lat="42.6430275" lon="12.4052216"><ele>345.0</ele><time>2026-03-28T14:00:40.666Z</time></trkpt><trkpt lat="42.6428944" lon="12.4052384"><ele>345.0</ele><time>2026-03-28T14:00:41.646Z</time></trkpt><trkpt lat="42.6427676" lon="12.4052394"><ele>345.0</ele><time>2026-03-28T14:00:42.663Z</time></trkpt><trkpt lat="42.6426509" lon="12.4052205"><ele>345.0</ele><time>2026-03-28T14:00:43.65Z</time></trkpt><trkpt lat="42.6425348" lon="12.405181"><ele>344.5</ele><time>2026-03-28T14:00:44.66Z</time></trkpt><trkpt lat="42.6424186" lon="12.4051203"><ele>344.0</ele><time>2026-03-28T14:00:45.669Z</time></trkpt><trkpt lat="42.6423009" lon="12.4050574"><ele>343.5</ele><time>2026-03-28T14:00:46.648Z</time></trkpt><trkpt lat="42.6421856" lon="12.4050101"><ele>343.0</ele><time>2026-03-28T14:00:47.66Z</time></trkpt><trkpt lat="42.6420624" lon="12.4049851"><ele>343.2</ele><time>2026-03-28T14:00:48.659Z</time></trkpt><trkpt lat="42.6419429" lon="12.4049817"><ele>343.4</ele><time>2026-03-28T14:00:49.659Z</time></trkpt><trkpt lat="42.6418348" lon="12.4049729"><ele>343.59999999999997</ele><time>2026-03-28T14:00:50.659Z</time></trkpt><trkpt lat="42.6417287" lon="12.4049621"><ele>343.79999999999995</ele><time>2026-03-28T14:00:51.664Z</time></trkpt><trkpt lat="42.6416373" lon="12.4049533"><ele>344.0</ele><time>2026-03-28T14:00:52.674Z</time></trkpt><trkpt lat="42.6415503" lon="12.4049447"><ele>344.0</ele><time>2026-03-28T14:00:53.66Z</time></trkpt><trkpt lat="42.6414837" lon="12.4049415"><ele>344.0</ele><time>2026-03-28T14:00:54.661Z</time></trkpt><trkpt lat="42.6413874" lon="12.4049235"><ele>344.0</ele><time>2026-03-28T14:00:56.659Z</time></trkpt><trkpt lat="42.6412981" lon="12.4049116"><ele>344.0</ele><time>2026-03-28T14:00:58.658Z</time></trkpt><trkpt lat="42.6412328" lon="12.4048909"><ele>344.0</ele><time>2026-03-28T14:01:00.663Z</time></trkpt><trkpt lat="42.6411802" lon="12.404832"><ele>344.0</ele><time>2026-03-28T14:03:09.658Z</time></trkpt><trkpt lat="42.6411515" lon="12.4046996"><ele>343.2</ele><time>2026-03-28T14:03:11.642Z</time></trkpt><trkpt lat="42.6411458" lon="12.4045982"><ele>342.4</ele><time>2026-03-28T14:03:12.657Z</time></trkpt><trkpt lat="42.6411439" lon="12.4044689"><ele>341.6</ele><time>2026-03-28T14:03:13.66Z</time></trkpt><trkpt lat="42.6411479" lon="12.404315"><ele>340.8</ele><time>2026-03-28T14:03:14.656Z</time></trkpt><trkpt lat="42.6411548" lon="12.4041499"><ele>340.0</ele><time>2026-03-28T14:03:15.669Z</time></trkpt><trkpt lat="42.6411626" lon="12.4039706"><ele>340.66666666666663</ele><time>2026-03-28T14:03:16.661Z</time></trkpt><trkpt lat="42.6411702" lon="12.4037693"><ele>341.3333333333333</ele><time>2026-03-28T14:03:17.677Z</time></trkpt><trkpt lat="42.6411752" lon="12.4035439"><ele>342.0</ele><time>2026-03-28T14:03:18.653Z</time></trkpt><trkpt lat="42.6411775" lon="12.4032916"><ele>342.0</ele><time>2026-03-28T14:03:19.654Z</time></trkpt><trkpt lat="42.6411824" lon="12.4030261"><ele>342.0</ele><time>2026-03-28T14:03:20.657Z</time></trkpt><trkpt lat="42.6411888" lon="12.4027465"><ele>342.0</ele><time>2026-03-28T14:03:21.665Z</time></trkpt><trkpt lat="42.641191" lon="12.4024712"><ele>342.6666666666667</ele><time>2026-03-28T14:03:22.668Z</time></trkpt><trkpt lat="42.6411863" lon="12.4022037"><ele>343.33333333333337</ele><time>2026-03-28T14:03:23.662Z</time></trkpt><trkpt lat="42.6411634" lon="12.401939"><ele>344.0</ele><time>2026-03-28T14:03:24.657Z</time></trkpt><trkpt lat="42.641118" lon="12.4016861"><ele>344.0</ele><time>2026-03-28T14:03:25.662Z</time></trkpt><trkpt lat="42.6410458" lon="12.4014498"><ele>344.0</ele><time>2026-03-28T14:03:26.652Z</time></trkpt><trkpt lat="42.6409705" lon="12.4012285"><ele>344.0</ele><time>2026-03-28T14:03:27.671Z</time></trkpt><trkpt lat="42.6409009" lon="12.4010308"><ele>345.75</ele><time>2026-03-28T14:03:28.665Z</time></trkpt><trkpt lat="42.6408519" lon="12.4008485"><ele>347.5</ele><time>2026-03-28T14:03:29.668Z</time></trkpt><trkpt lat="42.6408241" lon="12.4006683"><ele>349.25</ele><time>2026-03-28T14:03:30.669Z</time></trkpt><trkpt lat="42.6408258" lon="12.4004802"><ele>351.0</ele><time>2026-03-28T14:03:31.675Z</time></trkpt><trkpt lat="42.6408707" lon="12.4002903"><ele>352.0</ele><time>2026-03-28T14:03:32.659Z</time></trkpt><trkpt lat="42.6409371" lon="12.4001098"><ele>353.0</ele><time>2026-03-28T14:03:33.658Z</time></trkpt><trkpt lat="42.6410026" lon="12.3999487"><ele>354.0</ele><time>2026-03-28T14:03:34.663Z</time></trkpt><trkpt lat="42.6410429" lon="12.3998099"><ele>355.0</ele><time>2026-03-28T14:03:35.655Z</time></trkpt><trkpt lat="42.6410401" lon="12.3996632"><ele>358.0</ele><time>2026-03-28T14:03:36.665Z</time></trkpt><trkpt lat="42.6409918" lon="12.399527"><ele>361.0</ele><time>2026-03-28T14:03:37.66Z</time></trkpt><trkpt lat="42.640907" lon="12.3994077"><ele>364.0</ele><time>2026-03-28T14:03:38.655Z</time></trkpt><trkpt lat="42.6407857" lon="12.3993007"><ele>367.0</ele><time>2026-03-28T14:03:39.653Z</time></trkpt><trkpt lat="42.6406354" lon="12.3991981"><ele>367.0</ele><time>2026-03-28T14:03:40.664Z</time></trkpt><trkpt lat="42.6404655" lon="12.3990842"><ele>367.0</ele><time>2026-03-28T14:03:41.643Z</time></trkpt><trkpt lat="42.6402911" lon="12.3989827"><ele>367.0</ele><time>2026-03-28T14:03:42.66Z</time></trkpt><trkpt lat="42.6401231" lon="12.3988885"><ele>368.0</ele><time>2026-03-28T14:03:43.651Z</time></trkpt><trkpt lat="42.6399719" lon="12.3988045"><ele>369.0</ele><time>2026-03-28T14:03:44.656Z</time></trkpt><trkpt lat="42.6398379" lon="12.3987053"><ele>370.0</ele><time>2026-03-28T14:03:45.653Z</time></trkpt><trkpt lat="42.6397236" lon="12.398597"><ele>370.0</ele><time>2026-03-28T14:03:46.654Z</time></trkpt><trkpt lat="42.6396366" lon="12.3984673"><ele>370.0</ele><time>2026-03-28T14:03:47.643Z</time></trkpt><trkpt lat="42.6395775" lon="12.3982894"><ele>370.0</ele><time>2026-03-28T14:03:48.659Z</time></trkpt><trkpt lat="42.6395407" lon="12.3980774"><ele>370.0</ele><time>2026-03-28T14:03:49.66Z</time></trkpt><trkpt lat="42.6395117" lon="12.3978519"><ele>372.66666666666663</ele><time>2026-03-28T14:03:50.665Z</time></trkpt><trkpt lat="42.6395261" lon="12.3976106"><ele>375.3333333333333</ele><time>2026-03-28T14:03:51.65Z</time></trkpt><trkpt lat="42.6395888" lon="12.3973395"><ele>378.0</ele><time>2026-03-28T14:03:52.658Z</time></trkpt><trkpt lat="42.6396747" lon="12.3970702"><ele>379.0</ele><time>2026-03-28T14:03:53.658Z</time></trkpt><trkpt lat="42.6397487" lon="12.3968156"><ele>380.0</ele><time>2026-03-28T14:03:54.657Z</time></trkpt><trkpt lat="42.6398048" lon="12.3965684"><ele>381.0</ele><time>2026-03-28T14:03:55.656Z</time></trkpt><trkpt lat="42.6398236" lon="12.3963272"><ele>383.0</ele><time>2026-03-28T14:03:56.667Z</time></trkpt><trkpt lat="42.6398013" lon="12.3961041"><ele>385.0</ele><time>2026-03-28T14:03:57.659Z</time></trkpt><trkpt lat="42.6397309" lon="12.3959124"><ele>387.0</ele><time>2026-03-28T14:03:58.666Z</time></trkpt><trkpt lat="42.639609" lon="12.3957683"><ele>387.0</ele><time>2026-03-28T14:03:59.653Z</time></trkpt><trkpt lat="42.6394704" lon="12.3956384"><ele>387.0</ele><time>2026-03-28T14:04:00.643Z</time></trkpt><trkpt lat="42.6393565" lon="12.3955118"><ele>387.0</ele><time>2026-03-28T14:04:01.661Z</time></trkpt><trkpt lat="42.6392802" lon="12.3953431"><ele>384.6666666666667</ele><time>2026-03-28T14:04:02.658Z</time></trkpt><trkpt lat="42.6392535" lon="12.3951516"><ele>382.33333333333337</ele><time>2026-03-28T14:04:03.665Z</time></trkpt><trkpt lat="42.6392797" lon="12.3949569"><ele>380.0</ele><time>2026-03-28T14:04:04.663Z</time></trkpt><trkpt lat="42.6393576" lon="12.3947552"><ele>384.33333333333337</ele><time>2026-03-28T14:04:05.657Z</time></trkpt><trkpt lat="42.6394733" lon="12.3945718"><ele>388.6666666666667</ele><time>2026-03-28T14:04:06.66Z</time></trkpt><trkpt lat="42.6395923" lon="12.3943967"><ele>393.0</ele><time>2026-03-28T14:04:07.657Z</time></trkpt><trkpt lat="42.6397018" lon="12.3942486"><ele>393.0</ele><time>2026-03-28T14:04:08.664Z</time></trkpt><trkpt lat="42.639794" lon="12.3941051"><ele>393.0</ele><time>2026-03-28T14:04:09.672Z</time></trkpt><trkpt lat="42.6398806" lon="12.3939632"><ele>393.0</ele><time>2026-03-28T14:04:10.651Z</time></trkpt><trkpt lat="42.6399643" lon="12.3938185"><ele>393.0</ele><time>2026-03-28T14:04:11.647Z</time></trkpt><trkpt lat="42.6400515" lon="12.3936796"><ele>391.25</ele><time>2026-03-28T14:04:12.667Z</time></trkpt><trkpt lat="42.6401317" lon="12.3935498"><ele>389.5</ele><time>2026-03-28T14:04:13.658Z</time></trkpt><trkpt lat="42.6402078" lon="12.3934214"><ele>387.75</ele><time>2026-03-28T14:04:14.645Z</time></trkpt><trkpt lat="42.6402814" lon="12.3932974"><ele>386.0</ele><time>2026-03-28T14:04:15.674Z</time></trkpt><trkpt lat="42.6403516" lon="12.3931701"><ele>388.0</ele><time>2026-03-28T14:04:16.654Z</time></trkpt><trkpt lat="42.6404247" lon="12.3930487"><ele>390.0</ele><time>2026-03-28T14:04:17.658Z</time></trkpt><trkpt lat="42.6404967" lon="12.3929277"><ele>392.0</ele><time>2026-03-28T14:04:18.669Z</time></trkpt><trkpt lat="42.640565" lon="12.3928032"><ele>394.0</ele><time>2026-03-28T14:04:19.658Z</time></trkpt><trkpt lat="42.6406373" lon="12.3926743"><ele>394.0</ele><time>2026-03-28T14:04:20.669Z</time></trkpt><trkpt lat="42.6407171" lon="12.3925448"><ele>394.0</ele><time>2026-03-28T14:04:21.701Z</time></trkpt><trkpt lat="42.6407996" lon="12.3924114"><ele>394.0</ele><time>2026-03-28T14:04:22.641Z</time></trkpt><trkpt lat="42.6408804" lon="12.3922846"><ele>394.0</ele><time>2026-03-28T14:04:23.643Z</time></trkpt><trkpt lat="42.6409587" lon="12.3921716"><ele>392.5</ele><time>2026-03-28T14:04:24.65Z</time></trkpt><trkpt lat="42.6410446" lon="12.3920684"><ele>391.0</ele><time>2026-03-28T14:04:25.668Z</time></trkpt><trkpt lat="42.6411503" lon="12.391982"><ele>389.5</ele><time>2026-03-28T14:04:26.65Z</time></trkpt><trkpt lat="42.64128" lon="12.3919098"><ele>388.0</ele><time>2026-03-28T14:04:27.666Z</time></trkpt><trkpt lat="42.6414287" lon="12.3918556"><ele>387.5</ele><time>2026-03-28T14:04:28.65Z</time></trkpt><trkpt lat="42.6415844" lon="12.3918206"><ele>387.0</ele><time>2026-03-28T14:04:29.667Z</time></trkpt><trkpt lat="42.6417303" lon="12.3917949"><ele>386.5</ele><time>2026-03-28T14:04:30.652Z</time></trkpt><trkpt lat="42.6418687" lon="12.3917688"><ele>386.0</ele><time>2026-03-28T14:04:31.654Z</time></trkpt><trkpt lat="42.6419936" lon="12.3917392"><ele>386.0</ele><time>2026-03-28T14:04:32.643Z</time></trkpt><trkpt lat="42.6421085" lon="12.3917134"><ele>386.0</ele><time>2026-03-28T14:04:33.651Z</time></trkpt><trkpt lat="42.6422209" lon="12.3916803"><ele>386.0</ele><time>2026-03-28T14:04:34.645Z</time></trkpt><trkpt lat="42.6423329" lon="12.3916492"><ele>386.0</ele><time>2026-03-28T14:04:35.654Z</time></trkpt><trkpt lat="42.6424436" lon="12.3916201"><ele>386.0</ele><time>2026-03-28T14:04:36.653Z</time></trkpt><trkpt lat="42.6425521" lon="12.3915911"><ele>386.0</ele><time>2026-03-28T14:04:37.661Z</time></trkpt><trkpt lat="42.6426566" lon="12.3915489"><ele>386.0</ele><time>2026-03-28T14:04:38.665Z</time></trkpt><trkpt lat="42.642754" lon="12.3914833"><ele>386.0</ele><time>2026-03-28T14:04:39.648Z</time></trkpt><trkpt lat="42.6428431" lon="12.3913959"><ele>386.0</ele><time>2026-03-28T14:04:40.671Z</time></trkpt><trkpt lat="42.6429165" lon="12.3912739"><ele>385.6</ele><time>2026-03-28T14:04:41.647Z</time></trkpt><trkpt lat="42.64295" lon="12.3911199"><ele>385.20000000000005</ele><time>2026-03-28T14:04:42.655Z</time></trkpt><trkpt lat="42.6429367" lon="12.3909802"><ele>384.79999999999995</ele><time>2026-03-28T14:04:43.651Z</time></trkpt><trkpt lat="42.6428893" lon="12.390845"><ele>384.4</ele><time>2026-03-28T14:04:44.668Z</time></trkpt><trkpt lat="42.6428516" lon="12.3907245"><ele>384.0</ele><time>2026-03-28T14:04:45.65Z</time></trkpt><trkpt lat="42.6428393" lon="12.3905915"><ele>381.6</ele><time>2026-03-28T14:04:46.654Z</time></trkpt><trkpt lat="42.6428396" lon="12.390467"><ele>379.2</ele><time>2026-03-28T14:04:47.666Z</time></trkpt><trkpt lat="42.642858" lon="12.3903472"><ele>376.8</ele><time>2026-03-28T14:04:48.667Z</time></trkpt><trkpt lat="42.6429102" lon="12.3902236"><ele>374.40000000000003</ele><time>2026-03-28T14:04:49.652Z</time></trkpt><trkpt lat="42.6430039" lon="12.390127"><ele>372.0</ele><time>2026-03-28T14:04:50.659Z</time></trkpt><trkpt lat="42.6431157" lon="12.3900883"><ele>372.0</ele><time>2026-03-28T14:04:51.66Z</time></trkpt><trkpt lat="42.6432414" lon="12.3900963"><ele>372.0</ele><time>2026-03-28T14:04:52.672Z</time></trkpt><trkpt lat="42.6433716" lon="12.3901122"><ele>372.0</ele><time>2026-03-28T14:04:53.652Z</time></trkpt><trkpt lat="42.6435103" lon="12.3901364"><ele>372.0</ele><time>2026-03-28T14:04:54.653Z</time></trkpt><trkpt lat="42.6436317" lon="12.390127"><ele>371.75</ele><time>2026-03-28T14:04:55.67Z</time></trkpt><trkpt lat="42.6437541" lon="12.3900692"><ele>371.5</ele><time>2026-03-28T14:04:56.665Z</time></trkpt><trkpt lat="42.6438632" lon="12.3899683"><ele>371.25</ele><time>2026-03-28T14:04:57.662Z</time></trkpt><trkpt lat="42.6439336" lon="12.3898333"><ele>371.0</ele><time>2026-03-28T14:04:58.654Z</time></trkpt><trkpt lat="42.6439698" lon="12.3896676"><ele>371.0</ele><time>2026-03-28T14:04:59.649Z</time></trkpt><trkpt lat="42.6439817" lon="12.3894836"><ele>371.0</ele><time>2026-03-28T14:05:00.651Z</time></trkpt><trkpt lat="42.6439885" lon="12.3892888"><ele>371.0</ele><time>2026-03-28T14:05:01.651Z</time></trkpt><trkpt lat="42.6439986" lon="12.3890917"><ele>371.0</ele><time>2026-03-28T14:05:02.669Z</time></trkpt><trkpt lat="42.6440103" lon="12.3889104"><ele>370.5</ele><time>2026-03-28T14:05:03.654Z</time></trkpt><trkpt lat="42.6440186" lon="12.3887331"><ele>370.0</ele><time>2026-03-28T14:05:04.658Z</time></trkpt><trkpt lat="42.6440277" lon="12.3885629"><ele>369.5</ele><time>2026-03-28T14:05:05.65Z</time></trkpt><trkpt lat="42.6440424" lon="12.388399"><ele>369.0</ele><time>2026-03-28T14:05:06.67Z</time></trkpt><trkpt lat="42.6440701" lon="12.388239"><ele>369.0</ele><time>2026-03-28T14:05:07.667Z</time></trkpt><trkpt lat="42.644125" lon="12.3880848"><ele>369.0</ele><time>2026-03-28T14:05:08.666Z</time></trkpt><trkpt lat="42.6442031" lon="12.3879339"><ele>369.0</ele><time>2026-03-28T14:05:09.667Z</time></trkpt><trkpt lat="42.6442897" lon="12.3877849"><ele>369.0</ele><time>2026-03-28T14:05:10.653Z</time></trkpt><trkpt lat="42.6443737" lon="12.3876306"><ele>368.75</ele><time>2026-03-28T14:05:11.657Z</time></trkpt><trkpt lat="42.6444589" lon="12.3874821"><ele>368.5</ele><time>2026-03-28T14:05:12.649Z</time></trkpt><trkpt lat="42.6445431" lon="12.3873567"><ele>368.25</ele><time>2026-03-28T14:05:13.658Z</time></trkpt><trkpt lat="42.6446331" lon="12.3872486"><ele>368.0</ele><time>2026-03-28T14:05:14.657Z</time></trkpt><trkpt lat="42.6447343" lon="12.3871634"><ele>365.5</ele><time>2026-03-28T14:05:15.667Z</time></trkpt><trkpt lat="42.6448406" lon="12.3870716"><ele>363.0</ele><time>2026-03-28T14:05:16.674Z</time></trkpt><trkpt lat="42.6449671" lon="12.3869897"><ele>360.5</ele><time>2026-03-28T14:05:17.65Z</time></trkpt><trkpt lat="42.6451118" lon="12.3869172"><ele>358.0</ele><time>2026-03-28T14:05:18.65Z</time></trkpt><trkpt lat="42.645262" lon="12.3868491"><ele>358.3333333333333</ele><time>2026-03-28T14:05:19.659Z</time></trkpt><trkpt lat="42.6454068" lon="12.3867739"><ele>358.6666666666667</ele><time>2026-03-28T14:05:20.649Z</time></trkpt><trkpt lat="42.6455485" lon="12.3867045"><ele>359.0</ele><time>2026-03-28T14:05:21.667Z</time></trkpt><trkpt lat="42.6456871" lon="12.3866461"><ele>359.0</ele><time>2026-03-28T14:05:22.667Z</time></trkpt><trkpt lat="42.6458299" lon="12.3865819"><ele>359.0</ele><time>2026-03-28T14:05:23.654Z</time></trkpt><trkpt lat="42.6459748" lon="12.3865189"><ele>359.0</ele><time>2026-03-28T14:05:24.665Z</time></trkpt><trkpt lat="42.646129" lon="12.3864552"><ele>357.6666666666667</ele><time>2026-03-28T14:05:25.654Z</time></trkpt><trkpt lat="42.646295" lon="12.3864006"><ele>356.3333333333333</ele><time>2026-03-28T14:05:26.666Z</time></trkpt><trkpt lat="42.6464794" lon="12.3863427"><ele>355.0</ele><time>2026-03-28T14:05:27.652Z</time></trkpt><trkpt lat="42.6466643" lon="12.3862586"><ele>355.0</ele><time>2026-03-28T14:05:28.66Z</time></trkpt><trkpt lat="42.6468492" lon="12.3861526"><ele>355.0</ele><time>2026-03-28T14:05:29.641Z</time></trkpt><trkpt lat="42.6470227" lon="12.3860343"><ele>355.0</ele><time>2026-03-28T14:05:30.649Z</time></trkpt><trkpt lat="42.6471788" lon="12.3859219"><ele>357.3333333333333</ele><time>2026-03-28T14:05:31.649Z</time></trkpt><trkpt lat="42.647328" lon="12.3858208"><ele>359.6666666666667</ele><time>2026-03-28T14:05:32.643Z</time></trkpt><trkpt lat="42.6474805" lon="12.3857199"><ele>362.0</ele><time>2026-03-28T14:05:33.671Z</time></trkpt><trkpt lat="42.6476309" lon="12.3856101"><ele>359.6666666666667</ele><time>2026-03-28T14:05:34.646Z</time></trkpt><trkpt lat="42.6477731" lon="12.3855072"><ele>357.3333333333333</ele><time>2026-03-28T14:05:35.652Z</time></trkpt><trkpt lat="42.6479068" lon="12.3854019"><ele>355.0</ele><time>2026-03-28T14:05:36.645Z</time></trkpt><trkpt lat="42.6480417" lon="12.3852918"><ele>355.0</ele><time>2026-03-28T14:05:37.65Z</time></trkpt><trkpt lat="42.6481807" lon="12.3851676"><ele>355.0</ele><time>2026-03-28T14:05:38.666Z</time></trkpt><trkpt lat="42.6483159" lon="12.3850166"><ele>355.0</ele><time>2026-03-28T14:05:39.652Z</time></trkpt><trkpt lat="42.6484406" lon="12.3848286"><ele>353.66666666666663</ele><time>2026-03-28T14:05:40.651Z</time></trkpt><trkpt lat="42.6485739" lon="12.384612"><ele>352.3333333333333</ele><time>2026-03-28T14:05:41.666Z</time></trkpt><trkpt lat="42.6487203" lon="12.3843847"><ele>351.0</ele><time>2026-03-28T14:05:42.656Z</time></trkpt><trkpt lat="42.6488932" lon="12.3841498"><ele>352.5</ele><time>2026-03-28T14:05:43.655Z</time></trkpt><trkpt lat="42.6490643" lon="12.3839108"><ele>354.0</ele><time>2026-03-28T14:05:44.662Z</time></trkpt><trkpt lat="42.6492064" lon="12.3837075"><ele>354.0</ele><time>2026-03-28T14:05:45.655Z</time></trkpt><trkpt lat="42.6493221" lon="12.3835427"><ele>354.0</ele><time>2026-03-28T14:05:46.653Z</time></trkpt><trkpt lat="42.6494322" lon="12.3833869"><ele>354.0</ele><time>2026-03-28T14:05:47.653Z</time></trkpt><trkpt lat="42.6495462" lon="12.3832527"><ele>355.75</ele><time>2026-03-28T14:05:48.667Z</time></trkpt><trkpt lat="42.6496693" lon="12.3831553"><ele>357.5</ele><time>2026-03-28T14:05:49.655Z</time></trkpt><trkpt lat="42.6497966" lon="12.3831176"><ele>359.25</ele><time>2026-03-28T14:05:50.652Z</time></trkpt><trkpt lat="42.6499345" lon="12.3831196"><ele>361.0</ele><time>2026-03-28T14:05:51.664Z</time></trkpt><trkpt lat="42.6500744" lon="12.3831535"><ele>361.0</ele><time>2026-03-28T14:05:52.649Z</time></trkpt><trkpt lat="42.6502114" lon="12.3832164"><ele>361.0</ele><time>2026-03-28T14:05:53.661Z</time></trkpt><trkpt lat="42.650363" lon="12.3832479"><ele>361.0</ele><time>2026-03-28T14:05:54.657Z</time></trkpt><trkpt lat="42.6505398" lon="12.3832399"><ele>360.66666666666663</ele><time>2026-03-28T14:05:55.65Z</time></trkpt><trkpt lat="42.6507316" lon="12.3831884"><ele>360.3333333333333</ele><time>2026-03-28T14:05:56.665Z</time></trkpt><trkpt lat="42.65094" lon="12.3831127"><ele>360.0</ele><time>2026-03-28T14:05:57.656Z</time></trkpt><trkpt lat="42.6511611" lon="12.3830345"><ele>362.5</ele><time>2026-03-28T14:05:58.667Z</time></trkpt><trkpt lat="42.6513884" lon="12.3829489"><ele>365.0</ele><time>2026-03-28T14:05:59.676Z</time></trkpt><trkpt lat="42.6516022" lon="12.3828749"><ele>365.0</ele><time>2026-03-28T14:06:00.66Z</time></trkpt><trkpt lat="42.6517952" lon="12.3828036"><ele>365.0</ele><time>2026-03-28T14:06:01.679Z</time></trkpt><trkpt lat="42.6519808" lon="12.3827409"><ele>365.0</ele><time>2026-03-28T14:06:02.659Z</time></trkpt><trkpt lat="42.6521646" lon="12.3827151"><ele>368.6666666666667</ele><time>2026-03-28T14:06:03.649Z</time></trkpt><trkpt lat="42.652353" lon="12.382727"><ele>372.3333333333333</ele><time>2026-03-28T14:06:04.662Z</time></trkpt><trkpt lat="42.6525605" lon="12.3827626"><ele>376.0</ele><time>2026-03-28T14:06:05.666Z</time></trkpt><trkpt lat="42.6527862" lon="12.3828039"><ele>379.0</ele><time>2026-03-28T14:06:06.662Z</time></trkpt><trkpt lat="42.6530318" lon="12.3828477"><ele>382.0</ele><time>2026-03-28T14:06:07.658Z</time></trkpt><trkpt lat="42.6532811" lon="12.3828936"><ele>382.0</ele><time>2026-03-28T14:06:08.666Z</time></trkpt><trkpt lat="42.653532" lon="12.3829361"><ele>382.0</ele><time>2026-03-28T14:06:09.645Z</time></trkpt><trkpt lat="42.6537823" lon="12.382972"><ele>381.5</ele><time>2026-03-28T14:06:10.658Z</time></trkpt><trkpt lat="42.6540357" lon="12.3830021"><ele>381.0</ele><time>2026-03-28T14:06:11.644Z</time></trkpt><trkpt lat="42.6542791" lon="12.3830269"><ele>383.33333333333337</ele><time>2026-03-28T14:06:12.65Z</time></trkpt><trkpt lat="42.6545003" lon="12.3830534"><ele>385.6666666666667</ele><time>2026-03-28T14:06:13.64Z</time></trkpt><trkpt lat="42.6547059" lon="12.3830816"><ele>388.0</ele><time>2026-03-28T14:06:14.666Z</time></trkpt><trkpt lat="42.6548928" lon="12.3831065"><ele>388.0</ele><time>2026-03-28T14:06:15.667Z</time></trkpt><trkpt lat="42.6550776" lon="12.3831358"><ele>388.0</ele><time>2026-03-28T14:06:16.65Z</time></trkpt><trkpt lat="42.6552696" lon="12.3831642"><ele>388.0</ele><time>2026-03-28T14:06:17.665Z</time></trkpt><trkpt lat="42.6554578" lon="12.3831901"><ele>387.33333333333337</ele><time>2026-03-28T14:06:18.657Z</time></trkpt><trkpt lat="42.6556368" lon="12.3832147"><ele>386.66666666666663</ele><time>2026-03-28T14:06:19.653Z</time></trkpt><trkpt lat="42.6557999" lon="12.3832393"><ele>386.0</ele><time>2026-03-28T14:06:20.652Z</time></trkpt><trkpt lat="42.6559612" lon="12.3832699"><ele>386.0</ele><time>2026-03-28T14:06:21.663Z</time></trkpt><trkpt lat="42.6561133" lon="12.3832978"><ele>386.0</ele><time>2026-03-28T14:06:22.663Z</time></trkpt><trkpt lat="42.6562603" lon="12.3833255"><ele>386.0</ele><time>2026-03-28T14:06:23.652Z</time></trkpt><trkpt lat="42.6563994" lon="12.3833543"><ele>386.0</ele><time>2026-03-28T14:06:24.676Z</time></trkpt><trkpt lat="42.6565322" lon="12.3833797"><ele>384.25</ele><time>2026-03-28T14:06:25.665Z</time></trkpt><trkpt lat="42.6566637" lon="12.3834046"><ele>382.5</ele><time>2026-03-28T14:06:26.67Z</time></trkpt><trkpt lat="42.6567943" lon="12.3834145"><ele>380.75</ele><time>2026-03-28T14:06:27.647Z</time></trkpt><trkpt lat="42.6569175" lon="12.3834048"><ele>379.0</ele><time>2026-03-28T14:06:28.648Z</time></trkpt><trkpt lat="42.6570341" lon="12.3833916"><ele>377.0</ele><time>2026-03-28T14:06:29.668Z</time></trkpt><trkpt lat="42.65716" lon="12.3833667"><ele>375.0</ele><time>2026-03-28T14:06:30.65Z</time></trkpt><trkpt lat="42.6572975" lon="12.3833336"><ele>373.0</ele><time>2026-03-28T14:06:31.66Z</time></trkpt><trkpt lat="42.6574429" lon="12.3833002"><ele>371.0</ele><time>2026-03-28T14:06:32.674Z</time></trkpt><trkpt lat="42.6575946" lon="12.3832645"><ele>371.0</ele><time>2026-03-28T14:06:33.665Z</time></trkpt><trkpt lat="42.6577544" lon="12.3832316"><ele>371.0</ele><time>2026-03-28T14:06:34.661Z</time></trkpt><trkpt lat="42.6579175" lon="12.383201"><ele>371.0</ele><time>2026-03-28T14:06:35.661Z</time></trkpt><trkpt lat="42.6580839" lon="12.3831699"><ele>368.33333333333337</ele><time>2026-03-28T14:06:36.647Z</time></trkpt><trkpt lat="42.6582493" lon="12.3831401"><ele>365.6666666666667</ele><time>2026-03-28T14:06:37.663Z</time></trkpt><trkpt lat="42.6584254" lon="12.3831087"><ele>363.0</ele><time>2026-03-28T14:06:38.676Z</time></trkpt><trkpt lat="42.6586105" lon="12.383073"><ele>363.3333333333333</ele><time>2026-03-28T14:06:39.661Z</time></trkpt><trkpt lat="42.6588127" lon="12.3830296"><ele>363.66666666666663</ele><time>2026-03-28T14:06:40.654Z</time></trkpt><trkpt lat="42.65903" lon="12.3829927"><ele>364.0</ele><time>2026-03-28T14:06:41.65Z</time></trkpt><trkpt lat="42.6592661" lon="12.3829506"><ele>362.5</ele><time>2026-03-28T14:06:42.658Z</time></trkpt><trkpt lat="42.6595137" lon="12.3829063"><ele>361.0</ele><time>2026-03-28T14:06:43.652Z</time></trkpt><trkpt lat="42.6597559" lon="12.3828589"><ele>361.0</ele><time>2026-03-28T14:06:44.676Z</time></trkpt><trkpt lat="42.6599925" lon="12.3828122"><ele>361.0</ele><time>2026-03-28T14:06:45.667Z</time></trkpt><trkpt lat="42.6602153" lon="12.3827699"><ele>361.66666666666663</ele><time>2026-03-28T14:06:46.683Z</time></trkpt><trkpt lat="42.6604355" lon="12.3827236"><ele>362.3333333333333</ele><time>2026-03-28T14:06:47.656Z</time></trkpt><trkpt lat="42.6606428" lon="12.3826881"><ele>363.0</ele><time>2026-03-28T14:06:48.664Z</time></trkpt><trkpt lat="42.660827" lon="12.3826506"><ele>363.0</ele><time>2026-03-28T14:06:49.672Z</time></trkpt><trkpt lat="42.6609936" lon="12.3826177"><ele>363.0</ele><time>2026-03-28T14:06:50.667Z</time></trkpt><trkpt lat="42.6611503" lon="12.3825879"><ele>363.0</ele><time>2026-03-28T14:06:51.662Z</time></trkpt><trkpt lat="42.6612998" lon="12.3825574"><ele>364.0</ele><time>2026-03-28T14:06:52.665Z</time></trkpt><trkpt lat="42.6614508" lon="12.3825294"><ele>365.0</ele><time>2026-03-28T14:06:53.66Z</time></trkpt><trkpt lat="42.6616034" lon="12.3825011"><ele>366.0</ele><time>2026-03-28T14:06:54.661Z</time></trkpt><trkpt lat="42.6617506" lon="12.382478"><ele>366.0</ele><time>2026-03-28T14:06:55.659Z</time></trkpt><trkpt lat="42.661892" lon="12.3824521"><ele>366.0</ele><time>2026-03-28T14:06:56.663Z</time></trkpt><trkpt lat="42.6620188" lon="12.3824276"><ele>366.0</ele><time>2026-03-28T14:06:57.663Z</time></trkpt><trkpt lat="42.6621369" lon="12.3824073"><ele>366.0</ele><time>2026-03-28T14:06:58.663Z</time></trkpt><trkpt lat="42.6622559" lon="12.3823918"><ele>367.25</ele><time>2026-03-28T14:06:59.65Z</time></trkpt><trkpt lat="42.6623836" lon="12.382389"><ele>368.5</ele><time>2026-03-28T14:07:00.662Z</time></trkpt><trkpt lat="42.6625189" lon="12.3824098"><ele>369.75</ele><time>2026-03-28T14:07:01.653Z</time></trkpt><trkpt lat="42.6626579" lon="12.3824587"><ele>371.0</ele><time>2026-03-28T14:07:02.664Z</time></trkpt><trkpt lat="42.6627988" lon="12.3825353"><ele>372.6666666666667</ele><time>2026-03-28T14:07:03.661Z</time></trkpt><trkpt lat="42.6629351" lon="12.3826353"><ele>374.3333333333333</ele><time>2026-03-28T14:07:04.665Z</time></trkpt><trkpt lat="42.6630686" lon="12.3827474"><ele>376.0</ele><time>2026-03-28T14:07:05.654Z</time></trkpt><trkpt lat="42.663206" lon="12.3828633"><ele>376.0</ele><time>2026-03-28T14:07:06.675Z</time></trkpt><trkpt lat="42.6633477" lon="12.382976"><ele>376.0</ele><time>2026-03-28T14:07:07.676Z</time></trkpt><trkpt lat="42.6634805" lon="12.3830792"><ele>376.0</ele><time>2026-03-28T14:07:08.653Z</time></trkpt><trkpt lat="42.6635973" lon="12.3831766"><ele>379.75</ele><time>2026-03-28T14:07:09.659Z</time></trkpt><trkpt lat="42.6637091" lon="12.3832688"><ele>383.5</ele><time>2026-03-28T14:07:10.664Z</time></trkpt><trkpt lat="42.6638119" lon="12.383329"><ele>387.25</ele><time>2026-03-28T14:07:11.662Z</time></trkpt><trkpt lat="42.6639253" lon="12.3833573"><ele>391.0</ele><time>2026-03-28T14:07:12.662Z</time></trkpt><trkpt lat="42.6640436" lon="12.383347"><ele>391.0</ele><time>2026-03-28T14:07:13.653Z</time></trkpt><trkpt lat="42.6641515" lon="12.3833083"><ele>391.0</ele><time>2026-03-28T14:07:14.646Z</time></trkpt><trkpt lat="42.6642509" lon="12.3832384"><ele>391.0</ele><time>2026-03-28T14:07:15.651Z</time></trkpt><trkpt lat="42.664362" lon="12.3831289"><ele>391.0</ele><time>2026-03-28T14:07:16.668Z</time></trkpt><trkpt lat="42.6644741" lon="12.3830091"><ele>392.75</ele><time>2026-03-28T14:07:17.656Z</time></trkpt><trkpt lat="42.6645984" lon="12.3828948"><ele>394.5</ele><time>2026-03-28T14:07:18.661Z</time></trkpt><trkpt lat="42.6647335" lon="12.3828092"><ele>396.25</ele><time>2026-03-28T14:07:19.662Z</time></trkpt><trkpt lat="42.6648627" lon="12.3827685"><ele>398.0</ele><time>2026-03-28T14:07:20.651Z</time></trkpt><trkpt lat="42.6649797" lon="12.3827858"><ele>398.0</ele><time>2026-03-28T14:07:21.655Z</time></trkpt><trkpt lat="42.665095" lon="12.382841"><ele>398.0</ele><time>2026-03-28T14:07:22.663Z</time></trkpt><trkpt lat="42.6652093" lon="12.3829275"><ele>398.0</ele><time>2026-03-28T14:07:23.656Z</time></trkpt><trkpt lat="42.6653151" lon="12.3830449"><ele>398.0</ele><time>2026-03-28T14:07:24.65Z</time></trkpt><trkpt lat="42.665439" lon="12.383191"><ele>402.3333333333333</ele><time>2026-03-28T14:07:25.645Z</time></trkpt><trkpt lat="42.665567" lon="12.3833341"><ele>406.66666666666663</ele><time>2026-03-28T14:07:26.649Z</time></trkpt><trkpt lat="42.6656944" lon="12.3834775"><ele>411.0</ele><time>2026-03-28T14:07:27.663Z</time></trkpt><trkpt lat="42.6658251" lon="12.3836247"><ele>411.0</ele><time>2026-03-28T14:07:28.653Z</time></trkpt><trkpt lat="42.6659532" lon="12.3837747"><ele>411.0</ele><time>2026-03-28T14:07:29.666Z</time></trkpt><trkpt lat="42.6660895" lon="12.3839381"><ele>411.0</ele><time>2026-03-28T14:07:30.657Z</time></trkpt><trkpt lat="42.6662434" lon="12.3841326"><ele>412.5</ele><time>2026-03-28T14:07:31.648Z</time></trkpt><trkpt lat="42.6664046" lon="12.3843508"><ele>414.0</ele><time>2026-03-28T14:07:32.66Z</time></trkpt><trkpt lat="42.6665674" lon="12.3845657"><ele>413.66666666666663</ele><time>2026-03-28T14:07:33.658Z</time></trkpt><trkpt lat="42.6667219" lon="12.3847615"><ele>413.3333333333333</ele><time>2026-03-28T14:07:34.654Z</time></trkpt><trkpt lat="42.6668641" lon="12.3849229"><ele>413.0</ele><time>2026-03-28T14:07:35.671Z</time></trkpt><trkpt lat="42.6670099" lon="12.3850378"><ele>413.0</ele><time>2026-03-28T14:07:36.665Z</time></trkpt><trkpt lat="42.6671528" lon="12.3851236"><ele>413.0</ele><time>2026-03-28T14:07:37.665Z</time></trkpt><trkpt lat="42.6672886" lon="12.3851994"><ele>413.0</ele><time>2026-03-28T14:07:38.659Z</time></trkpt><trkpt lat="42.667414" lon="12.3852671"><ele>413.0</ele><time>2026-03-28T14:07:39.66Z</time></trkpt><trkpt lat="42.6675323" lon="12.3853233"><ele>413.0</ele><time>2026-03-28T14:07:40.661Z</time></trkpt><trkpt lat="42.6676548" lon="12.38537"><ele>413.0</ele><time>2026-03-28T14:07:41.646Z</time></trkpt><trkpt lat="42.6677803" lon="12.3853859"><ele>413.0</ele><time>2026-03-28T14:07:42.665Z</time></trkpt><trkpt lat="42.6679192" lon="12.3853497"><ele>413.0</ele><time>2026-03-28T14:07:43.647Z</time></trkpt><trkpt lat="42.6680717" lon="12.3852779"><ele>413.3333333333333</ele><time>2026-03-28T14:07:44.65Z</time></trkpt><trkpt lat="42.6682267" lon="12.385193"><ele>413.66666666666663</ele><time>2026-03-28T14:07:45.661Z</time></trkpt><trkpt lat="42.6683907" lon="12.3851042"><ele>414.0</ele><time>2026-03-28T14:07:46.662Z</time></trkpt><trkpt lat="42.6685616" lon="12.3850123"><ele>414.0</ele><time>2026-03-28T14:07:47.646Z</time></trkpt><trkpt lat="42.6687421" lon="12.3849081"><ele>414.0</ele><time>2026-03-28T14:07:48.669Z</time></trkpt><trkpt lat="42.668906" lon="12.384779"><ele>414.0</ele><time>2026-03-28T14:07:49.647Z</time></trkpt><trkpt lat="42.6690527" lon="12.3846216"><ele>414.0</ele><time>2026-03-28T14:07:50.651Z</time></trkpt><trkpt lat="42.6691843" lon="12.3844318"><ele>414.0</ele><time>2026-03-28T14:07:51.669Z</time></trkpt><trkpt lat="42.6693138" lon="12.3842336"><ele>414.0</ele><time>2026-03-28T14:07:52.643Z</time></trkpt><trkpt lat="42.6694496" lon="12.3840207"><ele>414.66666666666663</ele><time>2026-03-28T14:07:53.662Z</time></trkpt><trkpt lat="42.6695906" lon="12.3838093"><ele>415.3333333333333</ele><time>2026-03-28T14:07:54.654Z</time></trkpt><trkpt lat="42.6697197" lon="12.3836097"><ele>416.0</ele><time>2026-03-28T14:07:55.664Z</time></trkpt><trkpt lat="42.6698397" lon="12.3834232"><ele>416.0</ele><time>2026-03-28T14:07:56.651Z</time></trkpt><trkpt lat="42.6699535" lon="12.3832429"><ele>416.0</ele><time>2026-03-28T14:07:57.678Z</time></trkpt><trkpt lat="42.6700632" lon="12.3830695"><ele>416.0</ele><time>2026-03-28T14:07:58.671Z</time></trkpt><trkpt lat="42.6701701" lon="12.3829078"><ele>417.3333333333333</ele><time>2026-03-28T14:07:59.662Z</time></trkpt><trkpt lat="42.670274" lon="12.3827486"><ele>418.66666666666663</ele><time>2026-03-28T14:08:00.689Z</time></trkpt><trkpt lat="42.6703742" lon="12.3825947"><ele>420.0</ele><time>2026-03-28T14:08:01.659Z</time></trkpt><trkpt lat="42.6704793" lon="12.3824515"><ele>420.66666666666663</ele><time>2026-03-28T14:08:02.649Z</time></trkpt><trkpt lat="42.6705999" lon="12.382324"><ele>421.3333333333333</ele><time>2026-03-28T14:08:03.656Z</time></trkpt><trkpt lat="42.6707425" lon="12.3822119"><ele>422.0</ele><time>2026-03-28T14:08:04.663Z</time></trkpt><trkpt lat="42.6709058" lon="12.3821111"><ele>423.0</ele><time>2026-03-28T14:08:05.671Z</time></trkpt><trkpt lat="42.6710631" lon="12.382016"><ele>424.0</ele><time>2026-03-28T14:08:06.654Z</time></trkpt><trkpt lat="42.6712171" lon="12.3819282"><ele>425.0</ele><time>2026-03-28T14:08:07.665Z</time></trkpt><trkpt lat="42.6713536" lon="12.3818647"><ele>425.0</ele><time>2026-03-28T14:08:08.654Z</time></trkpt><trkpt lat="42.6714841" lon="12.3818167"><ele>425.0</ele><time>2026-03-28T14:08:09.658Z</time></trkpt><trkpt lat="42.6716177" lon="12.3817841"><ele>425.0</ele><time>2026-03-28T14:08:10.646Z</time></trkpt><trkpt lat="42.6717623" lon="12.3817546"><ele>425.0</ele><time>2026-03-28T14:08:11.657Z</time></trkpt><trkpt lat="42.6719275" lon="12.3817308"><ele>424.0</ele><time>2026-03-28T14:08:12.644Z</time></trkpt><trkpt lat="42.6721156" lon="12.3816973"><ele>423.0</ele><time>2026-03-28T14:08:13.643Z</time></trkpt><trkpt lat="42.672328" lon="12.3816633"><ele>422.0</ele><time>2026-03-28T14:08:14.674Z</time></trkpt><trkpt lat="42.6725517" lon="12.3816178"><ele>421.0</ele><time>2026-03-28T14:08:15.655Z</time></trkpt><trkpt lat="42.6727831" lon="12.3815716"><ele>420.0</ele><time>2026-03-28T14:08:16.664Z</time></trkpt><trkpt lat="42.6730058" lon="12.3815316"><ele>420.0</ele><time>2026-03-28T14:08:17.666Z</time></trkpt><trkpt lat="42.6732182" lon="12.3815117"><ele>420.0</ele><time>2026-03-28T14:08:18.66Z</time></trkpt><trkpt lat="42.6734319" lon="12.3815233"><ele>420.0</ele><time>2026-03-28T14:08:19.664Z</time></trkpt><trkpt lat="42.6736455" lon="12.3815489"><ele>421.0</ele><time>2026-03-28T14:08:20.642Z</time></trkpt><trkpt lat="42.6738466" lon="12.3815667"><ele>422.0</ele><time>2026-03-28T14:08:21.646Z</time></trkpt><trkpt lat="42.6740335" lon="12.3815766"><ele>423.0</ele><time>2026-03-28T14:08:22.652Z</time></trkpt><trkpt lat="42.6742106" lon="12.3815723"><ele>423.0</ele><time>2026-03-28T14:08:23.656Z</time></trkpt><trkpt lat="42.6743859" lon="12.3815545"><ele>423.0</ele><time>2026-03-28T14:08:24.673Z</time></trkpt><trkpt lat="42.674561" lon="12.3815365"><ele>423.0</ele><time>2026-03-28T14:08:25.655Z</time></trkpt><trkpt lat="42.6747265" lon="12.3815237"><ele>424.0</ele><time>2026-03-28T14:08:26.647Z</time></trkpt><trkpt lat="42.6748898" lon="12.3815039"><ele>425.0</ele><time>2026-03-28T14:08:27.66Z</time></trkpt><trkpt lat="42.6750484" lon="12.3814757"><ele>426.0</ele><time>2026-03-28T14:08:28.66Z</time></trkpt><trkpt lat="42.6752007" lon="12.3814463"><ele>426.0</ele><time>2026-03-28T14:08:29.665Z</time></trkpt><trkpt lat="42.6753509" lon="12.3814209"><ele>426.0</ele><time>2026-03-28T14:08:30.654Z</time></trkpt><trkpt lat="42.675495" lon="12.3813962"><ele>426.0</ele><time>2026-03-28T14:08:31.656Z</time></trkpt><trkpt lat="42.6756323" lon="12.3813713"><ele>426.0</ele><time>2026-03-28T14:08:32.673Z</time></trkpt><trkpt lat="42.6757676" lon="12.3813416"><ele>426.0</ele><time>2026-03-28T14:08:33.66Z</time></trkpt><trkpt lat="42.6759055" lon="12.3813152"><ele>426.0</ele><time>2026-03-28T14:08:34.659Z</time></trkpt><trkpt lat="42.6760432" lon="12.3812803"><ele>426.0</ele><time>2026-03-28T14:08:35.671Z</time></trkpt><trkpt lat="42.6761825" lon="12.3812501"><ele>426.0</ele><time>2026-03-28T14:08:36.669Z</time></trkpt><trkpt lat="42.6763219" lon="12.3812308"><ele>425.75</ele><time>2026-03-28T14:08:37.664Z</time></trkpt><trkpt lat="42.6764582" lon="12.3812257"><ele>425.5</ele><time>2026-03-28T14:08:38.673Z</time></trkpt><trkpt lat="42.6765913" lon="12.3812244"><ele>425.25</ele><time>2026-03-28T14:08:39.644Z</time></trkpt><trkpt lat="42.6767223" lon="12.3812233"><ele>425.0</ele><time>2026-03-28T14:08:40.669Z</time></trkpt><trkpt lat="42.6768533" lon="12.381217"><ele>425.0</ele><time>2026-03-28T14:08:41.66Z</time></trkpt><trkpt lat="42.6769902" lon="12.381215"><ele>425.0</ele><time>2026-03-28T14:08:42.653Z</time></trkpt><trkpt lat="42.6771308" lon="12.381215"><ele>425.0</ele><time>2026-03-28T14:08:43.657Z</time></trkpt><trkpt lat="42.6772657" lon="12.3812125"><ele>425.0</ele><time>2026-03-28T14:08:44.676Z</time></trkpt><trkpt lat="42.6773938" lon="12.3812066"><ele>425.0</ele><time>2026-03-28T14:08:45.661Z</time></trkpt><trkpt lat="42.6775257" lon="12.3811952"><ele>425.0</ele><time>2026-03-28T14:08:46.661Z</time></trkpt><trkpt lat="42.6776605" lon="12.3811828"><ele>425.0</ele><time>2026-03-28T14:08:47.655Z</time></trkpt><trkpt lat="42.6778022" lon="12.3811637"><ele>425.0</ele><time>2026-03-28T14:08:48.658Z</time></trkpt><trkpt lat="42.6779422" lon="12.3811476"><ele>426.0</ele><time>2026-03-28T14:08:49.655Z</time></trkpt><trkpt lat="42.6780856" lon="12.3811302"><ele>427.0</ele><time>2026-03-28T14:08:50.67Z</time></trkpt><trkpt lat="42.6782329" lon="12.3811128"><ele>428.0</ele><time>2026-03-28T14:08:51.667Z</time></trkpt><trkpt lat="42.6783962" lon="12.3810949"><ele>428.0</ele><time>2026-03-28T14:08:52.655Z</time></trkpt><trkpt lat="42.6785586" lon="12.3810756"><ele>428.0</ele><time>2026-03-28T14:08:53.661Z</time></trkpt><trkpt lat="42.6787244" lon="12.3810563"><ele>428.0</ele><time>2026-03-28T14:08:54.674Z</time></trkpt><trkpt lat="42.678891" lon="12.3810368"><ele>428.66666666666663</ele><time>2026-03-28T14:08:55.661Z</time></trkpt><trkpt lat="42.6790586" lon="12.3810194"><ele>429.33333333333337</ele><time>2026-03-28T14:08:56.659Z</time></trkpt><trkpt lat="42.6792269" lon="12.3810049"><ele>430.0</ele><time>2026-03-28T14:08:57.661Z</time></trkpt><trkpt lat="42.6793971" lon="12.3809906"><ele>429.6666666666667</ele><time>2026-03-28T14:08:58.662Z</time></trkpt><trkpt lat="42.6795699" lon="12.3809752"><ele>429.33333333333337</ele><time>2026-03-28T14:08:59.66Z</time></trkpt><trkpt lat="42.6797466" lon="12.3809598"><ele>429.0</ele><time>2026-03-28T14:09:00.668Z</time></trkpt><trkpt lat="42.6799251" lon="12.3809406"><ele>429.0</ele><time>2026-03-28T14:09:01.663Z</time></trkpt><trkpt lat="42.6801049" lon="12.3809191"><ele>429.0</ele><time>2026-03-28T14:09:02.663Z</time></trkpt><trkpt lat="42.6802851" lon="12.3809003"><ele>429.0</ele><time>2026-03-28T14:09:03.664Z</time></trkpt><trkpt lat="42.6804717" lon="12.380882"><ele>429.66666666666663</ele><time>2026-03-28T14:09:04.664Z</time></trkpt><trkpt lat="42.6806662" lon="12.3808617"><ele>430.3333333333333</ele><time>2026-03-28T14:09:05.686Z</time></trkpt><trkpt lat="42.6808695" lon="12.3808349"><ele>431.0</ele><time>2026-03-28T14:09:06.661Z</time></trkpt><trkpt lat="42.6810761" lon="12.3808061"><ele>432.3333333333333</ele><time>2026-03-28T14:09:07.661Z</time></trkpt><trkpt lat="42.6812826" lon="12.3807785"><ele>433.66666666666663</ele><time>2026-03-28T14:09:08.667Z</time></trkpt><trkpt lat="42.6814873" lon="12.3807534"><ele>435.0</ele><time>2026-03-28T14:09:09.661Z</time></trkpt><trkpt lat="42.6816846" lon="12.3807365"><ele>435.0</ele><time>2026-03-28T14:09:10.66Z</time></trkpt><trkpt lat="42.6818799" lon="12.3807214"><ele>435.0</ele><time>2026-03-28T14:09:11.674Z</time></trkpt><trkpt lat="42.6820729" lon="12.3807144"><ele>435.0</ele><time>2026-03-28T14:09:12.646Z</time></trkpt><trkpt lat="42.6822656" lon="12.3807407"><ele>437.0</ele><time>2026-03-28T14:09:13.667Z</time></trkpt><trkpt lat="42.6824577" lon="12.3808109"><ele>439.0</ele><time>2026-03-28T14:09:14.659Z</time></trkpt><trkpt lat="42.6826549" lon="12.3809093"><ele>441.0</ele><time>2026-03-28T14:09:15.649Z</time></trkpt><trkpt lat="42.6828567" lon="12.3810176"><ele>443.33333333333337</ele><time>2026-03-28T14:09:16.658Z</time></trkpt><trkpt lat="42.6830539" lon="12.3811176"><ele>445.6666666666667</ele><time>2026-03-28T14:09:17.669Z</time></trkpt><trkpt lat="42.6832427" lon="12.3812115"><ele>448.0</ele><time>2026-03-28T14:09:18.658Z</time></trkpt><trkpt lat="42.6834154" lon="12.381306"><ele>447.5</ele><time>2026-03-28T14:09:19.657Z</time></trkpt><trkpt lat="42.6835653" lon="12.3813906"><ele>447.0</ele><time>2026-03-28T14:09:20.667Z</time></trkpt><trkpt lat="42.6836905" lon="12.3814545"><ele>446.5</ele><time>2026-03-28T14:09:21.661Z</time></trkpt><trkpt lat="42.6837881" lon="12.3814895"><ele>446.0</ele><time>2026-03-28T14:09:22.657Z</time></trkpt><trkpt lat="42.683871" lon="12.3815185"><ele>446.66666666666663</ele><time>2026-03-28T14:09:23.642Z</time></trkpt><trkpt lat="42.6839442" lon="12.3815333"><ele>447.3333333333333</ele><time>2026-03-28T14:09:24.659Z</time></trkpt><trkpt lat="42.684025" lon="12.3815336"><ele>448.0</ele><time>2026-03-28T14:09:25.659Z</time></trkpt><trkpt lat="42.6841128" lon="12.3815407"><ele>448.66666666666663</ele><time>2026-03-28T14:09:26.661Z</time></trkpt><trkpt lat="42.6842068" lon="12.3815431"><ele>449.3333333333333</ele><time>2026-03-28T14:09:27.658Z</time></trkpt><trkpt lat="42.6843174" lon="12.3815438"><ele>450.0</ele><time>2026-03-28T14:09:28.668Z</time></trkpt><trkpt lat="42.6844444" lon="12.3815437"><ele>450.75</ele><time>2026-03-28T14:09:29.66Z</time></trkpt><trkpt lat="42.6845777" lon="12.3815359"><ele>451.5</ele><time>2026-03-28T14:09:30.653Z</time></trkpt><trkpt lat="42.6847095" lon="12.3815331"><ele>452.25</ele><time>2026-03-28T14:09:31.662Z</time></trkpt><trkpt lat="42.6848362" lon="12.3815342"><ele>453.0</ele><time>2026-03-28T14:09:32.657Z</time></trkpt><trkpt lat="42.6849572" lon="12.3815342"><ele>453.0</ele><time>2026-03-28T14:09:33.658Z</time></trkpt><trkpt lat="42.6850823" lon="12.3815323"><ele>453.0</ele><time>2026-03-28T14:09:34.656Z</time></trkpt><trkpt lat="42.6852143" lon="12.3815332"><ele>453.0</ele><time>2026-03-28T14:09:35.655Z</time></trkpt><trkpt lat="42.6853434" lon="12.3815364"><ele>453.0</ele><time>2026-03-28T14:09:36.661Z</time></trkpt><trkpt lat="42.6854711" lon="12.3815389"><ele>452.75</ele><time>2026-03-28T14:09:37.655Z</time></trkpt><trkpt lat="42.6855991" lon="12.3815381"><ele>452.5</ele><time>2026-03-28T14:09:38.653Z</time></trkpt><trkpt lat="42.685726" lon="12.3815367"><ele>452.25</ele><time>2026-03-28T14:09:39.639Z</time></trkpt><trkpt lat="42.6858442" lon="12.3815356"><ele>452.0</ele><time>2026-03-28T14:09:40.657Z</time></trkpt><trkpt lat="42.6859519" lon="12.3815283"><ele>452.0</ele><time>2026-03-28T14:09:41.658Z</time></trkpt><trkpt lat="42.6860596" lon="12.3815076"><ele>452.00000000000006</ele><time>2026-03-28T14:09:42.651Z</time></trkpt><trkpt lat="42.6861708" lon="12.3814771"><ele>452.00000000000006</ele><time>2026-03-28T14:09:43.667Z</time></trkpt><trkpt lat="42.6862785" lon="12.3814406"><ele>452.0</ele><time>2026-03-28T14:09:44.653Z</time></trkpt><trkpt lat="42.686381" lon="12.3813883"><ele>452.0</ele><time>2026-03-28T14:09:45.658Z</time></trkpt><trkpt lat="42.6864803" lon="12.3813315"><ele>452.25</ele><time>2026-03-28T14:09:46.656Z</time></trkpt><trkpt lat="42.6865765" lon="12.3812672"><ele>452.5</ele><time>2026-03-28T14:09:47.662Z</time></trkpt><trkpt lat="42.6866767" lon="12.3812082"><ele>452.75</ele><time>2026-03-28T14:09:48.656Z</time></trkpt><trkpt lat="42.686781" lon="12.3811409"><ele>453.0</ele><time>2026-03-28T14:09:49.655Z</time></trkpt><trkpt lat="42.6868898" lon="12.3810757"><ele>453.0</ele><time>2026-03-28T14:09:50.653Z</time></trkpt><trkpt lat="42.6870023" lon="12.3810046"><ele>453.0</ele><time>2026-03-28T14:09:51.653Z</time></trkpt><trkpt lat="42.6871181" lon="12.3809357"><ele>453.0</ele><time>2026-03-28T14:09:52.653Z</time></trkpt><trkpt lat="42.6872304" lon="12.3808624"><ele>453.0</ele><time>2026-03-28T14:09:53.665Z</time></trkpt><trkpt lat="42.6873454" lon="12.3807837"><ele>453.0</ele><time>2026-03-28T14:09:54.667Z</time></trkpt><trkpt lat="42.6874588" lon="12.3807088"><ele>453.0</ele><time>2026-03-28T14:09:55.653Z</time></trkpt><trkpt lat="42.6875742" lon="12.3806373"><ele>453.0</ele><time>2026-03-28T14:09:56.642Z</time></trkpt><trkpt lat="42.6876956" lon="12.3805713"><ele>453.0</ele><time>2026-03-28T14:09:57.659Z</time></trkpt><trkpt lat="42.6878085" lon="12.3805076"><ele>454.25</ele><time>2026-03-28T14:09:58.658Z</time></trkpt><trkpt lat="42.6879241" lon="12.3804433"><ele>455.5</ele><time>2026-03-28T14:09:59.679Z</time></trkpt><trkpt lat="42.6880403" lon="12.3803834"><ele>456.75</ele><time>2026-03-28T14:10:00.655Z</time></trkpt><trkpt lat="42.688156" lon="12.3803316"><ele>458.0</ele><time>2026-03-28T14:10:01.651Z</time></trkpt><trkpt lat="42.6882701" lon="12.380293"><ele>458.0</ele><time>2026-03-28T14:10:02.66Z</time></trkpt><trkpt lat="42.6883843" lon="12.3802592"><ele>458.0</ele><time>2026-03-28T14:10:03.655Z</time></trkpt><trkpt lat="42.6885009" lon="12.3802305"><ele>458.0</ele><time>2026-03-28T14:10:04.661Z</time></trkpt><trkpt lat="42.6886185" lon="12.3802052"><ele>458.0</ele><time>2026-03-28T14:10:05.665Z</time></trkpt><trkpt lat="42.6887361" lon="12.3801836"><ele>459.0</ele><time>2026-03-28T14:10:06.679Z</time></trkpt><trkpt lat="42.6888562" lon="12.3801582"><ele>460.0</ele><time>2026-03-28T14:10:07.651Z</time></trkpt><trkpt lat="42.6889744" lon="12.3801333"><ele>461.0</ele><time>2026-03-28T14:10:08.654Z</time></trkpt><trkpt lat="42.6890909" lon="12.3801052"><ele>462.0</ele><time>2026-03-28T14:10:09.666Z</time></trkpt><trkpt lat="42.6892102" lon="12.3800781"><ele>462.0</ele><time>2026-03-28T14:10:10.651Z</time></trkpt><trkpt lat="42.6893343" lon="12.380051"><ele>462.0</ele><time>2026-03-28T14:10:11.661Z</time></trkpt><trkpt lat="42.6894564" lon="12.3800218"><ele>462.0</ele><time>2026-03-28T14:10:12.66Z</time></trkpt><trkpt lat="42.6895787" lon="12.379994"><ele>462.0</ele><time>2026-03-28T14:10:13.665Z</time></trkpt><trkpt lat="42.6897016" lon="12.3799693"><ele>462.75</ele><time>2026-03-28T14:10:14.656Z</time></trkpt><trkpt lat="42.6898245" lon="12.3799494"><ele>463.5</ele><time>2026-03-28T14:10:15.655Z</time></trkpt><trkpt lat="42.6899484" lon="12.3799387"><ele>464.25</ele><time>2026-03-28T14:10:16.655Z</time></trkpt><trkpt lat="42.690074" lon="12.379934"><ele>465.0</ele><time>2026-03-28T14:10:17.655Z</time></trkpt><trkpt lat="42.6902007" lon="12.3799329"><ele>466.75</ele><time>2026-03-28T14:10:18.671Z</time></trkpt><trkpt lat="42.6903304" lon="12.3799317"><ele>468.5</ele><time>2026-03-28T14:10:19.659Z</time></trkpt><trkpt lat="42.6904633" lon="12.3799303"><ele>470.25</ele><time>2026-03-28T14:10:20.664Z</time></trkpt><trkpt lat="42.6905981" lon="12.3799289"><ele>472.0</ele><time>2026-03-28T14:10:21.664Z</time></trkpt><trkpt lat="42.6907319" lon="12.3799288"><ele>472.0</ele><time>2026-03-28T14:10:22.652Z</time></trkpt><trkpt lat="42.690872" lon="12.3799298"><ele>472.0</ele><time>2026-03-28T14:10:23.66Z</time></trkpt><trkpt lat="42.6910187" lon="12.3799287"><ele>472.0</ele><time>2026-03-28T14:10:24.647Z</time></trkpt><trkpt lat="42.6911712" lon="12.3799304"><ele>472.0</ele><time>2026-03-28T14:10:25.662Z</time></trkpt><trkpt lat="42.6913377" lon="12.3799341"><ele>476.0</ele><time>2026-03-28T14:10:26.66Z</time></trkpt><trkpt lat="42.6915152" lon="12.379932"><ele>480.0</ele><time>2026-03-28T14:10:27.671Z</time></trkpt><trkpt lat="42.6917029" lon="12.3799308"><ele>484.0</ele><time>2026-03-28T14:10:28.649Z</time></trkpt><trkpt lat="42.691899" lon="12.3799289"><ele>486.0</ele><time>2026-03-28T14:10:29.639Z</time></trkpt><trkpt lat="42.6921088" lon="12.3799269"><ele>488.0</ele><time>2026-03-28T14:10:30.643Z</time></trkpt><trkpt lat="42.692336" lon="12.3799271"><ele>490.0</ele><time>2026-03-28T14:10:31.658Z</time></trkpt><trkpt lat="42.6925604" lon="12.3799324"><ele>490.6666666666667</ele><time>2026-03-28T14:10:32.665Z</time></trkpt><trkpt lat="42.6927737" lon="12.379942"><ele>491.33333333333337</ele><time>2026-03-28T14:10:33.665Z</time></trkpt><trkpt lat="42.6929676" lon="12.3799518"><ele>492.0</ele><time>2026-03-28T14:10:34.657Z</time></trkpt><trkpt lat="42.6931471" lon="12.3799542"><ele>492.0</ele><time>2026-03-28T14:10:35.654Z</time></trkpt><trkpt lat="42.6933186" lon="12.3799669"><ele>492.0</ele><time>2026-03-28T14:10:36.667Z</time></trkpt><trkpt lat="42.6934787" lon="12.3800066"><ele>492.0</ele><time>2026-03-28T14:10:37.664Z</time></trkpt><trkpt lat="42.6936207" lon="12.3800848"><ele>493.66666666666663</ele><time>2026-03-28T14:10:38.653Z</time></trkpt><trkpt lat="42.693766" lon="12.3802062"><ele>495.3333333333333</ele><time>2026-03-28T14:10:39.652Z</time></trkpt><trkpt lat="42.6939221" lon="12.3803651"><ele>497.0</ele><time>2026-03-28T14:10:40.667Z</time></trkpt><trkpt lat="42.6940814" lon="12.3805361"><ele>497.0</ele><time>2026-03-28T14:10:41.662Z</time></trkpt><trkpt lat="42.6942374" lon="12.3807023"><ele>497.0</ele><time>2026-03-28T14:10:42.662Z</time></trkpt><trkpt lat="42.6943752" lon="12.3808438"><ele>497.0</ele><time>2026-03-28T14:10:43.677Z</time></trkpt><trkpt lat="42.6945015" lon="12.3809778"><ele>499.0</ele><time>2026-03-28T14:10:44.656Z</time></trkpt><trkpt lat="42.6946269" lon="12.3811081"><ele>501.0</ele><time>2026-03-28T14:10:45.644Z</time></trkpt><trkpt lat="42.6947434" lon="12.3812068"><ele>503.0</ele><time>2026-03-28T14:10:46.666Z</time></trkpt><trkpt lat="42.6948609" lon="12.3812758"><ele>505.0</ele><time>2026-03-28T14:10:47.657Z</time></trkpt><trkpt lat="42.6949762" lon="12.3813122"><ele>505.0</ele><time>2026-03-28T14:10:48.66Z</time></trkpt><trkpt lat="42.6950923" lon="12.3813002"><ele>505.0</ele><time>2026-03-28T14:10:49.662Z</time></trkpt><trkpt lat="42.6952055" lon="12.3812459"><ele>505.0</ele><time>2026-03-28T14:10:50.649Z</time></trkpt><trkpt lat="42.6953088" lon="12.3811371"><ele>505.0</ele><time>2026-03-28T14:10:51.647Z</time></trkpt><trkpt lat="42.6954251" lon="12.3809971"><ele>505.33333333333337</ele><time>2026-03-28T14:10:52.65Z</time></trkpt><trkpt lat="42.69555" lon="12.3808276"><ele>505.66666666666663</ele><time>2026-03-28T14:10:53.654Z</time></trkpt><trkpt lat="42.6956795" lon="12.3806372"><ele>506.0</ele><time>2026-03-28T14:10:54.672Z</time></trkpt><trkpt lat="42.6958102" lon="12.3804495"><ele>505.3333333333333</ele><time>2026-03-28T14:10:55.655Z</time></trkpt><trkpt lat="42.6959313" lon="12.380269"><ele>504.66666666666663</ele><time>2026-03-28T14:10:56.663Z</time></trkpt><trkpt lat="42.696046" lon="12.3800974"><ele>504.0</ele><time>2026-03-28T14:10:57.663Z</time></trkpt><trkpt lat="42.696148" lon="12.379932"><ele>504.0</ele><time>2026-03-28T14:10:58.661Z</time></trkpt><trkpt lat="42.6962382" lon="12.3797611"><ele>504.0</ele><time>2026-03-28T14:10:59.656Z</time></trkpt><trkpt lat="42.6963163" lon="12.3795796"><ele>504.0</ele><time>2026-03-28T14:11:00.655Z</time></trkpt><trkpt lat="42.6963594" lon="12.3793814"><ele>506.25</ele><time>2026-03-28T14:11:01.666Z</time></trkpt><trkpt lat="42.6963688" lon="12.3791738"><ele>508.5</ele><time>2026-03-28T14:11:02.663Z</time></trkpt><trkpt lat="42.696367" lon="12.3789771"><ele>510.75</ele><time>2026-03-28T14:11:03.655Z</time></trkpt><trkpt lat="42.6963583" lon="12.378798"><ele>513.0</ele><time>2026-03-28T14:11:04.667Z</time></trkpt><trkpt lat="42.6963562" lon="12.3786185"><ele>514.75</ele><time>2026-03-28T14:11:05.658Z</time></trkpt><trkpt lat="42.6963567" lon="12.3784385"><ele>516.5</ele><time>2026-03-28T14:11:06.659Z</time></trkpt><trkpt lat="42.6963735" lon="12.3782727"><ele>518.25</ele><time>2026-03-28T14:11:07.663Z</time></trkpt><trkpt lat="42.6964227" lon="12.3781272"><ele>520.0</ele><time>2026-03-28T14:11:08.668Z</time></trkpt><trkpt lat="42.6965058" lon="12.3779996"><ele>520.25</ele><time>2026-03-28T14:11:09.676Z</time></trkpt><trkpt lat="42.6966121" lon="12.3779024"><ele>520.5</ele><time>2026-03-28T14:11:10.653Z</time></trkpt><trkpt lat="42.6967306" lon="12.3778184"><ele>520.75</ele><time>2026-03-28T14:11:11.665Z</time></trkpt><trkpt lat="42.6968696" lon="12.3777153"><ele>521.0</ele><time>2026-03-28T14:11:12.656Z</time></trkpt><trkpt lat="42.6970043" lon="12.3775966"><ele>521.0</ele><time>2026-03-28T14:11:13.652Z</time></trkpt><trkpt lat="42.6971344" lon="12.3774633"><ele>521.0</ele><time>2026-03-28T14:11:14.668Z</time></trkpt><trkpt lat="42.6972713" lon="12.3773224"><ele>521.0</ele><time>2026-03-28T14:11:15.675Z</time></trkpt><trkpt lat="42.6974092" lon="12.3771814"><ele>522.6666666666666</ele><time>2026-03-28T14:11:16.663Z</time></trkpt><trkpt lat="42.6975479" lon="12.3770367"><ele>524.3333333333334</ele><time>2026-03-28T14:11:17.652Z</time></trkpt><trkpt lat="42.6976814" lon="12.3768958"><ele>526.0</ele><time>2026-03-28T14:11:18.668Z</time></trkpt><trkpt lat="42.6978084" lon="12.3767484"><ele>526.0</ele><time>2026-03-28T14:11:19.646Z</time></trkpt><trkpt lat="42.6979341" lon="12.3765604"><ele>526.0</ele><time>2026-03-28T14:11:20.646Z</time></trkpt><trkpt lat="42.698058" lon="12.3763454"><ele>526.0</ele><time>2026-03-28T14:11:21.656Z</time></trkpt><trkpt lat="42.6981827" lon="12.3761146"><ele>529.6666666666667</ele><time>2026-03-28T14:11:22.649Z</time></trkpt><trkpt lat="42.6983097" lon="12.3758759"><ele>533.3333333333334</ele><time>2026-03-28T14:11:23.659Z</time></trkpt><trkpt lat="42.6984443" lon="12.3756384"><ele>537.0</ele><time>2026-03-28T14:11:24.667Z</time></trkpt><trkpt lat="42.698575" lon="12.3754108"><ele>535.6666666666666</ele><time>2026-03-28T14:11:25.658Z</time></trkpt><trkpt lat="42.6986984" lon="12.3751998"><ele>534.3333333333333</ele><time>2026-03-28T14:11:26.661Z</time></trkpt><trkpt lat="42.6988072" lon="12.3749989"><ele>533.0</ele><time>2026-03-28T14:11:27.657Z</time></trkpt><trkpt lat="42.6989109" lon="12.3748123"><ele>534.6666666666666</ele><time>2026-03-28T14:11:28.663Z</time></trkpt><trkpt lat="42.6990047" lon="12.3746329"><ele>536.3333333333334</ele><time>2026-03-28T14:11:29.668Z</time></trkpt><trkpt lat="42.6990951" lon="12.374459"><ele>538.0</ele><time>2026-03-28T14:11:30.651Z</time></trkpt><trkpt lat="42.6991787" lon="12.3742959"><ele>538.0</ele><time>2026-03-28T14:11:31.652Z</time></trkpt><trkpt lat="42.6992529" lon="12.3741322"><ele>538.0</ele><time>2026-03-28T14:11:32.656Z</time></trkpt><trkpt lat="42.6993247" lon="12.3739773"><ele>538.0</ele><time>2026-03-28T14:11:33.651Z</time></trkpt><trkpt lat="42.6993933" lon="12.3738277"><ele>538.0</ele><time>2026-03-28T14:11:34.675Z</time></trkpt><trkpt lat="42.699461" lon="12.3736723"><ele>535.3333333333334</ele><time>2026-03-28T14:11:35.645Z</time></trkpt><trkpt lat="42.6995345" lon="12.3735009"><ele>532.6666666666666</ele><time>2026-03-28T14:11:36.664Z</time></trkpt><trkpt lat="42.6996211" lon="12.3733256"><ele>530.0</ele><time>2026-03-28T14:11:37.659Z</time></trkpt><trkpt lat="42.6997094" lon="12.3731518"><ele>531.25</ele><time>2026-03-28T14:11:38.658Z</time></trkpt><trkpt lat="42.6998036" lon="12.3729824"><ele>532.5</ele><time>2026-03-28T14:11:39.669Z</time></trkpt><trkpt lat="42.6999102" lon="12.3728361"><ele>533.75</ele><time>2026-03-28T14:11:40.651Z</time></trkpt><trkpt lat="42.7000232" lon="12.3727281"><ele>535.0</ele><time>2026-03-28T14:11:41.651Z</time></trkpt><trkpt lat="42.7001427" lon="12.3726523"><ele>533.75</ele><time>2026-03-28T14:11:42.656Z</time></trkpt><trkpt lat="42.7002734" lon="12.3726072"><ele>532.5</ele><time>2026-03-28T14:11:43.65Z</time></trkpt><trkpt lat="42.7004131" lon="12.3725767"><ele>531.25</ele><time>2026-03-28T14:11:44.655Z</time></trkpt><trkpt lat="42.7005579" lon="12.3725559"><ele>530.0</ele><time>2026-03-28T14:11:45.65Z</time></trkpt><trkpt lat="42.7007061" lon="12.372542"><ele>530.0</ele><time>2026-03-28T14:11:46.663Z</time></trkpt><trkpt lat="42.7008417" lon="12.3725294"><ele>530.0</ele><time>2026-03-28T14:11:47.651Z</time></trkpt><trkpt lat="42.7009646" lon="12.3725163"><ele>530.0</ele><time>2026-03-28T14:11:48.653Z</time></trkpt><trkpt lat="42.7010806" lon="12.3724942"><ele>530.0</ele><time>2026-03-28T14:11:49.66Z</time></trkpt><trkpt lat="42.7011951" lon="12.3724774"><ele>529.4</ele><time>2026-03-28T14:11:50.659Z</time></trkpt><trkpt lat="42.7013" lon="12.3724683"><ele>528.8</ele><time>2026-03-28T14:11:51.659Z</time></trkpt><trkpt lat="42.7013991" lon="12.3724636"><ele>528.2</ele><time>2026-03-28T14:11:52.647Z</time></trkpt><trkpt lat="42.7015051" lon="12.3724589"><ele>527.6</ele><time>2026-03-28T14:11:53.647Z</time></trkpt><trkpt lat="42.7016283" lon="12.3724616"><ele>527.0</ele><time>2026-03-28T14:11:54.651Z</time></trkpt><trkpt lat="42.7017653" lon="12.372479"><ele>527.0</ele><time>2026-03-28T14:11:55.676Z</time></trkpt><trkpt lat="42.7019138" lon="12.3725107"><ele>527.0</ele><time>2026-03-28T14:11:56.658Z</time></trkpt><trkpt lat="42.7020636" lon="12.3725554"><ele>527.0</ele><time>2026-03-28T14:11:57.643Z</time></trkpt><trkpt lat="42.7022061" lon="12.3726051"><ele>526.5</ele><time>2026-03-28T14:11:58.655Z</time></trkpt><trkpt lat="42.7023448" lon="12.3726536"><ele>526.0</ele><time>2026-03-28T14:11:59.653Z</time></trkpt><trkpt lat="42.7024773" lon="12.3726951"><ele>525.5</ele><time>2026-03-28T14:12:00.648Z</time></trkpt><trkpt lat="42.7026038" lon="12.3727319"><ele>525.0</ele><time>2026-03-28T14:12:01.676Z</time></trkpt><trkpt lat="42.7027296" lon="12.3727672"><ele>524.5</ele><time>2026-03-28T14:12:02.668Z</time></trkpt><trkpt lat="42.7028615" lon="12.3728056"><ele>524.0</ele><time>2026-03-28T14:12:03.654Z</time></trkpt><trkpt lat="42.7029987" lon="12.3728377"><ele>523.5</ele><time>2026-03-28T14:12:04.657Z</time></trkpt><trkpt lat="42.7031404" lon="12.372865"><ele>523.0</ele><time>2026-03-28T14:12:05.663Z</time></trkpt><trkpt lat="42.7032759" lon="12.3728941"><ele>523.0</ele><time>2026-03-28T14:12:06.667Z</time></trkpt><trkpt lat="42.7034148" lon="12.3729223"><ele>523.0</ele><time>2026-03-28T14:12:07.654Z</time></trkpt><trkpt lat="42.7035607" lon="12.3729506"><ele>523.0</ele><time>2026-03-28T14:12:08.656Z</time></trkpt><trkpt lat="42.7037159" lon="12.3729814"><ele>523.0</ele><time>2026-03-28T14:12:09.682Z</time></trkpt><trkpt lat="42.7038725" lon="12.3730065"><ele>523.0</ele><time>2026-03-28T14:12:10.662Z</time></trkpt><trkpt lat="42.7040212" lon="12.3730299"><ele>523.0</ele><time>2026-03-28T14:12:11.662Z</time></trkpt><trkpt lat="42.7041608" lon="12.3730468"><ele>523.0</ele><time>2026-03-28T14:12:12.672Z</time></trkpt><trkpt lat="42.7042933" lon="12.3730629"><ele>523.0</ele><time>2026-03-28T14:12:13.666Z</time></trkpt><trkpt lat="42.7044213" lon="12.37308"><ele>523.4</ele><time>2026-03-28T14:12:14.652Z</time></trkpt><trkpt lat="42.7045426" lon="12.3730982"><ele>523.8</ele><time>2026-03-28T14:12:15.642Z</time></trkpt><trkpt lat="42.7046436" lon="12.3731242"><ele>524.2</ele><time>2026-03-28T14:12:16.644Z</time></trkpt><trkpt lat="42.7047382" lon="12.3731484"><ele>524.6</ele><time>2026-03-28T14:12:17.676Z</time></trkpt><trkpt lat="42.7048282" lon="12.3731698"><ele>525.0</ele><time>2026-03-28T14:12:18.647Z</time></trkpt><trkpt lat="42.7049114" lon="12.3731891"><ele>525.0</ele><time>2026-03-28T14:12:19.658Z</time></trkpt><trkpt lat="42.7049826" lon="12.3732077"><ele>525.0</ele><time>2026-03-28T14:12:20.653Z</time></trkpt><trkpt lat="42.7050546" lon="12.3732256"><ele>525.0</ele><time>2026-03-28T14:12:21.665Z</time></trkpt><trkpt lat="42.7051191" lon="12.3732434"><ele>525.0</ele><time>2026-03-28T14:12:22.65Z</time></trkpt><trkpt lat="42.7052447" lon="12.3732622"><ele>525.0</ele><time>2026-03-28T14:12:24.655Z</time></trkpt><trkpt lat="42.7053139" lon="12.3732752"><ele>525.0</ele><time>2026-03-28T14:12:25.654Z</time></trkpt><trkpt lat="42.7053831" lon="12.3732963"><ele>526.6</ele><time>2026-03-28T14:12:26.662Z</time></trkpt><trkpt lat="42.7054599" lon="12.3733469"><ele>528.2</ele><time>2026-03-28T14:12:27.647Z</time></trkpt><trkpt lat="42.7055379" lon="12.3734204"><ele>529.8</ele><time>2026-03-28T14:12:28.643Z</time></trkpt><trkpt lat="42.7056104" lon="12.3734997"><ele>531.4</ele><time>2026-03-28T14:12:29.667Z</time></trkpt><trkpt lat="42.7056856" lon="12.3735696"><ele>533.0</ele><time>2026-03-28T14:12:30.657Z</time></trkpt><trkpt lat="42.7057616" lon="12.3736421"><ele>533.0</ele><time>2026-03-28T14:12:31.661Z</time></trkpt><trkpt lat="42.7058273" lon="12.3737178"><ele>533.0</ele><time>2026-03-28T14:12:32.663Z</time></trkpt><trkpt lat="42.7058779" lon="12.3738009"><ele>533.0</ele><time>2026-03-28T14:12:33.651Z</time></trkpt><trkpt lat="42.7059246" lon="12.3738845"><ele>533.0</ele><time>2026-03-28T14:12:34.655Z</time></trkpt><trkpt lat="42.7059647" lon="12.3739747"><ele>533.0</ele><time>2026-03-28T14:12:35.654Z</time></trkpt><trkpt lat="42.7059966" lon="12.3740742"><ele>533.0</ele><time>2026-03-28T14:12:36.66Z</time></trkpt><trkpt lat="42.7060293" lon="12.374185"><ele>533.8</ele><time>2026-03-28T14:12:37.673Z</time></trkpt><trkpt lat="42.7060767" lon="12.3742913"><ele>534.5999999999999</ele><time>2026-03-28T14:12:38.651Z</time></trkpt><trkpt lat="42.7061285" lon="12.3744004"><ele>535.4000000000001</ele><time>2026-03-28T14:12:39.649Z</time></trkpt><trkpt lat="42.706174" lon="12.3745062"><ele>536.2</ele><time>2026-03-28T14:12:40.678Z</time></trkpt><trkpt lat="42.706217" lon="12.374616"><ele>537.0</ele><time>2026-03-28T14:12:41.654Z</time></trkpt><trkpt lat="42.7062666" lon="12.3747366"><ele>540.0</ele><time>2026-03-28T14:12:42.647Z</time></trkpt><trkpt lat="42.7063139" lon="12.3748506"><ele>543.0</ele><time>2026-03-28T14:12:43.67Z</time></trkpt><trkpt lat="42.7063608" lon="12.3749478"><ele>546.0</ele><time>2026-03-28T14:12:44.642Z</time></trkpt><trkpt lat="42.7063987" lon="12.3750309"><ele>549.0</ele><time>2026-03-28T14:12:45.657Z</time></trkpt><trkpt lat="42.70643" lon="12.3751147"><ele>552.0</ele><time>2026-03-28T14:12:46.669Z</time></trkpt><trkpt lat="42.7064661" lon="12.3752003"><ele>555.0</ele><time>2026-03-28T14:12:47.651Z</time></trkpt><trkpt lat="42.706512" lon="12.3752935"><ele>555.0</ele><time>2026-03-28T14:12:48.67Z</time></trkpt><trkpt lat="42.7065598" lon="12.375394"><ele>555.0</ele><time>2026-03-28T14:12:49.672Z</time></trkpt><trkpt lat="42.7066059" lon="12.3755099"><ele>555.0</ele><time>2026-03-28T14:12:50.654Z</time></trkpt><trkpt lat="42.7066635" lon="12.3756375"><ele>555.0</ele><time>2026-03-28T14:12:51.647Z</time></trkpt><trkpt lat="42.7067292" lon="12.3757655"><ele>555.0</ele><time>2026-03-28T14:12:52.67Z</time></trkpt><trkpt lat="42.7068088" lon="12.3758837"><ele>554.75</ele><time>2026-03-28T14:12:53.655Z</time></trkpt><trkpt lat="42.7068885" lon="12.3760003"><ele>554.5</ele><time>2026-03-28T14:12:54.669Z</time></trkpt><trkpt lat="42.7069689" lon="12.376122"><ele>554.25</ele><time>2026-03-28T14:12:55.659Z</time></trkpt><trkpt lat="42.7070468" lon="12.3762348"><ele>554.0</ele><time>2026-03-28T14:12:56.665Z</time></trkpt><trkpt lat="42.707115" lon="12.3763423"><ele>555.4</ele><time>2026-03-28T14:12:57.646Z</time></trkpt><trkpt lat="42.7071834" lon="12.3764372"><ele>556.8</ele><time>2026-03-28T14:12:58.657Z</time></trkpt><trkpt lat="42.7072599" lon="12.3765183"><ele>558.2</ele><time>2026-03-28T14:12:59.65Z</time></trkpt><trkpt lat="42.7073426" lon="12.3765968"><ele>559.6</ele><time>2026-03-28T14:13:00.665Z</time></trkpt><trkpt lat="42.7074252" lon="12.3766803"><ele>561.0</ele><time>2026-03-28T14:13:01.662Z</time></trkpt><trkpt lat="42.7075048" lon="12.3767554"><ele>561.0</ele><time>2026-03-28T14:13:02.657Z</time></trkpt><trkpt lat="42.707583" lon="12.3768168"><ele>561.0</ele><time>2026-03-28T14:13:03.662Z</time></trkpt><trkpt lat="42.7076692" lon="12.3768651"><ele>561.0</ele><time>2026-03-28T14:13:04.653Z</time></trkpt><trkpt lat="42.7077583" lon="12.376915"><ele>561.0</ele><time>2026-03-28T14:13:05.655Z</time></trkpt><trkpt lat="42.7078441" lon="12.3769766"><ele>561.0</ele><time>2026-03-28T14:13:06.671Z</time></trkpt><trkpt lat="42.7079288" lon="12.3770437"><ele>560.2</ele><time>2026-03-28T14:13:07.654Z</time></trkpt><trkpt lat="42.7080207" lon="12.3771169"><ele>559.4000000000001</ele><time>2026-03-28T14:13:08.67Z</time></trkpt><trkpt lat="42.7081152" lon="12.3772061"><ele>558.6</ele><time>2026-03-28T14:13:09.651Z</time></trkpt><trkpt lat="42.7082056" lon="12.3772943"><ele>557.8000000000001</ele><time>2026-03-28T14:13:10.658Z</time></trkpt><trkpt lat="42.708297" lon="12.3773735"><ele>557.0</ele><time>2026-03-28T14:13:11.657Z</time></trkpt><trkpt lat="42.7083876" lon="12.3774488"><ele>559.0</ele><time>2026-03-28T14:13:12.664Z</time></trkpt><trkpt lat="42.7084681" lon="12.3775298"><ele>561.0</ele><time>2026-03-28T14:13:13.666Z</time></trkpt><trkpt lat="42.708534" lon="12.37761"><ele>563.0</ele><time>2026-03-28T14:13:14.659Z</time></trkpt><trkpt lat="42.7086001" lon="12.3777004"><ele>565.0</ele><time>2026-03-28T14:13:15.642Z</time></trkpt><trkpt lat="42.7086688" lon="12.3778046"><ele>567.0</ele><time>2026-03-28T14:13:16.664Z</time></trkpt><trkpt lat="42.7087325" lon="12.377918"><ele>567.6666666666666</ele><time>2026-03-28T14:13:17.656Z</time></trkpt><trkpt lat="42.7087906" lon="12.3780395"><ele>568.3333333333334</ele><time>2026-03-28T14:13:18.648Z</time></trkpt><trkpt lat="42.7088366" lon="12.3781483"><ele>569.0</ele><time>2026-03-28T14:13:19.658Z</time></trkpt><trkpt lat="42.7088731" lon="12.3782326"><ele>569.6666666666667</ele><time>2026-03-28T14:13:20.665Z</time></trkpt><trkpt lat="42.7089189" lon="12.3782969"><ele>570.3333333333334</ele><time>2026-03-28T14:13:21.658Z</time></trkpt><trkpt lat="42.7089783" lon="12.3783431"><ele>571.0</ele><time>2026-03-28T14:13:22.649Z</time></trkpt><trkpt lat="42.7090477" lon="12.3783719"><ele>571.0</ele><time>2026-03-28T14:13:23.652Z</time></trkpt><trkpt lat="42.7091228" lon="12.3783815"><ele>571.0</ele><time>2026-03-28T14:13:24.658Z</time></trkpt><trkpt lat="42.7091868" lon="12.3784059"><ele>571.0</ele><time>2026-03-28T14:13:25.66Z</time></trkpt><trkpt lat="42.7092472" lon="12.3784388"><ele>571.0</ele><time>2026-03-28T14:13:26.657Z</time></trkpt><trkpt lat="42.7093132" lon="12.3784628"><ele>571.0</ele><time>2026-03-28T14:13:27.683Z</time></trkpt><trkpt lat="42.7094295" lon="12.3784827"><ele>571.0</ele><time>2026-03-28T14:13:29.656Z</time></trkpt><trkpt lat="42.7095474" lon="12.3784954"><ele>570.4285714285714</ele><time>2026-03-28T14:13:31.646Z</time></trkpt><trkpt lat="42.7096107" lon="12.3784909"><ele>569.8571428571429</ele><time>2026-03-28T14:13:32.663Z</time></trkpt><trkpt lat="42.7096732" lon="12.3784804"><ele>569.2857142857142</ele><time>2026-03-28T14:13:33.677Z</time></trkpt><trkpt lat="42.7097376" lon="12.3784624"><ele>568.7142857142858</ele><time>2026-03-28T14:13:34.637Z</time></trkpt><trkpt lat="42.7098074" lon="12.3784365"><ele>568.1428571428571</ele><time>2026-03-28T14:13:35.662Z</time></trkpt><trkpt lat="42.7098882" lon="12.3783962"><ele>567.5714285714286</ele><time>2026-03-28T14:13:36.664Z</time></trkpt><trkpt lat="42.7099685" lon="12.3783482"><ele>567.0</ele><time>2026-03-28T14:13:37.656Z</time></trkpt><trkpt lat="42.7100477" lon="12.3783016"><ele>567.0</ele><time>2026-03-28T14:13:38.664Z</time></trkpt><trkpt lat="42.7101273" lon="12.3782582"><ele>567.0</ele><time>2026-03-28T14:13:39.652Z</time></trkpt><trkpt lat="42.7102091" lon="12.3782199"><ele>567.0</ele><time>2026-03-28T14:13:40.663Z</time></trkpt><trkpt lat="42.7102958" lon="12.3781908"><ele>567.0</ele><time>2026-03-28T14:13:41.666Z</time></trkpt><trkpt lat="42.7103848" lon="12.3781715"><ele>567.0</ele><time>2026-03-28T14:13:42.659Z</time></trkpt><trkpt lat="42.7104829" lon="12.3781617"><ele>565.5</ele><time>2026-03-28T14:13:43.659Z</time></trkpt><trkpt lat="42.710581" lon="12.3781619"><ele>564.0</ele><time>2026-03-28T14:13:44.677Z</time></trkpt><trkpt lat="42.7106717" lon="12.378167"><ele>562.5</ele><time>2026-03-28T14:13:45.66Z</time></trkpt><trkpt lat="42.7107582" lon="12.3781738"><ele>561.0</ele><time>2026-03-28T14:13:46.662Z</time></trkpt><trkpt lat="42.7108381" lon="12.3781822"><ele>559.5</ele><time>2026-03-28T14:13:47.65Z</time></trkpt><trkpt lat="42.7109131" lon="12.3781846"><ele>558.0</ele><time>2026-03-28T14:13:48.66Z</time></trkpt><trkpt lat="42.7109867" lon="12.3781831"><ele>557.9999999999999</ele><time>2026-03-28T14:13:49.657Z</time></trkpt><trkpt lat="42.7110607" lon="12.3781777"><ele>558.0</ele><time>2026-03-28T14:13:50.651Z</time></trkpt><trkpt lat="42.7111354" lon="12.3781742"><ele>558.0</ele><time>2026-03-28T14:13:51.654Z</time></trkpt><trkpt lat="42.7112073" lon="12.3781767"><ele>558.0</ele><time>2026-03-28T14:13:52.651Z</time></trkpt><trkpt lat="42.7112754" lon="12.3781774"><ele>558.0</ele><time>2026-03-28T14:13:53.65Z</time></trkpt><trkpt lat="42.7113454" lon="12.3781741"><ele>557.9999999999999</ele><time>2026-03-28T14:13:54.668Z</time></trkpt><trkpt lat="42.7114123" lon="12.3781806"><ele>558.0</ele><time>2026-03-28T14:13:55.681Z</time></trkpt><trkpt lat="42.7114758" lon="12.3781991"><ele>556.0</ele><time>2026-03-28T14:13:56.655Z</time></trkpt><trkpt lat="42.71158" lon="12.3782778"><ele>554.0</ele><time>2026-03-28T14:13:58.656Z</time></trkpt><trkpt lat="42.7116963" lon="12.3783766"><ele>552.0</ele><time>2026-03-28T14:14:00.669Z</time></trkpt><trkpt lat="42.7117887" lon="12.3784229"><ele>550.0</ele><time>2026-03-28T14:14:01.658Z</time></trkpt><trkpt lat="42.7119028" lon="12.3784677"><ele>548.0</ele><time>2026-03-28T14:14:02.652Z</time></trkpt><trkpt lat="42.7120244" lon="12.3785182"><ele>546.0</ele><time>2026-03-28T14:14:03.654Z</time></trkpt><trkpt lat="42.7121521" lon="12.3785684"><ele>544.0</ele><time>2026-03-28T14:14:04.663Z</time></trkpt><trkpt lat="42.7122801" lon="12.3786256"><ele>542.0</ele><time>2026-03-28T14:14:05.649Z</time></trkpt><trkpt lat="42.7124101" lon="12.3786795"><ele>542.0</ele><time>2026-03-28T14:14:06.659Z</time></trkpt><trkpt lat="42.7125434" lon="12.3787348"><ele>542.0</ele><time>2026-03-28T14:14:07.663Z</time></trkpt><trkpt lat="42.7126848" lon="12.3787994"><ele>542.0</ele><time>2026-03-28T14:14:08.678Z</time></trkpt><trkpt lat="42.712827" lon="12.3788839"><ele>542.0</ele><time>2026-03-28T14:14:09.664Z</time></trkpt><trkpt lat="42.7129671" lon="12.3790072"><ele>541.3333333333333</ele><time>2026-03-28T14:14:10.652Z</time></trkpt><trkpt lat="42.7131039" lon="12.3791652"><ele>540.6666666666666</ele><time>2026-03-28T14:14:11.659Z</time></trkpt><trkpt lat="42.7132363" lon="12.379334"><ele>540.0</ele><time>2026-03-28T14:14:12.682Z</time></trkpt><trkpt lat="42.7133655" lon="12.3795022"><ele>540.0</ele><time>2026-03-28T14:14:13.656Z</time></trkpt><trkpt lat="42.713486" lon="12.3796449"><ele>540.0</ele><time>2026-03-28T14:14:14.646Z</time></trkpt><trkpt lat="42.7135997" lon="12.3797677"><ele>540.0</ele><time>2026-03-28T14:14:15.646Z</time></trkpt><trkpt lat="42.7137324" lon="12.3798601"><ele>543.6666666666666</ele><time>2026-03-28T14:14:16.658Z</time></trkpt><trkpt lat="42.7138839" lon="12.3798989"><ele>547.3333333333333</ele><time>2026-03-28T14:14:17.648Z</time></trkpt><trkpt lat="42.7140476" lon="12.379906"><ele>551.0</ele><time>2026-03-28T14:14:18.664Z</time></trkpt><trkpt lat="42.7142224" lon="12.3799066"><ele>551.0</ele><time>2026-03-28T14:14:19.65Z</time></trkpt><trkpt lat="42.7143947" lon="12.379901"><ele>551.0</ele><time>2026-03-28T14:14:20.66Z</time></trkpt><trkpt lat="42.7145678" lon="12.3799007"><ele>551.0</ele><time>2026-03-28T14:14:21.682Z</time></trkpt><trkpt lat="42.714732" lon="12.3798945"><ele>551.5</ele><time>2026-03-28T14:14:22.644Z</time></trkpt><trkpt lat="42.7148778" lon="12.3798893"><ele>552.0</ele><time>2026-03-28T14:14:23.662Z</time></trkpt><trkpt lat="42.7150107" lon="12.3798875"><ele>552.5</ele><time>2026-03-28T14:14:24.662Z</time></trkpt><trkpt lat="42.7151291" lon="12.3798862"><ele>553.0</ele><time>2026-03-28T14:14:25.674Z</time></trkpt><trkpt lat="42.7152321" lon="12.3798846"><ele>553.6</ele><time>2026-03-28T14:14:26.65Z</time></trkpt><trkpt lat="42.7153258" lon="12.3798819"><ele>554.1999999999999</ele><time>2026-03-28T14:14:27.667Z</time></trkpt><trkpt lat="42.7154061" lon="12.3798853"><ele>554.8</ele><time>2026-03-28T14:14:28.653Z</time></trkpt><trkpt lat="42.7155148" lon="12.3799021"><ele>555.4</ele><time>2026-03-28T14:14:30.671Z</time></trkpt><trkpt lat="42.7155159" lon="12.3800054"><ele>556.0</ele><time>2026-03-28T14:14:54.647Z</time></trkpt><trkpt lat="42.7154495" lon="12.3801158"><ele>556.0</ele><time>2026-03-28T14:14:56.651Z</time></trkpt><trkpt lat="42.7153973" lon="12.3801879"><ele>556.0</ele><time>2026-03-28T14:14:57.647Z</time></trkpt><trkpt lat="42.7152895" lon="12.3803086"><ele>556.0</ele><time>2026-03-28T14:14:58.675Z</time></trkpt><trkpt lat="42.7151432" lon="12.3804735"><ele>556.0</ele><time>2026-03-28T14:14:59.667Z</time></trkpt><trkpt lat="42.7150105" lon="12.3806332"><ele>557.5</ele><time>2026-03-28T14:15:00.654Z</time></trkpt><trkpt lat="42.714896" lon="12.3807632"><ele>559.0</ele><time>2026-03-28T14:15:01.657Z</time></trkpt><trkpt lat="42.7147983" lon="12.380882"><ele>560.5</ele><time>2026-03-28T14:15:02.653Z</time></trkpt><trkpt lat="42.7147222" lon="12.3810002"><ele>562.0</ele><time>2026-03-28T14:15:03.661Z</time></trkpt><trkpt lat="42.7146569" lon="12.3811213"><ele>562.0</ele><time>2026-03-28T14:15:04.661Z</time></trkpt><trkpt lat="42.7146119" lon="12.3812629"><ele>562.0</ele><time>2026-03-28T14:15:05.645Z</time></trkpt><trkpt lat="42.7145816" lon="12.3814542"><ele>562.0</ele><time>2026-03-28T14:15:06.659Z</time></trkpt><trkpt lat="42.7145415" lon="12.3816954"><ele>562.0</ele><time>2026-03-28T14:15:07.654Z</time></trkpt><trkpt lat="42.7144926" lon="12.3819557"><ele>562.25</ele><time>2026-03-28T14:15:08.662Z</time></trkpt><trkpt lat="42.7144534" lon="12.3821875"><ele>562.5</ele><time>2026-03-28T14:15:09.653Z</time></trkpt><trkpt lat="42.714424" lon="12.3823685"><ele>562.75</ele><time>2026-03-28T14:15:10.671Z</time></trkpt><trkpt lat="42.7144036" lon="12.382539"><ele>563.0</ele><time>2026-03-28T14:15:11.654Z</time></trkpt><trkpt lat="42.7144072" lon="12.3827218"><ele>564.0</ele><time>2026-03-28T14:15:12.656Z</time></trkpt><trkpt lat="42.7144325" lon="12.3829643"><ele>565.0</ele><time>2026-03-28T14:15:13.668Z</time></trkpt><trkpt lat="42.7144708" lon="12.3832567"><ele>566.0</ele><time>2026-03-28T14:15:14.65Z</time></trkpt><trkpt lat="42.7145051" lon="12.3835662"><ele>566.5</ele><time>2026-03-28T14:15:15.66Z</time></trkpt><trkpt lat="42.7145365" lon="12.3838663"><ele>567.0</ele><time>2026-03-28T14:15:16.677Z</time></trkpt><trkpt lat="42.7145688" lon="12.3841839"><ele>567.0</ele><time>2026-03-28T14:15:17.651Z</time></trkpt><trkpt lat="42.7146087" lon="12.384521"><ele>567.0</ele><time>2026-03-28T14:15:18.655Z</time></trkpt><trkpt lat="42.7146407" lon="12.3848044"><ele>567.6666666666666</ele><time>2026-03-28T14:15:19.649Z</time></trkpt><trkpt lat="42.7146656" lon="12.3850482"><ele>568.3333333333333</ele><time>2026-03-28T14:15:20.661Z</time></trkpt><trkpt lat="42.71469" lon="12.3852659"><ele>569.0</ele><time>2026-03-28T14:15:21.654Z</time></trkpt><trkpt lat="42.714713" lon="12.3854744"><ele>568.3333333333333</ele><time>2026-03-28T14:15:22.657Z</time></trkpt><trkpt lat="42.7147388" lon="12.3856874"><ele>567.6666666666666</ele><time>2026-03-28T14:15:23.646Z</time></trkpt><trkpt lat="42.7147616" lon="12.3858962"><ele>567.0</ele><time>2026-03-28T14:15:24.639Z</time></trkpt><trkpt lat="42.7147757" lon="12.3860987"><ele>567.0</ele><time>2026-03-28T14:15:25.66Z</time></trkpt><trkpt lat="42.7147811" lon="12.3863051"><ele>567.0</ele><time>2026-03-28T14:15:26.658Z</time></trkpt><trkpt lat="42.714778" lon="12.3865119"><ele>567.0</ele><time>2026-03-28T14:15:27.678Z</time></trkpt><trkpt lat="42.7147627" lon="12.3867044"><ele>567.0</ele><time>2026-03-28T14:15:28.661Z</time></trkpt><trkpt lat="42.7147448" lon="12.3868841"><ele>566.5</ele><time>2026-03-28T14:15:29.648Z</time></trkpt><trkpt lat="42.7147334" lon="12.3870587"><ele>566.0</ele><time>2026-03-28T14:15:30.643Z</time></trkpt><trkpt lat="42.7147321" lon="12.3872421"><ele>565.5</ele><time>2026-03-28T14:15:31.648Z</time></trkpt><trkpt lat="42.7147502" lon="12.3874507"><ele>565.0</ele><time>2026-03-28T14:15:32.647Z</time></trkpt><trkpt lat="42.7147764" lon="12.3876913"><ele>564.0</ele><time>2026-03-28T14:15:33.646Z</time></trkpt><trkpt lat="42.7148049" lon="12.3879386"><ele>563.0</ele><time>2026-03-28T14:15:34.645Z</time></trkpt><trkpt lat="42.714828" lon="12.3881777"><ele>562.0</ele><time>2026-03-28T14:15:35.65Z</time></trkpt><trkpt lat="42.7148546" lon="12.3883972"><ele>561.25</ele><time>2026-03-28T14:15:36.662Z</time></trkpt><trkpt lat="42.7148745" lon="12.3885894"><ele>560.5</ele><time>2026-03-28T14:15:37.661Z</time></trkpt><trkpt lat="42.7148901" lon="12.3887635"><ele>559.75</ele><time>2026-03-28T14:15:38.66Z</time></trkpt><trkpt lat="42.7149076" lon="12.3889119"><ele>559.0</ele><time>2026-03-28T14:15:39.655Z</time></trkpt><trkpt lat="42.7149252" lon="12.3890226"><ele>558.6666666666667</ele><time>2026-03-28T14:15:40.668Z</time></trkpt><trkpt lat="42.714951" lon="12.3891129"><ele>558.3333333333334</ele><time>2026-03-28T14:15:41.654Z</time></trkpt><trkpt lat="42.7149913" lon="12.3891816"><ele>558.0</ele><time>2026-03-28T14:15:42.657Z</time></trkpt><trkpt lat="42.7150457" lon="12.3892296"><ele>557.6666666666666</ele><time>2026-03-28T14:15:43.651Z</time></trkpt><trkpt lat="42.715162" lon="12.3891924"><ele>557.3333333333333</ele><time>2026-03-28T14:15:45.648Z</time></trkpt><trkpt lat="42.7152216" lon="12.3891171"><ele>557.0</ele><time>2026-03-28T14:15:46.646Z</time></trkpt><trkpt lat="42.7152705" lon="12.3890267"><ele>556.0</ele><time>2026-03-28T14:15:47.642Z</time></trkpt><trkpt lat="42.7153199" lon="12.3889574"><ele>555.0</ele><time>2026-03-28T14:15:48.659Z</time></trkpt><trkpt lat="42.7153809" lon="12.3889241"><ele>554.0</ele><time>2026-03-28T14:15:49.676Z</time></trkpt><trkpt lat="42.7154885" lon="12.3889416"><ele>553.0</ele><time>2026-03-28T14:15:51.668Z</time></trkpt><trkpt lat="42.7155286" lon="12.3890286"><ele>552.0</ele><time>2026-03-28T14:15:52.662Z</time></trkpt><trkpt lat="42.7155474" lon="12.38913"><ele>551.0</ele><time>2026-03-28T14:15:53.655Z</time></trkpt><trkpt lat="42.7155491" lon="12.3892539"><ele>551.0</ele><time>2026-03-28T14:15:54.664Z</time></trkpt><trkpt lat="42.7155217" lon="12.389386"><ele>551.0</ele><time>2026-03-28T14:15:55.651Z</time></trkpt><trkpt lat="42.715482" lon="12.389525"><ele>551.0</ele><time>2026-03-28T14:15:56.651Z</time></trkpt><trkpt lat="42.7154348" lon="12.3896689"><ele>551.0</ele><time>2026-03-28T14:15:57.664Z</time></trkpt><trkpt lat="42.715397" lon="12.3898085"><ele>551.0</ele><time>2026-03-28T14:15:58.655Z</time></trkpt><trkpt lat="42.71537" lon="12.3899636"><ele>549.0</ele><time>2026-03-28T14:15:59.673Z</time></trkpt><trkpt lat="42.7153525" lon="12.3901462"><ele>547.0</ele><time>2026-03-28T14:16:00.666Z</time></trkpt><trkpt lat="42.7153425" lon="12.3903362"><ele>545.0</ele><time>2026-03-28T14:16:01.668Z</time></trkpt><trkpt lat="42.7153325" lon="12.3905251"><ele>543.0</ele><time>2026-03-28T14:16:02.659Z</time></trkpt><trkpt lat="42.7153224" lon="12.3907038"><ele>541.1999999999999</ele><time>2026-03-28T14:16:03.652Z</time></trkpt><trkpt lat="42.7153076" lon="12.3908742"><ele>539.4</ele><time>2026-03-28T14:16:04.653Z</time></trkpt><trkpt lat="42.7152935" lon="12.3910313"><ele>537.5999999999999</ele><time>2026-03-28T14:16:05.657Z</time></trkpt><trkpt lat="42.715276" lon="12.3911765"><ele>535.8</ele><time>2026-03-28T14:16:06.652Z</time></trkpt><trkpt lat="42.7152483" lon="12.3912934"><ele>534.0</ele><time>2026-03-28T14:16:07.651Z</time></trkpt><trkpt lat="42.715206" lon="12.391392"><ele>534.0</ele><time>2026-03-28T14:16:08.648Z</time></trkpt><trkpt lat="42.7151415" lon="12.3914732"><ele>534.0</ele><time>2026-03-28T14:16:09.645Z</time></trkpt><trkpt lat="42.7150558" lon="12.3915485"><ele>534.0</ele><time>2026-03-28T14:16:10.658Z</time></trkpt><trkpt lat="42.7149594" lon="12.3916086"><ele>534.0</ele><time>2026-03-28T14:16:11.655Z</time></trkpt><trkpt lat="42.7148647" lon="12.3916391"><ele>534.0</ele><time>2026-03-28T14:16:12.667Z</time></trkpt><trkpt lat="42.7147738" lon="12.3916411"><ele>534.0</ele><time>2026-03-28T14:16:13.645Z</time></trkpt><trkpt lat="42.7146808" lon="12.3916109"><ele>534.0</ele><time>2026-03-28T14:16:14.655Z</time></trkpt><trkpt lat="42.7145785" lon="12.3915576"><ele>534.0</ele><time>2026-03-28T14:16:15.657Z</time></trkpt><trkpt lat="42.7144697" lon="12.3914899"><ele>534.0</ele><time>2026-03-28T14:16:16.66Z</time></trkpt><trkpt lat="42.714356" lon="12.3914259"><ele>534.0</ele><time>2026-03-28T14:16:17.647Z</time></trkpt><trkpt lat="42.7142588" lon="12.3913749"><ele>534.5</ele><time>2026-03-28T14:16:18.656Z</time></trkpt><trkpt lat="42.7141783" lon="12.3913436"><ele>535.0</ele><time>2026-03-28T14:16:19.658Z</time></trkpt><trkpt lat="42.7141144" lon="12.3913379"><ele>535.5</ele><time>2026-03-28T14:16:20.668Z</time></trkpt><trkpt lat="42.7140257" lon="12.3914369"><ele>536.0</ele><time>2026-03-28T14:16:22.66Z</time></trkpt><trkpt lat="42.7140111" lon="12.3915361"><ele>536.5</ele><time>2026-03-28T14:16:23.654Z</time></trkpt><trkpt lat="42.7140211" lon="12.391629"><ele>537.0</ele><time>2026-03-28T14:16:24.655Z</time></trkpt><trkpt lat="42.714066" lon="12.3917056"><ele>536.4</ele><time>2026-03-28T14:16:25.661Z</time></trkpt><trkpt lat="42.7141349" lon="12.3917637"><ele>535.8000000000001</ele><time>2026-03-28T14:16:26.646Z</time></trkpt><trkpt lat="42.7142276" lon="12.3918175"><ele>535.2</ele><time>2026-03-28T14:16:27.648Z</time></trkpt><trkpt lat="42.7143313" lon="12.3918787"><ele>534.6</ele><time>2026-03-28T14:16:28.657Z</time></trkpt><trkpt lat="42.7144322" lon="12.3919402"><ele>534.0</ele><time>2026-03-28T14:16:29.66Z</time></trkpt><trkpt lat="42.7145242" lon="12.3920123"><ele>534.0</ele><time>2026-03-28T14:16:30.657Z</time></trkpt><trkpt lat="42.7146063" lon="12.3920876"><ele>534.0</ele><time>2026-03-28T14:16:31.656Z</time></trkpt><trkpt lat="42.7146782" lon="12.3921776"><ele>534.0</ele><time>2026-03-28T14:16:32.651Z</time></trkpt><trkpt lat="42.7147368" lon="12.3922938"><ele>534.0</ele><time>2026-03-28T14:16:33.654Z</time></trkpt><trkpt lat="42.714784" lon="12.3924416"><ele>534.0</ele><time>2026-03-28T14:16:34.653Z</time></trkpt><trkpt lat="42.7148286" lon="12.3926057"><ele>530.0</ele><time>2026-03-28T14:16:35.65Z</time></trkpt><trkpt lat="42.7148605" lon="12.3927986"><ele>526.0</ele><time>2026-03-28T14:16:36.648Z</time></trkpt><trkpt lat="42.714878" lon="12.3930048"><ele>522.0</ele><time>2026-03-28T14:16:37.654Z</time></trkpt><trkpt lat="42.7148869" lon="12.3932095"><ele>518.0</ele><time>2026-03-28T14:16:38.658Z</time></trkpt><trkpt lat="42.7149007" lon="12.3934124"><ele>516.0</ele><time>2026-03-28T14:16:39.659Z</time></trkpt><trkpt lat="42.7149167" lon="12.3936256"><ele>514.0</ele><time>2026-03-28T14:16:40.651Z</time></trkpt><trkpt lat="42.7149319" lon="12.3938607"><ele>512.0</ele><time>2026-03-28T14:16:41.647Z</time></trkpt><trkpt lat="42.7149483" lon="12.3941125"><ele>510.66666666666663</ele><time>2026-03-28T14:16:42.666Z</time></trkpt><trkpt lat="42.7149694" lon="12.3943742"><ele>509.33333333333337</ele><time>2026-03-28T14:16:43.656Z</time></trkpt><trkpt lat="42.7149889" lon="12.394626"><ele>508.0</ele><time>2026-03-28T14:16:44.644Z</time></trkpt><trkpt lat="42.7150094" lon="12.3948647"><ele>507.33333333333337</ele><time>2026-03-28T14:16:45.684Z</time></trkpt><trkpt lat="42.7150315" lon="12.3950848"><ele>506.66666666666663</ele><time>2026-03-28T14:16:46.649Z</time></trkpt><trkpt lat="42.7150572" lon="12.3952887"><ele>506.0</ele><time>2026-03-28T14:16:47.652Z</time></trkpt><trkpt lat="42.7150816" lon="12.3954732"><ele>506.0</ele><time>2026-03-28T14:16:48.667Z</time></trkpt><trkpt lat="42.7151043" lon="12.3956337"><ele>506.0</ele><time>2026-03-28T14:16:49.661Z</time></trkpt><trkpt lat="42.7151342" lon="12.3957769"><ele>506.0</ele><time>2026-03-28T14:16:50.656Z</time></trkpt><trkpt lat="42.7151855" lon="12.3959261"><ele>506.0</ele><time>2026-03-28T14:16:51.643Z</time></trkpt><trkpt lat="42.7152553" lon="12.3960834"><ele>504.0</ele><time>2026-03-28T14:16:52.657Z</time></trkpt><trkpt lat="42.7153257" lon="12.3962501"><ele>502.0</ele><time>2026-03-28T14:16:53.658Z</time></trkpt><trkpt lat="42.7153941" lon="12.3964092"><ele>500.0</ele><time>2026-03-28T14:16:54.656Z</time></trkpt><trkpt lat="42.715455" lon="12.3965521"><ele>498.0</ele><time>2026-03-28T14:16:55.66Z</time></trkpt><trkpt lat="42.7155116" lon="12.3966779"><ele>498.0</ele><time>2026-03-28T14:16:56.652Z</time></trkpt><trkpt lat="42.7155641" lon="12.396784"><ele>498.0</ele><time>2026-03-28T14:16:57.66Z</time></trkpt><trkpt lat="42.7156082" lon="12.3968825"><ele>498.0</ele><time>2026-03-28T14:16:58.659Z</time></trkpt><trkpt lat="42.7156472" lon="12.3969623"><ele>498.0</ele><time>2026-03-28T14:16:59.655Z</time></trkpt><trkpt lat="42.7157034" lon="12.3970878"><ele>498.0</ele><time>2026-03-28T14:17:01.655Z</time></trkpt><trkpt lat="42.7156989" lon="12.3971935"><ele>498.0</ele><time>2026-03-28T14:17:04.662Z</time></trkpt><trkpt lat="42.7156172" lon="12.3971961"><ele>498.0</ele><time>2026-03-28T14:17:07.661Z</time></trkpt><trkpt lat="42.715524" lon="12.3971294"><ele>497.99999999999994</ele><time>2026-03-28T14:17:09.644Z</time></trkpt><trkpt lat="42.715398" lon="12.3970845"><ele>497.99999999999994</ele><time>2026-03-28T14:17:11.663Z</time></trkpt><trkpt lat="42.7153211" lon="12.3970745"><ele>498.0</ele><time>2026-03-28T14:17:12.654Z</time></trkpt><trkpt lat="42.7152416" lon="12.397055"><ele>498.0</ele><time>2026-03-28T14:17:13.654Z</time></trkpt><trkpt lat="42.7151699" lon="12.3970122"><ele>498.79999999999995</ele><time>2026-03-28T14:17:14.658Z</time></trkpt><trkpt lat="42.7151002" lon="12.3969512"><ele>499.59999999999997</ele><time>2026-03-28T14:17:15.683Z</time></trkpt><trkpt lat="42.7150408" lon="12.3969048"><ele>500.40000000000003</ele><time>2026-03-28T14:17:16.668Z</time></trkpt><trkpt lat="42.7149308" lon="12.3968631"><ele>501.20000000000005</ele><time>2026-03-28T14:17:18.654Z</time></trkpt><trkpt lat="42.7148094" lon="12.3968279"><ele>502.0</ele><time>2026-03-28T14:17:20.651Z</time></trkpt><trkpt lat="42.7147454" lon="12.3968209"><ele>502.00000000000006</ele><time>2026-03-28T14:17:21.665Z</time></trkpt><trkpt lat="42.7146233" lon="12.3967808"><ele>502.0</ele><time>2026-03-28T14:17:23.668Z</time></trkpt><trkpt lat="42.7145682" lon="12.3967357"><ele>502.0</ele><time>2026-03-28T14:17:24.657Z</time></trkpt><trkpt lat="42.7145164" lon="12.3966869"><ele>502.0</ele><time>2026-03-28T14:17:25.653Z</time></trkpt><trkpt lat="42.7144537" lon="12.3966375"><ele>502.00000000000006</ele><time>2026-03-28T14:17:26.664Z</time></trkpt><trkpt lat="42.7143802" lon="12.396588"><ele>502.0</ele><time>2026-03-28T14:17:27.658Z</time></trkpt><trkpt lat="42.7143022" lon="12.3965531"><ele>500.1666666666667</ele><time>2026-03-28T14:17:28.653Z</time></trkpt><trkpt lat="42.7142172" lon="12.3965175"><ele>498.33333333333337</ele><time>2026-03-28T14:17:29.651Z</time></trkpt><trkpt lat="42.7141353" lon="12.3964743"><ele>496.5</ele><time>2026-03-28T14:17:30.649Z</time></trkpt><trkpt lat="42.7140563" lon="12.3964159"><ele>494.66666666666663</ele><time>2026-03-28T14:17:31.665Z</time></trkpt><trkpt lat="42.7139905" lon="12.3963555"><ele>492.8333333333333</ele><time>2026-03-28T14:17:32.649Z</time></trkpt><trkpt lat="42.7139335" lon="12.3963148"><ele>491.0</ele><time>2026-03-28T14:17:33.639Z</time></trkpt><trkpt lat="42.7138297" lon="12.3962981"><ele>491.0</ele><time>2026-03-28T14:17:35.654Z</time></trkpt><trkpt lat="42.7137234" lon="12.3963273"><ele>491.0</ele><time>2026-03-28T14:17:37.665Z</time></trkpt><trkpt lat="42.7136082" lon="12.3963561"><ele>491.0</ele><time>2026-03-28T14:17:39.652Z</time></trkpt><trkpt lat="42.7134893" lon="12.3963584"><ele>491.0</ele><time>2026-03-28T14:17:41.659Z</time></trkpt><trkpt lat="42.7134249" lon="12.3963448"><ele>491.0</ele><time>2026-03-28T14:17:42.642Z</time></trkpt><trkpt lat="42.7133601" lon="12.3963226"><ele>487.0</ele><time>2026-03-28T14:17:43.674Z</time></trkpt><trkpt lat="42.7132468" lon="12.3962385"><ele>483.0</ele><time>2026-03-28T14:17:45.66Z</time></trkpt><trkpt lat="42.7131667" lon="12.3961203"><ele>479.0</ele><time>2026-03-28T14:17:47.652Z</time></trkpt><trkpt lat="42.7130921" lon="12.3960257"><ele>475.0</ele><time>2026-03-28T14:17:49.658Z</time></trkpt><trkpt lat="42.7130077" lon="12.3960276"><ele>471.0</ele><time>2026-03-28T14:17:51.663Z</time></trkpt><trkpt lat="42.7129406" lon="12.3960299"><ele>471.0</ele><time>2026-03-28T14:17:53.658Z</time></trkpt><trkpt lat="42.7129421" lon="12.3961426"><ele>471.0</ele><time>2026-03-28T14:17:59.665Z</time></trkpt><trkpt lat="42.7129911" lon="12.396219"><ele>471.0</ele><time>2026-03-28T14:19:06.654Z</time></trkpt><trkpt lat="42.7130582" lon="12.3963636"><ele>471.0</ele><time>2026-03-28T14:19:08.668Z</time></trkpt><trkpt lat="42.7131038" lon="12.3964541"><ele>471.0</ele><time>2026-03-28T14:19:09.659Z</time></trkpt><trkpt lat="42.7131506" lon="12.3965346"><ele>471.0</ele><time>2026-03-28T14:19:10.662Z</time></trkpt><trkpt lat="42.7132026" lon="12.396605"><ele>470.20000000000005</ele><time>2026-03-28T14:19:11.653Z</time></trkpt><trkpt lat="42.7132689" lon="12.396677"><ele>469.40000000000003</ele><time>2026-03-28T14:19:12.663Z</time></trkpt><trkpt lat="42.713334" lon="12.3967516"><ele>468.6</ele><time>2026-03-28T14:19:13.666Z</time></trkpt><trkpt lat="42.7133927" lon="12.3968169"><ele>467.8</ele><time>2026-03-28T14:19:14.659Z</time></trkpt><trkpt lat="42.7134653" lon="12.3969089"><ele>467.0</ele><time>2026-03-28T14:19:15.651Z</time></trkpt><trkpt lat="42.7135471" lon="12.3970151"><ele>468.20000000000005</ele><time>2026-03-28T14:19:16.654Z</time></trkpt><trkpt lat="42.7136225" lon="12.3971095"><ele>469.40000000000003</ele><time>2026-03-28T14:19:17.666Z</time></trkpt><trkpt lat="42.7136847" lon="12.3972064"><ele>470.59999999999997</ele><time>2026-03-28T14:19:18.668Z</time></trkpt><trkpt lat="42.7137445" lon="12.3972951"><ele>471.79999999999995</ele><time>2026-03-28T14:19:19.676Z</time></trkpt><trkpt lat="42.7137948" lon="12.3973848"><ele>473.0</ele><time>2026-03-28T14:19:20.656Z</time></trkpt><trkpt lat="42.713843" lon="12.3974997"><ele>473.0</ele><time>2026-03-28T14:19:21.651Z</time></trkpt><trkpt lat="42.7138982" lon="12.3976296"><ele>472.99999999999994</ele><time>2026-03-28T14:19:22.649Z</time></trkpt><trkpt lat="42.7139526" lon="12.3977382"><ele>472.99999999999994</ele><time>2026-03-28T14:19:23.656Z</time></trkpt><trkpt lat="42.7139992" lon="12.3978245"><ele>473.0</ele><time>2026-03-28T14:19:24.644Z</time></trkpt><trkpt lat="42.7140433" lon="12.3978928"><ele>473.0</ele><time>2026-03-28T14:19:25.661Z</time></trkpt><trkpt lat="42.7141281" lon="12.398024"><ele>470.66666666666663</ele><time>2026-03-28T14:19:27.658Z</time></trkpt><trkpt lat="42.7141673" lon="12.3981193"><ele>468.3333333333333</ele><time>2026-03-28T14:19:28.648Z</time></trkpt><trkpt lat="42.7142208" lon="12.3982147"><ele>466.0</ele><time>2026-03-28T14:19:29.664Z</time></trkpt><trkpt lat="42.7142693" lon="12.3982986"><ele>463.66666666666663</ele><time>2026-03-28T14:19:30.65Z</time></trkpt><trkpt lat="42.7143054" lon="12.3983778"><ele>461.3333333333333</ele><time>2026-03-28T14:19:31.672Z</time></trkpt><trkpt lat="42.7143359" lon="12.3984576"><ele>459.0</ele><time>2026-03-28T14:19:32.65Z</time></trkpt><trkpt lat="42.714351" lon="12.3985481"><ele>459.0</ele><time>2026-03-28T14:19:33.652Z</time></trkpt><trkpt lat="42.7143427" lon="12.3986528"><ele>459.0</ele><time>2026-03-28T14:19:34.67Z</time></trkpt><trkpt lat="42.7143116" lon="12.3987436"><ele>459.0</ele><time>2026-03-28T14:19:35.657Z</time></trkpt><trkpt lat="42.7142786" lon="12.3988215"><ele>459.0</ele><time>2026-03-28T14:19:36.662Z</time></trkpt><trkpt lat="42.7142568" lon="12.3989079"><ele>459.0</ele><time>2026-03-28T14:19:37.678Z</time></trkpt><trkpt lat="42.7142509" lon="12.3990073"><ele>459.0</ele><time>2026-03-28T14:19:38.661Z</time></trkpt><trkpt lat="42.7142623" lon="12.3991199"><ele>459.0</ele><time>2026-03-28T14:19:39.665Z</time></trkpt><trkpt lat="42.7142866" lon="12.3992445"><ele>458.5</ele><time>2026-03-28T14:19:40.662Z</time></trkpt><trkpt lat="42.7143278" lon="12.3993603"><ele>458.0</ele><time>2026-03-28T14:19:41.664Z</time></trkpt><trkpt lat="42.7143751" lon="12.3994693"><ele>457.5</ele><time>2026-03-28T14:19:42.658Z</time></trkpt><trkpt lat="42.7144169" lon="12.3995722"><ele>457.0</ele><time>2026-03-28T14:19:43.653Z</time></trkpt><trkpt lat="42.7144534" lon="12.3996654"><ele>456.5</ele><time>2026-03-28T14:19:44.649Z</time></trkpt><trkpt lat="42.7144927" lon="12.3997643"><ele>456.0</ele><time>2026-03-28T14:19:45.66Z</time></trkpt><trkpt lat="42.7145345" lon="12.3998603"><ele>459.0</ele><time>2026-03-28T14:19:46.664Z</time></trkpt><trkpt lat="42.7145791" lon="12.3999445"><ele>461.99999999999994</ele><time>2026-03-28T14:19:47.66Z</time></trkpt><trkpt lat="42.714623" lon="12.4000311"><ele>465.0</ele><time>2026-03-28T14:19:48.657Z</time></trkpt><trkpt lat="42.714666" lon="12.4001147"><ele>468.0</ele><time>2026-03-28T14:19:49.663Z</time></trkpt><trkpt lat="42.7147057" lon="12.4001949"><ele>470.99999999999994</ele><time>2026-03-28T14:19:50.652Z</time></trkpt><trkpt lat="42.7147381" lon="12.4002748"><ele>474.0</ele><time>2026-03-28T14:19:51.671Z</time></trkpt><trkpt lat="42.7147709" lon="12.4003645"><ele>477.0</ele><time>2026-03-28T14:19:52.66Z</time></trkpt><trkpt lat="42.7147985" lon="12.4004908"><ele>475.20000000000005</ele><time>2026-03-28T14:19:53.665Z</time></trkpt><trkpt lat="42.7148301" lon="12.4006543"><ele>473.40000000000003</ele><time>2026-03-28T14:19:54.651Z</time></trkpt><trkpt lat="42.7148644" lon="12.4007999"><ele>471.59999999999997</ele><time>2026-03-28T14:19:55.665Z</time></trkpt><trkpt lat="42.7148998" lon="12.400918"><ele>469.79999999999995</ele><time>2026-03-28T14:19:56.665Z</time></trkpt><trkpt lat="42.7149222" lon="12.4010349"><ele>468.0</ele><time>2026-03-28T14:19:57.651Z</time></trkpt><trkpt lat="42.7149219" lon="12.4011649"><ele>468.0</ele><time>2026-03-28T14:19:58.652Z</time></trkpt><trkpt lat="42.714902" lon="12.4013088"><ele>467.99999999999994</ele><time>2026-03-28T14:19:59.651Z</time></trkpt><trkpt lat="42.7148672" lon="12.4014479"><ele>467.99999999999994</ele><time>2026-03-28T14:20:00.648Z</time></trkpt><trkpt lat="42.7148291" lon="12.4015619"><ele>468.0</ele><time>2026-03-28T14:20:01.664Z</time></trkpt><trkpt lat="42.71479" lon="12.4016628"><ele>468.0</ele><time>2026-03-28T14:20:02.658Z</time></trkpt><trkpt lat="42.7147595" lon="12.4017454"><ele>467.59999999999997</ele><time>2026-03-28T14:20:03.662Z</time></trkpt><trkpt lat="42.7147383" lon="12.4018291"><ele>467.19999999999993</ele><time>2026-03-28T14:20:04.664Z</time></trkpt><trkpt lat="42.714778" lon="12.4019443"><ele>466.8</ele><time>2026-03-28T14:20:06.664Z</time></trkpt><trkpt lat="42.7149014" lon="12.4019745"><ele>466.4</ele><time>2026-03-28T14:20:08.65Z</time></trkpt><trkpt lat="42.7150019" lon="12.4019566"><ele>466.0</ele><time>2026-03-28T14:20:09.641Z</time></trkpt><trkpt lat="42.7151182" lon="12.4019275"><ele>466.0</ele><time>2026-03-28T14:20:10.656Z</time></trkpt><trkpt lat="42.7152306" lon="12.4019054"><ele>466.0</ele><time>2026-03-28T14:20:11.659Z</time></trkpt><trkpt lat="42.7153185" lon="12.4018969"><ele>466.0</ele><time>2026-03-28T14:20:12.661Z</time></trkpt><trkpt lat="42.7153843" lon="12.4018828"><ele>466.0</ele><time>2026-03-28T14:20:13.659Z</time></trkpt><trkpt lat="42.7154853" lon="12.4018935"><ele>466.0</ele><time>2026-03-28T14:20:15.666Z</time></trkpt><trkpt lat="42.7155359" lon="12.4019927"><ele>467.50000000000006</ele><time>2026-03-28T14:20:17.678Z</time></trkpt><trkpt lat="42.7155921" lon="12.4021127"><ele>469.0</ele><time>2026-03-28T14:20:19.648Z</time></trkpt><trkpt lat="42.7156863" lon="12.4022107"><ele>470.5</ele><time>2026-03-28T14:20:21.669Z</time></trkpt><trkpt lat="42.7157436" lon="12.4022557"><ele>472.0</ele><time>2026-03-28T14:20:22.647Z</time></trkpt><trkpt lat="42.7158083" lon="12.4022936"><ele>473.50000000000006</ele><time>2026-03-28T14:20:23.662Z</time></trkpt><trkpt lat="42.7158734" lon="12.4023334"><ele>475.0</ele><time>2026-03-28T14:20:24.65Z</time></trkpt><trkpt lat="42.715949" lon="12.4023741"><ele>471.1666666666667</ele><time>2026-03-28T14:20:25.663Z</time></trkpt><trkpt lat="42.7160246" lon="12.4024092"><ele>467.33333333333337</ele><time>2026-03-28T14:20:26.672Z</time></trkpt><trkpt lat="42.7160995" lon="12.4024363"><ele>463.5</ele><time>2026-03-28T14:20:27.661Z</time></trkpt><trkpt lat="42.7161784" lon="12.4024718"><ele>459.66666666666663</ele><time>2026-03-28T14:20:28.653Z</time></trkpt><trkpt lat="42.7162583" lon="12.4025063"><ele>455.8333333333333</ele><time>2026-03-28T14:20:29.664Z</time></trkpt><trkpt lat="42.7163391" lon="12.4025419"><ele>452.0</ele><time>2026-03-28T14:20:30.652Z</time></trkpt><trkpt lat="42.7164154" lon="12.402579"><ele>451.8333333333333</ele><time>2026-03-28T14:20:31.654Z</time></trkpt><trkpt lat="42.7164961" lon="12.4026185"><ele>451.66666666666663</ele><time>2026-03-28T14:20:32.663Z</time></trkpt><trkpt lat="42.7165804" lon="12.4026577"><ele>451.5</ele><time>2026-03-28T14:20:33.663Z</time></trkpt><trkpt lat="42.7166654" lon="12.4026965"><ele>451.33333333333337</ele><time>2026-03-28T14:20:34.649Z</time></trkpt><trkpt lat="42.7167483" lon="12.4027144"><ele>451.1666666666667</ele><time>2026-03-28T14:20:35.662Z</time></trkpt><trkpt lat="42.7168254" lon="12.4027151"><ele>451.0</ele><time>2026-03-28T14:20:36.651Z</time></trkpt><trkpt lat="42.7169071" lon="12.4027018"><ele>450.00000000000006</ele><time>2026-03-28T14:20:37.664Z</time></trkpt><trkpt lat="42.7169906" lon="12.4026661"><ele>449.0</ele><time>2026-03-28T14:20:38.662Z</time></trkpt><trkpt lat="42.7170658" lon="12.4026277"><ele>448.0</ele><time>2026-03-28T14:20:39.661Z</time></trkpt><trkpt lat="42.7171359" lon="12.4025893"><ele>447.0</ele><time>2026-03-28T14:20:40.647Z</time></trkpt><trkpt lat="42.7172057" lon="12.4025606"><ele>446.00000000000006</ele><time>2026-03-28T14:20:41.644Z</time></trkpt><trkpt lat="42.7172747" lon="12.4025331"><ele>445.0</ele><time>2026-03-28T14:20:42.667Z</time></trkpt><trkpt lat="42.7173445" lon="12.402536"><ele>445.00000000000006</ele><time>2026-03-28T14:20:43.65Z</time></trkpt><trkpt lat="42.7174112" lon="12.4025465"><ele>445.0</ele><time>2026-03-28T14:20:44.65Z</time></trkpt><trkpt lat="42.7174942" lon="12.4025797"><ele>445.0</ele><time>2026-03-28T14:20:45.658Z</time></trkpt><trkpt lat="42.7175916" lon="12.4026317"><ele>445.0</ele><time>2026-03-28T14:20:46.649Z</time></trkpt><trkpt lat="42.7176748" lon="12.4026813"><ele>445.00000000000006</ele><time>2026-03-28T14:20:47.658Z</time></trkpt><trkpt lat="42.7177401" lon="12.4027237"><ele>445.0</ele><time>2026-03-28T14:20:48.666Z</time></trkpt><trkpt lat="42.7178415" lon="12.4027968"><ele>442.83333333333337</ele><time>2026-03-28T14:20:50.659Z</time></trkpt><trkpt lat="42.7179277" lon="12.4028273"><ele>440.6666666666667</ele><time>2026-03-28T14:20:52.652Z</time></trkpt><trkpt lat="42.7179902" lon="12.402813"><ele>438.5</ele><time>2026-03-28T14:20:54.655Z</time></trkpt><trkpt lat="42.7180283" lon="12.4027126"><ele>436.33333333333337</ele><time>2026-03-28T14:22:19.657Z</time></trkpt><trkpt lat="42.7180056" lon="12.4025991"><ele>434.1666666666667</ele><time>2026-03-28T14:22:21.655Z</time></trkpt><trkpt lat="42.7179373" lon="12.4025237"><ele>432.0</ele><time>2026-03-28T14:22:23.643Z</time></trkpt><trkpt lat="42.7178761" lon="12.4025516"><ele>432.0</ele><time>2026-03-28T14:22:25.641Z</time></trkpt><trkpt lat="42.7178049" lon="12.4026147"><ele>432.0</ele><time>2026-03-28T14:22:27.646Z</time></trkpt><trkpt lat="42.717723" lon="12.4026684"><ele>432.0</ele><time>2026-03-28T14:22:29.652Z</time></trkpt><trkpt lat="42.7176397" lon="12.4026519"><ele>432.0</ele><time>2026-03-28T14:22:31.663Z</time></trkpt><trkpt lat="42.7175739" lon="12.402601"><ele>432.0</ele><time>2026-03-28T14:22:33.651Z</time></trkpt><trkpt lat="42.7175198" lon="12.4025538"><ele>432.0</ele><time>2026-03-28T14:22:35.66Z</time></trkpt><trkpt lat="42.7174757" lon="12.4026157"><ele>430.1666666666667</ele><time>2026-03-28T14:22:38.663Z</time></trkpt><trkpt lat="42.7175169" lon="12.4027044"><ele>428.33333333333337</ele><time>2026-03-28T14:22:40.653Z</time></trkpt><trkpt lat="42.7176062" lon="12.4028141"><ele>426.5</ele><time>2026-03-28T14:22:42.667Z</time></trkpt><trkpt lat="42.7176698" lon="12.40289"><ele>424.6666666666667</ele><time>2026-03-28T14:22:43.644Z</time></trkpt><trkpt lat="42.7177296" lon="12.402967"><ele>422.83333333333337</ele><time>2026-03-28T14:22:44.661Z</time></trkpt><trkpt lat="42.7177899" lon="12.4030351"><ele>421.0</ele><time>2026-03-28T14:22:45.653Z</time></trkpt><trkpt lat="42.7178462" lon="12.4030928"><ele>421.00000000000006</ele><time>2026-03-28T14:22:46.657Z</time></trkpt><trkpt lat="42.7179001" lon="12.4031501"><ele>421.0</ele><time>2026-03-28T14:22:47.654Z</time></trkpt><trkpt lat="42.7179526" lon="12.4032008"><ele>421.0</ele><time>2026-03-28T14:22:48.653Z</time></trkpt><trkpt lat="42.7180637" lon="12.403242"><ele>421.0</ele><time>2026-03-28T14:22:50.668Z</time></trkpt><trkpt lat="42.7181328" lon="12.4032253"><ele>421.00000000000006</ele><time>2026-03-28T14:22:51.655Z</time></trkpt><trkpt lat="42.7181971" lon="12.4031862"><ele>421.0</ele><time>2026-03-28T14:22:52.655Z</time></trkpt><trkpt lat="42.7182548" lon="12.4031223"><ele>421.0</ele><time>2026-03-28T14:22:53.646Z</time></trkpt><trkpt lat="42.7183138" lon="12.4030458"><ele>421.0</ele><time>2026-03-28T14:22:54.671Z</time></trkpt><trkpt lat="42.7183748" lon="12.4029564"><ele>421.0</ele><time>2026-03-28T14:22:55.672Z</time></trkpt><trkpt lat="42.718433" lon="12.402851"><ele>421.0</ele><time>2026-03-28T14:22:56.654Z</time></trkpt><trkpt lat="42.7185038" lon="12.4027573"><ele>421.0</ele><time>2026-03-28T14:22:57.657Z</time></trkpt><trkpt lat="42.718575" lon="12.4026828"><ele>420.1666666666667</ele><time>2026-03-28T14:22:58.653Z</time></trkpt><trkpt lat="42.7186448" lon="12.4026321"><ele>419.33333333333337</ele><time>2026-03-28T14:22:59.672Z</time></trkpt><trkpt lat="42.7187412" lon="12.4026002"><ele>418.5</ele><time>2026-03-28T14:23:01.658Z</time></trkpt><trkpt lat="42.7188143" lon="12.4025847"><ele>417.66666666666663</ele><time>2026-03-28T14:23:03.641Z</time></trkpt><trkpt lat="42.7189024" lon="12.402588"><ele>416.8333333333333</ele><time>2026-03-28T14:23:05.662Z</time></trkpt><trkpt lat="42.7189961" lon="12.4025736"><ele>416.0</ele><time>2026-03-28T14:23:07.653Z</time></trkpt><trkpt lat="42.7190598" lon="12.4025557"><ele>416.0</ele><time>2026-03-28T14:23:08.656Z</time></trkpt><trkpt lat="42.7191476" lon="12.4025281"><ele>416.0</ele><time>2026-03-28T14:23:09.653Z</time></trkpt><trkpt lat="42.7192549" lon="12.4024933"><ele>416.0</ele><time>2026-03-28T14:23:10.647Z</time></trkpt><trkpt lat="42.7194019" lon="12.4024347"><ele>416.0</ele><time>2026-03-28T14:23:11.658Z</time></trkpt><trkpt lat="42.7195864" lon="12.4023554"><ele>416.0</ele><time>2026-03-28T14:23:12.649Z</time></trkpt><trkpt lat="42.7197807" lon="12.4022761"><ele>416.0</ele><time>2026-03-28T14:23:13.653Z</time></trkpt><trkpt lat="42.719957" lon="12.4022063"><ele>416.0</ele><time>2026-03-28T14:23:14.66Z</time></trkpt><trkpt lat="42.7201114" lon="12.402149"><ele>413.66666666666663</ele><time>2026-03-28T14:23:15.659Z</time></trkpt><trkpt lat="42.7202623" lon="12.4021037"><ele>411.33333333333337</ele><time>2026-03-28T14:23:16.652Z</time></trkpt><trkpt lat="42.720422" lon="12.4020622"><ele>409.0</ele><time>2026-03-28T14:23:17.652Z</time></trkpt><trkpt lat="42.7205727" lon="12.4020281"><ele>409.0</ele><time>2026-03-28T14:23:18.648Z</time></trkpt><trkpt lat="42.7207001" lon="12.4020141"><ele>409.0</ele><time>2026-03-28T14:23:19.644Z</time></trkpt><trkpt lat="42.7208066" lon="12.4020232"><ele>409.0</ele><time>2026-03-28T14:23:20.655Z</time></trkpt><trkpt lat="42.7209063" lon="12.4020613"><ele>409.0</ele><time>2026-03-28T14:23:21.638Z</time></trkpt><trkpt lat="42.7210041" lon="12.4021435"><ele>407.25</ele><time>2026-03-28T14:23:22.654Z</time></trkpt><trkpt lat="42.7210963" lon="12.4022435"><ele>405.5</ele><time>2026-03-28T14:23:23.665Z</time></trkpt><trkpt lat="42.7211983" lon="12.4023187"><ele>403.75</ele><time>2026-03-28T14:23:24.661Z</time></trkpt><trkpt lat="42.7213118" lon="12.4023734"><ele>402.0</ele><time>2026-03-28T14:23:25.646Z</time></trkpt><trkpt lat="42.7214254" lon="12.4024182"><ele>402.0</ele><time>2026-03-28T14:23:26.653Z</time></trkpt><trkpt lat="42.7215305" lon="12.4024502"><ele>402.0</ele><time>2026-03-28T14:23:27.655Z</time></trkpt><trkpt lat="42.7216104" lon="12.4024653"><ele>402.0</ele><time>2026-03-28T14:23:28.649Z</time></trkpt><trkpt lat="42.7216805" lon="12.4024641"><ele>402.0</ele><time>2026-03-28T14:23:29.655Z</time></trkpt><trkpt lat="42.7217509" lon="12.402426"><ele>402.0</ele><time>2026-03-28T14:23:30.66Z</time></trkpt><trkpt lat="42.7218148" lon="12.4023503"><ele>402.0</ele><time>2026-03-28T14:23:31.653Z</time></trkpt><trkpt lat="42.721864" lon="12.4022412"><ele>398.75</ele><time>2026-03-28T14:23:32.647Z</time></trkpt><trkpt lat="42.7219053" lon="12.4021068"><ele>395.5</ele><time>2026-03-28T14:23:33.653Z</time></trkpt><trkpt lat="42.7219389" lon="12.4019581"><ele>392.25</ele><time>2026-03-28T14:23:34.646Z</time></trkpt><trkpt lat="42.7219863" lon="12.4018169"><ele>389.0</ele><time>2026-03-28T14:23:35.65Z</time></trkpt><trkpt lat="42.722056" lon="12.4016822"><ele>389.0</ele><time>2026-03-28T14:23:36.648Z</time></trkpt><trkpt lat="42.7221549" lon="12.4015476"><ele>389.0</ele><time>2026-03-28T14:23:37.655Z</time></trkpt><trkpt lat="42.7222717" lon="12.4014075"><ele>389.0</ele><time>2026-03-28T14:23:38.653Z</time></trkpt><trkpt lat="42.7223812" lon="12.4012647"><ele>389.0</ele><time>2026-03-28T14:23:39.663Z</time></trkpt><trkpt lat="42.7224817" lon="12.4011277"><ele>390.5</ele><time>2026-03-28T14:23:40.663Z</time></trkpt><trkpt lat="42.7225811" lon="12.4009968"><ele>392.0</ele><time>2026-03-28T14:23:41.655Z</time></trkpt><trkpt lat="42.7226698" lon="12.4008676"><ele>393.5</ele><time>2026-03-28T14:23:42.651Z</time></trkpt><trkpt lat="42.72275" lon="12.4007347"><ele>395.0</ele><time>2026-03-28T14:23:43.65Z</time></trkpt><trkpt lat="42.7228235" lon="12.4005979"><ele>394.0</ele><time>2026-03-28T14:23:44.685Z</time></trkpt><trkpt lat="42.7228922" lon="12.4004538"><ele>393.0</ele><time>2026-03-28T14:23:45.655Z</time></trkpt><trkpt lat="42.72296" lon="12.4003201"><ele>392.0</ele><time>2026-03-28T14:23:46.651Z</time></trkpt><trkpt lat="42.7230322" lon="12.4002051"><ele>391.0</ele><time>2026-03-28T14:23:47.66Z</time></trkpt><trkpt lat="42.7231043" lon="12.4001107"><ele>391.0</ele><time>2026-03-28T14:23:48.651Z</time></trkpt><trkpt lat="42.7231724" lon="12.400029"><ele>391.0</ele><time>2026-03-28T14:23:49.666Z</time></trkpt><trkpt lat="42.723256" lon="12.3999646"><ele>391.0</ele><time>2026-03-28T14:23:50.65Z</time></trkpt><trkpt lat="42.7233642" lon="12.39993"><ele>391.0</ele><time>2026-03-28T14:23:51.657Z</time></trkpt><trkpt lat="42.7234916" lon="12.3999134"><ele>391.0</ele><time>2026-03-28T14:23:52.666Z</time></trkpt><trkpt lat="42.7236353" lon="12.3998892"><ele>387.33333333333337</ele><time>2026-03-28T14:23:53.655Z</time></trkpt><trkpt lat="42.7237908" lon="12.3998436"><ele>383.6666666666667</ele><time>2026-03-28T14:23:54.648Z</time></trkpt><trkpt lat="42.7239412" lon="12.3997954"><ele>380.0</ele><time>2026-03-28T14:23:55.652Z</time></trkpt><trkpt lat="42.7240808" lon="12.3997625"><ele>380.0</ele><time>2026-03-28T14:23:56.654Z</time></trkpt><trkpt lat="42.7242084" lon="12.3997396"><ele>380.0</ele><time>2026-03-28T14:23:57.657Z</time></trkpt><trkpt lat="42.7243278" lon="12.3997198"><ele>380.0</ele><time>2026-03-28T14:23:58.662Z</time></trkpt><trkpt lat="42.7244483" lon="12.3997078"><ele>380.0</ele><time>2026-03-28T14:23:59.657Z</time></trkpt><trkpt lat="42.7245469" lon="12.399696"><ele>379.4</ele><time>2026-03-28T14:24:00.669Z</time></trkpt><trkpt lat="42.7246364" lon="12.3996861"><ele>378.8</ele><time>2026-03-28T14:24:01.646Z</time></trkpt><trkpt lat="42.7247278" lon="12.3996687"><ele>378.20000000000005</ele><time>2026-03-28T14:24:02.654Z</time></trkpt><trkpt lat="42.7248227" lon="12.3996541"><ele>377.6</ele><time>2026-03-28T14:24:03.65Z</time></trkpt><trkpt lat="42.7249105" lon="12.3996627"><ele>377.0</ele><time>2026-03-28T14:24:04.654Z</time></trkpt><trkpt lat="42.7250118" lon="12.3996866"><ele>376.0</ele><time>2026-03-28T14:24:05.656Z</time></trkpt><trkpt lat="42.725125" lon="12.3997048"><ele>375.0</ele><time>2026-03-28T14:24:06.654Z</time></trkpt><trkpt lat="42.7252362" lon="12.3997027"><ele>374.0</ele><time>2026-03-28T14:24:07.665Z</time></trkpt><trkpt lat="42.7253613" lon="12.399682"><ele>373.0</ele><time>2026-03-28T14:24:08.638Z</time></trkpt><trkpt lat="42.725493" lon="12.3996438"><ele>371.25</ele><time>2026-03-28T14:24:09.654Z</time></trkpt><trkpt lat="42.7256139" lon="12.3995903"><ele>369.5</ele><time>2026-03-28T14:24:10.651Z</time></trkpt><trkpt lat="42.7257296" lon="12.3995427"><ele>367.75</ele><time>2026-03-28T14:24:11.659Z</time></trkpt><trkpt lat="42.7258378" lon="12.3995039"><ele>366.0</ele><time>2026-03-28T14:24:12.661Z</time></trkpt><trkpt lat="42.7259421" lon="12.3994421"><ele>366.0</ele><time>2026-03-28T14:24:13.667Z</time></trkpt><trkpt lat="42.7260378" lon="12.3993548"><ele>366.0</ele><time>2026-03-28T14:24:14.655Z</time></trkpt><trkpt lat="42.7261138" lon="12.3992555"><ele>366.0</ele><time>2026-03-28T14:24:15.648Z</time></trkpt><trkpt lat="42.7261779" lon="12.3991617"><ele>366.0</ele><time>2026-03-28T14:24:16.655Z</time></trkpt><trkpt lat="42.7262361" lon="12.3990842"><ele>366.0</ele><time>2026-03-28T14:24:17.654Z</time></trkpt><trkpt lat="42.7262918" lon="12.399011"><ele>364.4</ele><time>2026-03-28T14:24:18.65Z</time></trkpt><trkpt lat="42.7263529" lon="12.3989365"><ele>362.8</ele><time>2026-03-28T14:24:19.661Z</time></trkpt><trkpt lat="42.7264283" lon="12.3988467"><ele>361.2</ele><time>2026-03-28T14:24:20.652Z</time></trkpt><trkpt lat="42.7265088" lon="12.3987225"><ele>359.59999999999997</ele><time>2026-03-28T14:24:21.649Z</time></trkpt><trkpt lat="42.7265859" lon="12.3985702"><ele>358.0</ele><time>2026-03-28T14:24:22.643Z</time></trkpt><trkpt lat="42.7266487" lon="12.3984155"><ele>358.0</ele><time>2026-03-28T14:24:23.673Z</time></trkpt><trkpt lat="42.7267147" lon="12.3982694"><ele>358.0</ele><time>2026-03-28T14:24:24.65Z</time></trkpt><trkpt lat="42.7267903" lon="12.3981385"><ele>358.0</ele><time>2026-03-28T14:24:25.645Z</time></trkpt><trkpt lat="42.7268979" lon="12.3980389"><ele>358.0</ele><time>2026-03-28T14:24:26.657Z</time></trkpt><trkpt lat="42.7270392" lon="12.3979682"><ele>356.3333333333333</ele><time>2026-03-28T14:24:27.66Z</time></trkpt><trkpt lat="42.7271934" lon="12.3978865"><ele>354.6666666666667</ele><time>2026-03-28T14:24:28.671Z</time></trkpt><trkpt lat="42.7273403" lon="12.397805"><ele>353.0</ele><time>2026-03-28T14:24:29.65Z</time></trkpt><trkpt lat="42.7274679" lon="12.3976959"><ele>353.0</ele><time>2026-03-28T14:24:30.664Z</time></trkpt><trkpt lat="42.7275809" lon="12.3975664"><ele>353.0</ele><time>2026-03-28T14:24:31.67Z</time></trkpt><trkpt lat="42.7276838" lon="12.3974355"><ele>353.0</ele><time>2026-03-28T14:24:32.65Z</time></trkpt><trkpt lat="42.7277886" lon="12.3973119"><ele>353.0</ele><time>2026-03-28T14:24:33.664Z</time></trkpt><trkpt lat="42.727889" lon="12.3971935"><ele>352.0</ele><time>2026-03-28T14:24:34.643Z</time></trkpt><trkpt lat="42.7279869" lon="12.397073"><ele>351.0</ele><time>2026-03-28T14:24:35.652Z</time></trkpt><trkpt lat="42.728082" lon="12.3969571"><ele>350.0</ele><time>2026-03-28T14:24:36.668Z</time></trkpt><trkpt lat="42.7281724" lon="12.3968389"><ele>349.0</ele><time>2026-03-28T14:24:37.66Z</time></trkpt><trkpt lat="42.7282582" lon="12.3967343"><ele>349.0</ele><time>2026-03-28T14:24:38.66Z</time></trkpt><trkpt lat="42.7283433" lon="12.3966503"><ele>349.0</ele><time>2026-03-28T14:24:39.656Z</time></trkpt><trkpt lat="42.7284405" lon="12.396608"><ele>349.0</ele><time>2026-03-28T14:24:40.654Z</time></trkpt><trkpt lat="42.7285459" lon="12.3966084"><ele>349.0</ele><time>2026-03-28T14:24:41.661Z</time></trkpt><trkpt lat="42.7286468" lon="12.3966694"><ele>349.0</ele><time>2026-03-28T14:24:42.651Z</time></trkpt><trkpt lat="42.7287365" lon="12.3967762"><ele>347.4</ele><time>2026-03-28T14:24:43.685Z</time></trkpt><trkpt lat="42.7288017" lon="12.3969106"><ele>345.79999999999995</ele><time>2026-03-28T14:24:44.667Z</time></trkpt><trkpt lat="42.7288581" lon="12.3970418"><ele>344.20000000000005</ele><time>2026-03-28T14:24:45.662Z</time></trkpt><trkpt lat="42.7289127" lon="12.3971434"><ele>342.6</ele><time>2026-03-28T14:24:46.663Z</time></trkpt><trkpt lat="42.7289804" lon="12.397194"><ele>341.0</ele><time>2026-03-28T14:24:47.652Z</time></trkpt><trkpt lat="42.729067" lon="12.3971994"><ele>341.0</ele><time>2026-03-28T14:24:48.663Z</time></trkpt><trkpt lat="42.7291749" lon="12.3971556"><ele>341.0</ele><time>2026-03-28T14:24:49.648Z</time></trkpt><trkpt lat="42.7292863" lon="12.3970901"><ele>341.0</ele><time>2026-03-28T14:24:50.649Z</time></trkpt><trkpt lat="42.7293861" lon="12.3970674"><ele>341.0</ele><time>2026-03-28T14:24:51.658Z</time></trkpt><trkpt lat="42.7294845" lon="12.3970842"><ele>341.0</ele><time>2026-03-28T14:24:52.654Z</time></trkpt><trkpt lat="42.7295853" lon="12.3971631"><ele>339.75</ele><time>2026-03-28T14:24:53.656Z</time></trkpt><trkpt lat="42.7296904" lon="12.3972754"><ele>338.5</ele><time>2026-03-28T14:24:54.651Z</time></trkpt><trkpt lat="42.7297899" lon="12.3973949"><ele>337.25</ele><time>2026-03-28T14:24:55.654Z</time></trkpt><trkpt lat="42.7298959" lon="12.397511"><ele>336.0</ele><time>2026-03-28T14:24:56.662Z</time></trkpt><trkpt lat="42.7299991" lon="12.3975938"><ele>336.0</ele><time>2026-03-28T14:24:57.654Z</time></trkpt><trkpt lat="42.7301097" lon="12.3976272"><ele>336.0</ele><time>2026-03-28T14:24:58.667Z</time></trkpt><trkpt lat="42.7302241" lon="12.3976146"><ele>336.0</ele><time>2026-03-28T14:24:59.667Z</time></trkpt><trkpt lat="42.7303459" lon="12.3975559"><ele>336.0</ele><time>2026-03-28T14:25:00.645Z</time></trkpt><trkpt lat="42.7304745" lon="12.3974557"><ele>333.5</ele><time>2026-03-28T14:25:01.64Z</time></trkpt><trkpt lat="42.7306117" lon="12.3973582"><ele>331.0</ele><time>2026-03-28T14:25:02.662Z</time></trkpt><trkpt lat="42.7307472" lon="12.3973038"><ele>328.5</ele><time>2026-03-28T14:25:03.664Z</time></trkpt><trkpt lat="42.7308773" lon="12.3972907"><ele>326.0</ele><time>2026-03-28T14:25:04.662Z</time></trkpt><trkpt lat="42.7310083" lon="12.3973018"><ele>324.25</ele><time>2026-03-28T14:25:05.641Z</time></trkpt><trkpt lat="42.7311386" lon="12.3973498"><ele>322.5</ele><time>2026-03-28T14:25:06.668Z</time></trkpt><trkpt lat="42.7312634" lon="12.3974322"><ele>320.75</ele><time>2026-03-28T14:25:07.647Z</time></trkpt><trkpt lat="42.7313719" lon="12.3975311"><ele>319.0</ele><time>2026-03-28T14:25:08.642Z</time></trkpt><trkpt lat="42.7314622" lon="12.3976614"><ele>319.0</ele><time>2026-03-28T14:25:09.655Z</time></trkpt><trkpt lat="42.7315472" lon="12.3978158"><ele>319.0</ele><time>2026-03-28T14:25:10.652Z</time></trkpt><trkpt lat="42.7316246" lon="12.3979766"><ele>319.0</ele><time>2026-03-28T14:25:11.665Z</time></trkpt><trkpt lat="42.7317028" lon="12.3981198"><ele>319.0</ele><time>2026-03-28T14:25:12.651Z</time></trkpt><trkpt lat="42.7318077" lon="12.3982389"><ele>315.3333333333333</ele><time>2026-03-28T14:25:13.661Z</time></trkpt><trkpt lat="42.7319467" lon="12.3983261"><ele>311.6666666666667</ele><time>2026-03-28T14:25:14.673Z</time></trkpt><trkpt lat="42.7321102" lon="12.398402"><ele>308.0</ele><time>2026-03-28T14:25:15.663Z</time></trkpt><trkpt lat="42.7323039" lon="12.3984574"><ele>308.0</ele><time>2026-03-28T14:25:16.645Z</time></trkpt><trkpt lat="42.7325154" lon="12.3985048"><ele>308.0</ele><time>2026-03-28T14:25:17.678Z</time></trkpt><trkpt lat="42.7327292" lon="12.3985661"><ele>308.0</ele><time>2026-03-28T14:25:18.65Z</time></trkpt><trkpt lat="42.7329409" lon="12.3986299"><ele>306.0</ele><time>2026-03-28T14:25:19.662Z</time></trkpt><trkpt lat="42.7331457" lon="12.3986982"><ele>304.0</ele><time>2026-03-28T14:25:20.67Z</time></trkpt><trkpt lat="42.7333392" lon="12.3987589"><ele>302.0</ele><time>2026-03-28T14:25:21.64Z</time></trkpt><trkpt lat="42.7335211" lon="12.3988145"><ele>297.0</ele><time>2026-03-28T14:25:22.657Z</time></trkpt><trkpt lat="42.7336958" lon="12.3988679"><ele>292.0</ele><time>2026-03-28T14:25:23.649Z</time></trkpt><trkpt lat="42.7338621" lon="12.3989203"><ele>287.0</ele><time>2026-03-28T14:25:24.655Z</time></trkpt><trkpt lat="42.7340167" lon="12.3989671"><ele>287.0</ele><time>2026-03-28T14:25:25.654Z</time></trkpt><trkpt lat="42.7341451" lon="12.3990034"><ele>287.0</ele><time>2026-03-28T14:25:26.672Z</time></trkpt><trkpt lat="42.7342654" lon="12.3990239"><ele>287.0</ele><time>2026-03-28T14:25:27.665Z</time></trkpt><trkpt lat="42.7343867" lon="12.3989951"><ele>287.0</ele><time>2026-03-28T14:25:28.65Z</time></trkpt><trkpt lat="42.734512" lon="12.3988992"><ele>287.33333333333337</ele><time>2026-03-28T14:25:29.664Z</time></trkpt><trkpt lat="42.7346263" lon="12.3987491"><ele>287.6666666666667</ele><time>2026-03-28T14:25:30.668Z</time></trkpt><trkpt lat="42.734732" lon="12.3985863"><ele>288.0</ele><time>2026-03-28T14:25:31.65Z</time></trkpt><trkpt lat="42.7348248" lon="12.3984575"><ele>288.0</ele><time>2026-03-28T14:25:32.651Z</time></trkpt><trkpt lat="42.7349209" lon="12.3983936"><ele>288.0</ele><time>2026-03-28T14:25:33.669Z</time></trkpt><trkpt lat="42.735035" lon="12.3983674"><ele>288.0</ele><time>2026-03-28T14:25:34.654Z</time></trkpt><trkpt lat="42.7351587" lon="12.3983759"><ele>288.0</ele><time>2026-03-28T14:25:35.65Z</time></trkpt><trkpt lat="42.7352893" lon="12.3984415"><ele>285.3333333333333</ele><time>2026-03-28T14:25:36.661Z</time></trkpt><trkpt lat="42.7354193" lon="12.3985543"><ele>282.66666666666663</ele><time>2026-03-28T14:25:37.651Z</time></trkpt><trkpt lat="42.7355289" lon="12.3986999"><ele>280.0</ele><time>2026-03-28T14:25:38.662Z</time></trkpt><trkpt lat="42.7356259" lon="12.3988805"><ele>278.66666666666663</ele><time>2026-03-28T14:25:39.657Z</time></trkpt><trkpt lat="42.7357219" lon="12.3990602"><ele>277.3333333333333</ele><time>2026-03-28T14:25:40.651Z</time></trkpt><trkpt lat="42.7358139" lon="12.3992277"><ele>276.0</ele><time>2026-03-28T14:25:41.654Z</time></trkpt><trkpt lat="42.7358883" lon="12.3993929"><ele>276.0</ele><time>2026-03-28T14:25:42.662Z</time></trkpt><trkpt lat="42.7359321" lon="12.399556"><ele>276.0</ele><time>2026-03-28T14:25:43.664Z</time></trkpt><trkpt lat="42.7359325" lon="12.3997178"><ele>276.0</ele><time>2026-03-28T14:25:44.664Z</time></trkpt><trkpt lat="42.735891" lon="12.3998813"><ele>276.0</ele><time>2026-03-28T14:25:45.647Z</time></trkpt><trkpt lat="42.7358336" lon="12.400024"><ele>274.75</ele><time>2026-03-28T14:25:46.648Z</time></trkpt><trkpt lat="42.7357963" lon="12.4001723"><ele>273.5</ele><time>2026-03-28T14:25:47.663Z</time></trkpt><trkpt lat="42.7357978" lon="12.4003475"><ele>272.25</ele><time>2026-03-28T14:25:48.653Z</time></trkpt><trkpt lat="42.7358275" lon="12.4005211"><ele>271.0</ele><time>2026-03-28T14:25:49.654Z</time></trkpt><trkpt lat="42.735876" lon="12.4006798"><ele>269.75</ele><time>2026-03-28T14:25:50.65Z</time></trkpt><trkpt lat="42.7359387" lon="12.4008173"><ele>268.5</ele><time>2026-03-28T14:25:51.667Z</time></trkpt><trkpt lat="42.736031" lon="12.4009294"><ele>267.25</ele><time>2026-03-28T14:25:52.653Z</time></trkpt><trkpt lat="42.7361572" lon="12.4010029"><ele>266.0</ele><time>2026-03-28T14:25:53.646Z</time></trkpt><trkpt lat="42.7363236" lon="12.401048"><ele>264.0</ele><time>2026-03-28T14:25:54.647Z</time></trkpt><trkpt lat="42.7364989" lon="12.4010766"><ele>262.0</ele><time>2026-03-28T14:25:55.669Z</time></trkpt><trkpt lat="42.7366718" lon="12.4011076"><ele>260.0</ele><time>2026-03-28T14:25:56.655Z</time></trkpt><trkpt lat="42.7368348" lon="12.4011463"><ele>258.75</ele><time>2026-03-28T14:25:57.665Z</time></trkpt><trkpt lat="42.7369841" lon="12.4011766"><ele>257.5</ele><time>2026-03-28T14:25:58.664Z</time></trkpt><trkpt lat="42.7371174" lon="12.4012021"><ele>256.25</ele><time>2026-03-28T14:25:59.653Z</time></trkpt><trkpt lat="42.7372394" lon="12.4012285"><ele>255.0</ele><time>2026-03-28T14:26:00.653Z</time></trkpt><trkpt lat="42.7373444" lon="12.4012497"><ele>255.0</ele><time>2026-03-28T14:26:01.658Z</time></trkpt><trkpt lat="42.737436" lon="12.4012865"><ele>255.0</ele><time>2026-03-28T14:26:02.649Z</time></trkpt><trkpt lat="42.7375156" lon="12.4013622"><ele>255.0</ele><time>2026-03-28T14:26:03.684Z</time></trkpt><trkpt lat="42.7375736" lon="12.4014902"><ele>255.0</ele><time>2026-03-28T14:26:04.666Z</time></trkpt><trkpt lat="42.7375942" lon="12.4016523"><ele>255.0</ele><time>2026-03-28T14:26:05.665Z</time></trkpt><trkpt lat="42.737586" lon="12.4018531"><ele>254.25</ele><time>2026-03-28T14:26:06.639Z</time></trkpt><trkpt lat="42.7375745" lon="12.4020638"><ele>253.5</ele><time>2026-03-28T14:26:07.656Z</time></trkpt><trkpt lat="42.7375715" lon="12.4022663"><ele>252.75</ele><time>2026-03-28T14:26:08.649Z</time></trkpt><trkpt lat="42.7375667" lon="12.4024547"><ele>252.0</ele><time>2026-03-28T14:26:09.678Z</time></trkpt><trkpt lat="42.737567" lon="12.402616"><ele>251.0</ele><time>2026-03-28T14:26:10.66Z</time></trkpt><trkpt lat="42.7375892" lon="12.4027608"><ele>250.0</ele><time>2026-03-28T14:26:11.667Z</time></trkpt><trkpt lat="42.7376533" lon="12.4028911"><ele>249.0</ele><time>2026-03-28T14:26:12.649Z</time></trkpt><trkpt lat="42.7377622" lon="12.402998"><ele>248.0</ele><time>2026-03-28T14:26:13.653Z</time></trkpt><trkpt lat="42.7379052" lon="12.403079"><ele>246.25</ele><time>2026-03-28T14:26:14.642Z</time></trkpt><trkpt lat="42.7380451" lon="12.4031586"><ele>244.5</ele><time>2026-03-28T14:26:15.665Z</time></trkpt><trkpt lat="42.7381728" lon="12.4032341"><ele>242.75</ele><time>2026-03-28T14:26:16.659Z</time></trkpt><trkpt lat="42.7382922" lon="12.4033121"><ele>241.0</ele><time>2026-03-28T14:26:17.662Z</time></trkpt><trkpt lat="42.7383918" lon="12.4034098"><ele>241.0</ele><time>2026-03-28T14:26:18.66Z</time></trkpt><trkpt lat="42.7384658" lon="12.4035364"><ele>241.0</ele><time>2026-03-28T14:26:19.652Z</time></trkpt><trkpt lat="42.7385125" lon="12.4036912"><ele>241.0</ele><time>2026-03-28T14:26:20.668Z</time></trkpt><trkpt lat="42.7385391" lon="12.4038496"><ele>241.0</ele><time>2026-03-28T14:26:21.654Z</time></trkpt><trkpt lat="42.7385585" lon="12.4039892"><ele>239.16666666666666</ele><time>2026-03-28T14:26:22.654Z</time></trkpt><trkpt lat="42.73859" lon="12.4040936"><ele>237.33333333333331</ele><time>2026-03-28T14:26:23.665Z</time></trkpt><trkpt lat="42.7386466" lon="12.4041595"><ele>235.5</ele><time>2026-03-28T14:26:24.669Z</time></trkpt><trkpt lat="42.7387269" lon="12.4041783"><ele>233.66666666666669</ele><time>2026-03-28T14:26:25.654Z</time></trkpt><trkpt lat="42.7388078" lon="12.4041156"><ele>231.83333333333334</ele><time>2026-03-28T14:26:26.648Z</time></trkpt><trkpt lat="42.7388552" lon="12.4039836"><ele>230.0</ele><time>2026-03-28T14:26:27.644Z</time></trkpt><trkpt lat="42.7388772" lon="12.4038174"><ele>230.0</ele><time>2026-03-28T14:26:28.652Z</time></trkpt><trkpt lat="42.7388807" lon="12.4036658"><ele>230.0</ele><time>2026-03-28T14:26:29.655Z</time></trkpt><trkpt lat="42.7389019" lon="12.4035239"><ele>230.0</ele><time>2026-03-28T14:26:30.662Z</time></trkpt><trkpt lat="42.7389432" lon="12.403402"><ele>230.0</ele><time>2026-03-28T14:26:31.665Z</time></trkpt><trkpt lat="42.7390094" lon="12.4032957"><ele>230.0</ele><time>2026-03-28T14:26:32.665Z</time></trkpt><trkpt lat="42.7391071" lon="12.4032321"><ele>230.0</ele><time>2026-03-28T14:26:33.67Z</time></trkpt><trkpt lat="42.7392354" lon="12.4031988"><ele>230.0</ele><time>2026-03-28T14:26:34.649Z</time></trkpt><trkpt lat="42.7393651" lon="12.4031806"><ele>230.0</ele><time>2026-03-28T14:26:35.655Z</time></trkpt><trkpt lat="42.7395107" lon="12.4031739"><ele>230.0</ele><time>2026-03-28T14:26:36.649Z</time></trkpt><trkpt lat="42.739659" lon="12.403204"><ele>229.5</ele><time>2026-03-28T14:26:37.654Z</time></trkpt><trkpt lat="42.7397831" lon="12.4032703"><ele>229.0</ele><time>2026-03-28T14:26:38.654Z</time></trkpt><trkpt lat="42.7398692" lon="12.4033678"><ele>228.5</ele><time>2026-03-28T14:26:39.652Z</time></trkpt><trkpt lat="42.739949" lon="12.4034708"><ele>228.0</ele><time>2026-03-28T14:26:40.679Z</time></trkpt><trkpt lat="42.7400481" lon="12.4035509"><ele>228.0</ele><time>2026-03-28T14:26:41.645Z</time></trkpt><trkpt lat="42.7401668" lon="12.4036141"><ele>228.0</ele><time>2026-03-28T14:26:42.663Z</time></trkpt><trkpt lat="42.7403176" lon="12.40364"><ele>228.0</ele><time>2026-03-28T14:26:43.668Z</time></trkpt><trkpt lat="42.7405193" lon="12.4036182"><ele>226.66666666666669</ele><time>2026-03-28T14:26:44.653Z</time></trkpt><trkpt lat="42.7407261" lon="12.403592"><ele>225.33333333333334</ele><time>2026-03-28T14:26:45.661Z</time></trkpt><trkpt lat="42.7409362" lon="12.4036049"><ele>224.0</ele><time>2026-03-28T14:26:46.652Z</time></trkpt><trkpt lat="42.7411458" lon="12.4036779"><ele>224.0</ele><time>2026-03-28T14:26:47.65Z</time></trkpt><trkpt lat="42.7413537" lon="12.4037584"><ele>224.0</ele><time>2026-03-28T14:26:48.665Z</time></trkpt><trkpt lat="42.7415616" lon="12.4038466"><ele>224.0</ele><time>2026-03-28T14:26:49.672Z</time></trkpt><trkpt lat="42.741772" lon="12.4039469"><ele>221.66666666666669</ele><time>2026-03-28T14:26:50.646Z</time></trkpt><trkpt lat="42.7419716" lon="12.4040757"><ele>219.33333333333331</ele><time>2026-03-28T14:26:51.657Z</time></trkpt><trkpt lat="42.7421671" lon="12.4042177"><ele>217.0</ele><time>2026-03-28T14:26:52.664Z</time></trkpt><trkpt lat="42.7423511" lon="12.404363"><ele>217.0</ele><time>2026-03-28T14:26:53.651Z</time></trkpt><trkpt lat="42.7425503" lon="12.4044881"><ele>217.0</ele><time>2026-03-28T14:26:54.665Z</time></trkpt><trkpt lat="42.74276" lon="12.4045971"><ele>217.0</ele><time>2026-03-28T14:26:55.665Z</time></trkpt><trkpt lat="42.7429737" lon="12.4047158"><ele>216.0</ele><time>2026-03-28T14:26:56.666Z</time></trkpt><trkpt lat="42.743188" lon="12.4048466"><ele>215.0</ele><time>2026-03-28T14:26:57.66Z</time></trkpt><trkpt lat="42.7433871" lon="12.4049729"><ele>216.33333333333334</ele><time>2026-03-28T14:26:58.673Z</time></trkpt><trkpt lat="42.7435638" lon="12.4050844"><ele>217.66666666666669</ele><time>2026-03-28T14:26:59.663Z</time></trkpt><trkpt lat="42.743723" lon="12.4052017"><ele>219.0</ele><time>2026-03-28T14:27:00.664Z</time></trkpt><trkpt lat="42.7438796" lon="12.4053359"><ele>219.0</ele><time>2026-03-28T14:27:01.673Z</time></trkpt><trkpt lat="42.7440297" lon="12.4054935"><ele>219.0</ele><time>2026-03-28T14:27:02.657Z</time></trkpt><trkpt lat="42.7441702" lon="12.4056482"><ele>219.0</ele><time>2026-03-28T14:27:03.654Z</time></trkpt><trkpt lat="42.7442956" lon="12.4057962"><ele>219.33333333333331</ele><time>2026-03-28T14:27:04.651Z</time></trkpt><trkpt lat="42.7444178" lon="12.4059318"><ele>219.66666666666666</ele><time>2026-03-28T14:27:05.659Z</time></trkpt><trkpt lat="42.7445488" lon="12.4060745"><ele>220.0</ele><time>2026-03-28T14:27:06.649Z</time></trkpt><trkpt lat="42.7446894" lon="12.4062211"><ele>217.0</ele><time>2026-03-28T14:27:07.667Z</time></trkpt><trkpt lat="42.7448422" lon="12.4063767"><ele>214.0</ele><time>2026-03-28T14:27:08.643Z</time></trkpt><trkpt lat="42.7449945" lon="12.4065197"><ele>211.0</ele><time>2026-03-28T14:27:09.658Z</time></trkpt><trkpt lat="42.745137" lon="12.4066584"><ele>216.66666666666666</ele><time>2026-03-28T14:27:10.66Z</time></trkpt><trkpt lat="42.7452684" lon="12.4067877"><ele>222.33333333333331</ele><time>2026-03-28T14:27:11.664Z</time></trkpt><trkpt lat="42.7453798" lon="12.4069269"><ele>228.0</ele><time>2026-03-28T14:27:12.658Z</time></trkpt><trkpt lat="42.7454946" lon="12.4070921"><ele>224.66666666666669</ele><time>2026-03-28T14:27:13.664Z</time></trkpt><trkpt lat="42.7455948" lon="12.4072952"><ele>221.33333333333334</ele><time>2026-03-28T14:27:14.66Z</time></trkpt><trkpt lat="42.7456602" lon="12.4075182"><ele>218.0</ele><time>2026-03-28T14:27:15.665Z</time></trkpt><trkpt lat="42.7457169" lon="12.4077378"><ele>218.0</ele><time>2026-03-28T14:27:16.656Z</time></trkpt><trkpt lat="42.745767" lon="12.4079496"><ele>218.0</ele><time>2026-03-28T14:27:17.651Z</time></trkpt><trkpt lat="42.7458139" lon="12.4081608"><ele>218.0</ele><time>2026-03-28T14:27:18.645Z</time></trkpt><trkpt lat="42.745847" lon="12.4083926"><ele>215.75</ele><time>2026-03-28T14:27:19.65Z</time></trkpt><trkpt lat="42.7458492" lon="12.4086088"><ele>213.5</ele><time>2026-03-28T14:27:20.667Z</time></trkpt><trkpt lat="42.7458554" lon="12.4087998"><ele>211.25</ele><time>2026-03-28T14:27:21.663Z</time></trkpt><trkpt lat="42.7458762" lon="12.4089605"><ele>209.0</ele><time>2026-03-28T14:27:22.661Z</time></trkpt><trkpt lat="42.7459419" lon="12.409106"><ele>209.75</ele><time>2026-03-28T14:27:23.647Z</time></trkpt><trkpt lat="42.7460403" lon="12.4092331"><ele>210.5</ele><time>2026-03-28T14:27:24.657Z</time></trkpt><trkpt lat="42.7461675" lon="12.4093418"><ele>211.25</ele><time>2026-03-28T14:27:25.651Z</time></trkpt><trkpt lat="42.7463187" lon="12.4094118"><ele>212.0</ele><time>2026-03-28T14:27:26.653Z</time></trkpt><trkpt lat="42.7464813" lon="12.4094574"><ele>212.0</ele><time>2026-03-28T14:27:27.656Z</time></trkpt><trkpt lat="42.7466418" lon="12.4094865"><ele>212.0</ele><time>2026-03-28T14:27:28.651Z</time></trkpt><trkpt lat="42.7467995" lon="12.4095102"><ele>212.0</ele><time>2026-03-28T14:27:29.664Z</time></trkpt><trkpt lat="42.7469666" lon="12.4095206"><ele>212.0</ele><time>2026-03-28T14:27:30.669Z</time></trkpt><trkpt lat="42.7471454" lon="12.4095289"><ele>212.0</ele><time>2026-03-28T14:27:31.657Z</time></trkpt><trkpt lat="42.7473228" lon="12.4095293"><ele>212.0</ele><time>2026-03-28T14:27:32.641Z</time></trkpt><trkpt lat="42.7474909" lon="12.4095155"><ele>212.0</ele><time>2026-03-28T14:27:33.65Z</time></trkpt><trkpt lat="42.7476558" lon="12.4094939"><ele>212.0</ele><time>2026-03-28T14:27:34.664Z</time></trkpt><trkpt lat="42.7478176" lon="12.4094675"><ele>212.0</ele><time>2026-03-28T14:27:35.637Z</time></trkpt><trkpt lat="42.7479594" lon="12.4094277"><ele>209.25</ele><time>2026-03-28T14:27:36.659Z</time></trkpt><trkpt lat="42.7480786" lon="12.4093652"><ele>206.5</ele><time>2026-03-28T14:27:37.651Z</time></trkpt><trkpt lat="42.7481777" lon="12.4092855"><ele>203.75</ele><time>2026-03-28T14:27:38.662Z</time></trkpt><trkpt lat="42.748281" lon="12.4092119"><ele>201.0</ele><time>2026-03-28T14:27:39.64Z</time></trkpt><trkpt lat="42.7483932" lon="12.4091822"><ele>201.0</ele><time>2026-03-28T14:27:40.662Z</time></trkpt><trkpt lat="42.7484986" lon="12.4092068"><ele>201.0</ele><time>2026-03-28T14:27:41.642Z</time></trkpt><trkpt lat="42.748606" lon="12.4092774"><ele>201.0</ele><time>2026-03-28T14:27:42.654Z</time></trkpt><trkpt lat="42.7487044" lon="12.4093999"><ele>201.0</ele><time>2026-03-28T14:27:43.678Z</time></trkpt><trkpt lat="42.7488029" lon="12.4095332"><ele>197.33333333333334</ele><time>2026-03-28T14:27:44.643Z</time></trkpt><trkpt lat="42.7489143" lon="12.4096819"><ele>193.66666666666669</ele><time>2026-03-28T14:27:45.663Z</time></trkpt><trkpt lat="42.7490595" lon="12.4098119"><ele>190.0</ele><time>2026-03-28T14:27:46.656Z</time></trkpt><trkpt lat="42.7492375" lon="12.4099121"><ele>188.33333333333334</ele><time>2026-03-28T14:27:47.665Z</time></trkpt><trkpt lat="42.7494332" lon="12.4099729"><ele>186.66666666666666</ele><time>2026-03-28T14:27:48.663Z</time></trkpt><trkpt lat="42.7496391" lon="12.4100092"><ele>185.0</ele><time>2026-03-28T14:27:49.644Z</time></trkpt><trkpt lat="42.7498516" lon="12.4100254"><ele>185.0</ele><time>2026-03-28T14:27:50.651Z</time></trkpt><trkpt lat="42.7500593" lon="12.4100576"><ele>185.0</ele><time>2026-03-28T14:27:51.651Z</time></trkpt><trkpt lat="42.7502561" lon="12.4100849"><ele>185.0</ele><time>2026-03-28T14:27:52.662Z</time></trkpt><trkpt lat="42.7504441" lon="12.4101211"><ele>184.33333333333331</ele><time>2026-03-28T14:27:53.667Z</time></trkpt><trkpt lat="42.7506301" lon="12.4101805"><ele>183.66666666666666</ele><time>2026-03-28T14:27:54.648Z</time></trkpt><trkpt lat="42.7508081" lon="12.4102885"><ele>183.0</ele><time>2026-03-28T14:27:55.665Z</time></trkpt><trkpt lat="42.750995" lon="12.410417"><ele>183.0</ele><time>2026-03-28T14:27:56.641Z</time></trkpt><trkpt lat="42.7511792" lon="12.410555"><ele>183.0</ele><time>2026-03-28T14:27:57.662Z</time></trkpt><trkpt lat="42.7513621" lon="12.4107024"><ele>183.0</ele><time>2026-03-28T14:27:58.661Z</time></trkpt><trkpt lat="42.7515378" lon="12.4108389"><ele>183.0</ele><time>2026-03-28T14:27:59.666Z</time></trkpt><trkpt lat="42.7517106" lon="12.4109511"><ele>183.0</ele><time>2026-03-28T14:28:00.648Z</time></trkpt><trkpt lat="42.7518889" lon="12.4110167"><ele>183.0</ele><time>2026-03-28T14:28:01.659Z</time></trkpt><trkpt lat="42.7520681" lon="12.4110488"><ele>182.66666666666666</ele><time>2026-03-28T14:28:02.667Z</time></trkpt><trkpt lat="42.7522528" lon="12.411053"><ele>182.33333333333331</ele><time>2026-03-28T14:28:03.664Z</time></trkpt><trkpt lat="42.7524391" lon="12.4110317"><ele>182.0</ele><time>2026-03-28T14:28:04.653Z</time></trkpt><trkpt lat="42.7526313" lon="12.410971"><ele>181.0</ele><time>2026-03-28T14:28:05.658Z</time></trkpt><trkpt lat="42.752828" lon="12.4108871"><ele>180.0</ele><time>2026-03-28T14:28:06.643Z</time></trkpt><trkpt lat="42.7530307" lon="12.4108121"><ele>179.0</ele><time>2026-03-28T14:28:07.663Z</time></trkpt><trkpt lat="42.7532309" lon="12.4107368"><ele>179.0</ele><time>2026-03-28T14:28:08.66Z</time></trkpt><trkpt lat="42.7534217" lon="12.410677"><ele>179.0</ele><time>2026-03-28T14:28:09.66Z</time></trkpt><trkpt lat="42.7536137" lon="12.4106515"><ele>179.0</ele><time>2026-03-28T14:28:10.671Z</time></trkpt><trkpt lat="42.7538027" lon="12.4106809"><ele>178.33333333333331</ele><time>2026-03-28T14:28:11.654Z</time></trkpt><trkpt lat="42.7540068" lon="12.4107484"><ele>177.66666666666666</ele><time>2026-03-28T14:28:12.668Z</time></trkpt><trkpt lat="42.7542283" lon="12.4108448"><ele>177.0</ele><time>2026-03-28T14:28:13.658Z</time></trkpt><trkpt lat="42.7544635" lon="12.4109461"><ele>177.0</ele><time>2026-03-28T14:28:14.667Z</time></trkpt><trkpt lat="42.7547069" lon="12.4110346"><ele>177.0</ele><time>2026-03-28T14:28:15.659Z</time></trkpt><trkpt lat="42.7549524" lon="12.4110992"><ele>177.0</ele><time>2026-03-28T14:28:16.665Z</time></trkpt><trkpt lat="42.7551815" lon="12.4111402"><ele>177.0</ele><time>2026-03-28T14:28:17.66Z</time></trkpt><trkpt lat="42.7553767" lon="12.4111388"><ele>177.0</ele><time>2026-03-28T14:28:18.649Z</time></trkpt><trkpt lat="42.755567" lon="12.4110976"><ele>176.66666666666666</ele><time>2026-03-28T14:28:19.662Z</time></trkpt><trkpt lat="42.7557658" lon="12.4110269"><ele>176.33333333333331</ele><time>2026-03-28T14:28:20.66Z</time></trkpt><trkpt lat="42.7559691" lon="12.4109552"><ele>176.0</ele><time>2026-03-28T14:28:21.671Z</time></trkpt><trkpt lat="42.7561776" lon="12.410897"><ele>174.5</ele><time>2026-03-28T14:28:22.66Z</time></trkpt><trkpt lat="42.7564048" lon="12.4108705"><ele>173.0</ele><time>2026-03-28T14:28:23.661Z</time></trkpt><trkpt lat="42.75665" lon="12.4108487"><ele>172.0</ele><time>2026-03-28T14:28:24.658Z</time></trkpt><trkpt lat="42.7568994" lon="12.4108189"><ele>171.0</ele><time>2026-03-28T14:28:25.658Z</time></trkpt><trkpt lat="42.7571445" lon="12.4107865"><ele>171.0</ele><time>2026-03-28T14:28:26.678Z</time></trkpt><trkpt lat="42.757382" lon="12.4107601"><ele>171.0</ele><time>2026-03-28T14:28:27.645Z</time></trkpt><trkpt lat="42.7576129" lon="12.4107697"><ele>171.0</ele><time>2026-03-28T14:28:28.659Z</time></trkpt><trkpt lat="42.7578552" lon="12.4108171"><ele>171.0</ele><time>2026-03-28T14:28:29.668Z</time></trkpt><trkpt lat="42.7581136" lon="12.4108813"><ele>171.0</ele><time>2026-03-28T14:28:30.65Z</time></trkpt><trkpt lat="42.758383" lon="12.4109276"><ele>171.0</ele><time>2026-03-28T14:28:31.657Z</time></trkpt><trkpt lat="42.758655" lon="12.4109597"><ele>170.5</ele><time>2026-03-28T14:28:32.662Z</time></trkpt><trkpt lat="42.758914" lon="12.4109802"><ele>170.0</ele><time>2026-03-28T14:28:33.664Z</time></trkpt><trkpt lat="42.7591558" lon="12.4110025"><ele>169.66666666666666</ele><time>2026-03-28T14:28:34.657Z</time></trkpt><trkpt lat="42.7593863" lon="12.4110124"><ele>169.33333333333334</ele><time>2026-03-28T14:28:35.653Z</time></trkpt><trkpt lat="42.7596019" lon="12.4110186"><ele>169.0</ele><time>2026-03-28T14:28:36.655Z</time></trkpt><trkpt lat="42.7598083" lon="12.4110212"><ele>169.0</ele><time>2026-03-28T14:28:37.667Z</time></trkpt><trkpt lat="42.7600072" lon="12.4110237"><ele>169.0</ele><time>2026-03-28T14:28:38.662Z</time></trkpt><trkpt lat="42.7601901" lon="12.4110329"><ele>169.0</ele><time>2026-03-28T14:28:39.658Z</time></trkpt><trkpt lat="42.7603586" lon="12.4110586"><ele>169.0</ele><time>2026-03-28T14:28:40.668Z</time></trkpt><trkpt lat="42.7605123" lon="12.4111202"><ele>169.0</ele><time>2026-03-28T14:28:41.645Z</time></trkpt><trkpt lat="42.7606524" lon="12.4112297"><ele>169.0</ele><time>2026-03-28T14:28:42.661Z</time></trkpt><trkpt lat="42.760776" lon="12.4113812"><ele>169.0</ele><time>2026-03-28T14:28:43.662Z</time></trkpt><trkpt lat="42.7608933" lon="12.4115874"><ele>169.0</ele><time>2026-03-28T14:28:44.664Z</time></trkpt><trkpt lat="42.7610032" lon="12.4118423"><ele>169.0</ele><time>2026-03-28T14:28:45.661Z</time></trkpt><trkpt lat="42.7611005" lon="12.4121063"><ele>168.66666666666669</ele><time>2026-03-28T14:28:46.659Z</time></trkpt><trkpt lat="42.7611983" lon="12.4123408"><ele>168.33333333333334</ele><time>2026-03-28T14:28:47.661Z</time></trkpt><trkpt lat="42.7612885" lon="12.4125229"><ele>168.0</ele><time>2026-03-28T14:28:48.676Z</time></trkpt><trkpt lat="42.7613633" lon="12.4126672"><ele>168.0</ele><time>2026-03-28T14:28:49.663Z</time></trkpt><trkpt lat="42.7614259" lon="12.4127966"><ele>168.0</ele><time>2026-03-28T14:28:50.647Z</time></trkpt><trkpt lat="42.7614776" lon="12.4129051"><ele>168.0</ele><time>2026-03-28T14:28:51.644Z</time></trkpt><trkpt lat="42.7615129" lon="12.4129822"><ele>168.0</ele><time>2026-03-28T14:28:52.659Z</time></trkpt><trkpt lat="42.761555" lon="12.4130711"><ele>168.0</ele><time>2026-03-28T14:28:54.662Z</time></trkpt><trkpt lat="42.7616172" lon="12.4131285"><ele>168.0</ele><time>2026-03-28T14:28:56.662Z</time></trkpt><trkpt lat="42.7616977" lon="12.4131298"><ele>167.75</ele><time>2026-03-28T14:28:57.663Z</time></trkpt><trkpt lat="42.7618053" lon="12.4131004"><ele>167.5</ele><time>2026-03-28T14:28:58.656Z</time></trkpt><trkpt lat="42.7619427" lon="12.4130643"><ele>167.25</ele><time>2026-03-28T14:28:59.662Z</time></trkpt><trkpt lat="42.7621049" lon="12.4130267"><ele>167.0</ele><time>2026-03-28T14:29:00.657Z</time></trkpt><trkpt lat="42.7622972" lon="12.413004"><ele>165.0</ele><time>2026-03-28T14:29:01.655Z</time></trkpt><trkpt lat="42.7625256" lon="12.4130046"><ele>163.0</ele><time>2026-03-28T14:29:02.662Z</time></trkpt><trkpt lat="42.7627884" lon="12.4130222"><ele>163.0</ele><time>2026-03-28T14:29:03.658Z</time></trkpt><trkpt lat="42.7630739" lon="12.4130338"><ele>163.0</ele><time>2026-03-28T14:29:04.655Z</time></trkpt><trkpt lat="42.7633456" lon="12.4130324"><ele>162.33333333333334</ele><time>2026-03-28T14:29:05.653Z</time></trkpt><trkpt lat="42.7635807" lon="12.4130346"><ele>161.66666666666666</ele><time>2026-03-28T14:29:06.657Z</time></trkpt><trkpt lat="42.7637897" lon="12.4130309"><ele>161.0</ele><time>2026-03-28T14:29:07.657Z</time></trkpt><trkpt lat="42.7639826" lon="12.4130234"><ele>161.0</ele><time>2026-03-28T14:29:08.67Z</time></trkpt><trkpt lat="42.764158" lon="12.4130201"><ele>161.0</ele><time>2026-03-28T14:29:09.679Z</time></trkpt><trkpt lat="42.764325" lon="12.413032"><ele>161.0</ele><time>2026-03-28T14:29:10.66Z</time></trkpt><trkpt lat="42.7644998" lon="12.4130627"><ele>161.33333333333331</ele><time>2026-03-28T14:29:11.669Z</time></trkpt><trkpt lat="42.7646809" lon="12.4131203"><ele>161.66666666666666</ele><time>2026-03-28T14:29:12.66Z</time></trkpt><trkpt lat="42.7648703" lon="12.4132003"><ele>162.0</ele><time>2026-03-28T14:29:13.667Z</time></trkpt><trkpt lat="42.7650784" lon="12.4133075"><ele>162.0</ele><time>2026-03-28T14:29:14.664Z</time></trkpt><trkpt lat="42.7652748" lon="12.4134121"><ele>162.0</ele><time>2026-03-28T14:29:15.658Z</time></trkpt><trkpt lat="42.7654577" lon="12.4135189"><ele>162.0</ele><time>2026-03-28T14:29:16.67Z</time></trkpt><trkpt lat="42.7656413" lon="12.4136417"><ele>162.0</ele><time>2026-03-28T14:29:17.669Z</time></trkpt><trkpt lat="42.765822" lon="12.4137744"><ele>162.0</ele><time>2026-03-28T14:29:18.659Z</time></trkpt><trkpt lat="42.7659909" lon="12.4139083"><ele>162.0</ele><time>2026-03-28T14:29:19.649Z</time></trkpt><trkpt lat="42.7661516" lon="12.4140486"><ele>162.33333333333334</ele><time>2026-03-28T14:29:20.657Z</time></trkpt><trkpt lat="42.7662999" lon="12.4142068"><ele>162.66666666666669</ele><time>2026-03-28T14:29:21.666Z</time></trkpt><trkpt lat="42.766433" lon="12.4143649"><ele>163.0</ele><time>2026-03-28T14:29:22.661Z</time></trkpt><trkpt lat="42.7665484" lon="12.4145204"><ele>163.5</ele><time>2026-03-28T14:29:23.663Z</time></trkpt><trkpt lat="42.7666614" lon="12.4146583"><ele>164.0</ele><time>2026-03-28T14:29:24.651Z</time></trkpt><trkpt lat="42.7667673" lon="12.4147756"><ele>164.5</ele><time>2026-03-28T14:29:25.663Z</time></trkpt><trkpt lat="42.7668724" lon="12.4148721"><ele>165.0</ele><time>2026-03-28T14:29:26.65Z</time></trkpt><trkpt lat="42.7669537" lon="12.4149527"><ele>165.5</ele><time>2026-03-28T14:29:27.643Z</time></trkpt><trkpt lat="42.7670134" lon="12.4150101"><ele>166.0</ele><time>2026-03-28T14:29:28.658Z</time></trkpt><trkpt lat="42.7670669" lon="12.415084"><ele>166.5</ele><time>2026-03-28T14:29:30.656Z</time></trkpt><trkpt lat="42.7671401" lon="12.4151426"><ele>167.0</ele><time>2026-03-28T14:29:33.66Z</time></trkpt><trkpt lat="42.76723" lon="12.4151284"><ele>167.5</ele><time>2026-03-28T14:29:35.665Z</time></trkpt><trkpt lat="42.7672938" lon="12.4151036"><ele>168.0</ele><time>2026-03-28T14:29:36.665Z</time></trkpt><trkpt lat="42.7673842" lon="12.4150612"><ele>168.0</ele><time>2026-03-28T14:29:37.655Z</time></trkpt><trkpt lat="42.7675004" lon="12.4150133"><ele>168.0</ele><time>2026-03-28T14:29:38.646Z</time></trkpt><trkpt lat="42.7676549" lon="12.41497"><ele>168.0</ele><time>2026-03-28T14:29:39.646Z</time></trkpt><trkpt lat="42.7678503" lon="12.4149068"><ele>168.0</ele><time>2026-03-28T14:29:40.672Z</time></trkpt><trkpt lat="42.7680674" lon="12.4148134"><ele>168.0</ele><time>2026-03-28T14:29:41.656Z</time></trkpt><trkpt lat="42.7683078" lon="12.4146639"><ele>167.0</ele><time>2026-03-28T14:29:42.657Z</time></trkpt><trkpt lat="42.7685741" lon="12.4144782"><ele>166.0</ele><time>2026-03-28T14:29:43.648Z</time></trkpt><trkpt lat="42.7688373" lon="12.4142895"><ele>166.0</ele><time>2026-03-28T14:29:44.665Z</time></trkpt><trkpt lat="42.769105" lon="12.4141133"><ele>166.0</ele><time>2026-03-28T14:29:45.649Z</time></trkpt><trkpt lat="42.7693669" lon="12.4139358"><ele>173.5</ele><time>2026-03-28T14:29:46.66Z</time></trkpt><trkpt lat="42.7696179" lon="12.4137501"><ele>181.0</ele><time>2026-03-28T14:29:47.651Z</time></trkpt><trkpt lat="42.7698686" lon="12.4135616"><ele>181.0</ele><time>2026-03-28T14:29:48.656Z</time></trkpt><trkpt lat="42.7701274" lon="12.4133805"><ele>181.0</ele><time>2026-03-28T14:29:49.645Z</time></trkpt><trkpt lat="42.7703849" lon="12.4132022"><ele>188.0</ele><time>2026-03-28T14:29:50.656Z</time></trkpt><trkpt lat="42.7706395" lon="12.4130223"><ele>195.0</ele><time>2026-03-28T14:29:51.658Z</time></trkpt><trkpt lat="42.7708938" lon="12.4128412"><ele>201.0</ele><time>2026-03-28T14:29:52.649Z</time></trkpt><trkpt lat="42.7711473" lon="12.4126598"><ele>207.0</ele><time>2026-03-28T14:29:53.663Z</time></trkpt><trkpt lat="42.7713927" lon="12.412481"><ele>207.0</ele><time>2026-03-28T14:29:54.652Z</time></trkpt><trkpt lat="42.7716341" lon="12.4123113"><ele>207.0</ele><time>2026-03-28T14:29:55.67Z</time></trkpt><trkpt lat="42.7718779" lon="12.412152"><ele>214.0</ele><time>2026-03-28T14:29:56.655Z</time></trkpt><trkpt lat="42.7721201" lon="12.4119949"><ele>221.0</ele><time>2026-03-28T14:29:57.658Z</time></trkpt><trkpt lat="42.7723478" lon="12.4118459"><ele>221.0</ele><time>2026-03-28T14:29:58.652Z</time></trkpt><trkpt lat="42.7725657" lon="12.4116967"><ele>221.0</ele><time>2026-03-28T14:29:59.664Z</time></trkpt><trkpt lat="42.7727692" lon="12.4115546"><ele>228.5</ele><time>2026-03-28T14:30:00.652Z</time></trkpt><trkpt lat="42.7729673" lon="12.4114123"><ele>236.0</ele><time>2026-03-28T14:30:01.654Z</time></trkpt><trkpt lat="42.77317" lon="12.4112642"><ele>237.5</ele><time>2026-03-28T14:30:02.664Z</time></trkpt><trkpt lat="42.7733861" lon="12.4111081"><ele>239.0</ele><time>2026-03-28T14:30:03.66Z</time></trkpt><trkpt lat="42.7736195" lon="12.4109443"><ele>245.5</ele><time>2026-03-28T14:30:04.667Z</time></trkpt><trkpt lat="42.7738662" lon="12.4107897"><ele>252.0</ele><time>2026-03-28T14:30:05.653Z</time></trkpt><trkpt lat="42.7741191" lon="12.4106296"><ele>260.0</ele><time>2026-03-28T14:30:06.653Z</time></trkpt><trkpt lat="42.7743773" lon="12.4104613"><ele>268.0</ele><time>2026-03-28T14:30:07.666Z</time></trkpt><trkpt lat="42.7746379" lon="12.4102884"><ele>268.0</ele><time>2026-03-28T14:30:08.666Z</time></trkpt><trkpt lat="42.7748853" lon="12.4101273"><ele>268.0</ele><time>2026-03-28T14:30:09.66Z</time></trkpt><trkpt lat="42.7751139" lon="12.4099567"><ele>276.0</ele><time>2026-03-28T14:30:10.663Z</time></trkpt><trkpt lat="42.7753349" lon="12.4097827"><ele>284.0</ele><time>2026-03-28T14:30:11.65Z</time></trkpt><trkpt lat="42.7755595" lon="12.4096088"><ele>284.0</ele><time>2026-03-28T14:30:12.658Z</time></trkpt><trkpt lat="42.7757896" lon="12.4094343"><ele>284.0</ele><time>2026-03-28T14:30:13.65Z</time></trkpt><trkpt lat="42.776023" lon="12.4092662"><ele>292.0</ele><time>2026-03-28T14:30:14.658Z</time></trkpt><trkpt lat="42.7762483" lon="12.4091229"><ele>300.0</ele><time>2026-03-28T14:30:15.657Z</time></trkpt><trkpt lat="42.7764486" lon="12.4090003"><ele>300.0</ele><time>2026-03-28T14:30:16.658Z</time></trkpt><trkpt lat="42.7766203" lon="12.4088933"><ele>300.0</ele><time>2026-03-28T14:30:17.667Z</time></trkpt><trkpt lat="42.7767434" lon="12.4088068"><ele>300.0</ele><time>2026-03-28T14:30:18.644Z</time></trkpt><trkpt lat="42.7768387" lon="12.4087364"><ele>300.0</ele><time>2026-03-28T14:30:19.651Z</time></trkpt><trkpt lat="42.7769092" lon="12.4086885"><ele>302.2</ele><time>2026-03-28T14:30:20.649Z</time></trkpt><trkpt lat="42.7769864" lon="12.4087045"><ele>304.4</ele><time>2026-03-28T14:30:22.657Z</time></trkpt><trkpt lat="42.7770485" lon="12.4089064"><ele>306.6</ele><time>2026-03-28T14:30:24.65Z</time></trkpt><trkpt lat="42.7770871" lon="12.4090174"><ele>308.8</ele><time>2026-03-28T14:30:25.66Z</time></trkpt><trkpt lat="42.7770823" lon="12.4091457"><ele>311.0</ele><time>2026-03-28T14:30:27.646Z</time></trkpt><trkpt lat="42.7769965" lon="12.4091986"><ele>311.0</ele><time>2026-03-28T14:30:29.652Z</time></trkpt><trkpt lat="42.7769281" lon="12.4092327"><ele>311.0</ele><time>2026-03-28T14:30:30.639Z</time></trkpt><trkpt lat="42.7768708" lon="12.4092831"><ele>311.0</ele><time>2026-03-28T14:30:31.656Z</time></trkpt><trkpt lat="42.7768123" lon="12.4093486"><ele>311.0</ele><time>2026-03-28T14:30:32.642Z</time></trkpt><trkpt lat="42.7767526" lon="12.4094201"><ele>311.0</ele><time>2026-03-28T14:30:33.664Z</time></trkpt><trkpt lat="42.7766949" lon="12.4094909"><ele>311.0</ele><time>2026-03-28T14:30:34.653Z</time></trkpt><trkpt lat="42.7766465" lon="12.4095598"><ele>311.0</ele><time>2026-03-28T14:30:35.655Z</time></trkpt><trkpt lat="42.7766221" lon="12.4096404"><ele>310.6666666666667</ele><time>2026-03-28T14:30:36.657Z</time></trkpt><trkpt lat="42.7766321" lon="12.4097485"><ele>310.33333333333337</ele><time>2026-03-28T14:30:37.667Z</time></trkpt><trkpt lat="42.7766768" lon="12.4098708"><ele>310.0</ele><time>2026-03-28T14:30:38.652Z</time></trkpt><trkpt lat="42.7767402" lon="12.4099697"><ele>309.6666666666667</ele><time>2026-03-28T14:30:39.654Z</time></trkpt><trkpt lat="42.776807" lon="12.4100445"><ele>309.3333333333333</ele><time>2026-03-28T14:30:40.652Z</time></trkpt><trkpt lat="42.7768697" lon="12.4101085"><ele>309.0</ele><time>2026-03-28T14:30:41.67Z</time></trkpt><trkpt lat="42.7769216" lon="12.4101805"><ele>309.0</ele><time>2026-03-28T14:30:42.657Z</time></trkpt><trkpt lat="42.77692" lon="12.4103194"><ele>309.0</ele><time>2026-03-28T14:30:44.656Z</time></trkpt><trkpt lat="42.7768236" lon="12.4104356"><ele>309.0</ele><time>2026-03-28T14:30:46.655Z</time></trkpt><trkpt lat="42.7767637" lon="12.4104855"><ele>309.0</ele><time>2026-03-28T14:30:47.645Z</time></trkpt><trkpt lat="42.7767514" lon="12.4106258"><ele>309.0</ele><time>2026-03-28T14:30:49.654Z</time></trkpt><trkpt lat="42.7768055" lon="12.4106976"><ele>307.59999999999997</ele><time>2026-03-28T14:30:50.649Z</time></trkpt><trkpt lat="42.7768716" lon="12.4107776"><ele>306.2</ele><time>2026-03-28T14:30:51.658Z</time></trkpt><trkpt lat="42.7769434" lon="12.4108584"><ele>304.79999999999995</ele><time>2026-03-28T14:30:52.653Z</time></trkpt><trkpt lat="42.7770228" lon="12.4109471"><ele>303.4</ele><time>2026-03-28T14:30:53.653Z</time></trkpt><trkpt lat="42.7771013" lon="12.411042"><ele>302.0</ele><time>2026-03-28T14:30:54.667Z</time></trkpt><trkpt lat="42.7771814" lon="12.4111274"><ele>302.0</ele><time>2026-03-28T14:30:55.663Z</time></trkpt><trkpt lat="42.7772681" lon="12.4111842"><ele>302.0</ele><time>2026-03-28T14:30:56.655Z</time></trkpt><trkpt lat="42.7773674" lon="12.411183"><ele>302.0</ele><time>2026-03-28T14:30:57.657Z</time></trkpt><trkpt lat="42.7774469" lon="12.4111789"><ele>302.0</ele><time>2026-03-28T14:30:58.662Z</time></trkpt><trkpt lat="42.7774924" lon="12.4112549"><ele>302.0</ele><time>2026-03-28T14:31:00.671Z</time></trkpt><trkpt lat="42.7774667" lon="12.4113857"><ele>302.0</ele><time>2026-03-28T14:31:02.648Z</time></trkpt><trkpt lat="42.7774442" lon="12.4115009"><ele>300.0</ele><time>2026-03-28T14:31:04.665Z</time></trkpt><trkpt lat="42.7773653" lon="12.4115662"><ele>300.0</ele><time>2026-03-28T14:31:07.643Z</time></trkpt><trkpt lat="42.7772917" lon="12.4115671"><ele>300.0</ele><time>2026-03-28T14:31:10.663Z</time></trkpt></trkseg></trk></gpx>